<?xml version="1.0" encoding="UTF-8" standalone="no" ?>
<gpx xmlns="http://www.topografix.com/GPX/1/1" xmlns:xsi="http://www.w3.org/2001/XMLSchema-instance" xsi:schemaLocation="http://www.topografix.com/GPX/1/1 http://www.topografix.com/GPX/1/1/gpx.xsd" version="1.1" creator="VisuGPX - https://www.visugpx.com">
  <metadata>
    <name>la marche sur saone</name>
    <desc><![CDATA[les mailly la marche pointre rainans]]></desc>
  </metadata>
  <wpt lat="47.08907" lon="5.48427">
    <ele>270</ele>
  </wpt>
  <trk>
    <name><![CDATA[la marche sur saone_1]]></name>
    <trkseg>
      <trkpt lat="47.08907" lon="5.48427">
        <ele>270</ele>
        <time>2012-10-16T11:16:27Z</time>
      </trkpt>
      <trkpt lat="47.08899" lon="5.48416">
        <ele>263</ele>
        <time>2012-10-16T11:16:29Z</time>
      </trkpt>
      <trkpt lat="47.08892" lon="5.48405">
        <ele>263</ele>
        <time>2012-10-16T11:16:31Z</time>
      </trkpt>
      <trkpt lat="47.08884" lon="5.48395">
        <ele>256</ele>
        <time>2012-10-16T11:16:33Z</time>
      </trkpt>
      <trkpt lat="47.08876" lon="5.48384">
        <ele>256</ele>
        <time>2012-10-16T11:16:35Z</time>
      </trkpt>
      <trkpt lat="47.08868" lon="5.48373">
        <ele>251</ele>
        <time>2012-10-16T11:16:37Z</time>
      </trkpt>
      <trkpt lat="47.08861" lon="5.48361">
        <ele>251</ele>
        <time>2012-10-16T11:16:39Z</time>
      </trkpt>
      <trkpt lat="47.08853" lon="5.4835">
        <ele>251</ele>
        <time>2012-10-16T11:16:41Z</time>
      </trkpt>
      <trkpt lat="47.08846" lon="5.48339">
        <ele>246</ele>
        <time>2012-10-16T11:16:43Z</time>
      </trkpt>
      <trkpt lat="47.08839" lon="5.48327">
        <ele>246</ele>
        <time>2012-10-16T11:16:45Z</time>
      </trkpt>
      <trkpt lat="47.08834" lon="5.48315">
        <ele>246</ele>
        <time>2012-10-16T11:16:47Z</time>
      </trkpt>
      <trkpt lat="47.08826" lon="5.48301">
        <ele>246</ele>
        <time>2012-10-16T11:16:50Z</time>
      </trkpt>
      <trkpt lat="47.08818" lon="5.48286">
        <ele>246</ele>
        <time>2012-10-16T11:16:53Z</time>
      </trkpt>
      <trkpt lat="47.08811" lon="5.48274">
        <ele>246</ele>
        <time>2012-10-16T11:16:55Z</time>
      </trkpt>
      <trkpt lat="47.08803" lon="5.48263">
        <ele>246</ele>
        <time>2012-10-16T11:16:57Z</time>
      </trkpt>
      <trkpt lat="47.08795" lon="5.48254">
        <ele>239</ele>
        <time>2012-10-16T11:16:59Z</time>
      </trkpt>
      <trkpt lat="47.08785" lon="5.48256">
        <ele>239</ele>
        <time>2012-10-16T11:17:01Z</time>
      </trkpt>
      <trkpt lat="47.08775" lon="5.48267">
        <ele>239</ele>
        <time>2012-10-16T11:17:03Z</time>
      </trkpt>
      <trkpt lat="47.08765" lon="5.4828">
        <ele>239</ele>
        <time>2012-10-16T11:17:05Z</time>
      </trkpt>
      <trkpt lat="47.08754" lon="5.48294">
        <ele>239</ele>
        <time>2012-10-16T11:17:07Z</time>
      </trkpt>
      <trkpt lat="47.08743" lon="5.48309">
        <ele>239</ele>
        <time>2012-10-16T11:17:09Z</time>
      </trkpt>
      <trkpt lat="47.0873" lon="5.48325">
        <ele>239</ele>
        <time>2012-10-16T11:17:11Z</time>
      </trkpt>
      <trkpt lat="47.08718" lon="5.48342">
        <ele>239</ele>
        <time>2012-10-16T11:17:13Z</time>
      </trkpt>
      <trkpt lat="47.08705" lon="5.48357">
        <ele>239</ele>
        <time>2012-10-16T11:17:15Z</time>
      </trkpt>
      <trkpt lat="47.08693" lon="5.48371">
        <ele>239</ele>
        <time>2012-10-16T11:17:17Z</time>
      </trkpt>
      <trkpt lat="47.08682" lon="5.48383">
        <ele>233</ele>
        <time>2012-10-16T11:17:19Z</time>
      </trkpt>
      <trkpt lat="47.08673" lon="5.48393">
        <ele>233</ele>
        <time>2012-10-16T11:17:21Z</time>
      </trkpt>
      <trkpt lat="47.08666" lon="5.48404">
        <ele>233</ele>
        <time>2012-10-16T11:17:25Z</time>
      </trkpt>
      <trkpt lat="47.08667" lon="5.48418">
        <ele>233</ele>
        <time>2012-10-16T11:17:28Z</time>
      </trkpt>
      <trkpt lat="47.08668" lon="5.48437">
        <ele>233</ele>
        <time>2012-10-16T11:17:31Z</time>
      </trkpt>
      <trkpt lat="47.08665" lon="5.48452">
        <ele>233</ele>
        <time>2012-10-16T11:17:33Z</time>
      </trkpt>
      <trkpt lat="47.0866" lon="5.48471">
        <ele>233</ele>
        <time>2012-10-16T11:17:35Z</time>
      </trkpt>
      <trkpt lat="47.08655" lon="5.48492">
        <ele>227</ele>
        <time>2012-10-16T11:17:37Z</time>
      </trkpt>
      <trkpt lat="47.08649" lon="5.48517">
        <ele>227</ele>
        <time>2012-10-16T11:17:39Z</time>
      </trkpt>
      <trkpt lat="47.08641" lon="5.4854">
        <ele>227</ele>
        <time>2012-10-16T11:17:41Z</time>
      </trkpt>
      <trkpt lat="47.08629" lon="5.48557">
        <ele>221</ele>
        <time>2012-10-16T11:17:43Z</time>
      </trkpt>
      <trkpt lat="47.08621" lon="5.48563">
        <ele>221</ele>
        <time>2012-10-16T11:17:44Z</time>
      </trkpt>
      <trkpt lat="47.08612" lon="5.48568">
        <ele>221</ele>
        <time>2012-10-16T11:17:45Z</time>
      </trkpt>
      <trkpt lat="47.08603" lon="5.48572">
        <ele>221</ele>
        <time>2012-10-16T11:17:46Z</time>
      </trkpt>
      <trkpt lat="47.08587" lon="5.48576">
        <ele>221</ele>
        <time>2012-10-16T11:17:48Z</time>
      </trkpt>
      <trkpt lat="47.08572" lon="5.48581">
        <ele>221</ele>
        <time>2012-10-16T11:17:50Z</time>
      </trkpt>
      <trkpt lat="47.08557" lon="5.4859">
        <ele>216</ele>
        <time>2012-10-16T11:17:52Z</time>
      </trkpt>
      <trkpt lat="47.08544" lon="5.486">
        <ele>216</ele>
        <time>2012-10-16T11:17:54Z</time>
      </trkpt>
      <trkpt lat="47.08535" lon="5.4861">
        <ele>216</ele>
        <time>2012-10-16T11:17:56Z</time>
      </trkpt>
      <trkpt lat="47.08526" lon="5.48616">
        <ele>216</ele>
        <time>2012-10-16T11:17:58Z</time>
      </trkpt>
      <trkpt lat="47.08522" lon="5.48628">
        <ele>216</ele>
        <time>2012-10-16T11:18:01Z</time>
      </trkpt>
      <trkpt lat="47.08529" lon="5.48644">
        <ele>206</ele>
        <time>2012-10-16T11:18:04Z</time>
      </trkpt>
      <trkpt lat="47.08536" lon="5.48657">
        <ele>206</ele>
        <time>2012-10-16T11:18:06Z</time>
      </trkpt>
      <trkpt lat="47.08545" lon="5.4867">
        <ele>206</ele>
        <time>2012-10-16T11:18:08Z</time>
      </trkpt>
      <trkpt lat="47.08554" lon="5.48685">
        <ele>206</ele>
        <time>2012-10-16T11:18:10Z</time>
      </trkpt>
      <trkpt lat="47.08562" lon="5.48699">
        <ele>206</ele>
        <time>2012-10-16T11:18:12Z</time>
      </trkpt>
      <trkpt lat="47.08571" lon="5.48713">
        <ele>206</ele>
        <time>2012-10-16T11:18:14Z</time>
      </trkpt>
      <trkpt lat="47.08579" lon="5.48728">
        <ele>206</ele>
        <time>2012-10-16T11:18:16Z</time>
      </trkpt>
      <trkpt lat="47.08586" lon="5.48743">
        <ele>206</ele>
        <time>2012-10-16T11:18:18Z</time>
      </trkpt>
      <trkpt lat="47.08594" lon="5.48758">
        <ele>206</ele>
        <time>2012-10-16T11:18:20Z</time>
      </trkpt>
      <trkpt lat="47.08601" lon="5.48773">
        <ele>206</ele>
        <time>2012-10-16T11:18:22Z</time>
      </trkpt>
      <trkpt lat="47.08608" lon="5.48787">
        <ele>206</ele>
        <time>2012-10-16T11:18:24Z</time>
      </trkpt>
      <trkpt lat="47.08615" lon="5.48802">
        <ele>206</ele>
        <time>2012-10-16T11:18:26Z</time>
      </trkpt>
      <trkpt lat="47.08621" lon="5.48818">
        <ele>206</ele>
        <time>2012-10-16T11:18:28Z</time>
      </trkpt>
      <trkpt lat="47.08628" lon="5.48831">
        <ele>206</ele>
        <time>2012-10-16T11:18:30Z</time>
      </trkpt>
      <trkpt lat="47.08635" lon="5.48846">
        <ele>211</ele>
        <time>2012-10-16T11:18:32Z</time>
      </trkpt>
      <trkpt lat="47.08641" lon="5.4886">
        <ele>211</ele>
        <time>2012-10-16T11:18:34Z</time>
      </trkpt>
      <trkpt lat="47.08648" lon="5.48875">
        <ele>211</ele>
        <time>2012-10-16T11:18:36Z</time>
      </trkpt>
      <trkpt lat="47.08654" lon="5.4889">
        <ele>211</ele>
        <time>2012-10-16T11:18:38Z</time>
      </trkpt>
      <trkpt lat="47.08668" lon="5.48921">
        <ele>211</ele>
        <time>2012-10-16T11:18:40Z</time>
      </trkpt>
      <trkpt lat="47.08675" lon="5.48936">
        <ele>211</ele>
        <time>2012-10-16T11:18:42Z</time>
      </trkpt>
      <trkpt lat="47.08681" lon="5.48952">
        <ele>211</ele>
        <time>2012-10-16T11:18:44Z</time>
      </trkpt>
      <trkpt lat="47.0869" lon="5.48969">
        <ele>211</ele>
        <time>2012-10-16T11:18:46Z</time>
      </trkpt>
      <trkpt lat="47.08699" lon="5.48985">
        <ele>211</ele>
        <time>2012-10-16T11:18:48Z</time>
      </trkpt>
      <trkpt lat="47.08707" lon="5.49">
        <ele>211</ele>
        <time>2012-10-16T11:18:50Z</time>
      </trkpt>
      <trkpt lat="47.08714" lon="5.49015">
        <ele>205</ele>
        <time>2012-10-16T11:18:52Z</time>
      </trkpt>
      <trkpt lat="47.08721" lon="5.49031">
        <ele>205</ele>
        <time>2012-10-16T11:18:54Z</time>
      </trkpt>
      <trkpt lat="47.08728" lon="5.49048">
        <ele>205</ele>
        <time>2012-10-16T11:18:56Z</time>
      </trkpt>
      <trkpt lat="47.08734" lon="5.49063">
        <ele>205</ele>
        <time>2012-10-16T11:18:58Z</time>
      </trkpt>
      <trkpt lat="47.0874" lon="5.49077">
        <ele>205</ele>
        <time>2012-10-16T11:19:00Z</time>
      </trkpt>
      <trkpt lat="47.08746" lon="5.49093">
        <ele>205</ele>
        <time>2012-10-16T11:19:02Z</time>
      </trkpt>
      <trkpt lat="47.08754" lon="5.49106">
        <ele>205</ele>
        <time>2012-10-16T11:19:04Z</time>
      </trkpt>
      <trkpt lat="47.08764" lon="5.49118">
        <ele>205</ele>
        <time>2012-10-16T11:19:06Z</time>
      </trkpt>
      <trkpt lat="47.08775" lon="5.49129">
        <ele>205</ele>
        <time>2012-10-16T11:19:08Z</time>
      </trkpt>
      <trkpt lat="47.08787" lon="5.49138">
        <ele>205</ele>
        <time>2012-10-16T11:19:10Z</time>
      </trkpt>
      <trkpt lat="47.08797" lon="5.49147">
        <ele>205</ele>
        <time>2012-10-16T11:19:12Z</time>
      </trkpt>
      <trkpt lat="47.08807" lon="5.49155">
        <ele>205</ele>
        <time>2012-10-16T11:19:14Z</time>
      </trkpt>
      <trkpt lat="47.08818" lon="5.49162">
        <ele>205</ele>
        <time>2012-10-16T11:19:16Z</time>
      </trkpt>
      <trkpt lat="47.08829" lon="5.49168">
        <ele>205</ele>
        <time>2012-10-16T11:19:18Z</time>
      </trkpt>
      <trkpt lat="47.0884" lon="5.49174">
        <ele>205</ele>
        <time>2012-10-16T11:19:20Z</time>
      </trkpt>
      <trkpt lat="47.08851" lon="5.4918">
        <ele>215</ele>
        <time>2012-10-16T11:19:22Z</time>
      </trkpt>
      <trkpt lat="47.08861" lon="5.49187">
        <ele>215</ele>
        <time>2012-10-16T11:19:24Z</time>
      </trkpt>
      <trkpt lat="47.08868" lon="5.49199">
        <ele>215</ele>
        <time>2012-10-16T11:19:26Z</time>
      </trkpt>
      <trkpt lat="47.08875" lon="5.49212">
        <ele>215</ele>
        <time>2012-10-16T11:19:28Z</time>
      </trkpt>
      <trkpt lat="47.08882" lon="5.49226">
        <ele>215</ele>
        <time>2012-10-16T11:19:30Z</time>
      </trkpt>
      <trkpt lat="47.08889" lon="5.4924">
        <ele>215</ele>
        <time>2012-10-16T11:19:32Z</time>
      </trkpt>
      <trkpt lat="47.08893" lon="5.49255">
        <ele>215</ele>
        <time>2012-10-16T11:19:34Z</time>
      </trkpt>
      <trkpt lat="47.08891" lon="5.49268">
        <ele>215</ele>
        <time>2012-10-16T11:19:36Z</time>
      </trkpt>
      <trkpt lat="47.0888" lon="5.49278">
        <ele>215</ele>
        <time>2012-10-16T11:19:39Z</time>
      </trkpt>
      <trkpt lat="47.08879" lon="5.49295">
        <ele>215</ele>
        <time>2012-10-16T11:19:42Z</time>
      </trkpt>
      <trkpt lat="47.08884" lon="5.49311">
        <ele>215</ele>
        <time>2012-10-16T11:19:44Z</time>
      </trkpt>
      <trkpt lat="47.08889" lon="5.49329">
        <ele>215</ele>
        <time>2012-10-16T11:19:46Z</time>
      </trkpt>
      <trkpt lat="47.08893" lon="5.49347">
        <ele>215</ele>
        <time>2012-10-16T11:19:48Z</time>
      </trkpt>
      <trkpt lat="47.08897" lon="5.49365">
        <ele>215</ele>
        <time>2012-10-16T11:19:50Z</time>
      </trkpt>
      <trkpt lat="47.08902" lon="5.49383">
        <ele>209</ele>
        <time>2012-10-16T11:19:52Z</time>
      </trkpt>
      <trkpt lat="47.08905" lon="5.49395">
        <ele>209</ele>
        <time>2012-10-16T11:19:54Z</time>
      </trkpt>
      <trkpt lat="47.08908" lon="5.49411">
        <ele>209</ele>
        <time>2012-10-16T11:19:57Z</time>
      </trkpt>
      <trkpt lat="47.08904" lon="5.49425">
        <ele>209</ele>
        <time>2012-10-16T11:20:00Z</time>
      </trkpt>
      <trkpt lat="47.08893" lon="5.49432">
        <ele>209</ele>
        <time>2012-10-16T11:20:03Z</time>
      </trkpt>
      <trkpt lat="47.08885" lon="5.49438">
        <ele>209</ele>
        <time>2012-10-16T11:20:05Z</time>
      </trkpt>
      <trkpt lat="47.08876" lon="5.49446">
        <ele>209</ele>
        <time>2012-10-16T11:20:07Z</time>
      </trkpt>
      <trkpt lat="47.08867" lon="5.49452">
        <ele>209</ele>
        <time>2012-10-16T11:20:09Z</time>
      </trkpt>
      <trkpt lat="47.08857" lon="5.49458">
        <ele>209</ele>
        <time>2012-10-16T11:20:11Z</time>
      </trkpt>
      <trkpt lat="47.08847" lon="5.49464">
        <ele>209</ele>
        <time>2012-10-16T11:20:13Z</time>
      </trkpt>
      <trkpt lat="47.08837" lon="5.49471">
        <ele>209</ele>
        <time>2012-10-16T11:20:15Z</time>
      </trkpt>
      <trkpt lat="47.08827" lon="5.49477">
        <ele>209</ele>
        <time>2012-10-16T11:20:17Z</time>
      </trkpt>
      <trkpt lat="47.08817" lon="5.49483">
        <ele>209</ele>
        <time>2012-10-16T11:20:19Z</time>
      </trkpt>
      <trkpt lat="47.08807" lon="5.49491">
        <ele>209</ele>
        <time>2012-10-16T11:20:21Z</time>
      </trkpt>
      <trkpt lat="47.08795" lon="5.49497">
        <ele>209</ele>
        <time>2012-10-16T11:20:23Z</time>
      </trkpt>
      <trkpt lat="47.08785" lon="5.49504">
        <ele>209</ele>
        <time>2012-10-16T11:20:25Z</time>
      </trkpt>
      <trkpt lat="47.08774" lon="5.49512">
        <ele>209</ele>
        <time>2012-10-16T11:20:27Z</time>
      </trkpt>
      <trkpt lat="47.08762" lon="5.49519">
        <ele>209</ele>
        <time>2012-10-16T11:20:29Z</time>
      </trkpt>
      <trkpt lat="47.08751" lon="5.49526">
        <ele>209</ele>
        <time>2012-10-16T11:20:31Z</time>
      </trkpt>
      <trkpt lat="47.08739" lon="5.49527">
        <ele>209</ele>
        <time>2012-10-16T11:20:33Z</time>
      </trkpt>
      <trkpt lat="47.08727" lon="5.49522">
        <ele>209</ele>
        <time>2012-10-16T11:20:35Z</time>
      </trkpt>
      <trkpt lat="47.08718" lon="5.49508">
        <ele>209</ele>
        <time>2012-10-16T11:20:37Z</time>
      </trkpt>
      <trkpt lat="47.08713" lon="5.49489">
        <ele>209</ele>
        <time>2012-10-16T11:20:39Z</time>
      </trkpt>
      <trkpt lat="47.08713" lon="5.49466">
        <ele>209</ele>
        <time>2012-10-16T11:20:41Z</time>
      </trkpt>
      <trkpt lat="47.08714" lon="5.49444">
        <ele>209</ele>
        <time>2012-10-16T11:20:43Z</time>
      </trkpt>
      <trkpt lat="47.08711" lon="5.49423">
        <ele>209</ele>
        <time>2012-10-16T11:20:45Z</time>
      </trkpt>
      <trkpt lat="47.08706" lon="5.49404">
        <ele>209</ele>
        <time>2012-10-16T11:20:47Z</time>
      </trkpt>
      <trkpt lat="47.08699" lon="5.49387">
        <ele>201</ele>
        <time>2012-10-16T11:20:49Z</time>
      </trkpt>
      <trkpt lat="47.08694" lon="5.4937">
        <ele>201</ele>
        <time>2012-10-16T11:20:51Z</time>
      </trkpt>
      <trkpt lat="47.08688" lon="5.49354">
        <ele>201</ele>
        <time>2012-10-16T11:20:53Z</time>
      </trkpt>
      <trkpt lat="47.08683" lon="5.49336">
        <ele>212</ele>
        <time>2012-10-16T11:20:55Z</time>
      </trkpt>
      <trkpt lat="47.08679" lon="5.49319">
        <ele>212</ele>
        <time>2012-10-16T11:20:57Z</time>
      </trkpt>
      <trkpt lat="47.08675" lon="5.493">
        <ele>212</ele>
        <time>2012-10-16T11:20:59Z</time>
      </trkpt>
      <trkpt lat="47.0867" lon="5.49282">
        <ele>212</ele>
        <time>2012-10-16T11:21:01Z</time>
      </trkpt>
      <trkpt lat="47.08666" lon="5.49265">
        <ele>212</ele>
        <time>2012-10-16T11:21:03Z</time>
      </trkpt>
      <trkpt lat="47.08659" lon="5.49251">
        <ele>212</ele>
        <time>2012-10-16T11:21:05Z</time>
      </trkpt>
      <trkpt lat="47.08655" lon="5.49234">
        <ele>212</ele>
        <time>2012-10-16T11:21:07Z</time>
      </trkpt>
      <trkpt lat="47.0865" lon="5.49219">
        <ele>212</ele>
        <time>2012-10-16T11:21:09Z</time>
      </trkpt>
      <trkpt lat="47.08643" lon="5.49206">
        <ele>212</ele>
        <time>2012-10-16T11:21:11Z</time>
      </trkpt>
      <trkpt lat="47.08637" lon="5.49191">
        <ele>212</ele>
        <time>2012-10-16T11:21:13Z</time>
      </trkpt>
      <trkpt lat="47.0863" lon="5.49178">
        <ele>212</ele>
        <time>2012-10-16T11:21:15Z</time>
      </trkpt>
      <trkpt lat="47.08622" lon="5.49165">
        <ele>212</ele>
        <time>2012-10-16T11:21:17Z</time>
      </trkpt>
      <trkpt lat="47.08614" lon="5.49154">
        <ele>212</ele>
        <time>2012-10-16T11:21:19Z</time>
      </trkpt>
      <trkpt lat="47.08606" lon="5.49144">
        <ele>205</ele>
        <time>2012-10-16T11:21:21Z</time>
      </trkpt>
      <trkpt lat="47.08597" lon="5.49134">
        <ele>205</ele>
        <time>2012-10-16T11:21:23Z</time>
      </trkpt>
      <trkpt lat="47.08588" lon="5.49126">
        <ele>205</ele>
        <time>2012-10-16T11:21:25Z</time>
      </trkpt>
      <trkpt lat="47.08579" lon="5.49117">
        <ele>205</ele>
        <time>2012-10-16T11:21:27Z</time>
      </trkpt>
      <trkpt lat="47.08571" lon="5.49108">
        <ele>205</ele>
        <time>2012-10-16T11:21:29Z</time>
      </trkpt>
      <trkpt lat="47.08562" lon="5.491">
        <ele>205</ele>
        <time>2012-10-16T11:21:31Z</time>
      </trkpt>
      <trkpt lat="47.08554" lon="5.49092">
        <ele>205</ele>
        <time>2012-10-16T11:21:33Z</time>
      </trkpt>
      <trkpt lat="47.08545" lon="5.49082">
        <ele>205</ele>
        <time>2012-10-16T11:21:35Z</time>
      </trkpt>
      <trkpt lat="47.08537" lon="5.4907">
        <ele>205</ele>
        <time>2012-10-16T11:21:37Z</time>
      </trkpt>
      <trkpt lat="47.08529" lon="5.49058">
        <ele>205</ele>
        <time>2012-10-16T11:21:39Z</time>
      </trkpt>
      <trkpt lat="47.08522" lon="5.49046">
        <ele>205</ele>
        <time>2012-10-16T11:21:41Z</time>
      </trkpt>
      <trkpt lat="47.08514" lon="5.49034">
        <ele>205</ele>
        <time>2012-10-16T11:21:43Z</time>
      </trkpt>
      <trkpt lat="47.08505" lon="5.49022">
        <ele>205</ele>
        <time>2012-10-16T11:21:45Z</time>
      </trkpt>
      <trkpt lat="47.08497" lon="5.49009">
        <ele>205</ele>
        <time>2012-10-16T11:21:47Z</time>
      </trkpt>
      <trkpt lat="47.08489" lon="5.48996">
        <ele>205</ele>
        <time>2012-10-16T11:21:49Z</time>
      </trkpt>
      <trkpt lat="47.08483" lon="5.48984">
        <ele>205</ele>
        <time>2012-10-16T11:21:51Z</time>
      </trkpt>
      <trkpt lat="47.08476" lon="5.48972">
        <ele>205</ele>
        <time>2012-10-16T11:21:53Z</time>
      </trkpt>
      <trkpt lat="47.08469" lon="5.48961">
        <ele>205</ele>
        <time>2012-10-16T11:21:55Z</time>
      </trkpt>
      <trkpt lat="47.08462" lon="5.4895">
        <ele>205</ele>
        <time>2012-10-16T11:21:57Z</time>
      </trkpt>
      <trkpt lat="47.08454" lon="5.48938">
        <ele>205</ele>
        <time>2012-10-16T11:21:59Z</time>
      </trkpt>
      <trkpt lat="47.08447" lon="5.48927">
        <ele>205</ele>
        <time>2012-10-16T11:22:01Z</time>
      </trkpt>
      <trkpt lat="47.08439" lon="5.48917">
        <ele>205</ele>
        <time>2012-10-16T11:22:03Z</time>
      </trkpt>
      <trkpt lat="47.08431" lon="5.48906">
        <ele>210</ele>
        <time>2012-10-16T11:22:05Z</time>
      </trkpt>
      <trkpt lat="47.08424" lon="5.48894">
        <ele>210</ele>
        <time>2012-10-16T11:22:07Z</time>
      </trkpt>
      <trkpt lat="47.08417" lon="5.48883">
        <ele>210</ele>
        <time>2012-10-16T11:22:09Z</time>
      </trkpt>
      <trkpt lat="47.0841" lon="5.48872">
        <ele>210</ele>
        <time>2012-10-16T11:22:11Z</time>
      </trkpt>
      <trkpt lat="47.08406" lon="5.48858">
        <ele>210</ele>
        <time>2012-10-16T11:22:13Z</time>
      </trkpt>
      <trkpt lat="47.08402" lon="5.48844">
        <ele>210</ele>
        <time>2012-10-16T11:22:15Z</time>
      </trkpt>
      <trkpt lat="47.08394" lon="5.48834">
        <ele>210</ele>
        <time>2012-10-16T11:22:17Z</time>
      </trkpt>
      <trkpt lat="47.08384" lon="5.48828">
        <ele>210</ele>
        <time>2012-10-16T11:22:19Z</time>
      </trkpt>
      <trkpt lat="47.08374" lon="5.48818">
        <ele>210</ele>
        <time>2012-10-16T11:22:21Z</time>
      </trkpt>
      <trkpt lat="47.08366" lon="5.48806">
        <ele>210</ele>
        <time>2012-10-16T11:22:23Z</time>
      </trkpt>
      <trkpt lat="47.08359" lon="5.48793">
        <ele>210</ele>
        <time>2012-10-16T11:22:25Z</time>
      </trkpt>
      <trkpt lat="47.08351" lon="5.48781">
        <ele>210</ele>
        <time>2012-10-16T11:22:27Z</time>
      </trkpt>
      <trkpt lat="47.08343" lon="5.48768">
        <ele>210</ele>
        <time>2012-10-16T11:22:29Z</time>
      </trkpt>
      <trkpt lat="47.08335" lon="5.48756">
        <ele>210</ele>
        <time>2012-10-16T11:22:31Z</time>
      </trkpt>
      <trkpt lat="47.08327" lon="5.48743">
        <ele>210</ele>
        <time>2012-10-16T11:22:33Z</time>
      </trkpt>
      <trkpt lat="47.08319" lon="5.48731">
        <ele>210</ele>
        <time>2012-10-16T11:22:35Z</time>
      </trkpt>
      <trkpt lat="47.08311" lon="5.48718">
        <ele>210</ele>
        <time>2012-10-16T11:22:37Z</time>
      </trkpt>
      <trkpt lat="47.08303" lon="5.48706">
        <ele>210</ele>
        <time>2012-10-16T11:22:39Z</time>
      </trkpt>
      <trkpt lat="47.08295" lon="5.48694">
        <ele>210</ele>
        <time>2012-10-16T11:22:41Z</time>
      </trkpt>
      <trkpt lat="47.08287" lon="5.4868">
        <ele>210</ele>
        <time>2012-10-16T11:22:43Z</time>
      </trkpt>
      <trkpt lat="47.08279" lon="5.48667">
        <ele>210</ele>
        <time>2012-10-16T11:22:45Z</time>
      </trkpt>
      <trkpt lat="47.08271" lon="5.48653">
        <ele>210</ele>
        <time>2012-10-16T11:22:47Z</time>
      </trkpt>
      <trkpt lat="47.08263" lon="5.48641">
        <ele>210</ele>
        <time>2012-10-16T11:22:49Z</time>
      </trkpt>
      <trkpt lat="47.08254" lon="5.48629">
        <ele>210</ele>
        <time>2012-10-16T11:22:51Z</time>
      </trkpt>
      <trkpt lat="47.08245" lon="5.48617">
        <ele>210</ele>
        <time>2012-10-16T11:22:53Z</time>
      </trkpt>
      <trkpt lat="47.08236" lon="5.48607">
        <ele>210</ele>
        <time>2012-10-16T11:22:55Z</time>
      </trkpt>
      <trkpt lat="47.08227" lon="5.48596">
        <ele>210</ele>
        <time>2012-10-16T11:22:57Z</time>
      </trkpt>
      <trkpt lat="47.08217" lon="5.48585">
        <ele>210</ele>
        <time>2012-10-16T11:22:59Z</time>
      </trkpt>
      <trkpt lat="47.08208" lon="5.48576">
        <ele>210</ele>
        <time>2012-10-16T11:23:01Z</time>
      </trkpt>
      <trkpt lat="47.08198" lon="5.48566">
        <ele>210</ele>
        <time>2012-10-16T11:23:03Z</time>
      </trkpt>
      <trkpt lat="47.08188" lon="5.48558">
        <ele>210</ele>
        <time>2012-10-16T11:23:05Z</time>
      </trkpt>
      <trkpt lat="47.08178" lon="5.4855">
        <ele>210</ele>
        <time>2012-10-16T11:23:07Z</time>
      </trkpt>
      <trkpt lat="47.08168" lon="5.48542">
        <ele>210</ele>
        <time>2012-10-16T11:23:09Z</time>
      </trkpt>
      <trkpt lat="47.08158" lon="5.48534">
        <ele>210</ele>
        <time>2012-10-16T11:23:11Z</time>
      </trkpt>
      <trkpt lat="47.08148" lon="5.48527">
        <ele>210</ele>
        <time>2012-10-16T11:23:13Z</time>
      </trkpt>
      <trkpt lat="47.08138" lon="5.48519">
        <ele>210</ele>
        <time>2012-10-16T11:23:15Z</time>
      </trkpt>
      <trkpt lat="47.08127" lon="5.48511">
        <ele>210</ele>
        <time>2012-10-16T11:23:17Z</time>
      </trkpt>
      <trkpt lat="47.08117" lon="5.48503">
        <ele>210</ele>
        <time>2012-10-16T11:23:19Z</time>
      </trkpt>
      <trkpt lat="47.08106" lon="5.48495">
        <ele>210</ele>
        <time>2012-10-16T11:23:21Z</time>
      </trkpt>
      <trkpt lat="47.08096" lon="5.48487">
        <ele>210</ele>
        <time>2012-10-16T11:23:23Z</time>
      </trkpt>
      <trkpt lat="47.08085" lon="5.48481">
        <ele>210</ele>
        <time>2012-10-16T11:23:25Z</time>
      </trkpt>
      <trkpt lat="47.08073" lon="5.48477">
        <ele>210</ele>
        <time>2012-10-16T11:23:27Z</time>
      </trkpt>
      <trkpt lat="47.08063" lon="5.48481">
        <ele>210</ele>
        <time>2012-10-16T11:23:29Z</time>
      </trkpt>
      <trkpt lat="47.08054" lon="5.48491">
        <ele>210</ele>
        <time>2012-10-16T11:23:31Z</time>
      </trkpt>
      <trkpt lat="47.08048" lon="5.48506">
        <ele>210</ele>
        <time>2012-10-16T11:23:33Z</time>
      </trkpt>
      <trkpt lat="47.08043" lon="5.48522">
        <ele>210</ele>
        <time>2012-10-16T11:23:35Z</time>
      </trkpt>
      <trkpt lat="47.08038" lon="5.48538">
        <ele>210</ele>
        <time>2012-10-16T11:23:37Z</time>
      </trkpt>
      <trkpt lat="47.08032" lon="5.48554">
        <ele>210</ele>
        <time>2012-10-16T11:23:39Z</time>
      </trkpt>
      <trkpt lat="47.08027" lon="5.48569">
        <ele>210</ele>
        <time>2012-10-16T11:23:41Z</time>
      </trkpt>
      <trkpt lat="47.08021" lon="5.48585">
        <ele>210</ele>
        <time>2012-10-16T11:23:43Z</time>
      </trkpt>
      <trkpt lat="47.08016" lon="5.48599">
        <ele>210</ele>
        <time>2012-10-16T11:23:45Z</time>
      </trkpt>
      <trkpt lat="47.08011" lon="5.48614">
        <ele>210</ele>
        <time>2012-10-16T11:23:47Z</time>
      </trkpt>
      <trkpt lat="47.08006" lon="5.48627">
        <ele>210</ele>
        <time>2012-10-16T11:23:49Z</time>
      </trkpt>
      <trkpt lat="47.08001" lon="5.48641">
        <ele>210</ele>
        <time>2012-10-16T11:23:51Z</time>
      </trkpt>
      <trkpt lat="47.07996" lon="5.48655">
        <ele>210</ele>
        <time>2012-10-16T11:23:53Z</time>
      </trkpt>
      <trkpt lat="47.07991" lon="5.48669">
        <ele>210</ele>
        <time>2012-10-16T11:23:55Z</time>
      </trkpt>
      <trkpt lat="47.07986" lon="5.48686">
        <ele>210</ele>
        <time>2012-10-16T11:23:57Z</time>
      </trkpt>
      <trkpt lat="47.07981" lon="5.48702">
        <ele>210</ele>
        <time>2012-10-16T11:23:59Z</time>
      </trkpt>
      <trkpt lat="47.07976" lon="5.48718">
        <ele>210</ele>
        <time>2012-10-16T11:24:01Z</time>
      </trkpt>
      <trkpt lat="47.07971" lon="5.48734">
        <ele>210</ele>
        <time>2012-10-16T11:24:03Z</time>
      </trkpt>
      <trkpt lat="47.07967" lon="5.48749">
        <ele>210</ele>
        <time>2012-10-16T11:24:05Z</time>
      </trkpt>
      <trkpt lat="47.07962" lon="5.48766">
        <ele>210</ele>
        <time>2012-10-16T11:24:07Z</time>
      </trkpt>
      <trkpt lat="47.07957" lon="5.48781">
        <ele>210</ele>
        <time>2012-10-16T11:24:09Z</time>
      </trkpt>
      <trkpt lat="47.07951" lon="5.48796">
        <ele>210</ele>
        <time>2012-10-16T11:24:11Z</time>
      </trkpt>
      <trkpt lat="47.07945" lon="5.48811">
        <ele>210</ele>
        <time>2012-10-16T11:24:13Z</time>
      </trkpt>
      <trkpt lat="47.0794" lon="5.48826">
        <ele>210</ele>
        <time>2012-10-16T11:24:15Z</time>
      </trkpt>
      <trkpt lat="47.07934" lon="5.48841">
        <ele>210</ele>
        <time>2012-10-16T11:24:17Z</time>
      </trkpt>
      <trkpt lat="47.07929" lon="5.48856">
        <ele>210</ele>
        <time>2012-10-16T11:24:19Z</time>
      </trkpt>
      <trkpt lat="47.07924" lon="5.48872">
        <ele>210</ele>
        <time>2012-10-16T11:24:21Z</time>
      </trkpt>
      <trkpt lat="47.07918" lon="5.48888">
        <ele>210</ele>
        <time>2012-10-16T11:24:23Z</time>
      </trkpt>
      <trkpt lat="47.07912" lon="5.48903">
        <ele>210</ele>
        <time>2012-10-16T11:24:25Z</time>
      </trkpt>
      <trkpt lat="47.07906" lon="5.48918">
        <ele>210</ele>
        <time>2012-10-16T11:24:27Z</time>
      </trkpt>
      <trkpt lat="47.07898" lon="5.48932">
        <ele>210</ele>
        <time>2012-10-16T11:24:29Z</time>
      </trkpt>
      <trkpt lat="47.07889" lon="5.48943">
        <ele>210</ele>
        <time>2012-10-16T11:24:31Z</time>
      </trkpt>
      <trkpt lat="47.07879" lon="5.48952">
        <ele>210</ele>
        <time>2012-10-16T11:24:33Z</time>
      </trkpt>
      <trkpt lat="47.07866" lon="5.48958">
        <ele>210</ele>
        <time>2012-10-16T11:24:35Z</time>
      </trkpt>
      <trkpt lat="47.07855" lon="5.48961">
        <ele>210</ele>
        <time>2012-10-16T11:24:37Z</time>
      </trkpt>
      <trkpt lat="47.07842" lon="5.4896">
        <ele>210</ele>
        <time>2012-10-16T11:24:39Z</time>
      </trkpt>
      <trkpt lat="47.0783" lon="5.48956">
        <ele>210</ele>
        <time>2012-10-16T11:24:41Z</time>
      </trkpt>
      <trkpt lat="47.0782" lon="5.48948">
        <ele>210</ele>
        <time>2012-10-16T11:24:43Z</time>
      </trkpt>
      <trkpt lat="47.07814" lon="5.48935">
        <ele>210</ele>
        <time>2012-10-16T11:24:45Z</time>
      </trkpt>
      <trkpt lat="47.07812" lon="5.48921">
        <ele>210</ele>
        <time>2012-10-16T11:24:47Z</time>
      </trkpt>
      <trkpt lat="47.07809" lon="5.48907">
        <ele>210</ele>
        <time>2012-10-16T11:24:49Z</time>
      </trkpt>
      <trkpt lat="47.07803" lon="5.48894">
        <ele>210</ele>
        <time>2012-10-16T11:24:51Z</time>
      </trkpt>
      <trkpt lat="47.07795" lon="5.48885">
        <ele>210</ele>
        <time>2012-10-16T11:24:53Z</time>
      </trkpt>
      <trkpt lat="47.07785" lon="5.48879">
        <ele>210</ele>
        <time>2012-10-16T11:24:55Z</time>
      </trkpt>
      <trkpt lat="47.07775" lon="5.48879">
        <ele>210</ele>
        <time>2012-10-16T11:24:57Z</time>
      </trkpt>
      <trkpt lat="47.07765" lon="5.48884">
        <ele>210</ele>
        <time>2012-10-16T11:24:59Z</time>
      </trkpt>
      <trkpt lat="47.07755" lon="5.48892">
        <ele>210</ele>
        <time>2012-10-16T11:25:01Z</time>
      </trkpt>
      <trkpt lat="47.07745" lon="5.48898">
        <ele>210</ele>
        <time>2012-10-16T11:25:03Z</time>
      </trkpt>
      <trkpt lat="47.07734" lon="5.48895">
        <ele>210</ele>
        <time>2012-10-16T11:25:05Z</time>
      </trkpt>
      <trkpt lat="47.07722" lon="5.48893">
        <ele>210</ele>
        <time>2012-10-16T11:25:07Z</time>
      </trkpt>
      <trkpt lat="47.07711" lon="5.48895">
        <ele>210</ele>
        <time>2012-10-16T11:25:09Z</time>
      </trkpt>
      <trkpt lat="47.07701" lon="5.48904">
        <ele>210</ele>
        <time>2012-10-16T11:25:11Z</time>
      </trkpt>
      <trkpt lat="47.07694" lon="5.48917">
        <ele>210</ele>
        <time>2012-10-16T11:25:13Z</time>
      </trkpt>
      <trkpt lat="47.07691" lon="5.48934">
        <ele>210</ele>
        <time>2012-10-16T11:25:15Z</time>
      </trkpt>
      <trkpt lat="47.07689" lon="5.48951">
        <ele>210</ele>
        <time>2012-10-16T11:25:17Z</time>
      </trkpt>
      <trkpt lat="47.07684" lon="5.48967">
        <ele>210</ele>
        <time>2012-10-16T11:25:19Z</time>
      </trkpt>
      <trkpt lat="47.07677" lon="5.48981">
        <ele>210</ele>
        <time>2012-10-16T11:25:21Z</time>
      </trkpt>
      <trkpt lat="47.07668" lon="5.48992">
        <ele>210</ele>
        <time>2012-10-16T11:25:23Z</time>
      </trkpt>
      <trkpt lat="47.0766" lon="5.49004">
        <ele>210</ele>
        <time>2012-10-16T11:25:25Z</time>
      </trkpt>
      <trkpt lat="47.07651" lon="5.49014">
        <ele>210</ele>
        <time>2012-10-16T11:25:27Z</time>
      </trkpt>
      <trkpt lat="47.07642" lon="5.49025">
        <ele>210</ele>
        <time>2012-10-16T11:25:29Z</time>
      </trkpt>
      <trkpt lat="47.07635" lon="5.49036">
        <ele>210</ele>
        <time>2012-10-16T11:25:31Z</time>
      </trkpt>
      <trkpt lat="47.07627" lon="5.49048">
        <ele>210</ele>
        <time>2012-10-16T11:25:33Z</time>
      </trkpt>
      <trkpt lat="47.07619" lon="5.49059">
        <ele>210</ele>
        <time>2012-10-16T11:25:35Z</time>
      </trkpt>
      <trkpt lat="47.07611" lon="5.49071">
        <ele>210</ele>
        <time>2012-10-16T11:25:37Z</time>
      </trkpt>
      <trkpt lat="47.07604" lon="5.49084">
        <ele>210</ele>
        <time>2012-10-16T11:25:39Z</time>
      </trkpt>
      <trkpt lat="47.07596" lon="5.49095">
        <ele>210</ele>
        <time>2012-10-16T11:25:41Z</time>
      </trkpt>
      <trkpt lat="47.07586" lon="5.49105">
        <ele>210</ele>
        <time>2012-10-16T11:25:43Z</time>
      </trkpt>
      <trkpt lat="47.07575" lon="5.49111">
        <ele>210</ele>
        <time>2012-10-16T11:25:45Z</time>
      </trkpt>
      <trkpt lat="47.07563" lon="5.49111">
        <ele>210</ele>
        <time>2012-10-16T11:25:47Z</time>
      </trkpt>
      <trkpt lat="47.07551" lon="5.49107">
        <ele>210</ele>
        <time>2012-10-16T11:25:49Z</time>
      </trkpt>
      <trkpt lat="47.07541" lon="5.49097">
        <ele>210</ele>
        <time>2012-10-16T11:25:51Z</time>
      </trkpt>
      <trkpt lat="47.07533" lon="5.49086">
        <ele>210</ele>
        <time>2012-10-16T11:25:53Z</time>
      </trkpt>
      <trkpt lat="47.07525" lon="5.49077">
        <ele>210</ele>
        <time>2012-10-16T11:25:56Z</time>
      </trkpt>
      <trkpt lat="47.07518" lon="5.49069">
        <ele>210</ele>
        <time>2012-10-16T11:27:36Z</time>
      </trkpt>
      <trkpt lat="47.07526" lon="5.49073">
        <ele>210</ele>
        <time>2012-10-16T11:49:10Z</time>
      </trkpt>
      <trkpt lat="47.07533" lon="5.49085">
        <ele>210</ele>
        <time>2012-10-16T11:49:15Z</time>
      </trkpt>
      <trkpt lat="47.07541" lon="5.49097">
        <ele>210</ele>
        <time>2012-10-16T11:49:18Z</time>
      </trkpt>
      <trkpt lat="47.07551" lon="5.49107">
        <ele>210</ele>
        <time>2012-10-16T11:49:21Z</time>
      </trkpt>
      <trkpt lat="47.07563" lon="5.49111">
        <ele>210</ele>
        <time>2012-10-16T11:49:24Z</time>
      </trkpt>
      <trkpt lat="47.07576" lon="5.4911">
        <ele>210</ele>
        <time>2012-10-16T11:49:27Z</time>
      </trkpt>
      <trkpt lat="47.07585" lon="5.49105">
        <ele>210</ele>
        <time>2012-10-16T11:49:29Z</time>
      </trkpt>
      <trkpt lat="47.07596" lon="5.49093">
        <ele>210</ele>
        <time>2012-10-16T11:49:32Z</time>
      </trkpt>
      <trkpt lat="47.07603" lon="5.49084">
        <ele>210</ele>
        <time>2012-10-16T11:49:34Z</time>
      </trkpt>
      <trkpt lat="47.07609" lon="5.49074">
        <ele>210</ele>
        <time>2012-10-16T11:49:36Z</time>
      </trkpt>
      <trkpt lat="47.07616" lon="5.49063">
        <ele>210</ele>
        <time>2012-10-16T11:49:38Z</time>
      </trkpt>
      <trkpt lat="47.07623" lon="5.49052">
        <ele>210</ele>
        <time>2012-10-16T11:49:40Z</time>
      </trkpt>
      <trkpt lat="47.0763" lon="5.4904">
        <ele>210</ele>
        <time>2012-10-16T11:49:42Z</time>
      </trkpt>
      <trkpt lat="47.07638" lon="5.49031">
        <ele>210</ele>
        <time>2012-10-16T11:49:44Z</time>
      </trkpt>
      <trkpt lat="47.07646" lon="5.49021">
        <ele>210</ele>
        <time>2012-10-16T11:49:46Z</time>
      </trkpt>
      <trkpt lat="47.07654" lon="5.49011">
        <ele>210</ele>
        <time>2012-10-16T11:49:48Z</time>
      </trkpt>
      <trkpt lat="47.07663" lon="5.49">
        <ele>210</ele>
        <time>2012-10-16T11:49:50Z</time>
      </trkpt>
      <trkpt lat="47.07671" lon="5.4899">
        <ele>210</ele>
        <time>2012-10-16T11:49:52Z</time>
      </trkpt>
      <trkpt lat="47.07679" lon="5.48979">
        <ele>210</ele>
        <time>2012-10-16T11:49:54Z</time>
      </trkpt>
      <trkpt lat="47.07687" lon="5.48967">
        <ele>210</ele>
        <time>2012-10-16T11:49:56Z</time>
      </trkpt>
      <trkpt lat="47.07692" lon="5.48952">
        <ele>210</ele>
        <time>2012-10-16T11:49:58Z</time>
      </trkpt>
      <trkpt lat="47.07695" lon="5.48936">
        <ele>210</ele>
        <time>2012-10-16T11:50:00Z</time>
      </trkpt>
      <trkpt lat="47.07698" lon="5.4892">
        <ele>210</ele>
        <time>2012-10-16T11:50:02Z</time>
      </trkpt>
      <trkpt lat="47.07704" lon="5.48907">
        <ele>210</ele>
        <time>2012-10-16T11:50:04Z</time>
      </trkpt>
      <trkpt lat="47.07713" lon="5.48898">
        <ele>210</ele>
        <time>2012-10-16T11:50:06Z</time>
      </trkpt>
      <trkpt lat="47.07723" lon="5.48894">
        <ele>210</ele>
        <time>2012-10-16T11:50:08Z</time>
      </trkpt>
      <trkpt lat="47.07732" lon="5.48897">
        <ele>210</ele>
        <time>2012-10-16T11:50:10Z</time>
      </trkpt>
      <trkpt lat="47.07741" lon="5.48906">
        <ele>210</ele>
        <time>2012-10-16T11:50:12Z</time>
      </trkpt>
      <trkpt lat="47.07747" lon="5.48918">
        <ele>210</ele>
        <time>2012-10-16T11:50:14Z</time>
      </trkpt>
      <trkpt lat="47.07751" lon="5.48934">
        <ele>210</ele>
        <time>2012-10-16T11:50:16Z</time>
      </trkpt>
      <trkpt lat="47.07755" lon="5.48949">
        <ele>210</ele>
        <time>2012-10-16T11:50:18Z</time>
      </trkpt>
      <trkpt lat="47.07762" lon="5.48961">
        <ele>210</ele>
        <time>2012-10-16T11:50:20Z</time>
      </trkpt>
      <trkpt lat="47.07773" lon="5.48968">
        <ele>210</ele>
        <time>2012-10-16T11:50:22Z</time>
      </trkpt>
      <trkpt lat="47.07784" lon="5.48971">
        <ele>210</ele>
        <time>2012-10-16T11:50:24Z</time>
      </trkpt>
      <trkpt lat="47.07795" lon="5.48966">
        <ele>210</ele>
        <time>2012-10-16T11:50:26Z</time>
      </trkpt>
      <trkpt lat="47.07804" lon="5.48955">
        <ele>210</ele>
        <time>2012-10-16T11:50:28Z</time>
      </trkpt>
      <trkpt lat="47.07811" lon="5.48942">
        <ele>210</ele>
        <time>2012-10-16T11:50:30Z</time>
      </trkpt>
      <trkpt lat="47.07813" lon="5.48926">
        <ele>210</ele>
        <time>2012-10-16T11:50:32Z</time>
      </trkpt>
      <trkpt lat="47.07812" lon="5.48912">
        <ele>210</ele>
        <time>2012-10-16T11:50:34Z</time>
      </trkpt>
      <trkpt lat="47.07809" lon="5.48899">
        <ele>210</ele>
        <time>2012-10-16T11:50:36Z</time>
      </trkpt>
      <trkpt lat="47.07804" lon="5.48881">
        <ele>210</ele>
        <time>2012-10-16T11:50:39Z</time>
      </trkpt>
      <trkpt lat="47.07806" lon="5.48866">
        <ele>210</ele>
        <time>2012-10-16T11:50:41Z</time>
      </trkpt>
      <trkpt lat="47.07808" lon="5.48853">
        <ele>210</ele>
        <time>2012-10-16T11:50:43Z</time>
      </trkpt>
      <trkpt lat="47.07809" lon="5.48839">
        <ele>210</ele>
        <time>2012-10-16T11:50:45Z</time>
      </trkpt>
      <trkpt lat="47.07811" lon="5.48826">
        <ele>210</ele>
        <time>2012-10-16T11:50:47Z</time>
      </trkpt>
      <trkpt lat="47.07814" lon="5.48812">
        <ele>210</ele>
        <time>2012-10-16T11:50:49Z</time>
      </trkpt>
      <trkpt lat="47.07817" lon="5.48799">
        <ele>210</ele>
        <time>2012-10-16T11:50:51Z</time>
      </trkpt>
      <trkpt lat="47.0782" lon="5.48786">
        <ele>210</ele>
        <time>2012-10-16T11:50:53Z</time>
      </trkpt>
      <trkpt lat="47.07824" lon="5.48774">
        <ele>210</ele>
        <time>2012-10-16T11:50:55Z</time>
      </trkpt>
      <trkpt lat="47.07827" lon="5.48761">
        <ele>210</ele>
        <time>2012-10-16T11:50:57Z</time>
      </trkpt>
      <trkpt lat="47.07832" lon="5.48743">
        <ele>210</ele>
        <time>2012-10-16T11:51:00Z</time>
      </trkpt>
      <trkpt lat="47.07835" lon="5.48731">
        <ele>210</ele>
        <time>2012-10-16T11:51:02Z</time>
      </trkpt>
      <trkpt lat="47.0784" lon="5.48713">
        <ele>210</ele>
        <time>2012-10-16T11:51:05Z</time>
      </trkpt>
      <trkpt lat="47.07844" lon="5.48695">
        <ele>210</ele>
        <time>2012-10-16T11:51:08Z</time>
      </trkpt>
      <trkpt lat="47.07849" lon="5.48677">
        <ele>210</ele>
        <time>2012-10-16T11:51:11Z</time>
      </trkpt>
      <trkpt lat="47.07853" lon="5.48664">
        <ele>210</ele>
        <time>2012-10-16T11:51:13Z</time>
      </trkpt>
      <trkpt lat="47.07858" lon="5.48646">
        <ele>210</ele>
        <time>2012-10-16T11:51:16Z</time>
      </trkpt>
      <trkpt lat="47.07862" lon="5.48628">
        <ele>210</ele>
        <time>2012-10-16T11:51:19Z</time>
      </trkpt>
      <trkpt lat="47.07867" lon="5.4861">
        <ele>215</ele>
        <time>2012-10-16T11:51:22Z</time>
      </trkpt>
      <trkpt lat="47.07872" lon="5.48593">
        <ele>215</ele>
        <time>2012-10-16T11:51:25Z</time>
      </trkpt>
      <trkpt lat="47.07875" lon="5.48581">
        <ele>215</ele>
        <time>2012-10-16T11:51:27Z</time>
      </trkpt>
      <trkpt lat="47.0788" lon="5.48563">
        <ele>215</ele>
        <time>2012-10-16T11:51:30Z</time>
      </trkpt>
      <trkpt lat="47.07884" lon="5.48545">
        <ele>215</ele>
        <time>2012-10-16T11:51:33Z</time>
      </trkpt>
      <trkpt lat="47.0789" lon="5.48528">
        <ele>215</ele>
        <time>2012-10-16T11:51:36Z</time>
      </trkpt>
      <trkpt lat="47.07894" lon="5.48511">
        <ele>215</ele>
        <time>2012-10-16T11:51:39Z</time>
      </trkpt>
      <trkpt lat="47.07898" lon="5.48494">
        <ele>215</ele>
        <time>2012-10-16T11:51:42Z</time>
      </trkpt>
      <trkpt lat="47.07903" lon="5.48478">
        <ele>215</ele>
        <time>2012-10-16T11:51:45Z</time>
      </trkpt>
      <trkpt lat="47.07908" lon="5.48462">
        <ele>215</ele>
        <time>2012-10-16T11:51:48Z</time>
      </trkpt>
      <trkpt lat="47.07912" lon="5.48446">
        <ele>215</ele>
        <time>2012-10-16T11:51:51Z</time>
      </trkpt>
      <trkpt lat="47.07916" lon="5.4843">
        <ele>215</ele>
        <time>2012-10-16T11:51:54Z</time>
      </trkpt>
      <trkpt lat="47.07921" lon="5.48413">
        <ele>215</ele>
        <time>2012-10-16T11:51:57Z</time>
      </trkpt>
      <trkpt lat="47.07925" lon="5.48396">
        <ele>221</ele>
        <time>2012-10-16T11:52:00Z</time>
      </trkpt>
      <trkpt lat="47.0793" lon="5.48379">
        <ele>221</ele>
        <time>2012-10-16T11:52:03Z</time>
      </trkpt>
      <trkpt lat="47.07934" lon="5.48363">
        <ele>221</ele>
        <time>2012-10-16T11:52:06Z</time>
      </trkpt>
      <trkpt lat="47.07938" lon="5.48347">
        <ele>221</ele>
        <time>2012-10-16T11:52:09Z</time>
      </trkpt>
      <trkpt lat="47.07943" lon="5.48331">
        <ele>221</ele>
        <time>2012-10-16T11:52:12Z</time>
      </trkpt>
      <trkpt lat="47.07947" lon="5.48315">
        <ele>221</ele>
        <time>2012-10-16T11:52:15Z</time>
      </trkpt>
      <trkpt lat="47.07952" lon="5.48299">
        <ele>221</ele>
        <time>2012-10-16T11:52:18Z</time>
      </trkpt>
      <trkpt lat="47.07955" lon="5.48283">
        <ele>221</ele>
        <time>2012-10-16T11:52:21Z</time>
      </trkpt>
      <trkpt lat="47.0796" lon="5.48268">
        <ele>221</ele>
        <time>2012-10-16T11:52:24Z</time>
      </trkpt>
      <trkpt lat="47.07964" lon="5.48252">
        <ele>221</ele>
        <time>2012-10-16T11:52:27Z</time>
      </trkpt>
      <trkpt lat="47.07968" lon="5.48236">
        <ele>221</ele>
        <time>2012-10-16T11:52:30Z</time>
      </trkpt>
      <trkpt lat="47.07972" lon="5.48222">
        <ele>226</ele>
        <time>2012-10-16T11:52:33Z</time>
      </trkpt>
      <trkpt lat="47.07976" lon="5.48207">
        <ele>226</ele>
        <time>2012-10-16T11:52:36Z</time>
      </trkpt>
      <trkpt lat="47.0798" lon="5.48192">
        <ele>226</ele>
        <time>2012-10-16T11:52:39Z</time>
      </trkpt>
      <trkpt lat="47.07984" lon="5.48176">
        <ele>226</ele>
        <time>2012-10-16T11:52:42Z</time>
      </trkpt>
      <trkpt lat="47.07988" lon="5.48162">
        <ele>226</ele>
        <time>2012-10-16T11:52:45Z</time>
      </trkpt>
      <trkpt lat="47.07992" lon="5.48148">
        <ele>226</ele>
        <time>2012-10-16T11:52:48Z</time>
      </trkpt>
      <trkpt lat="47.07996" lon="5.48132">
        <ele>226</ele>
        <time>2012-10-16T11:52:51Z</time>
      </trkpt>
      <trkpt lat="47.08" lon="5.48118">
        <ele>226</ele>
        <time>2012-10-16T11:52:54Z</time>
      </trkpt>
      <trkpt lat="47.08004" lon="5.48103">
        <ele>226</ele>
        <time>2012-10-16T11:52:57Z</time>
      </trkpt>
      <trkpt lat="47.08008" lon="5.48088">
        <ele>226</ele>
        <time>2012-10-16T11:53:00Z</time>
      </trkpt>
      <trkpt lat="47.08012" lon="5.48072">
        <ele>231</ele>
        <time>2012-10-16T11:53:03Z</time>
      </trkpt>
      <trkpt lat="47.08016" lon="5.48057">
        <ele>231</ele>
        <time>2012-10-16T11:53:06Z</time>
      </trkpt>
      <trkpt lat="47.0802" lon="5.48042">
        <ele>231</ele>
        <time>2012-10-16T11:53:09Z</time>
      </trkpt>
      <trkpt lat="47.08024" lon="5.48027">
        <ele>231</ele>
        <time>2012-10-16T11:53:12Z</time>
      </trkpt>
      <trkpt lat="47.08027" lon="5.48013">
        <ele>231</ele>
        <time>2012-10-16T11:53:15Z</time>
      </trkpt>
      <trkpt lat="47.08032" lon="5.47998">
        <ele>231</ele>
        <time>2012-10-16T11:53:18Z</time>
      </trkpt>
      <trkpt lat="47.08036" lon="5.47983">
        <ele>231</ele>
        <time>2012-10-16T11:53:21Z</time>
      </trkpt>
      <trkpt lat="47.0804" lon="5.47969">
        <ele>231</ele>
        <time>2012-10-16T11:53:24Z</time>
      </trkpt>
      <trkpt lat="47.08044" lon="5.47954">
        <ele>231</ele>
        <time>2012-10-16T11:53:27Z</time>
      </trkpt>
      <trkpt lat="47.08048" lon="5.47938">
        <ele>231</ele>
        <time>2012-10-16T11:53:30Z</time>
      </trkpt>
      <trkpt lat="47.08052" lon="5.47923">
        <ele>231</ele>
        <time>2012-10-16T11:53:33Z</time>
      </trkpt>
      <trkpt lat="47.08055" lon="5.47908">
        <ele>237</ele>
        <time>2012-10-16T11:53:36Z</time>
      </trkpt>
      <trkpt lat="47.0806" lon="5.47892">
        <ele>237</ele>
        <time>2012-10-16T11:53:39Z</time>
      </trkpt>
      <trkpt lat="47.08063" lon="5.47878">
        <ele>237</ele>
        <time>2012-10-16T11:53:42Z</time>
      </trkpt>
      <trkpt lat="47.08067" lon="5.47863">
        <ele>237</ele>
        <time>2012-10-16T11:53:45Z</time>
      </trkpt>
      <trkpt lat="47.08071" lon="5.47847">
        <ele>237</ele>
        <time>2012-10-16T11:53:48Z</time>
      </trkpt>
      <trkpt lat="47.08076" lon="5.47832">
        <ele>237</ele>
        <time>2012-10-16T11:53:51Z</time>
      </trkpt>
      <trkpt lat="47.08079" lon="5.47818">
        <ele>237</ele>
        <time>2012-10-16T11:53:54Z</time>
      </trkpt>
      <trkpt lat="47.08083" lon="5.47803">
        <ele>237</ele>
        <time>2012-10-16T11:53:57Z</time>
      </trkpt>
      <trkpt lat="47.08087" lon="5.47789">
        <ele>237</ele>
        <time>2012-10-16T11:54:00Z</time>
      </trkpt>
      <trkpt lat="47.08091" lon="5.47774">
        <ele>237</ele>
        <time>2012-10-16T11:54:03Z</time>
      </trkpt>
      <trkpt lat="47.08095" lon="5.47759">
        <ele>237</ele>
        <time>2012-10-16T11:54:06Z</time>
      </trkpt>
      <trkpt lat="47.081" lon="5.47745">
        <ele>237</ele>
        <time>2012-10-16T11:54:09Z</time>
      </trkpt>
      <trkpt lat="47.08105" lon="5.47731">
        <ele>237</ele>
        <time>2012-10-16T11:54:12Z</time>
      </trkpt>
      <trkpt lat="47.08111" lon="5.47716">
        <ele>237</ele>
        <time>2012-10-16T11:54:15Z</time>
      </trkpt>
      <trkpt lat="47.08116" lon="5.47703">
        <ele>242</ele>
        <time>2012-10-16T11:54:18Z</time>
      </trkpt>
      <trkpt lat="47.08121" lon="5.47689">
        <ele>242</ele>
        <time>2012-10-16T11:54:21Z</time>
      </trkpt>
      <trkpt lat="47.08128" lon="5.47677">
        <ele>242</ele>
        <time>2012-10-16T11:54:24Z</time>
      </trkpt>
      <trkpt lat="47.08138" lon="5.4767">
        <ele>242</ele>
        <time>2012-10-16T11:54:27Z</time>
      </trkpt>
      <trkpt lat="47.08149" lon="5.47662">
        <ele>242</ele>
        <time>2012-10-16T11:54:30Z</time>
      </trkpt>
      <trkpt lat="47.08159" lon="5.47651">
        <ele>242</ele>
        <time>2012-10-16T11:54:33Z</time>
      </trkpt>
      <trkpt lat="47.08165" lon="5.47636">
        <ele>242</ele>
        <time>2012-10-16T11:54:36Z</time>
      </trkpt>
      <trkpt lat="47.08167" lon="5.47618">
        <ele>242</ele>
        <time>2012-10-16T11:54:39Z</time>
      </trkpt>
      <trkpt lat="47.08165" lon="5.47602">
        <ele>242</ele>
        <time>2012-10-16T11:54:42Z</time>
      </trkpt>
      <trkpt lat="47.08161" lon="5.47586">
        <ele>242</ele>
        <time>2012-10-16T11:54:45Z</time>
      </trkpt>
      <trkpt lat="47.0816" lon="5.4757">
        <ele>242</ele>
        <time>2012-10-16T11:54:48Z</time>
      </trkpt>
      <trkpt lat="47.08163" lon="5.47553">
        <ele>242</ele>
        <time>2012-10-16T11:54:51Z</time>
      </trkpt>
      <trkpt lat="47.08167" lon="5.47538">
        <ele>242</ele>
        <time>2012-10-16T11:54:54Z</time>
      </trkpt>
      <trkpt lat="47.08171" lon="5.47523">
        <ele>242</ele>
        <time>2012-10-16T11:54:57Z</time>
      </trkpt>
      <trkpt lat="47.08175" lon="5.47511">
        <ele>242</ele>
        <time>2012-10-16T11:55:00Z</time>
      </trkpt>
      <trkpt lat="47.08178" lon="5.47498">
        <ele>247</ele>
        <time>2012-10-16T11:55:03Z</time>
      </trkpt>
      <trkpt lat="47.08181" lon="5.47485">
        <ele>247</ele>
        <time>2012-10-16T11:55:06Z</time>
      </trkpt>
      <trkpt lat="47.08185" lon="5.47469">
        <ele>247</ele>
        <time>2012-10-16T11:55:10Z</time>
      </trkpt>
      <trkpt lat="47.08188" lon="5.47457">
        <ele>247</ele>
        <time>2012-10-16T11:55:13Z</time>
      </trkpt>
      <trkpt lat="47.08192" lon="5.47441">
        <ele>247</ele>
        <time>2012-10-16T11:55:17Z</time>
      </trkpt>
      <trkpt lat="47.08195" lon="5.47425">
        <ele>252</ele>
        <time>2012-10-16T11:55:21Z</time>
      </trkpt>
      <trkpt lat="47.08197" lon="5.47412">
        <ele>252</ele>
        <time>2012-10-16T11:55:24Z</time>
      </trkpt>
      <trkpt lat="47.08198" lon="5.47398">
        <ele>252</ele>
        <time>2012-10-16T11:55:27Z</time>
      </trkpt>
      <trkpt lat="47.08198" lon="5.47385">
        <ele>252</ele>
        <time>2012-10-16T11:55:30Z</time>
      </trkpt>
      <trkpt lat="47.08198" lon="5.47371">
        <ele>252</ele>
        <time>2012-10-16T11:55:33Z</time>
      </trkpt>
      <trkpt lat="47.08198" lon="5.47357">
        <ele>252</ele>
        <time>2012-10-16T11:55:36Z</time>
      </trkpt>
      <trkpt lat="47.08198" lon="5.47344">
        <ele>252</ele>
        <time>2012-10-16T11:55:39Z</time>
      </trkpt>
      <trkpt lat="47.08197" lon="5.47329">
        <ele>252</ele>
        <time>2012-10-16T11:55:42Z</time>
      </trkpt>
      <trkpt lat="47.08195" lon="5.47313">
        <ele>252</ele>
        <time>2012-10-16T11:55:45Z</time>
      </trkpt>
      <trkpt lat="47.08194" lon="5.47295">
        <ele>258</ele>
        <time>2012-10-16T11:55:48Z</time>
      </trkpt>
      <trkpt lat="47.08192" lon="5.47277">
        <ele>258</ele>
        <time>2012-10-16T11:55:51Z</time>
      </trkpt>
      <trkpt lat="47.08191" lon="5.47258">
        <ele>258</ele>
        <time>2012-10-16T11:55:54Z</time>
      </trkpt>
      <trkpt lat="47.0819" lon="5.47239">
        <ele>258</ele>
        <time>2012-10-16T11:55:57Z</time>
      </trkpt>
      <trkpt lat="47.08189" lon="5.4722">
        <ele>258</ele>
        <time>2012-10-16T11:56:00Z</time>
      </trkpt>
      <trkpt lat="47.08188" lon="5.47202">
        <ele>258</ele>
        <time>2012-10-16T11:56:03Z</time>
      </trkpt>
      <trkpt lat="47.08187" lon="5.47188">
        <ele>258</ele>
        <time>2012-10-16T11:56:05Z</time>
      </trkpt>
      <trkpt lat="47.08185" lon="5.47169">
        <ele>258</ele>
        <time>2012-10-16T11:56:08Z</time>
      </trkpt>
      <trkpt lat="47.08184" lon="5.47152">
        <ele>258</ele>
        <time>2012-10-16T11:56:11Z</time>
      </trkpt>
      <trkpt lat="47.08183" lon="5.47135">
        <ele>258</ele>
        <time>2012-10-16T11:56:14Z</time>
      </trkpt>
      <trkpt lat="47.08181" lon="5.47118">
        <ele>258</ele>
        <time>2012-10-16T11:56:17Z</time>
      </trkpt>
      <trkpt lat="47.0818" lon="5.471">
        <ele>258</ele>
        <time>2012-10-16T11:56:20Z</time>
      </trkpt>
      <trkpt lat="47.08179" lon="5.47087">
        <ele>258</ele>
        <time>2012-10-16T11:56:22Z</time>
      </trkpt>
      <trkpt lat="47.08178" lon="5.47073">
        <ele>258</ele>
        <time>2012-10-16T11:56:24Z</time>
      </trkpt>
      <trkpt lat="47.08177" lon="5.4706">
        <ele>258</ele>
        <time>2012-10-16T11:56:26Z</time>
      </trkpt>
      <trkpt lat="47.08176" lon="5.47046">
        <ele>258</ele>
        <time>2012-10-16T11:56:28Z</time>
      </trkpt>
      <trkpt lat="47.08176" lon="5.47032">
        <ele>258</ele>
        <time>2012-10-16T11:56:30Z</time>
      </trkpt>
      <trkpt lat="47.08176" lon="5.47018">
        <ele>258</ele>
        <time>2012-10-16T11:56:32Z</time>
      </trkpt>
      <trkpt lat="47.08177" lon="5.47004">
        <ele>258</ele>
        <time>2012-10-16T11:56:36Z</time>
      </trkpt>
      <trkpt lat="47.08175" lon="5.4699">
        <ele>252</ele>
        <time>2012-10-16T11:57:58Z</time>
      </trkpt>
      <trkpt lat="47.08177" lon="5.46976">
        <ele>252</ele>
        <time>2012-10-16T11:58:01Z</time>
      </trkpt>
      <trkpt lat="47.08179" lon="5.46958">
        <ele>252</ele>
        <time>2012-10-16T11:58:04Z</time>
      </trkpt>
      <trkpt lat="47.08182" lon="5.46945">
        <ele>252</ele>
        <time>2012-10-16T11:58:06Z</time>
      </trkpt>
      <trkpt lat="47.08184" lon="5.46929">
        <ele>252</ele>
        <time>2012-10-16T11:58:08Z</time>
      </trkpt>
      <trkpt lat="47.08185" lon="5.46912">
        <ele>252</ele>
        <time>2012-10-16T11:58:10Z</time>
      </trkpt>
      <trkpt lat="47.08186" lon="5.46896">
        <ele>252</ele>
        <time>2012-10-16T11:58:12Z</time>
      </trkpt>
      <trkpt lat="47.08187" lon="5.46881">
        <ele>252</ele>
        <time>2012-10-16T11:58:14Z</time>
      </trkpt>
      <trkpt lat="47.08188" lon="5.46867">
        <ele>252</ele>
        <time>2012-10-16T11:58:16Z</time>
      </trkpt>
      <trkpt lat="47.08189" lon="5.46852">
        <ele>252</ele>
        <time>2012-10-16T11:58:18Z</time>
      </trkpt>
      <trkpt lat="47.08191" lon="5.46835">
        <ele>252</ele>
        <time>2012-10-16T11:58:20Z</time>
      </trkpt>
      <trkpt lat="47.08193" lon="5.46817">
        <ele>252</ele>
        <time>2012-10-16T11:58:22Z</time>
      </trkpt>
      <trkpt lat="47.08194" lon="5.46798">
        <ele>252</ele>
        <time>2012-10-16T11:58:24Z</time>
      </trkpt>
      <trkpt lat="47.08194" lon="5.46779">
        <ele>252</ele>
        <time>2012-10-16T11:58:26Z</time>
      </trkpt>
      <trkpt lat="47.08194" lon="5.46761">
        <ele>252</ele>
        <time>2012-10-16T11:58:28Z</time>
      </trkpt>
      <trkpt lat="47.08191" lon="5.46743">
        <ele>252</ele>
        <time>2012-10-16T11:58:30Z</time>
      </trkpt>
      <trkpt lat="47.08187" lon="5.46725">
        <ele>252</ele>
        <time>2012-10-16T11:58:32Z</time>
      </trkpt>
      <trkpt lat="47.08183" lon="5.46707">
        <ele>252</ele>
        <time>2012-10-16T11:58:34Z</time>
      </trkpt>
      <trkpt lat="47.08176" lon="5.46688">
        <ele>252</ele>
        <time>2012-10-16T11:58:36Z</time>
      </trkpt>
      <trkpt lat="47.08168" lon="5.46671">
        <ele>252</ele>
        <time>2012-10-16T11:58:38Z</time>
      </trkpt>
      <trkpt lat="47.08159" lon="5.46653">
        <ele>252</ele>
        <time>2012-10-16T11:58:40Z</time>
      </trkpt>
      <trkpt lat="47.08149" lon="5.46633">
        <ele>252</ele>
        <time>2012-10-16T11:58:42Z</time>
      </trkpt>
      <trkpt lat="47.08137" lon="5.46612">
        <ele>252</ele>
        <time>2012-10-16T11:58:44Z</time>
      </trkpt>
      <trkpt lat="47.08131" lon="5.46602">
        <ele>252</ele>
        <time>2012-10-16T11:58:45Z</time>
      </trkpt>
      <trkpt lat="47.08125" lon="5.46591">
        <ele>252</ele>
        <time>2012-10-16T11:58:46Z</time>
      </trkpt>
      <trkpt lat="47.08118" lon="5.46579">
        <ele>252</ele>
        <time>2012-10-16T11:58:47Z</time>
      </trkpt>
      <trkpt lat="47.08112" lon="5.46567">
        <ele>252</ele>
        <time>2012-10-16T11:58:48Z</time>
      </trkpt>
      <trkpt lat="47.08105" lon="5.46557">
        <ele>252</ele>
        <time>2012-10-16T11:58:49Z</time>
      </trkpt>
      <trkpt lat="47.08098" lon="5.46548">
        <ele>252</ele>
        <time>2012-10-16T11:58:50Z</time>
      </trkpt>
      <trkpt lat="47.08091" lon="5.46538">
        <ele>252</ele>
        <time>2012-10-16T11:58:51Z</time>
      </trkpt>
      <trkpt lat="47.08084" lon="5.46529">
        <ele>252</ele>
        <time>2012-10-16T11:58:52Z</time>
      </trkpt>
      <trkpt lat="47.08075" lon="5.4651">
        <ele>252</ele>
        <time>2012-10-16T11:58:54Z</time>
      </trkpt>
      <trkpt lat="47.08067" lon="5.46492">
        <ele>252</ele>
        <time>2012-10-16T11:58:56Z</time>
      </trkpt>
      <trkpt lat="47.08059" lon="5.46478">
        <ele>252</ele>
        <time>2012-10-16T11:58:58Z</time>
      </trkpt>
      <trkpt lat="47.08052" lon="5.46465">
        <ele>252</ele>
        <time>2012-10-16T11:59:00Z</time>
      </trkpt>
      <trkpt lat="47.08046" lon="5.46452">
        <ele>252</ele>
        <time>2012-10-16T11:59:02Z</time>
      </trkpt>
      <trkpt lat="47.0804" lon="5.46441">
        <ele>252</ele>
        <time>2012-10-16T11:59:04Z</time>
      </trkpt>
      <trkpt lat="47.08035" lon="5.4643">
        <ele>257</ele>
        <time>2012-10-16T11:59:06Z</time>
      </trkpt>
      <trkpt lat="47.08029" lon="5.46418">
        <ele>257</ele>
        <time>2012-10-16T11:59:08Z</time>
      </trkpt>
      <trkpt lat="47.08025" lon="5.46406">
        <ele>257</ele>
        <time>2012-10-16T11:59:10Z</time>
      </trkpt>
      <trkpt lat="47.08021" lon="5.46392">
        <ele>257</ele>
        <time>2012-10-16T11:59:12Z</time>
      </trkpt>
      <trkpt lat="47.08017" lon="5.4638">
        <ele>257</ele>
        <time>2012-10-16T11:59:14Z</time>
      </trkpt>
      <trkpt lat="47.08016" lon="5.46364">
        <ele>257</ele>
        <time>2012-10-16T11:59:16Z</time>
      </trkpt>
      <trkpt lat="47.08016" lon="5.46348">
        <ele>257</ele>
        <time>2012-10-16T11:59:18Z</time>
      </trkpt>
      <trkpt lat="47.08019" lon="5.4633">
        <ele>257</ele>
        <time>2012-10-16T11:59:20Z</time>
      </trkpt>
      <trkpt lat="47.08019" lon="5.46314">
        <ele>257</ele>
        <time>2012-10-16T11:59:22Z</time>
      </trkpt>
      <trkpt lat="47.08021" lon="5.46296">
        <ele>257</ele>
        <time>2012-10-16T11:59:24Z</time>
      </trkpt>
      <trkpt lat="47.08027" lon="5.46277">
        <ele>250</ele>
        <time>2012-10-16T11:59:26Z</time>
      </trkpt>
      <trkpt lat="47.08033" lon="5.46257">
        <ele>250</ele>
        <time>2012-10-16T11:59:28Z</time>
      </trkpt>
      <trkpt lat="47.08039" lon="5.46237">
        <ele>250</ele>
        <time>2012-10-16T11:59:30Z</time>
      </trkpt>
      <trkpt lat="47.08044" lon="5.46214">
        <ele>243</ele>
        <time>2012-10-16T11:59:32Z</time>
      </trkpt>
      <trkpt lat="47.0805" lon="5.46192">
        <ele>243</ele>
        <time>2012-10-16T11:59:34Z</time>
      </trkpt>
      <trkpt lat="47.08054" lon="5.46169">
        <ele>243</ele>
        <time>2012-10-16T11:59:36Z</time>
      </trkpt>
      <trkpt lat="47.08058" lon="5.46146">
        <ele>243</ele>
        <time>2012-10-16T11:59:38Z</time>
      </trkpt>
      <trkpt lat="47.08063" lon="5.46122">
        <ele>237</ele>
        <time>2012-10-16T11:59:40Z</time>
      </trkpt>
      <trkpt lat="47.08065" lon="5.46109">
        <ele>237</ele>
        <time>2012-10-16T11:59:41Z</time>
      </trkpt>
      <trkpt lat="47.0807" lon="5.46085">
        <ele>237</ele>
        <time>2012-10-16T11:59:43Z</time>
      </trkpt>
      <trkpt lat="47.08075" lon="5.46062">
        <ele>237</ele>
        <time>2012-10-16T11:59:45Z</time>
      </trkpt>
      <trkpt lat="47.08077" lon="5.46049">
        <ele>237</ele>
        <time>2012-10-16T11:59:46Z</time>
      </trkpt>
      <trkpt lat="47.08079" lon="5.46037">
        <ele>237</ele>
        <time>2012-10-16T11:59:47Z</time>
      </trkpt>
      <trkpt lat="47.08084" lon="5.4601">
        <ele>231</ele>
        <time>2012-10-16T11:59:49Z</time>
      </trkpt>
      <trkpt lat="47.08087" lon="5.45998">
        <ele>231</ele>
        <time>2012-10-16T11:59:50Z</time>
      </trkpt>
      <trkpt lat="47.08091" lon="5.45973">
        <ele>231</ele>
        <time>2012-10-16T11:59:52Z</time>
      </trkpt>
      <trkpt lat="47.08095" lon="5.45949">
        <ele>231</ele>
        <time>2012-10-16T11:59:54Z</time>
      </trkpt>
      <trkpt lat="47.081" lon="5.45927">
        <ele>231</ele>
        <time>2012-10-16T11:59:56Z</time>
      </trkpt>
      <trkpt lat="47.08105" lon="5.45904">
        <ele>231</ele>
        <time>2012-10-16T11:59:58Z</time>
      </trkpt>
      <trkpt lat="47.08105" lon="5.4588">
        <ele>231</ele>
        <time>2012-10-16T12:00:00Z</time>
      </trkpt>
      <trkpt lat="47.081" lon="5.4586">
        <ele>231</ele>
        <time>2012-10-16T12:00:02Z</time>
      </trkpt>
      <trkpt lat="47.08092" lon="5.45842">
        <ele>225</ele>
        <time>2012-10-16T12:00:04Z</time>
      </trkpt>
      <trkpt lat="47.08082" lon="5.45828">
        <ele>225</ele>
        <time>2012-10-16T12:00:06Z</time>
      </trkpt>
      <trkpt lat="47.08073" lon="5.45815">
        <ele>225</ele>
        <time>2012-10-16T12:00:08Z</time>
      </trkpt>
      <trkpt lat="47.08063" lon="5.45801">
        <ele>225</ele>
        <time>2012-10-16T12:00:10Z</time>
      </trkpt>
      <trkpt lat="47.08053" lon="5.45788">
        <ele>225</ele>
        <time>2012-10-16T12:00:12Z</time>
      </trkpt>
      <trkpt lat="47.08044" lon="5.45775">
        <ele>225</ele>
        <time>2012-10-16T12:00:14Z</time>
      </trkpt>
      <trkpt lat="47.08033" lon="5.45763">
        <ele>225</ele>
        <time>2012-10-16T12:00:16Z</time>
      </trkpt>
      <trkpt lat="47.08024" lon="5.4575">
        <ele>225</ele>
        <time>2012-10-16T12:00:18Z</time>
      </trkpt>
      <trkpt lat="47.08014" lon="5.45735">
        <ele>225</ele>
        <time>2012-10-16T12:00:20Z</time>
      </trkpt>
      <trkpt lat="47.08004" lon="5.45719">
        <ele>225</ele>
        <time>2012-10-16T12:00:22Z</time>
      </trkpt>
      <trkpt lat="47.07995" lon="5.45702">
        <ele>225</ele>
        <time>2012-10-16T12:00:24Z</time>
      </trkpt>
      <trkpt lat="47.07986" lon="5.45687">
        <ele>225</ele>
        <time>2012-10-16T12:00:26Z</time>
      </trkpt>
      <trkpt lat="47.07976" lon="5.45672">
        <ele>225</ele>
        <time>2012-10-16T12:00:28Z</time>
      </trkpt>
      <trkpt lat="47.07965" lon="5.45657">
        <ele>225</ele>
        <time>2012-10-16T12:00:30Z</time>
      </trkpt>
      <trkpt lat="47.07956" lon="5.45642">
        <ele>225</ele>
        <time>2012-10-16T12:00:32Z</time>
      </trkpt>
      <trkpt lat="47.07947" lon="5.45627">
        <ele>225</ele>
        <time>2012-10-16T12:00:34Z</time>
      </trkpt>
      <trkpt lat="47.07938" lon="5.45613">
        <ele>225</ele>
        <time>2012-10-16T12:00:36Z</time>
      </trkpt>
      <trkpt lat="47.07929" lon="5.45599">
        <ele>231</ele>
        <time>2012-10-16T12:00:38Z</time>
      </trkpt>
      <trkpt lat="47.07924" lon="5.45579">
        <ele>231</ele>
        <time>2012-10-16T12:00:40Z</time>
      </trkpt>
      <trkpt lat="47.07923" lon="5.45556">
        <ele>231</ele>
        <time>2012-10-16T12:00:42Z</time>
      </trkpt>
      <trkpt lat="47.07925" lon="5.45533">
        <ele>231</ele>
        <time>2012-10-16T12:00:44Z</time>
      </trkpt>
      <trkpt lat="47.07927" lon="5.45509">
        <ele>226</ele>
        <time>2012-10-16T12:00:46Z</time>
      </trkpt>
      <trkpt lat="47.07928" lon="5.45491">
        <ele>226</ele>
        <time>2012-10-16T12:00:48Z</time>
      </trkpt>
      <trkpt lat="47.0793" lon="5.45473">
        <ele>226</ele>
        <time>2012-10-16T12:00:51Z</time>
      </trkpt>
      <trkpt lat="47.07932" lon="5.45454">
        <ele>220</ele>
        <time>2012-10-16T12:00:54Z</time>
      </trkpt>
      <trkpt lat="47.07935" lon="5.4544">
        <ele>220</ele>
        <time>2012-10-16T12:00:56Z</time>
      </trkpt>
      <trkpt lat="47.07941" lon="5.45426">
        <ele>220</ele>
        <time>2012-10-16T12:00:58Z</time>
      </trkpt>
      <trkpt lat="47.07947" lon="5.45411">
        <ele>220</ele>
        <time>2012-10-16T12:01:00Z</time>
      </trkpt>
      <trkpt lat="47.07955" lon="5.45396">
        <ele>220</ele>
        <time>2012-10-16T12:01:02Z</time>
      </trkpt>
      <trkpt lat="47.07965" lon="5.45383">
        <ele>220</ele>
        <time>2012-10-16T12:01:04Z</time>
      </trkpt>
      <trkpt lat="47.07974" lon="5.4537">
        <ele>220</ele>
        <time>2012-10-16T12:01:06Z</time>
      </trkpt>
      <trkpt lat="47.07984" lon="5.45356">
        <ele>215</ele>
        <time>2012-10-16T12:01:08Z</time>
      </trkpt>
      <trkpt lat="47.07994" lon="5.45345">
        <ele>215</ele>
        <time>2012-10-16T12:01:10Z</time>
      </trkpt>
      <trkpt lat="47.08004" lon="5.45333">
        <ele>215</ele>
        <time>2012-10-16T12:01:12Z</time>
      </trkpt>
      <trkpt lat="47.08014" lon="5.45324">
        <ele>215</ele>
        <time>2012-10-16T12:01:14Z</time>
      </trkpt>
      <trkpt lat="47.08024" lon="5.45326">
        <ele>215</ele>
        <time>2012-10-16T12:01:16Z</time>
      </trkpt>
      <trkpt lat="47.08031" lon="5.45338">
        <ele>215</ele>
        <time>2012-10-16T12:01:18Z</time>
      </trkpt>
      <trkpt lat="47.08038" lon="5.45348">
        <ele>215</ele>
        <time>2012-10-16T12:01:20Z</time>
      </trkpt>
      <trkpt lat="47.08046" lon="5.45358">
        <ele>215</ele>
        <time>2012-10-16T12:01:22Z</time>
      </trkpt>
      <trkpt lat="47.08054" lon="5.45369">
        <ele>215</ele>
        <time>2012-10-16T12:01:24Z</time>
      </trkpt>
      <trkpt lat="47.08062" lon="5.45377">
        <ele>215</ele>
        <time>2012-10-16T12:01:26Z</time>
      </trkpt>
      <trkpt lat="47.08073" lon="5.45382">
        <ele>215</ele>
        <time>2012-10-16T12:01:28Z</time>
      </trkpt>
      <trkpt lat="47.08083" lon="5.45385">
        <ele>215</ele>
        <time>2012-10-16T12:01:30Z</time>
      </trkpt>
      <trkpt lat="47.08095" lon="5.45391">
        <ele>215</ele>
        <time>2012-10-16T12:01:32Z</time>
      </trkpt>
      <trkpt lat="47.08107" lon="5.45394">
        <ele>215</ele>
        <time>2012-10-16T12:01:34Z</time>
      </trkpt>
      <trkpt lat="47.08119" lon="5.45398">
        <ele>215</ele>
        <time>2012-10-16T12:01:36Z</time>
      </trkpt>
      <trkpt lat="47.0813" lon="5.45401">
        <ele>221</ele>
        <time>2012-10-16T12:01:38Z</time>
      </trkpt>
      <trkpt lat="47.08141" lon="5.45407">
        <ele>221</ele>
        <time>2012-10-16T12:01:40Z</time>
      </trkpt>
      <trkpt lat="47.08152" lon="5.45412">
        <ele>221</ele>
        <time>2012-10-16T12:01:42Z</time>
      </trkpt>
      <trkpt lat="47.08164" lon="5.4542">
        <ele>221</ele>
        <time>2012-10-16T12:01:44Z</time>
      </trkpt>
      <trkpt lat="47.08177" lon="5.45429">
        <ele>221</ele>
        <time>2012-10-16T12:01:46Z</time>
      </trkpt>
      <trkpt lat="47.08188" lon="5.45441">
        <ele>221</ele>
        <time>2012-10-16T12:01:48Z</time>
      </trkpt>
      <trkpt lat="47.08198" lon="5.45455">
        <ele>221</ele>
        <time>2012-10-16T12:01:50Z</time>
      </trkpt>
      <trkpt lat="47.08209" lon="5.45471">
        <ele>221</ele>
        <time>2012-10-16T12:01:52Z</time>
      </trkpt>
      <trkpt lat="47.08219" lon="5.45485">
        <ele>221</ele>
        <time>2012-10-16T12:01:54Z</time>
      </trkpt>
      <trkpt lat="47.0823" lon="5.45501">
        <ele>221</ele>
        <time>2012-10-16T12:01:56Z</time>
      </trkpt>
      <trkpt lat="47.0824" lon="5.45516">
        <ele>221</ele>
        <time>2012-10-16T12:01:58Z</time>
      </trkpt>
      <trkpt lat="47.08249" lon="5.45532">
        <ele>221</ele>
        <time>2012-10-16T12:02:00Z</time>
      </trkpt>
      <trkpt lat="47.08259" lon="5.45546">
        <ele>221</ele>
        <time>2012-10-16T12:02:02Z</time>
      </trkpt>
      <trkpt lat="47.0827" lon="5.4556">
        <ele>221</ele>
        <time>2012-10-16T12:02:04Z</time>
      </trkpt>
      <trkpt lat="47.08281" lon="5.45572">
        <ele>221</ele>
        <time>2012-10-16T12:02:06Z</time>
      </trkpt>
      <trkpt lat="47.08293" lon="5.45581">
        <ele>221</ele>
        <time>2012-10-16T12:02:08Z</time>
      </trkpt>
      <trkpt lat="47.08305" lon="5.45587">
        <ele>221</ele>
        <time>2012-10-16T12:02:10Z</time>
      </trkpt>
      <trkpt lat="47.08315" lon="5.45594">
        <ele>215</ele>
        <time>2012-10-16T12:02:12Z</time>
      </trkpt>
      <trkpt lat="47.08324" lon="5.45599">
        <ele>215</ele>
        <time>2012-10-16T12:02:14Z</time>
      </trkpt>
      <trkpt lat="47.08332" lon="5.45606">
        <ele>215</ele>
        <time>2012-10-16T12:02:16Z</time>
      </trkpt>
      <trkpt lat="47.08342" lon="5.45614">
        <ele>215</ele>
        <time>2012-10-16T12:02:19Z</time>
      </trkpt>
      <trkpt lat="47.08352" lon="5.45604">
        <ele>215</ele>
        <time>2012-10-16T12:02:22Z</time>
      </trkpt>
      <trkpt lat="47.0836" lon="5.45595">
        <ele>215</ele>
        <time>2012-10-16T12:02:24Z</time>
      </trkpt>
      <trkpt lat="47.08369" lon="5.45589">
        <ele>215</ele>
        <time>2012-10-16T12:02:26Z</time>
      </trkpt>
      <trkpt lat="47.08378" lon="5.45582">
        <ele>215</ele>
        <time>2012-10-16T12:02:28Z</time>
      </trkpt>
      <trkpt lat="47.08387" lon="5.45577">
        <ele>215</ele>
        <time>2012-10-16T12:02:30Z</time>
      </trkpt>
      <trkpt lat="47.08397" lon="5.45573">
        <ele>220</ele>
        <time>2012-10-16T12:02:32Z</time>
      </trkpt>
      <trkpt lat="47.08407" lon="5.4557">
        <ele>220</ele>
        <time>2012-10-16T12:02:34Z</time>
      </trkpt>
      <trkpt lat="47.08418" lon="5.45568">
        <ele>220</ele>
        <time>2012-10-16T12:02:36Z</time>
      </trkpt>
      <trkpt lat="47.08427" lon="5.45564">
        <ele>220</ele>
        <time>2012-10-16T12:02:38Z</time>
      </trkpt>
      <trkpt lat="47.08437" lon="5.45561">
        <ele>220</ele>
        <time>2012-10-16T12:02:40Z</time>
      </trkpt>
      <trkpt lat="47.08446" lon="5.45558">
        <ele>220</ele>
        <time>2012-10-16T12:02:42Z</time>
      </trkpt>
      <trkpt lat="47.08456" lon="5.45556">
        <ele>220</ele>
        <time>2012-10-16T12:02:44Z</time>
      </trkpt>
      <trkpt lat="47.08466" lon="5.45554">
        <ele>220</ele>
        <time>2012-10-16T12:02:46Z</time>
      </trkpt>
      <trkpt lat="47.08476" lon="5.45551">
        <ele>220</ele>
        <time>2012-10-16T12:02:48Z</time>
      </trkpt>
      <trkpt lat="47.08486" lon="5.45547">
        <ele>220</ele>
        <time>2012-10-16T12:02:50Z</time>
      </trkpt>
      <trkpt lat="47.08496" lon="5.45542">
        <ele>220</ele>
        <time>2012-10-16T12:02:52Z</time>
      </trkpt>
      <trkpt lat="47.08506" lon="5.45538">
        <ele>220</ele>
        <time>2012-10-16T12:02:54Z</time>
      </trkpt>
      <trkpt lat="47.08516" lon="5.45533">
        <ele>220</ele>
        <time>2012-10-16T12:02:56Z</time>
      </trkpt>
      <trkpt lat="47.08525" lon="5.45528">
        <ele>220</ele>
        <time>2012-10-16T12:02:58Z</time>
      </trkpt>
      <trkpt lat="47.08534" lon="5.45524">
        <ele>220</ele>
        <time>2012-10-16T12:03:00Z</time>
      </trkpt>
      <trkpt lat="47.08544" lon="5.45521">
        <ele>220</ele>
        <time>2012-10-16T12:03:02Z</time>
      </trkpt>
      <trkpt lat="47.08554" lon="5.45518">
        <ele>220</ele>
        <time>2012-10-16T12:03:04Z</time>
      </trkpt>
      <trkpt lat="47.08564" lon="5.45515">
        <ele>220</ele>
        <time>2012-10-16T12:03:06Z</time>
      </trkpt>
      <trkpt lat="47.08574" lon="5.45513">
        <ele>220</ele>
        <time>2012-10-16T12:03:08Z</time>
      </trkpt>
      <trkpt lat="47.08584" lon="5.45508">
        <ele>226</ele>
        <time>2012-10-16T12:03:10Z</time>
      </trkpt>
      <trkpt lat="47.08593" lon="5.45505">
        <ele>226</ele>
        <time>2012-10-16T12:03:12Z</time>
      </trkpt>
      <trkpt lat="47.08602" lon="5.455">
        <ele>226</ele>
        <time>2012-10-16T12:03:14Z</time>
      </trkpt>
      <trkpt lat="47.08611" lon="5.45495">
        <ele>226</ele>
        <time>2012-10-16T12:03:16Z</time>
      </trkpt>
      <trkpt lat="47.0862" lon="5.45489">
        <ele>226</ele>
        <time>2012-10-16T12:03:18Z</time>
      </trkpt>
      <trkpt lat="47.08629" lon="5.45484">
        <ele>226</ele>
        <time>2012-10-16T12:03:20Z</time>
      </trkpt>
      <trkpt lat="47.08638" lon="5.4548">
        <ele>226</ele>
        <time>2012-10-16T12:03:22Z</time>
      </trkpt>
      <trkpt lat="47.08648" lon="5.45477">
        <ele>226</ele>
        <time>2012-10-16T12:03:24Z</time>
      </trkpt>
      <trkpt lat="47.0866" lon="5.45476">
        <ele>226</ele>
        <time>2012-10-16T12:03:27Z</time>
      </trkpt>
      <trkpt lat="47.08673" lon="5.45473">
        <ele>226</ele>
        <time>2012-10-16T12:03:30Z</time>
      </trkpt>
      <trkpt lat="47.08686" lon="5.45472">
        <ele>226</ele>
        <time>2012-10-16T12:03:33Z</time>
      </trkpt>
      <trkpt lat="47.08699" lon="5.45471">
        <ele>226</ele>
        <time>2012-10-16T12:03:36Z</time>
      </trkpt>
      <trkpt lat="47.08711" lon="5.45471">
        <ele>226</ele>
        <time>2012-10-16T12:03:39Z</time>
      </trkpt>
      <trkpt lat="47.08721" lon="5.4547">
        <ele>226</ele>
        <time>2012-10-16T12:03:41Z</time>
      </trkpt>
      <trkpt lat="47.0873" lon="5.45469">
        <ele>226</ele>
        <time>2012-10-16T12:03:43Z</time>
      </trkpt>
      <trkpt lat="47.08743" lon="5.45467">
        <ele>226</ele>
        <time>2012-10-16T12:03:46Z</time>
      </trkpt>
      <trkpt lat="47.08756" lon="5.45463">
        <ele>226</ele>
        <time>2012-10-16T12:03:49Z</time>
      </trkpt>
      <trkpt lat="47.08768" lon="5.4546">
        <ele>226</ele>
        <time>2012-10-16T12:03:52Z</time>
      </trkpt>
      <trkpt lat="47.08781" lon="5.45455">
        <ele>226</ele>
        <time>2012-10-16T12:03:55Z</time>
      </trkpt>
      <trkpt lat="47.0879" lon="5.45451">
        <ele>226</ele>
        <time>2012-10-16T12:03:57Z</time>
      </trkpt>
      <trkpt lat="47.08799" lon="5.45446">
        <ele>226</ele>
        <time>2012-10-16T12:03:59Z</time>
      </trkpt>
      <trkpt lat="47.08808" lon="5.45441">
        <ele>226</ele>
        <time>2012-10-16T12:04:01Z</time>
      </trkpt>
      <trkpt lat="47.08816" lon="5.45436">
        <ele>226</ele>
        <time>2012-10-16T12:04:03Z</time>
      </trkpt>
      <trkpt lat="47.08826" lon="5.45432">
        <ele>226</ele>
        <time>2012-10-16T12:04:05Z</time>
      </trkpt>
      <trkpt lat="47.08835" lon="5.45427">
        <ele>226</ele>
        <time>2012-10-16T12:04:07Z</time>
      </trkpt>
      <trkpt lat="47.08843" lon="5.45421">
        <ele>226</ele>
        <time>2012-10-16T12:04:09Z</time>
      </trkpt>
      <trkpt lat="47.08853" lon="5.45415">
        <ele>226</ele>
        <time>2012-10-16T12:04:11Z</time>
      </trkpt>
      <trkpt lat="47.08861" lon="5.45409">
        <ele>226</ele>
        <time>2012-10-16T12:04:13Z</time>
      </trkpt>
      <trkpt lat="47.08869" lon="5.454">
        <ele>226</ele>
        <time>2012-10-16T12:04:15Z</time>
      </trkpt>
      <trkpt lat="47.08876" lon="5.45391">
        <ele>226</ele>
        <time>2012-10-16T12:04:17Z</time>
      </trkpt>
      <trkpt lat="47.08883" lon="5.4538">
        <ele>226</ele>
        <time>2012-10-16T12:04:19Z</time>
      </trkpt>
      <trkpt lat="47.08889" lon="5.45369">
        <ele>226</ele>
        <time>2012-10-16T12:04:21Z</time>
      </trkpt>
      <trkpt lat="47.08895" lon="5.45358">
        <ele>226</ele>
        <time>2012-10-16T12:04:23Z</time>
      </trkpt>
      <trkpt lat="47.08904" lon="5.45343">
        <ele>226</ele>
        <time>2012-10-16T12:04:26Z</time>
      </trkpt>
      <trkpt lat="47.08913" lon="5.45329">
        <ele>226</ele>
        <time>2012-10-16T12:04:29Z</time>
      </trkpt>
      <trkpt lat="47.08923" lon="5.45318">
        <ele>226</ele>
        <time>2012-10-16T12:04:32Z</time>
      </trkpt>
      <trkpt lat="47.08932" lon="5.45314">
        <ele>226</ele>
        <time>2012-10-16T12:04:34Z</time>
      </trkpt>
      <trkpt lat="47.08945" lon="5.45315">
        <ele>226</ele>
        <time>2012-10-16T12:04:37Z</time>
      </trkpt>
      <trkpt lat="47.08957" lon="5.45318">
        <ele>231</ele>
        <time>2012-10-16T12:04:40Z</time>
      </trkpt>
      <trkpt lat="47.08969" lon="5.45321">
        <ele>231</ele>
        <time>2012-10-16T12:04:43Z</time>
      </trkpt>
      <trkpt lat="47.08981" lon="5.45322">
        <ele>231</ele>
        <time>2012-10-16T12:04:46Z</time>
      </trkpt>
      <trkpt lat="47.08994" lon="5.45322">
        <ele>231</ele>
        <time>2012-10-16T12:04:49Z</time>
      </trkpt>
      <trkpt lat="47.09005" lon="5.45318">
        <ele>231</ele>
        <time>2012-10-16T12:04:52Z</time>
      </trkpt>
      <trkpt lat="47.09016" lon="5.45312">
        <ele>231</ele>
        <time>2012-10-16T12:04:55Z</time>
      </trkpt>
      <trkpt lat="47.09027" lon="5.45305">
        <ele>231</ele>
        <time>2012-10-16T12:04:58Z</time>
      </trkpt>
      <trkpt lat="47.09038" lon="5.45299">
        <ele>231</ele>
        <time>2012-10-16T12:05:01Z</time>
      </trkpt>
      <trkpt lat="47.09049" lon="5.45293">
        <ele>236</ele>
        <time>2012-10-16T12:05:04Z</time>
      </trkpt>
      <trkpt lat="47.0906" lon="5.45286">
        <ele>236</ele>
        <time>2012-10-16T12:05:07Z</time>
      </trkpt>
      <trkpt lat="47.0907" lon="5.45279">
        <ele>236</ele>
        <time>2012-10-16T12:05:10Z</time>
      </trkpt>
      <trkpt lat="47.09081" lon="5.45273">
        <ele>236</ele>
        <time>2012-10-16T12:05:13Z</time>
      </trkpt>
      <trkpt lat="47.09091" lon="5.45266">
        <ele>236</ele>
        <time>2012-10-16T12:05:16Z</time>
      </trkpt>
      <trkpt lat="47.09102" lon="5.45259">
        <ele>236</ele>
        <time>2012-10-16T12:05:19Z</time>
      </trkpt>
      <trkpt lat="47.09113" lon="5.45252">
        <ele>236</ele>
        <time>2012-10-16T12:05:22Z</time>
      </trkpt>
      <trkpt lat="47.09124" lon="5.45246">
        <ele>236</ele>
        <time>2012-10-16T12:05:25Z</time>
      </trkpt>
      <trkpt lat="47.09136" lon="5.45239">
        <ele>236</ele>
        <time>2012-10-16T12:05:28Z</time>
      </trkpt>
      <trkpt lat="47.09148" lon="5.45232">
        <ele>236</ele>
        <time>2012-10-16T12:05:31Z</time>
      </trkpt>
      <trkpt lat="47.09159" lon="5.45224">
        <ele>236</ele>
        <time>2012-10-16T12:05:34Z</time>
      </trkpt>
      <trkpt lat="47.09172" lon="5.45216">
        <ele>236</ele>
        <time>2012-10-16T12:05:37Z</time>
      </trkpt>
      <trkpt lat="47.09181" lon="5.45211">
        <ele>236</ele>
        <time>2012-10-16T12:05:39Z</time>
      </trkpt>
      <trkpt lat="47.0919" lon="5.45206">
        <ele>236</ele>
        <time>2012-10-16T12:05:41Z</time>
      </trkpt>
      <trkpt lat="47.09199" lon="5.45199">
        <ele>236</ele>
        <time>2012-10-16T12:05:43Z</time>
      </trkpt>
      <trkpt lat="47.0921" lon="5.45193">
        <ele>236</ele>
        <time>2012-10-16T12:05:45Z</time>
      </trkpt>
      <trkpt lat="47.09219" lon="5.45188">
        <ele>236</ele>
        <time>2012-10-16T12:05:47Z</time>
      </trkpt>
      <trkpt lat="47.09229" lon="5.45181">
        <ele>236</ele>
        <time>2012-10-16T12:05:49Z</time>
      </trkpt>
      <trkpt lat="47.09238" lon="5.45176">
        <ele>236</ele>
        <time>2012-10-16T12:05:51Z</time>
      </trkpt>
      <trkpt lat="47.09247" lon="5.45171">
        <ele>236</ele>
        <time>2012-10-16T12:05:53Z</time>
      </trkpt>
      <trkpt lat="47.09257" lon="5.45165">
        <ele>241</ele>
        <time>2012-10-16T12:05:55Z</time>
      </trkpt>
      <trkpt lat="47.09265" lon="5.4516">
        <ele>241</ele>
        <time>2012-10-16T12:05:57Z</time>
      </trkpt>
      <trkpt lat="47.09274" lon="5.45154">
        <ele>241</ele>
        <time>2012-10-16T12:05:59Z</time>
      </trkpt>
      <trkpt lat="47.09286" lon="5.45147">
        <ele>241</ele>
        <time>2012-10-16T12:06:02Z</time>
      </trkpt>
      <trkpt lat="47.09298" lon="5.45141">
        <ele>241</ele>
        <time>2012-10-16T12:06:05Z</time>
      </trkpt>
      <trkpt lat="47.0931" lon="5.45134">
        <ele>241</ele>
        <time>2012-10-16T12:06:08Z</time>
      </trkpt>
      <trkpt lat="47.09318" lon="5.45129">
        <ele>241</ele>
        <time>2012-10-16T12:06:10Z</time>
      </trkpt>
      <trkpt lat="47.09329" lon="5.45122">
        <ele>247</ele>
        <time>2012-10-16T12:06:13Z</time>
      </trkpt>
      <trkpt lat="47.0934" lon="5.45117">
        <ele>247</ele>
        <time>2012-10-16T12:06:16Z</time>
      </trkpt>
      <trkpt lat="47.0935" lon="5.4511">
        <ele>247</ele>
        <time>2012-10-16T12:06:19Z</time>
      </trkpt>
      <trkpt lat="47.0936" lon="5.45104">
        <ele>247</ele>
        <time>2012-10-16T12:06:22Z</time>
      </trkpt>
      <trkpt lat="47.0937" lon="5.451">
        <ele>253</ele>
        <time>2012-10-16T12:06:25Z</time>
      </trkpt>
      <trkpt lat="47.0938" lon="5.45096">
        <ele>253</ele>
        <time>2012-10-16T12:06:28Z</time>
      </trkpt>
      <trkpt lat="47.09391" lon="5.45094">
        <ele>253</ele>
        <time>2012-10-16T12:06:31Z</time>
      </trkpt>
      <trkpt lat="47.09402" lon="5.45095">
        <ele>253</ele>
        <time>2012-10-16T12:06:34Z</time>
      </trkpt>
      <trkpt lat="47.09413" lon="5.45099">
        <ele>253</ele>
        <time>2012-10-16T12:06:37Z</time>
      </trkpt>
      <trkpt lat="47.09424" lon="5.45105">
        <ele>253</ele>
        <time>2012-10-16T12:06:40Z</time>
      </trkpt>
      <trkpt lat="47.09434" lon="5.45111">
        <ele>253</ele>
        <time>2012-10-16T12:06:43Z</time>
      </trkpt>
      <trkpt lat="47.09443" lon="5.45118">
        <ele>253</ele>
        <time>2012-10-16T12:06:46Z</time>
      </trkpt>
      <trkpt lat="47.09453" lon="5.45127">
        <ele>253</ele>
        <time>2012-10-16T12:06:49Z</time>
      </trkpt>
      <trkpt lat="47.09463" lon="5.45134">
        <ele>253</ele>
        <time>2012-10-16T12:06:52Z</time>
      </trkpt>
      <trkpt lat="47.09473" lon="5.45141">
        <ele>253</ele>
        <time>2012-10-16T12:06:55Z</time>
      </trkpt>
      <trkpt lat="47.09484" lon="5.45147">
        <ele>253</ele>
        <time>2012-10-16T12:06:58Z</time>
      </trkpt>
      <trkpt lat="47.09494" lon="5.45153">
        <ele>253</ele>
        <time>2012-10-16T12:07:01Z</time>
      </trkpt>
      <trkpt lat="47.09505" lon="5.45159">
        <ele>253</ele>
        <time>2012-10-16T12:07:04Z</time>
      </trkpt>
      <trkpt lat="47.09516" lon="5.45163">
        <ele>253</ele>
        <time>2012-10-16T12:07:07Z</time>
      </trkpt>
      <trkpt lat="47.09527" lon="5.45169">
        <ele>260</ele>
        <time>2012-10-16T12:07:10Z</time>
      </trkpt>
      <trkpt lat="47.09537" lon="5.45171">
        <ele>260</ele>
        <time>2012-10-16T12:07:13Z</time>
      </trkpt>
      <trkpt lat="47.09546" lon="5.45176">
        <ele>260</ele>
        <time>2012-10-16T12:07:16Z</time>
      </trkpt>
      <trkpt lat="47.09554" lon="5.4518">
        <ele>266</ele>
        <time>2012-10-16T12:07:19Z</time>
      </trkpt>
      <trkpt lat="47.09565" lon="5.45186">
        <ele>266</ele>
        <time>2012-10-16T12:07:22Z</time>
      </trkpt>
      <trkpt lat="47.09577" lon="5.4519">
        <ele>266</ele>
        <time>2012-10-16T12:07:25Z</time>
      </trkpt>
      <trkpt lat="47.09589" lon="5.45195">
        <ele>272</ele>
        <time>2012-10-16T12:07:28Z</time>
      </trkpt>
      <trkpt lat="47.09602" lon="5.45197">
        <ele>272</ele>
        <time>2012-10-16T12:07:31Z</time>
      </trkpt>
      <trkpt lat="47.09613" lon="5.45197">
        <ele>272</ele>
        <time>2012-10-16T12:07:34Z</time>
      </trkpt>
      <trkpt lat="47.09626" lon="5.45194">
        <ele>272</ele>
        <time>2012-10-16T12:07:37Z</time>
      </trkpt>
      <trkpt lat="47.09637" lon="5.45188">
        <ele>272</ele>
        <time>2012-10-16T12:07:40Z</time>
      </trkpt>
      <trkpt lat="47.09646" lon="5.45177">
        <ele>272</ele>
        <time>2012-10-16T12:07:43Z</time>
      </trkpt>
      <trkpt lat="47.09654" lon="5.45167">
        <ele>272</ele>
        <time>2012-10-16T12:07:46Z</time>
      </trkpt>
      <trkpt lat="47.09662" lon="5.45156">
        <ele>272</ele>
        <time>2012-10-16T12:07:49Z</time>
      </trkpt>
      <trkpt lat="47.0967" lon="5.45145">
        <ele>272</ele>
        <time>2012-10-16T12:07:52Z</time>
      </trkpt>
      <trkpt lat="47.09678" lon="5.45135">
        <ele>272</ele>
        <time>2012-10-16T12:07:55Z</time>
      </trkpt>
      <trkpt lat="47.09686" lon="5.45126">
        <ele>272</ele>
        <time>2012-10-16T12:07:58Z</time>
      </trkpt>
      <trkpt lat="47.09693" lon="5.45116">
        <ele>272</ele>
        <time>2012-10-16T12:08:01Z</time>
      </trkpt>
      <trkpt lat="47.097" lon="5.45106">
        <ele>272</ele>
        <time>2012-10-16T12:08:04Z</time>
      </trkpt>
      <trkpt lat="47.09708" lon="5.45096">
        <ele>272</ele>
        <time>2012-10-16T12:08:07Z</time>
      </trkpt>
      <trkpt lat="47.09715" lon="5.45086">
        <ele>272</ele>
        <time>2012-10-16T12:08:10Z</time>
      </trkpt>
      <trkpt lat="47.09722" lon="5.45076">
        <ele>272</ele>
        <time>2012-10-16T12:08:13Z</time>
      </trkpt>
      <trkpt lat="47.0973" lon="5.45066">
        <ele>272</ele>
        <time>2012-10-16T12:08:16Z</time>
      </trkpt>
      <trkpt lat="47.09737" lon="5.45056">
        <ele>272</ele>
        <time>2012-10-16T12:08:19Z</time>
      </trkpt>
      <trkpt lat="47.09744" lon="5.45047">
        <ele>272</ele>
        <time>2012-10-16T12:08:22Z</time>
      </trkpt>
      <trkpt lat="47.09751" lon="5.45038">
        <ele>272</ele>
        <time>2012-10-16T12:08:25Z</time>
      </trkpt>
      <trkpt lat="47.09758" lon="5.45028">
        <ele>272</ele>
        <time>2012-10-16T12:08:28Z</time>
      </trkpt>
      <trkpt lat="47.09765" lon="5.45018">
        <ele>272</ele>
        <time>2012-10-16T12:08:31Z</time>
      </trkpt>
      <trkpt lat="47.09773" lon="5.45005">
        <ele>272</ele>
        <time>2012-10-16T12:08:35Z</time>
      </trkpt>
      <trkpt lat="47.09781" lon="5.44993">
        <ele>272</ele>
        <time>2012-10-16T12:08:39Z</time>
      </trkpt>
      <trkpt lat="47.09788" lon="5.44978">
        <ele>272</ele>
        <time>2012-10-16T12:08:43Z</time>
      </trkpt>
      <trkpt lat="47.09793" lon="5.44964">
        <ele>272</ele>
        <time>2012-10-16T12:08:47Z</time>
      </trkpt>
      <trkpt lat="47.09795" lon="5.44951">
        <ele>272</ele>
        <time>2012-10-16T12:08:50Z</time>
      </trkpt>
      <trkpt lat="47.09797" lon="5.44937">
        <ele>272</ele>
        <time>2012-10-16T12:08:53Z</time>
      </trkpt>
      <trkpt lat="47.09799" lon="5.44923">
        <ele>272</ele>
        <time>2012-10-16T12:08:56Z</time>
      </trkpt>
      <trkpt lat="47.09799" lon="5.44907">
        <ele>272</ele>
        <time>2012-10-16T12:08:59Z</time>
      </trkpt>
      <trkpt lat="47.09798" lon="5.4489">
        <ele>278</ele>
        <time>2012-10-16T12:09:02Z</time>
      </trkpt>
      <trkpt lat="47.09795" lon="5.44878">
        <ele>278</ele>
        <time>2012-10-16T12:09:04Z</time>
      </trkpt>
      <trkpt lat="47.09791" lon="5.44863">
        <ele>278</ele>
        <time>2012-10-16T12:09:06Z</time>
      </trkpt>
      <trkpt lat="47.09784" lon="5.44847">
        <ele>278</ele>
        <time>2012-10-16T12:09:08Z</time>
      </trkpt>
      <trkpt lat="47.0978" lon="5.44828">
        <ele>278</ele>
        <time>2012-10-16T12:09:10Z</time>
      </trkpt>
      <trkpt lat="47.09781" lon="5.44805">
        <ele>278</ele>
        <time>2012-10-16T12:09:12Z</time>
      </trkpt>
      <trkpt lat="47.09784" lon="5.44792">
        <ele>278</ele>
        <time>2012-10-16T12:09:13Z</time>
      </trkpt>
      <trkpt lat="47.09791" lon="5.44767">
        <ele>278</ele>
        <time>2012-10-16T12:09:15Z</time>
      </trkpt>
      <trkpt lat="47.09794" lon="5.44755">
        <ele>273</ele>
        <time>2012-10-16T12:09:16Z</time>
      </trkpt>
      <trkpt lat="47.09797" lon="5.44741">
        <ele>273</ele>
        <time>2012-10-16T12:09:17Z</time>
      </trkpt>
      <trkpt lat="47.09801" lon="5.44727">
        <ele>273</ele>
        <time>2012-10-16T12:09:18Z</time>
      </trkpt>
      <trkpt lat="47.09805" lon="5.44713">
        <ele>273</ele>
        <time>2012-10-16T12:09:19Z</time>
      </trkpt>
      <trkpt lat="47.09811" lon="5.44699">
        <ele>273</ele>
        <time>2012-10-16T12:09:20Z</time>
      </trkpt>
      <trkpt lat="47.09818" lon="5.44685">
        <ele>267</ele>
        <time>2012-10-16T12:09:21Z</time>
      </trkpt>
      <trkpt lat="47.09826" lon="5.44674">
        <ele>267</ele>
        <time>2012-10-16T12:09:22Z</time>
      </trkpt>
      <trkpt lat="47.09835" lon="5.44663">
        <ele>267</ele>
        <time>2012-10-16T12:09:23Z</time>
      </trkpt>
      <trkpt lat="47.09845" lon="5.44651">
        <ele>262</ele>
        <time>2012-10-16T12:09:24Z</time>
      </trkpt>
      <trkpt lat="47.09855" lon="5.44641">
        <ele>262</ele>
        <time>2012-10-16T12:09:25Z</time>
      </trkpt>
      <trkpt lat="47.09865" lon="5.44629">
        <ele>262</ele>
        <time>2012-10-16T12:09:26Z</time>
      </trkpt>
      <trkpt lat="47.09875" lon="5.44617">
        <ele>262</ele>
        <time>2012-10-16T12:09:27Z</time>
      </trkpt>
      <trkpt lat="47.09884" lon="5.44605">
        <ele>257</ele>
        <time>2012-10-16T12:09:28Z</time>
      </trkpt>
      <trkpt lat="47.09892" lon="5.4459">
        <ele>257</ele>
        <time>2012-10-16T12:09:29Z</time>
      </trkpt>
      <trkpt lat="47.09901" lon="5.44575">
        <ele>257</ele>
        <time>2012-10-16T12:09:30Z</time>
      </trkpt>
      <trkpt lat="47.09909" lon="5.44559">
        <ele>257</ele>
        <time>2012-10-16T12:09:31Z</time>
      </trkpt>
      <trkpt lat="47.09916" lon="5.44543">
        <ele>257</ele>
        <time>2012-10-16T12:09:32Z</time>
      </trkpt>
      <trkpt lat="47.09924" lon="5.44527">
        <ele>251</ele>
        <time>2012-10-16T12:09:33Z</time>
      </trkpt>
      <trkpt lat="47.09932" lon="5.44511">
        <ele>251</ele>
        <time>2012-10-16T12:09:34Z</time>
      </trkpt>
      <trkpt lat="47.09938" lon="5.44496">
        <ele>251</ele>
        <time>2012-10-16T12:09:35Z</time>
      </trkpt>
      <trkpt lat="47.09945" lon="5.44482">
        <ele>251</ele>
        <time>2012-10-16T12:09:36Z</time>
      </trkpt>
      <trkpt lat="47.09951" lon="5.44468">
        <ele>251</ele>
        <time>2012-10-16T12:09:37Z</time>
      </trkpt>
      <trkpt lat="47.09956" lon="5.44455">
        <ele>251</ele>
        <time>2012-10-16T12:09:38Z</time>
      </trkpt>
      <trkpt lat="47.0996" lon="5.44444">
        <ele>251</ele>
        <time>2012-10-16T12:09:39Z</time>
      </trkpt>
      <trkpt lat="47.09965" lon="5.44432">
        <ele>246</ele>
        <time>2012-10-16T12:09:40Z</time>
      </trkpt>
      <trkpt lat="47.09972" lon="5.44411">
        <ele>246</ele>
        <time>2012-10-16T12:09:42Z</time>
      </trkpt>
      <trkpt lat="47.09978" lon="5.44394">
        <ele>246</ele>
        <time>2012-10-16T12:09:44Z</time>
      </trkpt>
      <trkpt lat="47.09981" lon="5.4438">
        <ele>246</ele>
        <time>2012-10-16T12:09:46Z</time>
      </trkpt>
      <trkpt lat="47.09986" lon="5.44367">
        <ele>246</ele>
        <time>2012-10-16T12:09:49Z</time>
      </trkpt>
      <trkpt lat="47.09991" lon="5.44352">
        <ele>246</ele>
        <time>2012-10-16T12:09:53Z</time>
      </trkpt>
      <trkpt lat="47.09995" lon="5.44336">
        <ele>246</ele>
        <time>2012-10-16T12:09:56Z</time>
      </trkpt>
      <trkpt lat="47.1" lon="5.44318">
        <ele>246</ele>
        <time>2012-10-16T12:09:59Z</time>
      </trkpt>
      <trkpt lat="47.10004" lon="5.443">
        <ele>246</ele>
        <time>2012-10-16T12:10:02Z</time>
      </trkpt>
      <trkpt lat="47.1001" lon="5.44283">
        <ele>246</ele>
        <time>2012-10-16T12:10:05Z</time>
      </trkpt>
      <trkpt lat="47.10016" lon="5.44265">
        <ele>246</ele>
        <time>2012-10-16T12:10:08Z</time>
      </trkpt>
      <trkpt lat="47.10021" lon="5.44251">
        <ele>246</ele>
        <time>2012-10-16T12:10:10Z</time>
      </trkpt>
      <trkpt lat="47.10027" lon="5.44235">
        <ele>246</ele>
        <time>2012-10-16T12:10:12Z</time>
      </trkpt>
      <trkpt lat="47.10035" lon="5.44222">
        <ele>246</ele>
        <time>2012-10-16T12:10:14Z</time>
      </trkpt>
      <trkpt lat="47.10045" lon="5.4421">
        <ele>246</ele>
        <time>2012-10-16T12:10:16Z</time>
      </trkpt>
      <trkpt lat="47.10055" lon="5.44199">
        <ele>246</ele>
        <time>2012-10-16T12:10:18Z</time>
      </trkpt>
      <trkpt lat="47.10065" lon="5.44191">
        <ele>246</ele>
        <time>2012-10-16T12:10:20Z</time>
      </trkpt>
      <trkpt lat="47.10076" lon="5.44184">
        <ele>246</ele>
        <time>2012-10-16T12:10:22Z</time>
      </trkpt>
      <trkpt lat="47.10087" lon="5.44177">
        <ele>246</ele>
        <time>2012-10-16T12:10:24Z</time>
      </trkpt>
      <trkpt lat="47.10097" lon="5.44171">
        <ele>246</ele>
        <time>2012-10-16T12:10:26Z</time>
      </trkpt>
      <trkpt lat="47.10106" lon="5.44165">
        <ele>246</ele>
        <time>2012-10-16T12:10:28Z</time>
      </trkpt>
      <trkpt lat="47.10116" lon="5.44159">
        <ele>246</ele>
        <time>2012-10-16T12:10:30Z</time>
      </trkpt>
      <trkpt lat="47.10125" lon="5.44154">
        <ele>246</ele>
        <time>2012-10-16T12:10:32Z</time>
      </trkpt>
      <trkpt lat="47.10135" lon="5.44149">
        <ele>246</ele>
        <time>2012-10-16T12:10:34Z</time>
      </trkpt>
      <trkpt lat="47.10148" lon="5.44141">
        <ele>246</ele>
        <time>2012-10-16T12:10:37Z</time>
      </trkpt>
      <trkpt lat="47.10157" lon="5.44137">
        <ele>246</ele>
        <time>2012-10-16T12:10:39Z</time>
      </trkpt>
      <trkpt lat="47.10166" lon="5.4413">
        <ele>246</ele>
        <time>2012-10-16T12:10:41Z</time>
      </trkpt>
      <trkpt lat="47.10175" lon="5.44123">
        <ele>246</ele>
        <time>2012-10-16T12:10:43Z</time>
      </trkpt>
      <trkpt lat="47.10184" lon="5.44116">
        <ele>241</ele>
        <time>2012-10-16T12:10:45Z</time>
      </trkpt>
      <trkpt lat="47.10194" lon="5.4411">
        <ele>241</ele>
        <time>2012-10-16T12:10:47Z</time>
      </trkpt>
      <trkpt lat="47.10204" lon="5.44102">
        <ele>241</ele>
        <time>2012-10-16T12:10:49Z</time>
      </trkpt>
      <trkpt lat="47.10214" lon="5.44095">
        <ele>241</ele>
        <time>2012-10-16T12:10:51Z</time>
      </trkpt>
      <trkpt lat="47.10224" lon="5.44088">
        <ele>241</ele>
        <time>2012-10-16T12:10:53Z</time>
      </trkpt>
      <trkpt lat="47.10233" lon="5.44081">
        <ele>241</ele>
        <time>2012-10-16T12:10:55Z</time>
      </trkpt>
      <trkpt lat="47.10244" lon="5.44073">
        <ele>241</ele>
        <time>2012-10-16T12:10:57Z</time>
      </trkpt>
      <trkpt lat="47.10254" lon="5.44065">
        <ele>241</ele>
        <time>2012-10-16T12:10:59Z</time>
      </trkpt>
      <trkpt lat="47.10265" lon="5.44057">
        <ele>241</ele>
        <time>2012-10-16T12:11:01Z</time>
      </trkpt>
      <trkpt lat="47.10277" lon="5.44049">
        <ele>241</ele>
        <time>2012-10-16T12:11:03Z</time>
      </trkpt>
      <trkpt lat="47.10289" lon="5.4404">
        <ele>241</ele>
        <time>2012-10-16T12:11:05Z</time>
      </trkpt>
      <trkpt lat="47.10301" lon="5.4403">
        <ele>241</ele>
        <time>2012-10-16T12:11:07Z</time>
      </trkpt>
      <trkpt lat="47.10313" lon="5.4402">
        <ele>241</ele>
        <time>2012-10-16T12:11:09Z</time>
      </trkpt>
      <trkpt lat="47.10325" lon="5.4401">
        <ele>236</ele>
        <time>2012-10-16T12:11:11Z</time>
      </trkpt>
      <trkpt lat="47.10338" lon="5.44">
        <ele>236</ele>
        <time>2012-10-16T12:11:13Z</time>
      </trkpt>
      <trkpt lat="47.10351" lon="5.4399">
        <ele>236</ele>
        <time>2012-10-16T12:11:15Z</time>
      </trkpt>
      <trkpt lat="47.10363" lon="5.43979">
        <ele>236</ele>
        <time>2012-10-16T12:11:17Z</time>
      </trkpt>
      <trkpt lat="47.10376" lon="5.43968">
        <ele>236</ele>
        <time>2012-10-16T12:11:19Z</time>
      </trkpt>
      <trkpt lat="47.10389" lon="5.43953">
        <ele>236</ele>
        <time>2012-10-16T12:11:21Z</time>
      </trkpt>
      <trkpt lat="47.10401" lon="5.43934">
        <ele>236</ele>
        <time>2012-10-16T12:11:23Z</time>
      </trkpt>
      <trkpt lat="47.10413" lon="5.43915">
        <ele>230</ele>
        <time>2012-10-16T12:11:25Z</time>
      </trkpt>
      <trkpt lat="47.10424" lon="5.43895">
        <ele>230</ele>
        <time>2012-10-16T12:11:27Z</time>
      </trkpt>
      <trkpt lat="47.10435" lon="5.43875">
        <ele>230</ele>
        <time>2012-10-16T12:11:29Z</time>
      </trkpt>
      <trkpt lat="47.10441" lon="5.43865">
        <ele>230</ele>
        <time>2012-10-16T12:11:30Z</time>
      </trkpt>
      <trkpt lat="47.10448" lon="5.43855">
        <ele>230</ele>
        <time>2012-10-16T12:11:31Z</time>
      </trkpt>
      <trkpt lat="47.10454" lon="5.43845">
        <ele>230</ele>
        <time>2012-10-16T12:11:32Z</time>
      </trkpt>
      <trkpt lat="47.1046" lon="5.43833">
        <ele>225</ele>
        <time>2012-10-16T12:11:33Z</time>
      </trkpt>
      <trkpt lat="47.10467" lon="5.43821">
        <ele>225</ele>
        <time>2012-10-16T12:11:34Z</time>
      </trkpt>
      <trkpt lat="47.10473" lon="5.43809">
        <ele>225</ele>
        <time>2012-10-16T12:11:35Z</time>
      </trkpt>
      <trkpt lat="47.10479" lon="5.43797">
        <ele>225</ele>
        <time>2012-10-16T12:11:36Z</time>
      </trkpt>
      <trkpt lat="47.10485" lon="5.43784">
        <ele>225</ele>
        <time>2012-10-16T12:11:37Z</time>
      </trkpt>
      <trkpt lat="47.1049" lon="5.43773">
        <ele>225</ele>
        <time>2012-10-16T12:11:38Z</time>
      </trkpt>
      <trkpt lat="47.10496" lon="5.43762">
        <ele>225</ele>
        <time>2012-10-16T12:11:39Z</time>
      </trkpt>
      <trkpt lat="47.10503" lon="5.43747">
        <ele>225</ele>
        <time>2012-10-16T12:11:41Z</time>
      </trkpt>
      <trkpt lat="47.10511" lon="5.43739">
        <ele>225</ele>
        <time>2012-10-16T12:11:43Z</time>
      </trkpt>
      <trkpt lat="47.1052" lon="5.43746">
        <ele>225</ele>
        <time>2012-10-16T12:11:46Z</time>
      </trkpt>
      <trkpt lat="47.10528" lon="5.43753">
        <ele>225</ele>
        <time>2012-10-16T12:11:49Z</time>
      </trkpt>
      <trkpt lat="47.10539" lon="5.43745">
        <ele>225</ele>
        <time>2012-10-16T12:11:52Z</time>
      </trkpt>
      <trkpt lat="47.10546" lon="5.43736">
        <ele>225</ele>
        <time>2012-10-16T12:11:54Z</time>
      </trkpt>
      <trkpt lat="47.10555" lon="5.43727">
        <ele>225</ele>
        <time>2012-10-16T12:11:56Z</time>
      </trkpt>
      <trkpt lat="47.10564" lon="5.43721">
        <ele>225</ele>
        <time>2012-10-16T12:11:58Z</time>
      </trkpt>
      <trkpt lat="47.10573" lon="5.43713">
        <ele>225</ele>
        <time>2012-10-16T12:12:00Z</time>
      </trkpt>
      <trkpt lat="47.10584" lon="5.43708">
        <ele>225</ele>
        <time>2012-10-16T12:12:02Z</time>
      </trkpt>
      <trkpt lat="47.10593" lon="5.43704">
        <ele>225</ele>
        <time>2012-10-16T12:12:04Z</time>
      </trkpt>
      <trkpt lat="47.10603" lon="5.43697">
        <ele>225</ele>
        <time>2012-10-16T12:12:06Z</time>
      </trkpt>
      <trkpt lat="47.10611" lon="5.43689">
        <ele>225</ele>
        <time>2012-10-16T12:12:08Z</time>
      </trkpt>
      <trkpt lat="47.10618" lon="5.43678">
        <ele>225</ele>
        <time>2012-10-16T12:12:10Z</time>
      </trkpt>
      <trkpt lat="47.10624" lon="5.43666">
        <ele>225</ele>
        <time>2012-10-16T12:12:12Z</time>
      </trkpt>
      <trkpt lat="47.10628" lon="5.43652">
        <ele>225</ele>
        <time>2012-10-16T12:12:14Z</time>
      </trkpt>
      <trkpt lat="47.10631" lon="5.4364">
        <ele>225</ele>
        <time>2012-10-16T12:12:16Z</time>
      </trkpt>
      <trkpt lat="47.10634" lon="5.43626">
        <ele>225</ele>
        <time>2012-10-16T12:12:18Z</time>
      </trkpt>
      <trkpt lat="47.10636" lon="5.43614">
        <ele>225</ele>
        <time>2012-10-16T12:12:20Z</time>
      </trkpt>
      <trkpt lat="47.10641" lon="5.43597">
        <ele>225</ele>
        <time>2012-10-16T12:12:23Z</time>
      </trkpt>
      <trkpt lat="47.10645" lon="5.4358">
        <ele>225</ele>
        <time>2012-10-16T12:12:26Z</time>
      </trkpt>
      <trkpt lat="47.10649" lon="5.43566">
        <ele>225</ele>
        <time>2012-10-16T12:12:28Z</time>
      </trkpt>
      <trkpt lat="47.10652" lon="5.43553">
        <ele>225</ele>
        <time>2012-10-16T12:12:30Z</time>
      </trkpt>
      <trkpt lat="47.10657" lon="5.43539">
        <ele>225</ele>
        <time>2012-10-16T12:12:32Z</time>
      </trkpt>
      <trkpt lat="47.10662" lon="5.43525">
        <ele>225</ele>
        <time>2012-10-16T12:12:34Z</time>
      </trkpt>
      <trkpt lat="47.10668" lon="5.43512">
        <ele>225</ele>
        <time>2012-10-16T12:12:36Z</time>
      </trkpt>
      <trkpt lat="47.10674" lon="5.435">
        <ele>225</ele>
        <time>2012-10-16T12:12:38Z</time>
      </trkpt>
      <trkpt lat="47.10681" lon="5.43488">
        <ele>225</ele>
        <time>2012-10-16T12:12:40Z</time>
      </trkpt>
      <trkpt lat="47.10689" lon="5.43476">
        <ele>225</ele>
        <time>2012-10-16T12:12:42Z</time>
      </trkpt>
      <trkpt lat="47.10697" lon="5.43465">
        <ele>225</ele>
        <time>2012-10-16T12:12:44Z</time>
      </trkpt>
      <trkpt lat="47.10705" lon="5.43453">
        <ele>225</ele>
        <time>2012-10-16T12:12:46Z</time>
      </trkpt>
      <trkpt lat="47.10713" lon="5.43441">
        <ele>225</ele>
        <time>2012-10-16T12:12:48Z</time>
      </trkpt>
      <trkpt lat="47.10721" lon="5.4343">
        <ele>225</ele>
        <time>2012-10-16T12:12:50Z</time>
      </trkpt>
      <trkpt lat="47.10728" lon="5.43417">
        <ele>225</ele>
        <time>2012-10-16T12:12:52Z</time>
      </trkpt>
      <trkpt lat="47.10737" lon="5.43405">
        <ele>225</ele>
        <time>2012-10-16T12:12:54Z</time>
      </trkpt>
      <trkpt lat="47.10744" lon="5.43394">
        <ele>225</ele>
        <time>2012-10-16T12:12:56Z</time>
      </trkpt>
      <trkpt lat="47.10751" lon="5.43382">
        <ele>225</ele>
        <time>2012-10-16T12:12:58Z</time>
      </trkpt>
      <trkpt lat="47.10758" lon="5.43369">
        <ele>225</ele>
        <time>2012-10-16T12:13:00Z</time>
      </trkpt>
      <trkpt lat="47.10766" lon="5.43355">
        <ele>225</ele>
        <time>2012-10-16T12:13:02Z</time>
      </trkpt>
      <trkpt lat="47.10774" lon="5.4334">
        <ele>225</ele>
        <time>2012-10-16T12:13:04Z</time>
      </trkpt>
      <trkpt lat="47.10782" lon="5.43324">
        <ele>225</ele>
        <time>2012-10-16T12:13:06Z</time>
      </trkpt>
      <trkpt lat="47.10791" lon="5.43306">
        <ele>225</ele>
        <time>2012-10-16T12:13:08Z</time>
      </trkpt>
      <trkpt lat="47.10798" lon="5.43284">
        <ele>225</ele>
        <time>2012-10-16T12:13:10Z</time>
      </trkpt>
      <trkpt lat="47.10805" lon="5.43262">
        <ele>225</ele>
        <time>2012-10-16T12:13:12Z</time>
      </trkpt>
      <trkpt lat="47.10813" lon="5.43238">
        <ele>219</ele>
        <time>2012-10-16T12:13:14Z</time>
      </trkpt>
      <trkpt lat="47.10822" lon="5.43217">
        <ele>219</ele>
        <time>2012-10-16T12:13:16Z</time>
      </trkpt>
      <trkpt lat="47.10832" lon="5.43197">
        <ele>219</ele>
        <time>2012-10-16T12:13:18Z</time>
      </trkpt>
      <trkpt lat="47.10839" lon="5.43176">
        <ele>219</ele>
        <time>2012-10-16T12:13:20Z</time>
      </trkpt>
      <trkpt lat="47.10843" lon="5.43155">
        <ele>219</ele>
        <time>2012-10-16T12:13:22Z</time>
      </trkpt>
      <trkpt lat="47.10846" lon="5.43133">
        <ele>219</ele>
        <time>2012-10-16T12:13:24Z</time>
      </trkpt>
      <trkpt lat="47.10848" lon="5.43112">
        <ele>219</ele>
        <time>2012-10-16T12:13:26Z</time>
      </trkpt>
      <trkpt lat="47.10849" lon="5.4309">
        <ele>219</ele>
        <time>2012-10-16T12:13:28Z</time>
      </trkpt>
      <trkpt lat="47.10851" lon="5.43069">
        <ele>219</ele>
        <time>2012-10-16T12:13:30Z</time>
      </trkpt>
      <trkpt lat="47.10854" lon="5.43049">
        <ele>219</ele>
        <time>2012-10-16T12:13:32Z</time>
      </trkpt>
      <trkpt lat="47.10857" lon="5.43029">
        <ele>219</ele>
        <time>2012-10-16T12:13:34Z</time>
      </trkpt>
      <trkpt lat="47.1086" lon="5.43008">
        <ele>219</ele>
        <time>2012-10-16T12:13:36Z</time>
      </trkpt>
      <trkpt lat="47.10865" lon="5.42989">
        <ele>219</ele>
        <time>2012-10-16T12:13:38Z</time>
      </trkpt>
      <trkpt lat="47.10872" lon="5.42971">
        <ele>219</ele>
        <time>2012-10-16T12:13:40Z</time>
      </trkpt>
      <trkpt lat="47.10881" lon="5.42953">
        <ele>219</ele>
        <time>2012-10-16T12:13:42Z</time>
      </trkpt>
      <trkpt lat="47.1089" lon="5.42937">
        <ele>219</ele>
        <time>2012-10-16T12:13:44Z</time>
      </trkpt>
      <trkpt lat="47.10902" lon="5.42925">
        <ele>219</ele>
        <time>2012-10-16T12:13:46Z</time>
      </trkpt>
      <trkpt lat="47.10915" lon="5.42913">
        <ele>219</ele>
        <time>2012-10-16T12:13:48Z</time>
      </trkpt>
      <trkpt lat="47.10928" lon="5.42903">
        <ele>219</ele>
        <time>2012-10-16T12:13:50Z</time>
      </trkpt>
      <trkpt lat="47.10941" lon="5.42894">
        <ele>219</ele>
        <time>2012-10-16T12:13:52Z</time>
      </trkpt>
      <trkpt lat="47.10954" lon="5.42884">
        <ele>219</ele>
        <time>2012-10-16T12:13:54Z</time>
      </trkpt>
      <trkpt lat="47.10967" lon="5.42875">
        <ele>219</ele>
        <time>2012-10-16T12:13:56Z</time>
      </trkpt>
      <trkpt lat="47.1098" lon="5.42865">
        <ele>219</ele>
        <time>2012-10-16T12:13:58Z</time>
      </trkpt>
      <trkpt lat="47.10993" lon="5.42854">
        <ele>219</ele>
        <time>2012-10-16T12:14:00Z</time>
      </trkpt>
      <trkpt lat="47.11006" lon="5.42843">
        <ele>219</ele>
        <time>2012-10-16T12:14:02Z</time>
      </trkpt>
      <trkpt lat="47.11019" lon="5.42832">
        <ele>219</ele>
        <time>2012-10-16T12:14:04Z</time>
      </trkpt>
      <trkpt lat="47.1103" lon="5.42821">
        <ele>219</ele>
        <time>2012-10-16T12:14:06Z</time>
      </trkpt>
      <trkpt lat="47.11042" lon="5.42809">
        <ele>219</ele>
        <time>2012-10-16T12:14:08Z</time>
      </trkpt>
      <trkpt lat="47.11054" lon="5.42797">
        <ele>219</ele>
        <time>2012-10-16T12:14:10Z</time>
      </trkpt>
      <trkpt lat="47.11065" lon="5.42786">
        <ele>219</ele>
        <time>2012-10-16T12:14:12Z</time>
      </trkpt>
      <trkpt lat="47.11076" lon="5.42773">
        <ele>219</ele>
        <time>2012-10-16T12:14:14Z</time>
      </trkpt>
      <trkpt lat="47.11088" lon="5.4276">
        <ele>219</ele>
        <time>2012-10-16T12:14:16Z</time>
      </trkpt>
      <trkpt lat="47.11099" lon="5.42747">
        <ele>219</ele>
        <time>2012-10-16T12:14:18Z</time>
      </trkpt>
      <trkpt lat="47.1111" lon="5.42734">
        <ele>219</ele>
        <time>2012-10-16T12:14:20Z</time>
      </trkpt>
      <trkpt lat="47.11121" lon="5.42721">
        <ele>219</ele>
        <time>2012-10-16T12:14:22Z</time>
      </trkpt>
      <trkpt lat="47.11133" lon="5.42706">
        <ele>219</ele>
        <time>2012-10-16T12:14:24Z</time>
      </trkpt>
      <trkpt lat="47.11144" lon="5.42693">
        <ele>219</ele>
        <time>2012-10-16T12:14:26Z</time>
      </trkpt>
      <trkpt lat="47.11156" lon="5.42679">
        <ele>219</ele>
        <time>2012-10-16T12:14:28Z</time>
      </trkpt>
      <trkpt lat="47.11167" lon="5.42666">
        <ele>219</ele>
        <time>2012-10-16T12:14:30Z</time>
      </trkpt>
      <trkpt lat="47.11178" lon="5.42653">
        <ele>219</ele>
        <time>2012-10-16T12:14:32Z</time>
      </trkpt>
      <trkpt lat="47.11189" lon="5.4264">
        <ele>219</ele>
        <time>2012-10-16T12:14:34Z</time>
      </trkpt>
      <trkpt lat="47.112" lon="5.42627">
        <ele>219</ele>
        <time>2012-10-16T12:14:36Z</time>
      </trkpt>
      <trkpt lat="47.11211" lon="5.42615">
        <ele>219</ele>
        <time>2012-10-16T12:14:38Z</time>
      </trkpt>
      <trkpt lat="47.11222" lon="5.42602">
        <ele>219</ele>
        <time>2012-10-16T12:14:40Z</time>
      </trkpt>
      <trkpt lat="47.11233" lon="5.4259">
        <ele>219</ele>
        <time>2012-10-16T12:14:42Z</time>
      </trkpt>
      <trkpt lat="47.11244" lon="5.42577">
        <ele>219</ele>
        <time>2012-10-16T12:14:44Z</time>
      </trkpt>
      <trkpt lat="47.11254" lon="5.42565">
        <ele>219</ele>
        <time>2012-10-16T12:14:46Z</time>
      </trkpt>
      <trkpt lat="47.11264" lon="5.42553">
        <ele>219</ele>
        <time>2012-10-16T12:14:48Z</time>
      </trkpt>
      <trkpt lat="47.11274" lon="5.42539">
        <ele>219</ele>
        <time>2012-10-16T12:14:50Z</time>
      </trkpt>
      <trkpt lat="47.11283" lon="5.42526">
        <ele>219</ele>
        <time>2012-10-16T12:14:52Z</time>
      </trkpt>
      <trkpt lat="47.11293" lon="5.42512">
        <ele>219</ele>
        <time>2012-10-16T12:14:54Z</time>
      </trkpt>
      <trkpt lat="47.11301" lon="5.42498">
        <ele>219</ele>
        <time>2012-10-16T12:14:56Z</time>
      </trkpt>
      <trkpt lat="47.11309" lon="5.42483">
        <ele>219</ele>
        <time>2012-10-16T12:14:58Z</time>
      </trkpt>
      <trkpt lat="47.11317" lon="5.42467">
        <ele>219</ele>
        <time>2012-10-16T12:15:00Z</time>
      </trkpt>
      <trkpt lat="47.11324" lon="5.4245">
        <ele>219</ele>
        <time>2012-10-16T12:15:02Z</time>
      </trkpt>
      <trkpt lat="47.11331" lon="5.42434">
        <ele>219</ele>
        <time>2012-10-16T12:15:04Z</time>
      </trkpt>
      <trkpt lat="47.11339" lon="5.42418">
        <ele>219</ele>
        <time>2012-10-16T12:15:06Z</time>
      </trkpt>
      <trkpt lat="47.11346" lon="5.42402">
        <ele>219</ele>
        <time>2012-10-16T12:15:08Z</time>
      </trkpt>
      <trkpt lat="47.11353" lon="5.42386">
        <ele>219</ele>
        <time>2012-10-16T12:15:10Z</time>
      </trkpt>
      <trkpt lat="47.1136" lon="5.42369">
        <ele>219</ele>
        <time>2012-10-16T12:15:12Z</time>
      </trkpt>
      <trkpt lat="47.11367" lon="5.42353">
        <ele>219</ele>
        <time>2012-10-16T12:15:14Z</time>
      </trkpt>
      <trkpt lat="47.11374" lon="5.42335">
        <ele>219</ele>
        <time>2012-10-16T12:15:16Z</time>
      </trkpt>
      <trkpt lat="47.11381" lon="5.42319">
        <ele>219</ele>
        <time>2012-10-16T12:15:18Z</time>
      </trkpt>
      <trkpt lat="47.11388" lon="5.42302">
        <ele>219</ele>
        <time>2012-10-16T12:15:20Z</time>
      </trkpt>
      <trkpt lat="47.11396" lon="5.42285">
        <ele>219</ele>
        <time>2012-10-16T12:15:22Z</time>
      </trkpt>
      <trkpt lat="47.11402" lon="5.42269">
        <ele>219</ele>
        <time>2012-10-16T12:15:24Z</time>
      </trkpt>
      <trkpt lat="47.1141" lon="5.42252">
        <ele>219</ele>
        <time>2012-10-16T12:15:26Z</time>
      </trkpt>
      <trkpt lat="47.11417" lon="5.42236">
        <ele>219</ele>
        <time>2012-10-16T12:15:28Z</time>
      </trkpt>
      <trkpt lat="47.11424" lon="5.42219">
        <ele>219</ele>
        <time>2012-10-16T12:15:30Z</time>
      </trkpt>
      <trkpt lat="47.11431" lon="5.42202">
        <ele>219</ele>
        <time>2012-10-16T12:15:32Z</time>
      </trkpt>
      <trkpt lat="47.11438" lon="5.42187">
        <ele>219</ele>
        <time>2012-10-16T12:15:34Z</time>
      </trkpt>
      <trkpt lat="47.11445" lon="5.42171">
        <ele>219</ele>
        <time>2012-10-16T12:15:36Z</time>
      </trkpt>
      <trkpt lat="47.11451" lon="5.42155">
        <ele>219</ele>
        <time>2012-10-16T12:15:38Z</time>
      </trkpt>
      <trkpt lat="47.11458" lon="5.42139">
        <ele>219</ele>
        <time>2012-10-16T12:15:40Z</time>
      </trkpt>
      <trkpt lat="47.11464" lon="5.42123">
        <ele>219</ele>
        <time>2012-10-16T12:15:42Z</time>
      </trkpt>
      <trkpt lat="47.1147" lon="5.42106">
        <ele>219</ele>
        <time>2012-10-16T12:15:44Z</time>
      </trkpt>
      <trkpt lat="47.11477" lon="5.42089">
        <ele>219</ele>
        <time>2012-10-16T12:15:46Z</time>
      </trkpt>
      <trkpt lat="47.11483" lon="5.42073">
        <ele>219</ele>
        <time>2012-10-16T12:15:48Z</time>
      </trkpt>
      <trkpt lat="47.11491" lon="5.42057">
        <ele>219</ele>
        <time>2012-10-16T12:15:50Z</time>
      </trkpt>
      <trkpt lat="47.11497" lon="5.42041">
        <ele>219</ele>
        <time>2012-10-16T12:15:52Z</time>
      </trkpt>
      <trkpt lat="47.11504" lon="5.42023">
        <ele>219</ele>
        <time>2012-10-16T12:15:54Z</time>
      </trkpt>
      <trkpt lat="47.1151" lon="5.42005">
        <ele>219</ele>
        <time>2012-10-16T12:15:56Z</time>
      </trkpt>
      <trkpt lat="47.11516" lon="5.41987">
        <ele>219</ele>
        <time>2012-10-16T12:15:58Z</time>
      </trkpt>
      <trkpt lat="47.11523" lon="5.41969">
        <ele>219</ele>
        <time>2012-10-16T12:16:00Z</time>
      </trkpt>
      <trkpt lat="47.11529" lon="5.41952">
        <ele>219</ele>
        <time>2012-10-16T12:16:02Z</time>
      </trkpt>
      <trkpt lat="47.11535" lon="5.41934">
        <ele>219</ele>
        <time>2012-10-16T12:16:04Z</time>
      </trkpt>
      <trkpt lat="47.11542" lon="5.41917">
        <ele>219</ele>
        <time>2012-10-16T12:16:06Z</time>
      </trkpt>
      <trkpt lat="47.11548" lon="5.419">
        <ele>219</ele>
        <time>2012-10-16T12:16:08Z</time>
      </trkpt>
      <trkpt lat="47.11553" lon="5.41883">
        <ele>219</ele>
        <time>2012-10-16T12:16:10Z</time>
      </trkpt>
      <trkpt lat="47.11558" lon="5.41867">
        <ele>219</ele>
        <time>2012-10-16T12:16:12Z</time>
      </trkpt>
      <trkpt lat="47.11564" lon="5.4185">
        <ele>219</ele>
        <time>2012-10-16T12:16:14Z</time>
      </trkpt>
      <trkpt lat="47.11569" lon="5.41834">
        <ele>219</ele>
        <time>2012-10-16T12:16:16Z</time>
      </trkpt>
      <trkpt lat="47.11575" lon="5.41818">
        <ele>219</ele>
        <time>2012-10-16T12:16:18Z</time>
      </trkpt>
      <trkpt lat="47.1158" lon="5.41801">
        <ele>219</ele>
        <time>2012-10-16T12:16:20Z</time>
      </trkpt>
      <trkpt lat="47.11586" lon="5.41785">
        <ele>219</ele>
        <time>2012-10-16T12:16:22Z</time>
      </trkpt>
      <trkpt lat="47.11592" lon="5.41769">
        <ele>219</ele>
        <time>2012-10-16T12:16:24Z</time>
      </trkpt>
      <trkpt lat="47.11599" lon="5.41752">
        <ele>219</ele>
        <time>2012-10-16T12:16:26Z</time>
      </trkpt>
      <trkpt lat="47.11604" lon="5.41735">
        <ele>219</ele>
        <time>2012-10-16T12:16:28Z</time>
      </trkpt>
      <trkpt lat="47.1161" lon="5.41719">
        <ele>219</ele>
        <time>2012-10-16T12:16:30Z</time>
      </trkpt>
      <trkpt lat="47.11616" lon="5.41702">
        <ele>219</ele>
        <time>2012-10-16T12:16:32Z</time>
      </trkpt>
      <trkpt lat="47.11622" lon="5.41685">
        <ele>219</ele>
        <time>2012-10-16T12:16:34Z</time>
      </trkpt>
      <trkpt lat="47.11628" lon="5.41668">
        <ele>219</ele>
        <time>2012-10-16T12:16:36Z</time>
      </trkpt>
      <trkpt lat="47.11634" lon="5.41652">
        <ele>219</ele>
        <time>2012-10-16T12:16:38Z</time>
      </trkpt>
      <trkpt lat="47.1164" lon="5.41635">
        <ele>219</ele>
        <time>2012-10-16T12:16:40Z</time>
      </trkpt>
      <trkpt lat="47.11646" lon="5.41617">
        <ele>219</ele>
        <time>2012-10-16T12:16:42Z</time>
      </trkpt>
      <trkpt lat="47.11652" lon="5.416">
        <ele>219</ele>
        <time>2012-10-16T12:16:44Z</time>
      </trkpt>
      <trkpt lat="47.11658" lon="5.41583">
        <ele>219</ele>
        <time>2012-10-16T12:16:46Z</time>
      </trkpt>
      <trkpt lat="47.11664" lon="5.41566">
        <ele>219</ele>
        <time>2012-10-16T12:16:48Z</time>
      </trkpt>
      <trkpt lat="47.1167" lon="5.41549">
        <ele>219</ele>
        <time>2012-10-16T12:16:50Z</time>
      </trkpt>
      <trkpt lat="47.11675" lon="5.41531">
        <ele>219</ele>
        <time>2012-10-16T12:16:52Z</time>
      </trkpt>
      <trkpt lat="47.11681" lon="5.41513">
        <ele>219</ele>
        <time>2012-10-16T12:16:54Z</time>
      </trkpt>
      <trkpt lat="47.11687" lon="5.41496">
        <ele>219</ele>
        <time>2012-10-16T12:16:56Z</time>
      </trkpt>
      <trkpt lat="47.11693" lon="5.41479">
        <ele>219</ele>
        <time>2012-10-16T12:16:58Z</time>
      </trkpt>
      <trkpt lat="47.11699" lon="5.41462">
        <ele>219</ele>
        <time>2012-10-16T12:17:00Z</time>
      </trkpt>
      <trkpt lat="47.11705" lon="5.41445">
        <ele>219</ele>
        <time>2012-10-16T12:17:02Z</time>
      </trkpt>
      <trkpt lat="47.1171" lon="5.41428">
        <ele>219</ele>
        <time>2012-10-16T12:17:04Z</time>
      </trkpt>
      <trkpt lat="47.11717" lon="5.41411">
        <ele>219</ele>
        <time>2012-10-16T12:17:06Z</time>
      </trkpt>
      <trkpt lat="47.11723" lon="5.41394">
        <ele>219</ele>
        <time>2012-10-16T12:17:08Z</time>
      </trkpt>
      <trkpt lat="47.11729" lon="5.41377">
        <ele>219</ele>
        <time>2012-10-16T12:17:10Z</time>
      </trkpt>
      <trkpt lat="47.11735" lon="5.4136">
        <ele>219</ele>
        <time>2012-10-16T12:17:12Z</time>
      </trkpt>
      <trkpt lat="47.11741" lon="5.41343">
        <ele>219</ele>
        <time>2012-10-16T12:17:14Z</time>
      </trkpt>
      <trkpt lat="47.11746" lon="5.41325">
        <ele>219</ele>
        <time>2012-10-16T12:17:16Z</time>
      </trkpt>
      <trkpt lat="47.11752" lon="5.41308">
        <ele>219</ele>
        <time>2012-10-16T12:17:18Z</time>
      </trkpt>
      <trkpt lat="47.11758" lon="5.41291">
        <ele>219</ele>
        <time>2012-10-16T12:17:20Z</time>
      </trkpt>
      <trkpt lat="47.11765" lon="5.41274">
        <ele>219</ele>
        <time>2012-10-16T12:17:22Z</time>
      </trkpt>
      <trkpt lat="47.11771" lon="5.41257">
        <ele>219</ele>
        <time>2012-10-16T12:17:24Z</time>
      </trkpt>
      <trkpt lat="47.11776" lon="5.4124">
        <ele>214</ele>
        <time>2012-10-16T12:17:26Z</time>
      </trkpt>
      <trkpt lat="47.11783" lon="5.41222">
        <ele>214</ele>
        <time>2012-10-16T12:17:28Z</time>
      </trkpt>
      <trkpt lat="47.11789" lon="5.41204">
        <ele>214</ele>
        <time>2012-10-16T12:17:30Z</time>
      </trkpt>
      <trkpt lat="47.11796" lon="5.41187">
        <ele>214</ele>
        <time>2012-10-16T12:17:32Z</time>
      </trkpt>
      <trkpt lat="47.11801" lon="5.4117">
        <ele>214</ele>
        <time>2012-10-16T12:17:34Z</time>
      </trkpt>
      <trkpt lat="47.11807" lon="5.41152">
        <ele>214</ele>
        <time>2012-10-16T12:17:36Z</time>
      </trkpt>
      <trkpt lat="47.11812" lon="5.41133">
        <ele>214</ele>
        <time>2012-10-16T12:17:38Z</time>
      </trkpt>
      <trkpt lat="47.11817" lon="5.41115">
        <ele>214</ele>
        <time>2012-10-16T12:17:40Z</time>
      </trkpt>
      <trkpt lat="47.11821" lon="5.41097">
        <ele>214</ele>
        <time>2012-10-16T12:17:42Z</time>
      </trkpt>
      <trkpt lat="47.11826" lon="5.41078">
        <ele>214</ele>
        <time>2012-10-16T12:17:44Z</time>
      </trkpt>
      <trkpt lat="47.1183" lon="5.41059">
        <ele>214</ele>
        <time>2012-10-16T12:17:46Z</time>
      </trkpt>
      <trkpt lat="47.11834" lon="5.41039">
        <ele>214</ele>
        <time>2012-10-16T12:17:48Z</time>
      </trkpt>
      <trkpt lat="47.11838" lon="5.41019">
        <ele>214</ele>
        <time>2012-10-16T12:17:50Z</time>
      </trkpt>
      <trkpt lat="47.11842" lon="5.41">
        <ele>214</ele>
        <time>2012-10-16T12:17:52Z</time>
      </trkpt>
      <trkpt lat="47.11845" lon="5.40979">
        <ele>214</ele>
        <time>2012-10-16T12:17:54Z</time>
      </trkpt>
      <trkpt lat="47.1185" lon="5.40959">
        <ele>214</ele>
        <time>2012-10-16T12:17:56Z</time>
      </trkpt>
      <trkpt lat="47.11854" lon="5.40939">
        <ele>214</ele>
        <time>2012-10-16T12:17:58Z</time>
      </trkpt>
      <trkpt lat="47.11859" lon="5.4092">
        <ele>214</ele>
        <time>2012-10-16T12:18:00Z</time>
      </trkpt>
      <trkpt lat="47.11864" lon="5.40901">
        <ele>214</ele>
        <time>2012-10-16T12:18:02Z</time>
      </trkpt>
      <trkpt lat="47.1187" lon="5.40882">
        <ele>214</ele>
        <time>2012-10-16T12:18:04Z</time>
      </trkpt>
      <trkpt lat="47.11875" lon="5.40864">
        <ele>214</ele>
        <time>2012-10-16T12:18:06Z</time>
      </trkpt>
      <trkpt lat="47.1188" lon="5.40847">
        <ele>214</ele>
        <time>2012-10-16T12:18:08Z</time>
      </trkpt>
      <trkpt lat="47.11886" lon="5.40831">
        <ele>214</ele>
        <time>2012-10-16T12:18:10Z</time>
      </trkpt>
      <trkpt lat="47.11892" lon="5.40814">
        <ele>214</ele>
        <time>2012-10-16T12:18:12Z</time>
      </trkpt>
      <trkpt lat="47.11897" lon="5.40798">
        <ele>214</ele>
        <time>2012-10-16T12:18:14Z</time>
      </trkpt>
      <trkpt lat="47.11903" lon="5.4078">
        <ele>214</ele>
        <time>2012-10-16T12:18:16Z</time>
      </trkpt>
      <trkpt lat="47.11908" lon="5.40762">
        <ele>214</ele>
        <time>2012-10-16T12:18:18Z</time>
      </trkpt>
      <trkpt lat="47.11912" lon="5.40745">
        <ele>214</ele>
        <time>2012-10-16T12:18:20Z</time>
      </trkpt>
      <trkpt lat="47.11915" lon="5.40726">
        <ele>214</ele>
        <time>2012-10-16T12:18:22Z</time>
      </trkpt>
      <trkpt lat="47.11917" lon="5.40706">
        <ele>214</ele>
        <time>2012-10-16T12:18:24Z</time>
      </trkpt>
      <trkpt lat="47.11918" lon="5.40686">
        <ele>214</ele>
        <time>2012-10-16T12:18:26Z</time>
      </trkpt>
      <trkpt lat="47.11917" lon="5.40665">
        <ele>214</ele>
        <time>2012-10-16T12:18:28Z</time>
      </trkpt>
      <trkpt lat="47.11915" lon="5.40645">
        <ele>214</ele>
        <time>2012-10-16T12:18:30Z</time>
      </trkpt>
      <trkpt lat="47.11913" lon="5.40623">
        <ele>214</ele>
        <time>2012-10-16T12:18:32Z</time>
      </trkpt>
      <trkpt lat="47.11911" lon="5.40602">
        <ele>214</ele>
        <time>2012-10-16T12:18:34Z</time>
      </trkpt>
      <trkpt lat="47.11907" lon="5.4058">
        <ele>214</ele>
        <time>2012-10-16T12:18:36Z</time>
      </trkpt>
      <trkpt lat="47.11904" lon="5.40558">
        <ele>214</ele>
        <time>2012-10-16T12:18:38Z</time>
      </trkpt>
      <trkpt lat="47.119" lon="5.40535">
        <ele>214</ele>
        <time>2012-10-16T12:18:40Z</time>
      </trkpt>
      <trkpt lat="47.11896" lon="5.40514">
        <ele>214</ele>
        <time>2012-10-16T12:18:42Z</time>
      </trkpt>
      <trkpt lat="47.11891" lon="5.40493">
        <ele>214</ele>
        <time>2012-10-16T12:18:44Z</time>
      </trkpt>
      <trkpt lat="47.11886" lon="5.40471">
        <ele>214</ele>
        <time>2012-10-16T12:18:46Z</time>
      </trkpt>
      <trkpt lat="47.11881" lon="5.40453">
        <ele>214</ele>
        <time>2012-10-16T12:18:48Z</time>
      </trkpt>
      <trkpt lat="47.11875" lon="5.40435">
        <ele>214</ele>
        <time>2012-10-16T12:18:50Z</time>
      </trkpt>
      <trkpt lat="47.11868" lon="5.40417">
        <ele>214</ele>
        <time>2012-10-16T12:18:52Z</time>
      </trkpt>
      <trkpt lat="47.11862" lon="5.40401">
        <ele>214</ele>
        <time>2012-10-16T12:18:54Z</time>
      </trkpt>
      <trkpt lat="47.11854" lon="5.40387">
        <ele>214</ele>
        <time>2012-10-16T12:18:56Z</time>
      </trkpt>
      <trkpt lat="47.11845" lon="5.40374">
        <ele>214</ele>
        <time>2012-10-16T12:18:58Z</time>
      </trkpt>
      <trkpt lat="47.11835" lon="5.40361">
        <ele>214</ele>
        <time>2012-10-16T12:19:00Z</time>
      </trkpt>
      <trkpt lat="47.11827" lon="5.40347">
        <ele>214</ele>
        <time>2012-10-16T12:19:02Z</time>
      </trkpt>
      <trkpt lat="47.11819" lon="5.40331">
        <ele>214</ele>
        <time>2012-10-16T12:19:04Z</time>
      </trkpt>
      <trkpt lat="47.11815" lon="5.40313">
        <ele>214</ele>
        <time>2012-10-16T12:19:06Z</time>
      </trkpt>
      <trkpt lat="47.11811" lon="5.40295">
        <ele>214</ele>
        <time>2012-10-16T12:19:08Z</time>
      </trkpt>
      <trkpt lat="47.11811" lon="5.40276">
        <ele>214</ele>
        <time>2012-10-16T12:19:10Z</time>
      </trkpt>
      <trkpt lat="47.11813" lon="5.40256">
        <ele>214</ele>
        <time>2012-10-16T12:19:12Z</time>
      </trkpt>
      <trkpt lat="47.11814" lon="5.40237">
        <ele>214</ele>
        <time>2012-10-16T12:19:14Z</time>
      </trkpt>
      <trkpt lat="47.11815" lon="5.40216">
        <ele>214</ele>
        <time>2012-10-16T12:19:16Z</time>
      </trkpt>
      <trkpt lat="47.11816" lon="5.40197">
        <ele>214</ele>
        <time>2012-10-16T12:19:18Z</time>
      </trkpt>
      <trkpt lat="47.11818" lon="5.40178">
        <ele>214</ele>
        <time>2012-10-16T12:19:20Z</time>
      </trkpt>
      <trkpt lat="47.11819" lon="5.40158">
        <ele>214</ele>
        <time>2012-10-16T12:19:22Z</time>
      </trkpt>
      <trkpt lat="47.1182" lon="5.40138">
        <ele>214</ele>
        <time>2012-10-16T12:19:24Z</time>
      </trkpt>
      <trkpt lat="47.11821" lon="5.40118">
        <ele>214</ele>
        <time>2012-10-16T12:19:26Z</time>
      </trkpt>
      <trkpt lat="47.11822" lon="5.40098">
        <ele>214</ele>
        <time>2012-10-16T12:19:28Z</time>
      </trkpt>
      <trkpt lat="47.11824" lon="5.40078">
        <ele>214</ele>
        <time>2012-10-16T12:19:30Z</time>
      </trkpt>
      <trkpt lat="47.11825" lon="5.40057">
        <ele>214</ele>
        <time>2012-10-16T12:19:32Z</time>
      </trkpt>
      <trkpt lat="47.11827" lon="5.40038">
        <ele>214</ele>
        <time>2012-10-16T12:19:34Z</time>
      </trkpt>
      <trkpt lat="47.11829" lon="5.40018">
        <ele>214</ele>
        <time>2012-10-16T12:19:36Z</time>
      </trkpt>
      <trkpt lat="47.11832" lon="5.39998">
        <ele>214</ele>
        <time>2012-10-16T12:19:38Z</time>
      </trkpt>
      <trkpt lat="47.11834" lon="5.39978">
        <ele>214</ele>
        <time>2012-10-16T12:19:40Z</time>
      </trkpt>
      <trkpt lat="47.11837" lon="5.39959">
        <ele>214</ele>
        <time>2012-10-16T12:19:42Z</time>
      </trkpt>
      <trkpt lat="47.1184" lon="5.3994">
        <ele>214</ele>
        <time>2012-10-16T12:19:44Z</time>
      </trkpt>
      <trkpt lat="47.11843" lon="5.3992">
        <ele>214</ele>
        <time>2012-10-16T12:19:46Z</time>
      </trkpt>
      <trkpt lat="47.11845" lon="5.399">
        <ele>214</ele>
        <time>2012-10-16T12:19:48Z</time>
      </trkpt>
      <trkpt lat="47.11847" lon="5.39879">
        <ele>214</ele>
        <time>2012-10-16T12:19:50Z</time>
      </trkpt>
      <trkpt lat="47.11848" lon="5.39859">
        <ele>214</ele>
        <time>2012-10-16T12:19:52Z</time>
      </trkpt>
      <trkpt lat="47.11848" lon="5.39837">
        <ele>214</ele>
        <time>2012-10-16T12:19:54Z</time>
      </trkpt>
      <trkpt lat="47.11847" lon="5.39816">
        <ele>214</ele>
        <time>2012-10-16T12:19:56Z</time>
      </trkpt>
      <trkpt lat="47.11845" lon="5.39793">
        <ele>209</ele>
        <time>2012-10-16T12:19:58Z</time>
      </trkpt>
      <trkpt lat="47.11841" lon="5.39771">
        <ele>209</ele>
        <time>2012-10-16T12:20:00Z</time>
      </trkpt>
      <trkpt lat="47.11836" lon="5.39747">
        <ele>209</ele>
        <time>2012-10-16T12:20:02Z</time>
      </trkpt>
      <trkpt lat="47.1183" lon="5.39724">
        <ele>209</ele>
        <time>2012-10-16T12:20:04Z</time>
      </trkpt>
      <trkpt lat="47.11823" lon="5.39701">
        <ele>209</ele>
        <time>2012-10-16T12:20:06Z</time>
      </trkpt>
      <trkpt lat="47.11816" lon="5.39677">
        <ele>209</ele>
        <time>2012-10-16T12:20:08Z</time>
      </trkpt>
      <trkpt lat="47.11811" lon="5.39666">
        <ele>209</ele>
        <time>2012-10-16T12:20:09Z</time>
      </trkpt>
      <trkpt lat="47.11808" lon="5.39653">
        <ele>209</ele>
        <time>2012-10-16T12:20:10Z</time>
      </trkpt>
      <trkpt lat="47.118" lon="5.39629">
        <ele>209</ele>
        <time>2012-10-16T12:20:12Z</time>
      </trkpt>
      <trkpt lat="47.11792" lon="5.39605">
        <ele>209</ele>
        <time>2012-10-16T12:20:14Z</time>
      </trkpt>
      <trkpt lat="47.11784" lon="5.39583">
        <ele>209</ele>
        <time>2012-10-16T12:20:16Z</time>
      </trkpt>
      <trkpt lat="47.11777" lon="5.39561">
        <ele>209</ele>
        <time>2012-10-16T12:20:18Z</time>
      </trkpt>
      <trkpt lat="47.1177" lon="5.39541">
        <ele>209</ele>
        <time>2012-10-16T12:20:20Z</time>
      </trkpt>
      <trkpt lat="47.11764" lon="5.39521">
        <ele>209</ele>
        <time>2012-10-16T12:20:22Z</time>
      </trkpt>
      <trkpt lat="47.11758" lon="5.39503">
        <ele>209</ele>
        <time>2012-10-16T12:20:24Z</time>
      </trkpt>
      <trkpt lat="47.11753" lon="5.39486">
        <ele>215</ele>
        <time>2012-10-16T12:20:26Z</time>
      </trkpt>
      <trkpt lat="47.11747" lon="5.39471">
        <ele>215</ele>
        <time>2012-10-16T12:20:28Z</time>
      </trkpt>
      <trkpt lat="47.11743" lon="5.39455">
        <ele>215</ele>
        <time>2012-10-16T12:20:30Z</time>
      </trkpt>
      <trkpt lat="47.11738" lon="5.39439">
        <ele>215</ele>
        <time>2012-10-16T12:20:32Z</time>
      </trkpt>
      <trkpt lat="47.11733" lon="5.39424">
        <ele>215</ele>
        <time>2012-10-16T12:20:34Z</time>
      </trkpt>
      <trkpt lat="47.11728" lon="5.39409">
        <ele>215</ele>
        <time>2012-10-16T12:20:36Z</time>
      </trkpt>
      <trkpt lat="47.11723" lon="5.39394">
        <ele>221</ele>
        <time>2012-10-16T12:20:38Z</time>
      </trkpt>
      <trkpt lat="47.11719" lon="5.39379">
        <ele>221</ele>
        <time>2012-10-16T12:20:40Z</time>
      </trkpt>
      <trkpt lat="47.11714" lon="5.39365">
        <ele>221</ele>
        <time>2012-10-16T12:20:42Z</time>
      </trkpt>
      <trkpt lat="47.1171" lon="5.39349">
        <ele>221</ele>
        <time>2012-10-16T12:20:44Z</time>
      </trkpt>
      <trkpt lat="47.11705" lon="5.39335">
        <ele>221</ele>
        <time>2012-10-16T12:20:46Z</time>
      </trkpt>
      <trkpt lat="47.117" lon="5.3932">
        <ele>221</ele>
        <time>2012-10-16T12:20:48Z</time>
      </trkpt>
      <trkpt lat="47.11696" lon="5.39305">
        <ele>221</ele>
        <time>2012-10-16T12:20:50Z</time>
      </trkpt>
      <trkpt lat="47.11691" lon="5.39289">
        <ele>221</ele>
        <time>2012-10-16T12:20:52Z</time>
      </trkpt>
      <trkpt lat="47.11686" lon="5.39273">
        <ele>221</ele>
        <time>2012-10-16T12:20:54Z</time>
      </trkpt>
      <trkpt lat="47.11681" lon="5.39257">
        <ele>221</ele>
        <time>2012-10-16T12:20:56Z</time>
      </trkpt>
      <trkpt lat="47.11675" lon="5.3924">
        <ele>221</ele>
        <time>2012-10-16T12:20:58Z</time>
      </trkpt>
      <trkpt lat="47.1167" lon="5.39223">
        <ele>221</ele>
        <time>2012-10-16T12:21:00Z</time>
      </trkpt>
      <trkpt lat="47.11664" lon="5.39205">
        <ele>221</ele>
        <time>2012-10-16T12:21:02Z</time>
      </trkpt>
      <trkpt lat="47.11658" lon="5.39188">
        <ele>221</ele>
        <time>2012-10-16T12:21:04Z</time>
      </trkpt>
      <trkpt lat="47.11653" lon="5.39169">
        <ele>226</ele>
        <time>2012-10-16T12:21:06Z</time>
      </trkpt>
      <trkpt lat="47.11646" lon="5.3915">
        <ele>226</ele>
        <time>2012-10-16T12:21:08Z</time>
      </trkpt>
      <trkpt lat="47.11642" lon="5.39131">
        <ele>226</ele>
        <time>2012-10-16T12:21:10Z</time>
      </trkpt>
      <trkpt lat="47.11636" lon="5.39112">
        <ele>226</ele>
        <time>2012-10-16T12:21:12Z</time>
      </trkpt>
      <trkpt lat="47.11631" lon="5.39094">
        <ele>226</ele>
        <time>2012-10-16T12:21:14Z</time>
      </trkpt>
      <trkpt lat="47.11625" lon="5.39076">
        <ele>226</ele>
        <time>2012-10-16T12:21:16Z</time>
      </trkpt>
      <trkpt lat="47.1162" lon="5.39057">
        <ele>226</ele>
        <time>2012-10-16T12:21:18Z</time>
      </trkpt>
      <trkpt lat="47.11616" lon="5.39037">
        <ele>221</ele>
        <time>2012-10-16T12:21:20Z</time>
      </trkpt>
      <trkpt lat="47.1161" lon="5.39018">
        <ele>221</ele>
        <time>2012-10-16T12:21:22Z</time>
      </trkpt>
      <trkpt lat="47.11606" lon="5.38999">
        <ele>221</ele>
        <time>2012-10-16T12:21:24Z</time>
      </trkpt>
      <trkpt lat="47.11602" lon="5.38979">
        <ele>221</ele>
        <time>2012-10-16T12:21:26Z</time>
      </trkpt>
      <trkpt lat="47.11597" lon="5.3896">
        <ele>221</ele>
        <time>2012-10-16T12:21:28Z</time>
      </trkpt>
      <trkpt lat="47.11594" lon="5.38939">
        <ele>221</ele>
        <time>2012-10-16T12:21:30Z</time>
      </trkpt>
      <trkpt lat="47.11591" lon="5.38919">
        <ele>221</ele>
        <time>2012-10-16T12:21:32Z</time>
      </trkpt>
      <trkpt lat="47.11587" lon="5.389">
        <ele>221</ele>
        <time>2012-10-16T12:21:34Z</time>
      </trkpt>
      <trkpt lat="47.11585" lon="5.38881">
        <ele>221</ele>
        <time>2012-10-16T12:21:36Z</time>
      </trkpt>
      <trkpt lat="47.11583" lon="5.38861">
        <ele>221</ele>
        <time>2012-10-16T12:21:38Z</time>
      </trkpt>
      <trkpt lat="47.1158" lon="5.3884">
        <ele>221</ele>
        <time>2012-10-16T12:21:40Z</time>
      </trkpt>
      <trkpt lat="47.11577" lon="5.38819">
        <ele>216</ele>
        <time>2012-10-16T12:21:42Z</time>
      </trkpt>
      <trkpt lat="47.11575" lon="5.38797">
        <ele>216</ele>
        <time>2012-10-16T12:21:44Z</time>
      </trkpt>
      <trkpt lat="47.11573" lon="5.38776">
        <ele>216</ele>
        <time>2012-10-16T12:21:46Z</time>
      </trkpt>
      <trkpt lat="47.11572" lon="5.38756">
        <ele>216</ele>
        <time>2012-10-16T12:21:48Z</time>
      </trkpt>
      <trkpt lat="47.1157" lon="5.38735">
        <ele>216</ele>
        <time>2012-10-16T12:21:50Z</time>
      </trkpt>
      <trkpt lat="47.11569" lon="5.38714">
        <ele>216</ele>
        <time>2012-10-16T12:21:52Z</time>
      </trkpt>
      <trkpt lat="47.11569" lon="5.38693">
        <ele>216</ele>
        <time>2012-10-16T12:21:54Z</time>
      </trkpt>
      <trkpt lat="47.11567" lon="5.38671">
        <ele>216</ele>
        <time>2012-10-16T12:21:56Z</time>
      </trkpt>
      <trkpt lat="47.11567" lon="5.38651">
        <ele>216</ele>
        <time>2012-10-16T12:21:58Z</time>
      </trkpt>
      <trkpt lat="47.11567" lon="5.38629">
        <ele>216</ele>
        <time>2012-10-16T12:22:00Z</time>
      </trkpt>
      <trkpt lat="47.11567" lon="5.38607">
        <ele>216</ele>
        <time>2012-10-16T12:22:02Z</time>
      </trkpt>
      <trkpt lat="47.11566" lon="5.38586">
        <ele>216</ele>
        <time>2012-10-16T12:22:04Z</time>
      </trkpt>
      <trkpt lat="47.11566" lon="5.38564">
        <ele>216</ele>
        <time>2012-10-16T12:22:06Z</time>
      </trkpt>
      <trkpt lat="47.11567" lon="5.38544">
        <ele>216</ele>
        <time>2012-10-16T12:22:08Z</time>
      </trkpt>
      <trkpt lat="47.11567" lon="5.38523">
        <ele>210</ele>
        <time>2012-10-16T12:22:10Z</time>
      </trkpt>
      <trkpt lat="47.11567" lon="5.38501">
        <ele>210</ele>
        <time>2012-10-16T12:22:12Z</time>
      </trkpt>
      <trkpt lat="47.11568" lon="5.38481">
        <ele>210</ele>
        <time>2012-10-16T12:22:14Z</time>
      </trkpt>
      <trkpt lat="47.1157" lon="5.38459">
        <ele>210</ele>
        <time>2012-10-16T12:22:16Z</time>
      </trkpt>
      <trkpt lat="47.11573" lon="5.38439">
        <ele>210</ele>
        <time>2012-10-16T12:22:18Z</time>
      </trkpt>
      <trkpt lat="47.11577" lon="5.38418">
        <ele>210</ele>
        <time>2012-10-16T12:22:20Z</time>
      </trkpt>
      <trkpt lat="47.11581" lon="5.38398">
        <ele>210</ele>
        <time>2012-10-16T12:22:22Z</time>
      </trkpt>
      <trkpt lat="47.11587" lon="5.38379">
        <ele>210</ele>
        <time>2012-10-16T12:22:24Z</time>
      </trkpt>
      <trkpt lat="47.11593" lon="5.3836">
        <ele>210</ele>
        <time>2012-10-16T12:22:26Z</time>
      </trkpt>
      <trkpt lat="47.11599" lon="5.38342">
        <ele>210</ele>
        <time>2012-10-16T12:22:28Z</time>
      </trkpt>
      <trkpt lat="47.11607" lon="5.38325">
        <ele>210</ele>
        <time>2012-10-16T12:22:30Z</time>
      </trkpt>
      <trkpt lat="47.11615" lon="5.38309">
        <ele>210</ele>
        <time>2012-10-16T12:22:32Z</time>
      </trkpt>
      <trkpt lat="47.11624" lon="5.38293">
        <ele>210</ele>
        <time>2012-10-16T12:22:34Z</time>
      </trkpt>
      <trkpt lat="47.11634" lon="5.38276">
        <ele>210</ele>
        <time>2012-10-16T12:22:36Z</time>
      </trkpt>
      <trkpt lat="47.11643" lon="5.3826">
        <ele>210</ele>
        <time>2012-10-16T12:22:38Z</time>
      </trkpt>
      <trkpt lat="47.11652" lon="5.38244">
        <ele>210</ele>
        <time>2012-10-16T12:22:40Z</time>
      </trkpt>
      <trkpt lat="47.11662" lon="5.38227">
        <ele>205</ele>
        <time>2012-10-16T12:22:42Z</time>
      </trkpt>
      <trkpt lat="47.11672" lon="5.38209">
        <ele>205</ele>
        <time>2012-10-16T12:22:44Z</time>
      </trkpt>
      <trkpt lat="47.11681" lon="5.38192">
        <ele>205</ele>
        <time>2012-10-16T12:22:46Z</time>
      </trkpt>
      <trkpt lat="47.11691" lon="5.38174">
        <ele>205</ele>
        <time>2012-10-16T12:22:48Z</time>
      </trkpt>
      <trkpt lat="47.11701" lon="5.38157">
        <ele>205</ele>
        <time>2012-10-16T12:22:50Z</time>
      </trkpt>
      <trkpt lat="47.11711" lon="5.38139">
        <ele>205</ele>
        <time>2012-10-16T12:22:52Z</time>
      </trkpt>
      <trkpt lat="47.11721" lon="5.38122">
        <ele>205</ele>
        <time>2012-10-16T12:22:54Z</time>
      </trkpt>
      <trkpt lat="47.11731" lon="5.38105">
        <ele>205</ele>
        <time>2012-10-16T12:22:56Z</time>
      </trkpt>
      <trkpt lat="47.1174" lon="5.38087">
        <ele>205</ele>
        <time>2012-10-16T12:22:58Z</time>
      </trkpt>
      <trkpt lat="47.11751" lon="5.3807">
        <ele>205</ele>
        <time>2012-10-16T12:23:00Z</time>
      </trkpt>
      <trkpt lat="47.11761" lon="5.38052">
        <ele>205</ele>
        <time>2012-10-16T12:23:02Z</time>
      </trkpt>
      <trkpt lat="47.1177" lon="5.38034">
        <ele>205</ele>
        <time>2012-10-16T12:23:04Z</time>
      </trkpt>
      <trkpt lat="47.1178" lon="5.38015">
        <ele>205</ele>
        <time>2012-10-16T12:23:06Z</time>
      </trkpt>
      <trkpt lat="47.11791" lon="5.37997">
        <ele>205</ele>
        <time>2012-10-16T12:23:08Z</time>
      </trkpt>
      <trkpt lat="47.118" lon="5.3798">
        <ele>205</ele>
        <time>2012-10-16T12:23:10Z</time>
      </trkpt>
      <trkpt lat="47.1181" lon="5.37962">
        <ele>205</ele>
        <time>2012-10-16T12:23:12Z</time>
      </trkpt>
      <trkpt lat="47.11819" lon="5.37944">
        <ele>205</ele>
        <time>2012-10-16T12:23:14Z</time>
      </trkpt>
      <trkpt lat="47.1183" lon="5.37927">
        <ele>200</ele>
        <time>2012-10-16T12:23:16Z</time>
      </trkpt>
      <trkpt lat="47.1184" lon="5.37908">
        <ele>200</ele>
        <time>2012-10-16T12:23:18Z</time>
      </trkpt>
      <trkpt lat="47.11849" lon="5.37888">
        <ele>200</ele>
        <time>2012-10-16T12:23:20Z</time>
      </trkpt>
      <trkpt lat="47.11857" lon="5.37868">
        <ele>200</ele>
        <time>2012-10-16T12:23:22Z</time>
      </trkpt>
      <trkpt lat="47.11865" lon="5.37849">
        <ele>200</ele>
        <time>2012-10-16T12:23:24Z</time>
      </trkpt>
      <trkpt lat="47.11872" lon="5.37829">
        <ele>200</ele>
        <time>2012-10-16T12:23:26Z</time>
      </trkpt>
      <trkpt lat="47.11878" lon="5.37808">
        <ele>200</ele>
        <time>2012-10-16T12:23:28Z</time>
      </trkpt>
      <trkpt lat="47.11882" lon="5.37787">
        <ele>200</ele>
        <time>2012-10-16T12:23:30Z</time>
      </trkpt>
      <trkpt lat="47.11886" lon="5.37768">
        <ele>200</ele>
        <time>2012-10-16T12:23:32Z</time>
      </trkpt>
      <trkpt lat="47.11889" lon="5.37747">
        <ele>200</ele>
        <time>2012-10-16T12:23:34Z</time>
      </trkpt>
      <trkpt lat="47.11891" lon="5.37728">
        <ele>200</ele>
        <time>2012-10-16T12:23:36Z</time>
      </trkpt>
      <trkpt lat="47.11892" lon="5.37709">
        <ele>200</ele>
        <time>2012-10-16T12:23:38Z</time>
      </trkpt>
      <trkpt lat="47.11892" lon="5.37691">
        <ele>200</ele>
        <time>2012-10-16T12:23:40Z</time>
      </trkpt>
      <trkpt lat="47.11892" lon="5.37673">
        <ele>200</ele>
        <time>2012-10-16T12:23:42Z</time>
      </trkpt>
      <trkpt lat="47.11891" lon="5.37656">
        <ele>200</ele>
        <time>2012-10-16T12:23:44Z</time>
      </trkpt>
      <trkpt lat="47.1189" lon="5.37638">
        <ele>200</ele>
        <time>2012-10-16T12:23:46Z</time>
      </trkpt>
      <trkpt lat="47.11889" lon="5.37621">
        <ele>200</ele>
        <time>2012-10-16T12:23:48Z</time>
      </trkpt>
      <trkpt lat="47.11888" lon="5.37604">
        <ele>200</ele>
        <time>2012-10-16T12:23:50Z</time>
      </trkpt>
      <trkpt lat="47.11886" lon="5.37587">
        <ele>200</ele>
        <time>2012-10-16T12:23:52Z</time>
      </trkpt>
      <trkpt lat="47.11884" lon="5.37571">
        <ele>200</ele>
        <time>2012-10-16T12:23:54Z</time>
      </trkpt>
      <trkpt lat="47.11881" lon="5.37554">
        <ele>200</ele>
        <time>2012-10-16T12:23:56Z</time>
      </trkpt>
      <trkpt lat="47.11877" lon="5.37538">
        <ele>200</ele>
        <time>2012-10-16T12:23:58Z</time>
      </trkpt>
      <trkpt lat="47.11874" lon="5.3752">
        <ele>205</ele>
        <time>2012-10-16T12:24:00Z</time>
      </trkpt>
      <trkpt lat="47.1187" lon="5.37504">
        <ele>205</ele>
        <time>2012-10-16T12:24:02Z</time>
      </trkpt>
      <trkpt lat="47.11868" lon="5.37487">
        <ele>205</ele>
        <time>2012-10-16T12:24:04Z</time>
      </trkpt>
      <trkpt lat="47.11867" lon="5.3747">
        <ele>205</ele>
        <time>2012-10-16T12:24:06Z</time>
      </trkpt>
      <trkpt lat="47.11866" lon="5.37451">
        <ele>205</ele>
        <time>2012-10-16T12:24:08Z</time>
      </trkpt>
      <trkpt lat="47.11867" lon="5.37432">
        <ele>205</ele>
        <time>2012-10-16T12:24:10Z</time>
      </trkpt>
      <trkpt lat="47.11868" lon="5.37414">
        <ele>205</ele>
        <time>2012-10-16T12:24:12Z</time>
      </trkpt>
      <trkpt lat="47.11871" lon="5.37396">
        <ele>205</ele>
        <time>2012-10-16T12:24:14Z</time>
      </trkpt>
      <trkpt lat="47.11873" lon="5.37375">
        <ele>205</ele>
        <time>2012-10-16T12:24:16Z</time>
      </trkpt>
      <trkpt lat="47.11875" lon="5.37355">
        <ele>205</ele>
        <time>2012-10-16T12:24:18Z</time>
      </trkpt>
      <trkpt lat="47.11877" lon="5.37334">
        <ele>205</ele>
        <time>2012-10-16T12:24:20Z</time>
      </trkpt>
      <trkpt lat="47.1188" lon="5.37313">
        <ele>205</ele>
        <time>2012-10-16T12:24:22Z</time>
      </trkpt>
      <trkpt lat="47.11883" lon="5.37292">
        <ele>205</ele>
        <time>2012-10-16T12:24:24Z</time>
      </trkpt>
      <trkpt lat="47.11887" lon="5.37273">
        <ele>205</ele>
        <time>2012-10-16T12:24:26Z</time>
      </trkpt>
      <trkpt lat="47.11891" lon="5.37254">
        <ele>205</ele>
        <time>2012-10-16T12:24:28Z</time>
      </trkpt>
      <trkpt lat="47.11895" lon="5.37236">
        <ele>205</ele>
        <time>2012-10-16T12:24:30Z</time>
      </trkpt>
      <trkpt lat="47.119" lon="5.37219">
        <ele>205</ele>
        <time>2012-10-16T12:24:32Z</time>
      </trkpt>
      <trkpt lat="47.11906" lon="5.37201">
        <ele>205</ele>
        <time>2012-10-16T12:24:34Z</time>
      </trkpt>
      <trkpt lat="47.11912" lon="5.37184">
        <ele>205</ele>
        <time>2012-10-16T12:24:36Z</time>
      </trkpt>
      <trkpt lat="47.11919" lon="5.37167">
        <ele>205</ele>
        <time>2012-10-16T12:24:38Z</time>
      </trkpt>
      <trkpt lat="47.11928" lon="5.37151">
        <ele>205</ele>
        <time>2012-10-16T12:24:40Z</time>
      </trkpt>
      <trkpt lat="47.11936" lon="5.37135">
        <ele>205</ele>
        <time>2012-10-16T12:24:42Z</time>
      </trkpt>
      <trkpt lat="47.11943" lon="5.3712">
        <ele>205</ele>
        <time>2012-10-16T12:24:44Z</time>
      </trkpt>
      <trkpt lat="47.11951" lon="5.37105">
        <ele>205</ele>
        <time>2012-10-16T12:24:46Z</time>
      </trkpt>
      <trkpt lat="47.1196" lon="5.37091">
        <ele>205</ele>
        <time>2012-10-16T12:24:48Z</time>
      </trkpt>
      <trkpt lat="47.11967" lon="5.37077">
        <ele>205</ele>
        <time>2012-10-16T12:24:50Z</time>
      </trkpt>
      <trkpt lat="47.11975" lon="5.37063">
        <ele>205</ele>
        <time>2012-10-16T12:24:52Z</time>
      </trkpt>
      <trkpt lat="47.11983" lon="5.37051">
        <ele>205</ele>
        <time>2012-10-16T12:24:54Z</time>
      </trkpt>
      <trkpt lat="47.11992" lon="5.37038">
        <ele>205</ele>
        <time>2012-10-16T12:24:56Z</time>
      </trkpt>
      <trkpt lat="47.12001" lon="5.37026">
        <ele>205</ele>
        <time>2012-10-16T12:24:58Z</time>
      </trkpt>
      <trkpt lat="47.1201" lon="5.37014">
        <ele>205</ele>
        <time>2012-10-16T12:25:00Z</time>
      </trkpt>
      <trkpt lat="47.12019" lon="5.37001">
        <ele>205</ele>
        <time>2012-10-16T12:25:02Z</time>
      </trkpt>
      <trkpt lat="47.12029" lon="5.3699">
        <ele>205</ele>
        <time>2012-10-16T12:25:04Z</time>
      </trkpt>
      <trkpt lat="47.12038" lon="5.36978">
        <ele>205</ele>
        <time>2012-10-16T12:25:06Z</time>
      </trkpt>
      <trkpt lat="47.12048" lon="5.36965">
        <ele>205</ele>
        <time>2012-10-16T12:25:08Z</time>
      </trkpt>
      <trkpt lat="47.12059" lon="5.36954">
        <ele>205</ele>
        <time>2012-10-16T12:25:10Z</time>
      </trkpt>
      <trkpt lat="47.1207" lon="5.36939">
        <ele>205</ele>
        <time>2012-10-16T12:25:12Z</time>
      </trkpt>
      <trkpt lat="47.12082" lon="5.36926">
        <ele>199</ele>
        <time>2012-10-16T12:25:14Z</time>
      </trkpt>
      <trkpt lat="47.12095" lon="5.3691">
        <ele>199</ele>
        <time>2012-10-16T12:25:16Z</time>
      </trkpt>
      <trkpt lat="47.12106" lon="5.36893">
        <ele>199</ele>
        <time>2012-10-16T12:25:18Z</time>
      </trkpt>
      <trkpt lat="47.12116" lon="5.36875">
        <ele>199</ele>
        <time>2012-10-16T12:25:20Z</time>
      </trkpt>
      <trkpt lat="47.12127" lon="5.36857">
        <ele>199</ele>
        <time>2012-10-16T12:25:22Z</time>
      </trkpt>
      <trkpt lat="47.12136" lon="5.36836">
        <ele>192</ele>
        <time>2012-10-16T12:25:24Z</time>
      </trkpt>
      <trkpt lat="47.12143" lon="5.36825">
        <ele>192</ele>
        <time>2012-10-16T12:25:25Z</time>
      </trkpt>
      <trkpt lat="47.12148" lon="5.36814">
        <ele>192</ele>
        <time>2012-10-16T12:25:26Z</time>
      </trkpt>
      <trkpt lat="47.12154" lon="5.36804">
        <ele>192</ele>
        <time>2012-10-16T12:25:27Z</time>
      </trkpt>
      <trkpt lat="47.1216" lon="5.36792">
        <ele>192</ele>
        <time>2012-10-16T12:25:28Z</time>
      </trkpt>
      <trkpt lat="47.12167" lon="5.36781">
        <ele>192</ele>
        <time>2012-10-16T12:25:29Z</time>
      </trkpt>
      <trkpt lat="47.12174" lon="5.3677">
        <ele>192</ele>
        <time>2012-10-16T12:25:30Z</time>
      </trkpt>
      <trkpt lat="47.12182" lon="5.3676">
        <ele>192</ele>
        <time>2012-10-16T12:25:31Z</time>
      </trkpt>
      <trkpt lat="47.12189" lon="5.3675">
        <ele>192</ele>
        <time>2012-10-16T12:25:32Z</time>
      </trkpt>
      <trkpt lat="47.12197" lon="5.3674">
        <ele>192</ele>
        <time>2012-10-16T12:25:33Z</time>
      </trkpt>
      <trkpt lat="47.12203" lon="5.36731">
        <ele>187</ele>
        <time>2012-10-16T12:25:34Z</time>
      </trkpt>
      <trkpt lat="47.1221" lon="5.36721">
        <ele>187</ele>
        <time>2012-10-16T12:25:35Z</time>
      </trkpt>
      <trkpt lat="47.12217" lon="5.36712">
        <ele>187</ele>
        <time>2012-10-16T12:25:36Z</time>
      </trkpt>
      <trkpt lat="47.12224" lon="5.36703">
        <ele>187</ele>
        <time>2012-10-16T12:25:37Z</time>
      </trkpt>
      <trkpt lat="47.1223" lon="5.36693">
        <ele>187</ele>
        <time>2012-10-16T12:25:38Z</time>
      </trkpt>
      <trkpt lat="47.12241" lon="5.36674">
        <ele>187</ele>
        <time>2012-10-16T12:25:40Z</time>
      </trkpt>
      <trkpt lat="47.12252" lon="5.36655">
        <ele>187</ele>
        <time>2012-10-16T12:25:42Z</time>
      </trkpt>
      <trkpt lat="47.12263" lon="5.36637">
        <ele>187</ele>
        <time>2012-10-16T12:25:44Z</time>
      </trkpt>
      <trkpt lat="47.12274" lon="5.36621">
        <ele>187</ele>
        <time>2012-10-16T12:25:46Z</time>
      </trkpt>
      <trkpt lat="47.12286" lon="5.36605">
        <ele>187</ele>
        <time>2012-10-16T12:25:48Z</time>
      </trkpt>
      <trkpt lat="47.12298" lon="5.3659">
        <ele>187</ele>
        <time>2012-10-16T12:25:50Z</time>
      </trkpt>
      <trkpt lat="47.12311" lon="5.36575">
        <ele>187</ele>
        <time>2012-10-16T12:25:52Z</time>
      </trkpt>
      <trkpt lat="47.12323" lon="5.3656">
        <ele>187</ele>
        <time>2012-10-16T12:25:54Z</time>
      </trkpt>
      <trkpt lat="47.12335" lon="5.36546">
        <ele>187</ele>
        <time>2012-10-16T12:25:56Z</time>
      </trkpt>
      <trkpt lat="47.12347" lon="5.36531">
        <ele>187</ele>
        <time>2012-10-16T12:25:58Z</time>
      </trkpt>
      <trkpt lat="47.12359" lon="5.36516">
        <ele>187</ele>
        <time>2012-10-16T12:26:00Z</time>
      </trkpt>
      <trkpt lat="47.12371" lon="5.36502">
        <ele>187</ele>
        <time>2012-10-16T12:26:02Z</time>
      </trkpt>
      <trkpt lat="47.12382" lon="5.36487">
        <ele>187</ele>
        <time>2012-10-16T12:26:04Z</time>
      </trkpt>
      <trkpt lat="47.12393" lon="5.36473">
        <ele>187</ele>
        <time>2012-10-16T12:26:06Z</time>
      </trkpt>
      <trkpt lat="47.12405" lon="5.36459">
        <ele>187</ele>
        <time>2012-10-16T12:26:08Z</time>
      </trkpt>
      <trkpt lat="47.12417" lon="5.36444">
        <ele>187</ele>
        <time>2012-10-16T12:26:10Z</time>
      </trkpt>
      <trkpt lat="47.12429" lon="5.3643">
        <ele>187</ele>
        <time>2012-10-16T12:26:12Z</time>
      </trkpt>
      <trkpt lat="47.12441" lon="5.36415">
        <ele>187</ele>
        <time>2012-10-16T12:26:14Z</time>
      </trkpt>
      <trkpt lat="47.12452" lon="5.364">
        <ele>187</ele>
        <time>2012-10-16T12:26:16Z</time>
      </trkpt>
      <trkpt lat="47.12464" lon="5.36386">
        <ele>187</ele>
        <time>2012-10-16T12:26:18Z</time>
      </trkpt>
      <trkpt lat="47.12476" lon="5.36372">
        <ele>187</ele>
        <time>2012-10-16T12:26:20Z</time>
      </trkpt>
      <trkpt lat="47.12487" lon="5.36358">
        <ele>187</ele>
        <time>2012-10-16T12:26:22Z</time>
      </trkpt>
      <trkpt lat="47.12498" lon="5.36345">
        <ele>187</ele>
        <time>2012-10-16T12:26:24Z</time>
      </trkpt>
      <trkpt lat="47.12509" lon="5.36333">
        <ele>187</ele>
        <time>2012-10-16T12:26:26Z</time>
      </trkpt>
      <trkpt lat="47.12521" lon="5.36321">
        <ele>187</ele>
        <time>2012-10-16T12:26:28Z</time>
      </trkpt>
      <trkpt lat="47.12534" lon="5.3631">
        <ele>187</ele>
        <time>2012-10-16T12:26:30Z</time>
      </trkpt>
      <trkpt lat="47.12545" lon="5.36301">
        <ele>187</ele>
        <time>2012-10-16T12:26:32Z</time>
      </trkpt>
      <trkpt lat="47.12557" lon="5.36293">
        <ele>187</ele>
        <time>2012-10-16T12:26:34Z</time>
      </trkpt>
      <trkpt lat="47.12569" lon="5.36284">
        <ele>187</ele>
        <time>2012-10-16T12:26:36Z</time>
      </trkpt>
      <trkpt lat="47.1258" lon="5.36276">
        <ele>187</ele>
        <time>2012-10-16T12:26:38Z</time>
      </trkpt>
      <trkpt lat="47.12591" lon="5.36269">
        <ele>187</ele>
        <time>2012-10-16T12:26:40Z</time>
      </trkpt>
      <trkpt lat="47.12601" lon="5.36262">
        <ele>187</ele>
        <time>2012-10-16T12:26:42Z</time>
      </trkpt>
      <trkpt lat="47.12612" lon="5.36255">
        <ele>187</ele>
        <time>2012-10-16T12:26:44Z</time>
      </trkpt>
      <trkpt lat="47.12622" lon="5.36247">
        <ele>187</ele>
        <time>2012-10-16T12:26:46Z</time>
      </trkpt>
      <trkpt lat="47.12632" lon="5.36239">
        <ele>187</ele>
        <time>2012-10-16T12:26:48Z</time>
      </trkpt>
      <trkpt lat="47.12642" lon="5.36232">
        <ele>187</ele>
        <time>2012-10-16T12:26:50Z</time>
      </trkpt>
      <trkpt lat="47.12653" lon="5.36224">
        <ele>187</ele>
        <time>2012-10-16T12:26:52Z</time>
      </trkpt>
      <trkpt lat="47.12664" lon="5.36217">
        <ele>187</ele>
        <time>2012-10-16T12:26:54Z</time>
      </trkpt>
      <trkpt lat="47.12674" lon="5.36209">
        <ele>187</ele>
        <time>2012-10-16T12:26:56Z</time>
      </trkpt>
      <trkpt lat="47.12685" lon="5.36201">
        <ele>187</ele>
        <time>2012-10-16T12:26:58Z</time>
      </trkpt>
      <trkpt lat="47.12694" lon="5.36194">
        <ele>187</ele>
        <time>2012-10-16T12:27:00Z</time>
      </trkpt>
      <trkpt lat="47.12704" lon="5.36186">
        <ele>187</ele>
        <time>2012-10-16T12:27:02Z</time>
      </trkpt>
      <trkpt lat="47.12715" lon="5.36179">
        <ele>187</ele>
        <time>2012-10-16T12:27:04Z</time>
      </trkpt>
      <trkpt lat="47.12724" lon="5.36172">
        <ele>187</ele>
        <time>2012-10-16T12:27:06Z</time>
      </trkpt>
      <trkpt lat="47.12734" lon="5.36166">
        <ele>187</ele>
        <time>2012-10-16T12:27:08Z</time>
      </trkpt>
      <trkpt lat="47.12743" lon="5.36159">
        <ele>187</ele>
        <time>2012-10-16T12:27:10Z</time>
      </trkpt>
      <trkpt lat="47.12754" lon="5.36151">
        <ele>187</ele>
        <time>2012-10-16T12:27:12Z</time>
      </trkpt>
      <trkpt lat="47.12766" lon="5.36142">
        <ele>187</ele>
        <time>2012-10-16T12:27:14Z</time>
      </trkpt>
      <trkpt lat="47.12777" lon="5.36134">
        <ele>187</ele>
        <time>2012-10-16T12:27:16Z</time>
      </trkpt>
      <trkpt lat="47.12788" lon="5.36126">
        <ele>187</ele>
        <time>2012-10-16T12:27:18Z</time>
      </trkpt>
      <trkpt lat="47.12799" lon="5.36118">
        <ele>187</ele>
        <time>2012-10-16T12:27:20Z</time>
      </trkpt>
      <trkpt lat="47.12811" lon="5.3611">
        <ele>187</ele>
        <time>2012-10-16T12:27:22Z</time>
      </trkpt>
      <trkpt lat="47.12823" lon="5.36102">
        <ele>187</ele>
        <time>2012-10-16T12:27:24Z</time>
      </trkpt>
      <trkpt lat="47.12835" lon="5.36094">
        <ele>187</ele>
        <time>2012-10-16T12:27:26Z</time>
      </trkpt>
      <trkpt lat="47.12847" lon="5.36084">
        <ele>187</ele>
        <time>2012-10-16T12:27:28Z</time>
      </trkpt>
      <trkpt lat="47.1286" lon="5.36075">
        <ele>187</ele>
        <time>2012-10-16T12:27:30Z</time>
      </trkpt>
      <trkpt lat="47.12874" lon="5.36065">
        <ele>187</ele>
        <time>2012-10-16T12:27:32Z</time>
      </trkpt>
      <trkpt lat="47.12888" lon="5.36055">
        <ele>187</ele>
        <time>2012-10-16T12:27:34Z</time>
      </trkpt>
      <trkpt lat="47.12902" lon="5.36045">
        <ele>187</ele>
        <time>2012-10-16T12:27:36Z</time>
      </trkpt>
      <trkpt lat="47.12917" lon="5.36033">
        <ele>187</ele>
        <time>2012-10-16T12:27:38Z</time>
      </trkpt>
      <trkpt lat="47.12931" lon="5.36022">
        <ele>187</ele>
        <time>2012-10-16T12:27:40Z</time>
      </trkpt>
      <trkpt lat="47.12945" lon="5.36009">
        <ele>187</ele>
        <time>2012-10-16T12:27:42Z</time>
      </trkpt>
      <trkpt lat="47.12958" lon="5.35996">
        <ele>187</ele>
        <time>2012-10-16T12:27:44Z</time>
      </trkpt>
      <trkpt lat="47.1297" lon="5.35982">
        <ele>187</ele>
        <time>2012-10-16T12:27:46Z</time>
      </trkpt>
      <trkpt lat="47.12982" lon="5.35967">
        <ele>187</ele>
        <time>2012-10-16T12:27:48Z</time>
      </trkpt>
      <trkpt lat="47.12992" lon="5.35952">
        <ele>187</ele>
        <time>2012-10-16T12:27:50Z</time>
      </trkpt>
      <trkpt lat="47.13002" lon="5.35937">
        <ele>187</ele>
        <time>2012-10-16T12:27:52Z</time>
      </trkpt>
      <trkpt lat="47.13011" lon="5.35921">
        <ele>187</ele>
        <time>2012-10-16T12:27:54Z</time>
      </trkpt>
      <trkpt lat="47.1302" lon="5.35906">
        <ele>187</ele>
        <time>2012-10-16T12:27:56Z</time>
      </trkpt>
      <trkpt lat="47.13029" lon="5.35892">
        <ele>187</ele>
        <time>2012-10-16T12:27:58Z</time>
      </trkpt>
      <trkpt lat="47.13036" lon="5.35877">
        <ele>187</ele>
        <time>2012-10-16T12:28:00Z</time>
      </trkpt>
      <trkpt lat="47.13045" lon="5.35862">
        <ele>187</ele>
        <time>2012-10-16T12:28:02Z</time>
      </trkpt>
      <trkpt lat="47.13054" lon="5.35848">
        <ele>187</ele>
        <time>2012-10-16T12:28:04Z</time>
      </trkpt>
      <trkpt lat="47.13062" lon="5.35832">
        <ele>187</ele>
        <time>2012-10-16T12:28:06Z</time>
      </trkpt>
      <trkpt lat="47.13071" lon="5.35816">
        <ele>187</ele>
        <time>2012-10-16T12:28:08Z</time>
      </trkpt>
      <trkpt lat="47.13079" lon="5.35801">
        <ele>187</ele>
        <time>2012-10-16T12:28:10Z</time>
      </trkpt>
      <trkpt lat="47.13088" lon="5.35787">
        <ele>187</ele>
        <time>2012-10-16T12:28:12Z</time>
      </trkpt>
      <trkpt lat="47.13096" lon="5.35771">
        <ele>187</ele>
        <time>2012-10-16T12:28:14Z</time>
      </trkpt>
      <trkpt lat="47.13105" lon="5.35756">
        <ele>187</ele>
        <time>2012-10-16T12:28:16Z</time>
      </trkpt>
      <trkpt lat="47.13113" lon="5.35741">
        <ele>187</ele>
        <time>2012-10-16T12:28:18Z</time>
      </trkpt>
      <trkpt lat="47.13122" lon="5.35727">
        <ele>187</ele>
        <time>2012-10-16T12:28:20Z</time>
      </trkpt>
      <trkpt lat="47.13131" lon="5.35711">
        <ele>187</ele>
        <time>2012-10-16T12:28:22Z</time>
      </trkpt>
      <trkpt lat="47.13139" lon="5.35696">
        <ele>187</ele>
        <time>2012-10-16T12:28:24Z</time>
      </trkpt>
      <trkpt lat="47.13149" lon="5.35682">
        <ele>187</ele>
        <time>2012-10-16T12:28:26Z</time>
      </trkpt>
      <trkpt lat="47.13157" lon="5.35667">
        <ele>187</ele>
        <time>2012-10-16T12:28:28Z</time>
      </trkpt>
      <trkpt lat="47.13166" lon="5.35652">
        <ele>187</ele>
        <time>2012-10-16T12:28:30Z</time>
      </trkpt>
      <trkpt lat="47.13174" lon="5.35638">
        <ele>187</ele>
        <time>2012-10-16T12:28:32Z</time>
      </trkpt>
      <trkpt lat="47.13184" lon="5.35622">
        <ele>187</ele>
        <time>2012-10-16T12:28:34Z</time>
      </trkpt>
      <trkpt lat="47.13193" lon="5.35608">
        <ele>187</ele>
        <time>2012-10-16T12:28:36Z</time>
      </trkpt>
      <trkpt lat="47.13202" lon="5.35592">
        <ele>187</ele>
        <time>2012-10-16T12:28:38Z</time>
      </trkpt>
      <trkpt lat="47.13211" lon="5.35577">
        <ele>187</ele>
        <time>2012-10-16T12:28:40Z</time>
      </trkpt>
      <trkpt lat="47.13219" lon="5.35561">
        <ele>187</ele>
        <time>2012-10-16T12:28:42Z</time>
      </trkpt>
      <trkpt lat="47.13228" lon="5.35546">
        <ele>187</ele>
        <time>2012-10-16T12:28:44Z</time>
      </trkpt>
      <trkpt lat="47.13237" lon="5.35531">
        <ele>187</ele>
        <time>2012-10-16T12:28:46Z</time>
      </trkpt>
      <trkpt lat="47.13246" lon="5.35515">
        <ele>187</ele>
        <time>2012-10-16T12:28:48Z</time>
      </trkpt>
      <trkpt lat="47.13255" lon="5.355">
        <ele>187</ele>
        <time>2012-10-16T12:28:50Z</time>
      </trkpt>
      <trkpt lat="47.13264" lon="5.35485">
        <ele>187</ele>
        <time>2012-10-16T12:28:52Z</time>
      </trkpt>
      <trkpt lat="47.13273" lon="5.3547">
        <ele>187</ele>
        <time>2012-10-16T12:28:54Z</time>
      </trkpt>
      <trkpt lat="47.13282" lon="5.35453">
        <ele>187</ele>
        <time>2012-10-16T12:28:56Z</time>
      </trkpt>
      <trkpt lat="47.13292" lon="5.35438">
        <ele>187</ele>
        <time>2012-10-16T12:28:58Z</time>
      </trkpt>
      <trkpt lat="47.133" lon="5.35422">
        <ele>187</ele>
        <time>2012-10-16T12:29:00Z</time>
      </trkpt>
      <trkpt lat="47.13309" lon="5.35406">
        <ele>187</ele>
        <time>2012-10-16T12:29:02Z</time>
      </trkpt>
      <trkpt lat="47.13318" lon="5.35391">
        <ele>187</ele>
        <time>2012-10-16T12:29:04Z</time>
      </trkpt>
      <trkpt lat="47.13328" lon="5.35375">
        <ele>187</ele>
        <time>2012-10-16T12:29:06Z</time>
      </trkpt>
      <trkpt lat="47.13337" lon="5.3536">
        <ele>187</ele>
        <time>2012-10-16T12:29:08Z</time>
      </trkpt>
      <trkpt lat="47.13346" lon="5.35345">
        <ele>187</ele>
        <time>2012-10-16T12:29:10Z</time>
      </trkpt>
      <trkpt lat="47.13355" lon="5.35329">
        <ele>187</ele>
        <time>2012-10-16T12:29:12Z</time>
      </trkpt>
      <trkpt lat="47.13364" lon="5.35314">
        <ele>187</ele>
        <time>2012-10-16T12:29:14Z</time>
      </trkpt>
      <trkpt lat="47.13372" lon="5.35299">
        <ele>187</ele>
        <time>2012-10-16T12:29:16Z</time>
      </trkpt>
      <trkpt lat="47.13382" lon="5.35284">
        <ele>187</ele>
        <time>2012-10-16T12:29:18Z</time>
      </trkpt>
      <trkpt lat="47.13391" lon="5.35268">
        <ele>187</ele>
        <time>2012-10-16T12:29:20Z</time>
      </trkpt>
      <trkpt lat="47.134" lon="5.35251">
        <ele>187</ele>
        <time>2012-10-16T12:29:22Z</time>
      </trkpt>
      <trkpt lat="47.13409" lon="5.35236">
        <ele>187</ele>
        <time>2012-10-16T12:29:24Z</time>
      </trkpt>
      <trkpt lat="47.13417" lon="5.35221">
        <ele>187</ele>
        <time>2012-10-16T12:29:26Z</time>
      </trkpt>
      <trkpt lat="47.13426" lon="5.35206">
        <ele>187</ele>
        <time>2012-10-16T12:29:28Z</time>
      </trkpt>
      <trkpt lat="47.13436" lon="5.3519">
        <ele>187</ele>
        <time>2012-10-16T12:29:30Z</time>
      </trkpt>
      <trkpt lat="47.13444" lon="5.35175">
        <ele>187</ele>
        <time>2012-10-16T12:29:32Z</time>
      </trkpt>
      <trkpt lat="47.13453" lon="5.3516">
        <ele>187</ele>
        <time>2012-10-16T12:29:34Z</time>
      </trkpt>
      <trkpt lat="47.13462" lon="5.35144">
        <ele>187</ele>
        <time>2012-10-16T12:29:36Z</time>
      </trkpt>
      <trkpt lat="47.13471" lon="5.35128">
        <ele>187</ele>
        <time>2012-10-16T12:29:38Z</time>
      </trkpt>
      <trkpt lat="47.1348" lon="5.35113">
        <ele>187</ele>
        <time>2012-10-16T12:29:40Z</time>
      </trkpt>
      <trkpt lat="47.13489" lon="5.35098">
        <ele>187</ele>
        <time>2012-10-16T12:29:42Z</time>
      </trkpt>
      <trkpt lat="47.13498" lon="5.35082">
        <ele>187</ele>
        <time>2012-10-16T12:29:44Z</time>
      </trkpt>
      <trkpt lat="47.13507" lon="5.35067">
        <ele>187</ele>
        <time>2012-10-16T12:29:46Z</time>
      </trkpt>
      <trkpt lat="47.13515" lon="5.35052">
        <ele>187</ele>
        <time>2012-10-16T12:29:48Z</time>
      </trkpt>
      <trkpt lat="47.13524" lon="5.35037">
        <ele>187</ele>
        <time>2012-10-16T12:29:50Z</time>
      </trkpt>
      <trkpt lat="47.13534" lon="5.35021">
        <ele>187</ele>
        <time>2012-10-16T12:29:52Z</time>
      </trkpt>
      <trkpt lat="47.13543" lon="5.35006">
        <ele>187</ele>
        <time>2012-10-16T12:29:54Z</time>
      </trkpt>
      <trkpt lat="47.13551" lon="5.34991">
        <ele>187</ele>
        <time>2012-10-16T12:29:56Z</time>
      </trkpt>
      <trkpt lat="47.13561" lon="5.34976">
        <ele>187</ele>
        <time>2012-10-16T12:29:58Z</time>
      </trkpt>
      <trkpt lat="47.13569" lon="5.3496">
        <ele>187</ele>
        <time>2012-10-16T12:30:00Z</time>
      </trkpt>
      <trkpt lat="47.13578" lon="5.34945">
        <ele>187</ele>
        <time>2012-10-16T12:30:02Z</time>
      </trkpt>
      <trkpt lat="47.13586" lon="5.34931">
        <ele>187</ele>
        <time>2012-10-16T12:30:04Z</time>
      </trkpt>
      <trkpt lat="47.13595" lon="5.34915">
        <ele>187</ele>
        <time>2012-10-16T12:30:06Z</time>
      </trkpt>
      <trkpt lat="47.13604" lon="5.34901">
        <ele>187</ele>
        <time>2012-10-16T12:30:08Z</time>
      </trkpt>
      <trkpt lat="47.13611" lon="5.34886">
        <ele>187</ele>
        <time>2012-10-16T12:30:10Z</time>
      </trkpt>
      <trkpt lat="47.1362" lon="5.34871">
        <ele>187</ele>
        <time>2012-10-16T12:30:12Z</time>
      </trkpt>
      <trkpt lat="47.13629" lon="5.34856">
        <ele>187</ele>
        <time>2012-10-16T12:30:14Z</time>
      </trkpt>
      <trkpt lat="47.13637" lon="5.34842">
        <ele>187</ele>
        <time>2012-10-16T12:30:16Z</time>
      </trkpt>
      <trkpt lat="47.13646" lon="5.34826">
        <ele>187</ele>
        <time>2012-10-16T12:30:18Z</time>
      </trkpt>
      <trkpt lat="47.13654" lon="5.34812">
        <ele>187</ele>
        <time>2012-10-16T12:30:20Z</time>
      </trkpt>
      <trkpt lat="47.13661" lon="5.34798">
        <ele>187</ele>
        <time>2012-10-16T12:30:22Z</time>
      </trkpt>
      <trkpt lat="47.13669" lon="5.34783">
        <ele>187</ele>
        <time>2012-10-16T12:30:24Z</time>
      </trkpt>
      <trkpt lat="47.13678" lon="5.34769">
        <ele>187</ele>
        <time>2012-10-16T12:30:26Z</time>
      </trkpt>
      <trkpt lat="47.13688" lon="5.34755">
        <ele>187</ele>
        <time>2012-10-16T12:30:28Z</time>
      </trkpt>
      <trkpt lat="47.13698" lon="5.34742">
        <ele>187</ele>
        <time>2012-10-16T12:30:30Z</time>
      </trkpt>
      <trkpt lat="47.13707" lon="5.34726">
        <ele>187</ele>
        <time>2012-10-16T12:30:32Z</time>
      </trkpt>
      <trkpt lat="47.13716" lon="5.34711">
        <ele>187</ele>
        <time>2012-10-16T12:30:34Z</time>
      </trkpt>
      <trkpt lat="47.13724" lon="5.34695">
        <ele>187</ele>
        <time>2012-10-16T12:30:36Z</time>
      </trkpt>
      <trkpt lat="47.13733" lon="5.3468">
        <ele>187</ele>
        <time>2012-10-16T12:30:38Z</time>
      </trkpt>
      <trkpt lat="47.13742" lon="5.34665">
        <ele>187</ele>
        <time>2012-10-16T12:30:40Z</time>
      </trkpt>
      <trkpt lat="47.13751" lon="5.34649">
        <ele>187</ele>
        <time>2012-10-16T12:30:42Z</time>
      </trkpt>
      <trkpt lat="47.1376" lon="5.34633">
        <ele>187</ele>
        <time>2012-10-16T12:30:44Z</time>
      </trkpt>
      <trkpt lat="47.13769" lon="5.34618">
        <ele>187</ele>
        <time>2012-10-16T12:30:46Z</time>
      </trkpt>
      <trkpt lat="47.13778" lon="5.34603">
        <ele>187</ele>
        <time>2012-10-16T12:30:48Z</time>
      </trkpt>
      <trkpt lat="47.13787" lon="5.34587">
        <ele>187</ele>
        <time>2012-10-16T12:30:50Z</time>
      </trkpt>
      <trkpt lat="47.13797" lon="5.34571">
        <ele>187</ele>
        <time>2012-10-16T12:30:52Z</time>
      </trkpt>
      <trkpt lat="47.13805" lon="5.34556">
        <ele>187</ele>
        <time>2012-10-16T12:30:54Z</time>
      </trkpt>
      <trkpt lat="47.13814" lon="5.34542">
        <ele>187</ele>
        <time>2012-10-16T12:30:56Z</time>
      </trkpt>
      <trkpt lat="47.13822" lon="5.34527">
        <ele>187</ele>
        <time>2012-10-16T12:30:58Z</time>
      </trkpt>
      <trkpt lat="47.13831" lon="5.34513">
        <ele>187</ele>
        <time>2012-10-16T12:31:00Z</time>
      </trkpt>
      <trkpt lat="47.13839" lon="5.34499">
        <ele>187</ele>
        <time>2012-10-16T12:31:02Z</time>
      </trkpt>
      <trkpt lat="47.13847" lon="5.34485">
        <ele>187</ele>
        <time>2012-10-16T12:31:04Z</time>
      </trkpt>
      <trkpt lat="47.13855" lon="5.34472">
        <ele>187</ele>
        <time>2012-10-16T12:31:06Z</time>
      </trkpt>
      <trkpt lat="47.13863" lon="5.34458">
        <ele>187</ele>
        <time>2012-10-16T12:31:08Z</time>
      </trkpt>
      <trkpt lat="47.1387" lon="5.34446">
        <ele>187</ele>
        <time>2012-10-16T12:31:10Z</time>
      </trkpt>
      <trkpt lat="47.13876" lon="5.34435">
        <ele>187</ele>
        <time>2012-10-16T12:31:12Z</time>
      </trkpt>
      <trkpt lat="47.13885" lon="5.34421">
        <ele>187</ele>
        <time>2012-10-16T12:31:15Z</time>
      </trkpt>
      <trkpt lat="47.13893" lon="5.34411">
        <ele>187</ele>
        <time>2012-10-16T12:31:19Z</time>
      </trkpt>
      <trkpt lat="47.13903" lon="5.34407">
        <ele>187</ele>
        <time>2012-10-16T12:32:03Z</time>
      </trkpt>
      <trkpt lat="47.13911" lon="5.34415">
        <ele>187</ele>
        <time>2012-10-16T12:32:08Z</time>
      </trkpt>
      <trkpt lat="47.1392" lon="5.34422">
        <ele>187</ele>
        <time>2012-10-16T12:32:13Z</time>
      </trkpt>
      <trkpt lat="47.13929" lon="5.34429">
        <ele>187</ele>
        <time>2012-10-16T12:32:17Z</time>
      </trkpt>
      <trkpt lat="47.13937" lon="5.34437">
        <ele>187</ele>
        <time>2012-10-16T12:32:20Z</time>
      </trkpt>
      <trkpt lat="47.13946" lon="5.34444">
        <ele>187</ele>
        <time>2012-10-16T12:32:23Z</time>
      </trkpt>
      <trkpt lat="47.13954" lon="5.34451">
        <ele>187</ele>
        <time>2012-10-16T12:32:26Z</time>
      </trkpt>
      <trkpt lat="47.13962" lon="5.34458">
        <ele>187</ele>
        <time>2012-10-16T12:32:29Z</time>
      </trkpt>
      <trkpt lat="47.13972" lon="5.34467">
        <ele>187</ele>
        <time>2012-10-16T12:32:32Z</time>
      </trkpt>
      <trkpt lat="47.13983" lon="5.34476">
        <ele>187</ele>
        <time>2012-10-16T12:32:35Z</time>
      </trkpt>
      <trkpt lat="47.13994" lon="5.34484">
        <ele>187</ele>
        <time>2012-10-16T12:32:38Z</time>
      </trkpt>
      <trkpt lat="47.14006" lon="5.34492">
        <ele>187</ele>
        <time>2012-10-16T12:32:41Z</time>
      </trkpt>
      <trkpt lat="47.14014" lon="5.34499">
        <ele>187</ele>
        <time>2012-10-16T12:32:44Z</time>
      </trkpt>
      <trkpt lat="47.14025" lon="5.34505">
        <ele>187</ele>
        <time>2012-10-16T12:32:47Z</time>
      </trkpt>
      <trkpt lat="47.14036" lon="5.34512">
        <ele>187</ele>
        <time>2012-10-16T12:32:50Z</time>
      </trkpt>
      <trkpt lat="47.14045" lon="5.34516">
        <ele>187</ele>
        <time>2012-10-16T12:32:52Z</time>
      </trkpt>
      <trkpt lat="47.14053" lon="5.3452">
        <ele>187</ele>
        <time>2012-10-16T12:32:54Z</time>
      </trkpt>
      <trkpt lat="47.14062" lon="5.34524">
        <ele>187</ele>
        <time>2012-10-16T12:32:56Z</time>
      </trkpt>
      <trkpt lat="47.14072" lon="5.34528">
        <ele>187</ele>
        <time>2012-10-16T12:32:58Z</time>
      </trkpt>
      <trkpt lat="47.14082" lon="5.34533">
        <ele>187</ele>
        <time>2012-10-16T12:33:00Z</time>
      </trkpt>
      <trkpt lat="47.14093" lon="5.34537">
        <ele>187</ele>
        <time>2012-10-16T12:33:02Z</time>
      </trkpt>
      <trkpt lat="47.14104" lon="5.34542">
        <ele>187</ele>
        <time>2012-10-16T12:33:04Z</time>
      </trkpt>
      <trkpt lat="47.14115" lon="5.34546">
        <ele>187</ele>
        <time>2012-10-16T12:33:06Z</time>
      </trkpt>
      <trkpt lat="47.14126" lon="5.3455">
        <ele>187</ele>
        <time>2012-10-16T12:33:08Z</time>
      </trkpt>
      <trkpt lat="47.14137" lon="5.34554">
        <ele>187</ele>
        <time>2012-10-16T12:33:10Z</time>
      </trkpt>
      <trkpt lat="47.14148" lon="5.34559">
        <ele>187</ele>
        <time>2012-10-16T12:33:12Z</time>
      </trkpt>
      <trkpt lat="47.14159" lon="5.34563">
        <ele>187</ele>
        <time>2012-10-16T12:33:14Z</time>
      </trkpt>
      <trkpt lat="47.14171" lon="5.34569">
        <ele>187</ele>
        <time>2012-10-16T12:33:16Z</time>
      </trkpt>
      <trkpt lat="47.14182" lon="5.34573">
        <ele>187</ele>
        <time>2012-10-16T12:33:18Z</time>
      </trkpt>
      <trkpt lat="47.14193" lon="5.34578">
        <ele>187</ele>
        <time>2012-10-16T12:33:20Z</time>
      </trkpt>
      <trkpt lat="47.14204" lon="5.34583">
        <ele>187</ele>
        <time>2012-10-16T12:33:22Z</time>
      </trkpt>
      <trkpt lat="47.14215" lon="5.34588">
        <ele>187</ele>
        <time>2012-10-16T12:33:24Z</time>
      </trkpt>
      <trkpt lat="47.14226" lon="5.34594">
        <ele>187</ele>
        <time>2012-10-16T12:33:26Z</time>
      </trkpt>
      <trkpt lat="47.14236" lon="5.346">
        <ele>187</ele>
        <time>2012-10-16T12:33:28Z</time>
      </trkpt>
      <trkpt lat="47.14247" lon="5.34606">
        <ele>187</ele>
        <time>2012-10-16T12:33:30Z</time>
      </trkpt>
      <trkpt lat="47.14258" lon="5.34613">
        <ele>187</ele>
        <time>2012-10-16T12:33:32Z</time>
      </trkpt>
      <trkpt lat="47.14269" lon="5.34619">
        <ele>187</ele>
        <time>2012-10-16T12:33:34Z</time>
      </trkpt>
      <trkpt lat="47.14279" lon="5.34625">
        <ele>187</ele>
        <time>2012-10-16T12:33:36Z</time>
      </trkpt>
      <trkpt lat="47.14289" lon="5.34631">
        <ele>187</ele>
        <time>2012-10-16T12:33:38Z</time>
      </trkpt>
      <trkpt lat="47.143" lon="5.34638">
        <ele>187</ele>
        <time>2012-10-16T12:33:40Z</time>
      </trkpt>
      <trkpt lat="47.14311" lon="5.34644">
        <ele>187</ele>
        <time>2012-10-16T12:33:42Z</time>
      </trkpt>
      <trkpt lat="47.14322" lon="5.34649">
        <ele>187</ele>
        <time>2012-10-16T12:33:44Z</time>
      </trkpt>
      <trkpt lat="47.14333" lon="5.34656">
        <ele>187</ele>
        <time>2012-10-16T12:33:46Z</time>
      </trkpt>
      <trkpt lat="47.14343" lon="5.34662">
        <ele>187</ele>
        <time>2012-10-16T12:33:48Z</time>
      </trkpt>
      <trkpt lat="47.14354" lon="5.34668">
        <ele>187</ele>
        <time>2012-10-16T12:33:50Z</time>
      </trkpt>
      <trkpt lat="47.14365" lon="5.34674">
        <ele>187</ele>
        <time>2012-10-16T12:33:52Z</time>
      </trkpt>
      <trkpt lat="47.14377" lon="5.3468">
        <ele>187</ele>
        <time>2012-10-16T12:33:54Z</time>
      </trkpt>
      <trkpt lat="47.14389" lon="5.34686">
        <ele>187</ele>
        <time>2012-10-16T12:33:56Z</time>
      </trkpt>
      <trkpt lat="47.14401" lon="5.34692">
        <ele>187</ele>
        <time>2012-10-16T12:33:58Z</time>
      </trkpt>
      <trkpt lat="47.14414" lon="5.34698">
        <ele>187</ele>
        <time>2012-10-16T12:34:00Z</time>
      </trkpt>
      <trkpt lat="47.14426" lon="5.34704">
        <ele>187</ele>
        <time>2012-10-16T12:34:02Z</time>
      </trkpt>
      <trkpt lat="47.1444" lon="5.34711">
        <ele>187</ele>
        <time>2012-10-16T12:34:04Z</time>
      </trkpt>
      <trkpt lat="47.14452" lon="5.34719">
        <ele>187</ele>
        <time>2012-10-16T12:34:06Z</time>
      </trkpt>
      <trkpt lat="47.14464" lon="5.34728">
        <ele>187</ele>
        <time>2012-10-16T12:34:08Z</time>
      </trkpt>
      <trkpt lat="47.14476" lon="5.34737">
        <ele>187</ele>
        <time>2012-10-16T12:34:10Z</time>
      </trkpt>
      <trkpt lat="47.14488" lon="5.34748">
        <ele>187</ele>
        <time>2012-10-16T12:34:12Z</time>
      </trkpt>
      <trkpt lat="47.145" lon="5.34759">
        <ele>187</ele>
        <time>2012-10-16T12:34:14Z</time>
      </trkpt>
      <trkpt lat="47.14511" lon="5.3477">
        <ele>187</ele>
        <time>2012-10-16T12:34:16Z</time>
      </trkpt>
      <trkpt lat="47.14523" lon="5.34781">
        <ele>187</ele>
        <time>2012-10-16T12:34:18Z</time>
      </trkpt>
      <trkpt lat="47.14535" lon="5.34792">
        <ele>187</ele>
        <time>2012-10-16T12:34:20Z</time>
      </trkpt>
      <trkpt lat="47.14546" lon="5.34803">
        <ele>187</ele>
        <time>2012-10-16T12:34:22Z</time>
      </trkpt>
      <trkpt lat="47.14557" lon="5.34815">
        <ele>187</ele>
        <time>2012-10-16T12:34:24Z</time>
      </trkpt>
      <trkpt lat="47.14568" lon="5.34825">
        <ele>187</ele>
        <time>2012-10-16T12:34:26Z</time>
      </trkpt>
      <trkpt lat="47.14578" lon="5.34836">
        <ele>187</ele>
        <time>2012-10-16T12:34:28Z</time>
      </trkpt>
      <trkpt lat="47.14589" lon="5.34848">
        <ele>187</ele>
        <time>2012-10-16T12:34:30Z</time>
      </trkpt>
      <trkpt lat="47.146" lon="5.34858">
        <ele>187</ele>
        <time>2012-10-16T12:34:32Z</time>
      </trkpt>
      <trkpt lat="47.14611" lon="5.34869">
        <ele>187</ele>
        <time>2012-10-16T12:34:34Z</time>
      </trkpt>
      <trkpt lat="47.14621" lon="5.3488">
        <ele>187</ele>
        <time>2012-10-16T12:34:36Z</time>
      </trkpt>
      <trkpt lat="47.14632" lon="5.34891">
        <ele>187</ele>
        <time>2012-10-16T12:34:38Z</time>
      </trkpt>
      <trkpt lat="47.14643" lon="5.34902">
        <ele>187</ele>
        <time>2012-10-16T12:34:40Z</time>
      </trkpt>
      <trkpt lat="47.14653" lon="5.34913">
        <ele>187</ele>
        <time>2012-10-16T12:34:42Z</time>
      </trkpt>
      <trkpt lat="47.14665" lon="5.34924">
        <ele>187</ele>
        <time>2012-10-16T12:34:44Z</time>
      </trkpt>
      <trkpt lat="47.14676" lon="5.34935">
        <ele>187</ele>
        <time>2012-10-16T12:34:46Z</time>
      </trkpt>
      <trkpt lat="47.14687" lon="5.34946">
        <ele>187</ele>
        <time>2012-10-16T12:34:48Z</time>
      </trkpt>
      <trkpt lat="47.14698" lon="5.34958">
        <ele>187</ele>
        <time>2012-10-16T12:34:50Z</time>
      </trkpt>
      <trkpt lat="47.14709" lon="5.34967">
        <ele>187</ele>
        <time>2012-10-16T12:34:52Z</time>
      </trkpt>
      <trkpt lat="47.14721" lon="5.34978">
        <ele>187</ele>
        <time>2012-10-16T12:34:54Z</time>
      </trkpt>
      <trkpt lat="47.14732" lon="5.34988">
        <ele>187</ele>
        <time>2012-10-16T12:34:56Z</time>
      </trkpt>
      <trkpt lat="47.14744" lon="5.34999">
        <ele>187</ele>
        <time>2012-10-16T12:34:58Z</time>
      </trkpt>
      <trkpt lat="47.14755" lon="5.35009">
        <ele>187</ele>
        <time>2012-10-16T12:35:00Z</time>
      </trkpt>
      <trkpt lat="47.14767" lon="5.3502">
        <ele>187</ele>
        <time>2012-10-16T12:35:02Z</time>
      </trkpt>
      <trkpt lat="47.14779" lon="5.35029">
        <ele>187</ele>
        <time>2012-10-16T12:35:04Z</time>
      </trkpt>
      <trkpt lat="47.1479" lon="5.35039">
        <ele>187</ele>
        <time>2012-10-16T12:35:06Z</time>
      </trkpt>
      <trkpt lat="47.14802" lon="5.35049">
        <ele>187</ele>
        <time>2012-10-16T12:35:08Z</time>
      </trkpt>
      <trkpt lat="47.14813" lon="5.35059">
        <ele>187</ele>
        <time>2012-10-16T12:35:10Z</time>
      </trkpt>
      <trkpt lat="47.14825" lon="5.35069">
        <ele>187</ele>
        <time>2012-10-16T12:35:12Z</time>
      </trkpt>
      <trkpt lat="47.14837" lon="5.35078">
        <ele>187</ele>
        <time>2012-10-16T12:35:14Z</time>
      </trkpt>
      <trkpt lat="47.14848" lon="5.35087">
        <ele>187</ele>
        <time>2012-10-16T12:35:16Z</time>
      </trkpt>
      <trkpt lat="47.1486" lon="5.35097">
        <ele>187</ele>
        <time>2012-10-16T12:35:18Z</time>
      </trkpt>
      <trkpt lat="47.14872" lon="5.35106">
        <ele>187</ele>
        <time>2012-10-16T12:35:20Z</time>
      </trkpt>
      <trkpt lat="47.14883" lon="5.35115">
        <ele>187</ele>
        <time>2012-10-16T12:35:22Z</time>
      </trkpt>
      <trkpt lat="47.14896" lon="5.35124">
        <ele>187</ele>
        <time>2012-10-16T12:35:24Z</time>
      </trkpt>
      <trkpt lat="47.14907" lon="5.35133">
        <ele>187</ele>
        <time>2012-10-16T12:35:26Z</time>
      </trkpt>
      <trkpt lat="47.14919" lon="5.35142">
        <ele>187</ele>
        <time>2012-10-16T12:35:28Z</time>
      </trkpt>
      <trkpt lat="47.14931" lon="5.35151">
        <ele>187</ele>
        <time>2012-10-16T12:35:30Z</time>
      </trkpt>
      <trkpt lat="47.14943" lon="5.35159">
        <ele>187</ele>
        <time>2012-10-16T12:35:32Z</time>
      </trkpt>
      <trkpt lat="47.14955" lon="5.35168">
        <ele>187</ele>
        <time>2012-10-16T12:35:34Z</time>
      </trkpt>
      <trkpt lat="47.14967" lon="5.35176">
        <ele>187</ele>
        <time>2012-10-16T12:35:36Z</time>
      </trkpt>
      <trkpt lat="47.14978" lon="5.35184">
        <ele>187</ele>
        <time>2012-10-16T12:35:38Z</time>
      </trkpt>
      <trkpt lat="47.1499" lon="5.35191">
        <ele>187</ele>
        <time>2012-10-16T12:35:40Z</time>
      </trkpt>
      <trkpt lat="47.15002" lon="5.35199">
        <ele>187</ele>
        <time>2012-10-16T12:35:42Z</time>
      </trkpt>
      <trkpt lat="47.15015" lon="5.35207">
        <ele>187</ele>
        <time>2012-10-16T12:35:44Z</time>
      </trkpt>
      <trkpt lat="47.15027" lon="5.35215">
        <ele>187</ele>
        <time>2012-10-16T12:35:46Z</time>
      </trkpt>
      <trkpt lat="47.1504" lon="5.35223">
        <ele>187</ele>
        <time>2012-10-16T12:35:48Z</time>
      </trkpt>
      <trkpt lat="47.15052" lon="5.35228">
        <ele>187</ele>
        <time>2012-10-16T12:35:50Z</time>
      </trkpt>
      <trkpt lat="47.15065" lon="5.35232">
        <ele>187</ele>
        <time>2012-10-16T12:35:52Z</time>
      </trkpt>
      <trkpt lat="47.15078" lon="5.35235">
        <ele>187</ele>
        <time>2012-10-16T12:35:54Z</time>
      </trkpt>
      <trkpt lat="47.15092" lon="5.35236">
        <ele>187</ele>
        <time>2012-10-16T12:35:56Z</time>
      </trkpt>
      <trkpt lat="47.15105" lon="5.35235">
        <ele>187</ele>
        <time>2012-10-16T12:35:58Z</time>
      </trkpt>
      <trkpt lat="47.15119" lon="5.35233">
        <ele>187</ele>
        <time>2012-10-16T12:36:00Z</time>
      </trkpt>
      <trkpt lat="47.15133" lon="5.35231">
        <ele>187</ele>
        <time>2012-10-16T12:36:02Z</time>
      </trkpt>
      <trkpt lat="47.15146" lon="5.35227">
        <ele>187</ele>
        <time>2012-10-16T12:36:04Z</time>
      </trkpt>
      <trkpt lat="47.1516" lon="5.35223">
        <ele>187</ele>
        <time>2012-10-16T12:36:06Z</time>
      </trkpt>
      <trkpt lat="47.15174" lon="5.3522">
        <ele>187</ele>
        <time>2012-10-16T12:36:08Z</time>
      </trkpt>
      <trkpt lat="47.15188" lon="5.35218">
        <ele>187</ele>
        <time>2012-10-16T12:36:10Z</time>
      </trkpt>
      <trkpt lat="47.15202" lon="5.35216">
        <ele>187</ele>
        <time>2012-10-16T12:36:12Z</time>
      </trkpt>
      <trkpt lat="47.15215" lon="5.35217">
        <ele>187</ele>
        <time>2012-10-16T12:36:14Z</time>
      </trkpt>
      <trkpt lat="47.15229" lon="5.35219">
        <ele>187</ele>
        <time>2012-10-16T12:36:16Z</time>
      </trkpt>
      <trkpt lat="47.15242" lon="5.35223">
        <ele>187</ele>
        <time>2012-10-16T12:36:18Z</time>
      </trkpt>
      <trkpt lat="47.15255" lon="5.35226">
        <ele>187</ele>
        <time>2012-10-16T12:36:20Z</time>
      </trkpt>
      <trkpt lat="47.15267" lon="5.35231">
        <ele>187</ele>
        <time>2012-10-16T12:36:22Z</time>
      </trkpt>
      <trkpt lat="47.1528" lon="5.35235">
        <ele>187</ele>
        <time>2012-10-16T12:36:24Z</time>
      </trkpt>
      <trkpt lat="47.15292" lon="5.35239">
        <ele>187</ele>
        <time>2012-10-16T12:36:26Z</time>
      </trkpt>
      <trkpt lat="47.15305" lon="5.35242">
        <ele>187</ele>
        <time>2012-10-16T12:36:28Z</time>
      </trkpt>
      <trkpt lat="47.15318" lon="5.35248">
        <ele>187</ele>
        <time>2012-10-16T12:36:30Z</time>
      </trkpt>
      <trkpt lat="47.15331" lon="5.35252">
        <ele>187</ele>
        <time>2012-10-16T12:36:32Z</time>
      </trkpt>
      <trkpt lat="47.15344" lon="5.35256">
        <ele>187</ele>
        <time>2012-10-16T12:36:34Z</time>
      </trkpt>
      <trkpt lat="47.15356" lon="5.3526">
        <ele>187</ele>
        <time>2012-10-16T12:36:36Z</time>
      </trkpt>
      <trkpt lat="47.15369" lon="5.35265">
        <ele>187</ele>
        <time>2012-10-16T12:36:38Z</time>
      </trkpt>
      <trkpt lat="47.15383" lon="5.35268">
        <ele>187</ele>
        <time>2012-10-16T12:36:40Z</time>
      </trkpt>
      <trkpt lat="47.15396" lon="5.35272">
        <ele>187</ele>
        <time>2012-10-16T12:36:42Z</time>
      </trkpt>
      <trkpt lat="47.1541" lon="5.35277">
        <ele>187</ele>
        <time>2012-10-16T12:36:44Z</time>
      </trkpt>
      <trkpt lat="47.15424" lon="5.35282">
        <ele>187</ele>
        <time>2012-10-16T12:36:46Z</time>
      </trkpt>
      <trkpt lat="47.15437" lon="5.35286">
        <ele>187</ele>
        <time>2012-10-16T12:36:48Z</time>
      </trkpt>
      <trkpt lat="47.15451" lon="5.3529">
        <ele>187</ele>
        <time>2012-10-16T12:36:50Z</time>
      </trkpt>
      <trkpt lat="47.15465" lon="5.35294">
        <ele>187</ele>
        <time>2012-10-16T12:36:52Z</time>
      </trkpt>
      <trkpt lat="47.1548" lon="5.35299">
        <ele>187</ele>
        <time>2012-10-16T12:36:54Z</time>
      </trkpt>
      <trkpt lat="47.15494" lon="5.35303">
        <ele>187</ele>
        <time>2012-10-16T12:36:56Z</time>
      </trkpt>
      <trkpt lat="47.15509" lon="5.35308">
        <ele>187</ele>
        <time>2012-10-16T12:36:58Z</time>
      </trkpt>
      <trkpt lat="47.15523" lon="5.35312">
        <ele>187</ele>
        <time>2012-10-16T12:37:00Z</time>
      </trkpt>
      <trkpt lat="47.15537" lon="5.35317">
        <ele>187</ele>
        <time>2012-10-16T12:37:02Z</time>
      </trkpt>
      <trkpt lat="47.15551" lon="5.35321">
        <ele>187</ele>
        <time>2012-10-16T12:37:04Z</time>
      </trkpt>
      <trkpt lat="47.15566" lon="5.35326">
        <ele>187</ele>
        <time>2012-10-16T12:37:06Z</time>
      </trkpt>
      <trkpt lat="47.1558" lon="5.3533">
        <ele>187</ele>
        <time>2012-10-16T12:37:08Z</time>
      </trkpt>
      <trkpt lat="47.15594" lon="5.35335">
        <ele>187</ele>
        <time>2012-10-16T12:37:10Z</time>
      </trkpt>
      <trkpt lat="47.15608" lon="5.35339">
        <ele>187</ele>
        <time>2012-10-16T12:37:12Z</time>
      </trkpt>
      <trkpt lat="47.15622" lon="5.35345">
        <ele>187</ele>
        <time>2012-10-16T12:37:14Z</time>
      </trkpt>
      <trkpt lat="47.15637" lon="5.35349">
        <ele>187</ele>
        <time>2012-10-16T12:37:16Z</time>
      </trkpt>
      <trkpt lat="47.15652" lon="5.35355">
        <ele>187</ele>
        <time>2012-10-16T12:37:18Z</time>
      </trkpt>
      <trkpt lat="47.15666" lon="5.3536">
        <ele>187</ele>
        <time>2012-10-16T12:37:20Z</time>
      </trkpt>
      <trkpt lat="47.1568" lon="5.35365">
        <ele>187</ele>
        <time>2012-10-16T12:37:22Z</time>
      </trkpt>
      <trkpt lat="47.15694" lon="5.35372">
        <ele>187</ele>
        <time>2012-10-16T12:37:24Z</time>
      </trkpt>
      <trkpt lat="47.15708" lon="5.3538">
        <ele>187</ele>
        <time>2012-10-16T12:37:26Z</time>
      </trkpt>
      <trkpt lat="47.15721" lon="5.35388">
        <ele>187</ele>
        <time>2012-10-16T12:37:28Z</time>
      </trkpt>
      <trkpt lat="47.15734" lon="5.35396">
        <ele>187</ele>
        <time>2012-10-16T12:37:30Z</time>
      </trkpt>
      <trkpt lat="47.15747" lon="5.35405">
        <ele>187</ele>
        <time>2012-10-16T12:37:32Z</time>
      </trkpt>
      <trkpt lat="47.1576" lon="5.35414">
        <ele>187</ele>
        <time>2012-10-16T12:37:34Z</time>
      </trkpt>
      <trkpt lat="47.15773" lon="5.35422">
        <ele>187</ele>
        <time>2012-10-16T12:37:36Z</time>
      </trkpt>
      <trkpt lat="47.15787" lon="5.35429">
        <ele>187</ele>
        <time>2012-10-16T12:37:38Z</time>
      </trkpt>
      <trkpt lat="47.15801" lon="5.35435">
        <ele>187</ele>
        <time>2012-10-16T12:37:40Z</time>
      </trkpt>
      <trkpt lat="47.15814" lon="5.35441">
        <ele>187</ele>
        <time>2012-10-16T12:37:42Z</time>
      </trkpt>
      <trkpt lat="47.15828" lon="5.35445">
        <ele>187</ele>
        <time>2012-10-16T12:37:44Z</time>
      </trkpt>
      <trkpt lat="47.15842" lon="5.35449">
        <ele>187</ele>
        <time>2012-10-16T12:37:46Z</time>
      </trkpt>
      <trkpt lat="47.15856" lon="5.35453">
        <ele>187</ele>
        <time>2012-10-16T12:37:48Z</time>
      </trkpt>
      <trkpt lat="47.15871" lon="5.35455">
        <ele>187</ele>
        <time>2012-10-16T12:37:50Z</time>
      </trkpt>
      <trkpt lat="47.15885" lon="5.35458">
        <ele>187</ele>
        <time>2012-10-16T12:37:52Z</time>
      </trkpt>
      <trkpt lat="47.159" lon="5.35462">
        <ele>187</ele>
        <time>2012-10-16T12:37:54Z</time>
      </trkpt>
      <trkpt lat="47.15915" lon="5.35465">
        <ele>187</ele>
        <time>2012-10-16T12:37:56Z</time>
      </trkpt>
      <trkpt lat="47.15929" lon="5.35469">
        <ele>187</ele>
        <time>2012-10-16T12:37:58Z</time>
      </trkpt>
      <trkpt lat="47.15943" lon="5.35472">
        <ele>187</ele>
        <time>2012-10-16T12:38:00Z</time>
      </trkpt>
      <trkpt lat="47.15958" lon="5.35476">
        <ele>187</ele>
        <time>2012-10-16T12:38:02Z</time>
      </trkpt>
      <trkpt lat="47.15971" lon="5.35479">
        <ele>187</ele>
        <time>2012-10-16T12:38:04Z</time>
      </trkpt>
      <trkpt lat="47.15985" lon="5.35481">
        <ele>187</ele>
        <time>2012-10-16T12:38:06Z</time>
      </trkpt>
      <trkpt lat="47.15999" lon="5.35485">
        <ele>187</ele>
        <time>2012-10-16T12:38:08Z</time>
      </trkpt>
      <trkpt lat="47.16013" lon="5.35488">
        <ele>187</ele>
        <time>2012-10-16T12:38:10Z</time>
      </trkpt>
      <trkpt lat="47.16026" lon="5.3549">
        <ele>187</ele>
        <time>2012-10-16T12:38:12Z</time>
      </trkpt>
      <trkpt lat="47.16039" lon="5.35492">
        <ele>187</ele>
        <time>2012-10-16T12:38:14Z</time>
      </trkpt>
      <trkpt lat="47.16052" lon="5.35493">
        <ele>187</ele>
        <time>2012-10-16T12:38:16Z</time>
      </trkpt>
      <trkpt lat="47.16067" lon="5.35491">
        <ele>187</ele>
        <time>2012-10-16T12:38:18Z</time>
      </trkpt>
      <trkpt lat="47.16081" lon="5.35488">
        <ele>187</ele>
        <time>2012-10-16T12:38:20Z</time>
      </trkpt>
      <trkpt lat="47.16094" lon="5.35486">
        <ele>187</ele>
        <time>2012-10-16T12:38:22Z</time>
      </trkpt>
      <trkpt lat="47.16108" lon="5.35483">
        <ele>187</ele>
        <time>2012-10-16T12:38:24Z</time>
      </trkpt>
      <trkpt lat="47.16122" lon="5.35482">
        <ele>187</ele>
        <time>2012-10-16T12:38:26Z</time>
      </trkpt>
      <trkpt lat="47.16136" lon="5.35482">
        <ele>187</ele>
        <time>2012-10-16T12:38:28Z</time>
      </trkpt>
      <trkpt lat="47.1615" lon="5.35485">
        <ele>187</ele>
        <time>2012-10-16T12:38:30Z</time>
      </trkpt>
      <trkpt lat="47.16164" lon="5.35488">
        <ele>187</ele>
        <time>2012-10-16T12:38:32Z</time>
      </trkpt>
      <trkpt lat="47.16177" lon="5.3549">
        <ele>187</ele>
        <time>2012-10-16T12:38:34Z</time>
      </trkpt>
      <trkpt lat="47.16191" lon="5.35494">
        <ele>187</ele>
        <time>2012-10-16T12:38:36Z</time>
      </trkpt>
      <trkpt lat="47.16204" lon="5.35497">
        <ele>187</ele>
        <time>2012-10-16T12:38:38Z</time>
      </trkpt>
      <trkpt lat="47.16218" lon="5.35497">
        <ele>187</ele>
        <time>2012-10-16T12:38:40Z</time>
      </trkpt>
      <trkpt lat="47.16232" lon="5.35497">
        <ele>187</ele>
        <time>2012-10-16T12:38:42Z</time>
      </trkpt>
      <trkpt lat="47.16247" lon="5.35494">
        <ele>187</ele>
        <time>2012-10-16T12:38:44Z</time>
      </trkpt>
      <trkpt lat="47.16261" lon="5.35488">
        <ele>187</ele>
        <time>2012-10-16T12:38:46Z</time>
      </trkpt>
      <trkpt lat="47.16276" lon="5.35483">
        <ele>187</ele>
        <time>2012-10-16T12:38:48Z</time>
      </trkpt>
      <trkpt lat="47.16291" lon="5.35477">
        <ele>187</ele>
        <time>2012-10-16T12:38:50Z</time>
      </trkpt>
      <trkpt lat="47.16306" lon="5.3547">
        <ele>187</ele>
        <time>2012-10-16T12:38:52Z</time>
      </trkpt>
      <trkpt lat="47.1632" lon="5.35462">
        <ele>187</ele>
        <time>2012-10-16T12:38:54Z</time>
      </trkpt>
      <trkpt lat="47.16335" lon="5.35455">
        <ele>187</ele>
        <time>2012-10-16T12:38:56Z</time>
      </trkpt>
      <trkpt lat="47.1635" lon="5.35448">
        <ele>187</ele>
        <time>2012-10-16T12:38:58Z</time>
      </trkpt>
      <trkpt lat="47.16364" lon="5.3544">
        <ele>187</ele>
        <time>2012-10-16T12:39:00Z</time>
      </trkpt>
      <trkpt lat="47.16379" lon="5.35434">
        <ele>187</ele>
        <time>2012-10-16T12:39:02Z</time>
      </trkpt>
      <trkpt lat="47.16394" lon="5.35427">
        <ele>187</ele>
        <time>2012-10-16T12:39:04Z</time>
      </trkpt>
      <trkpt lat="47.16408" lon="5.35419">
        <ele>187</ele>
        <time>2012-10-16T12:39:06Z</time>
      </trkpt>
      <trkpt lat="47.16423" lon="5.35412">
        <ele>187</ele>
        <time>2012-10-16T12:39:08Z</time>
      </trkpt>
      <trkpt lat="47.16438" lon="5.35405">
        <ele>187</ele>
        <time>2012-10-16T12:39:10Z</time>
      </trkpt>
      <trkpt lat="47.16453" lon="5.35399">
        <ele>187</ele>
        <time>2012-10-16T12:39:12Z</time>
      </trkpt>
      <trkpt lat="47.16468" lon="5.35392">
        <ele>187</ele>
        <time>2012-10-16T12:39:14Z</time>
      </trkpt>
      <trkpt lat="47.16483" lon="5.35387">
        <ele>187</ele>
        <time>2012-10-16T12:39:16Z</time>
      </trkpt>
      <trkpt lat="47.16498" lon="5.35383">
        <ele>187</ele>
        <time>2012-10-16T12:39:18Z</time>
      </trkpt>
      <trkpt lat="47.16513" lon="5.3538">
        <ele>187</ele>
        <time>2012-10-16T12:39:20Z</time>
      </trkpt>
      <trkpt lat="47.16527" lon="5.35377">
        <ele>187</ele>
        <time>2012-10-16T12:39:22Z</time>
      </trkpt>
      <trkpt lat="47.16542" lon="5.35374">
        <ele>187</ele>
        <time>2012-10-16T12:39:24Z</time>
      </trkpt>
      <trkpt lat="47.16557" lon="5.35372">
        <ele>187</ele>
        <time>2012-10-16T12:39:26Z</time>
      </trkpt>
      <trkpt lat="47.16571" lon="5.35368">
        <ele>187</ele>
        <time>2012-10-16T12:39:28Z</time>
      </trkpt>
      <trkpt lat="47.16586" lon="5.35365">
        <ele>187</ele>
        <time>2012-10-16T12:39:30Z</time>
      </trkpt>
      <trkpt lat="47.16601" lon="5.35363">
        <ele>187</ele>
        <time>2012-10-16T12:39:32Z</time>
      </trkpt>
      <trkpt lat="47.16615" lon="5.35358">
        <ele>187</ele>
        <time>2012-10-16T12:39:34Z</time>
      </trkpt>
      <trkpt lat="47.1663" lon="5.35353">
        <ele>187</ele>
        <time>2012-10-16T12:39:36Z</time>
      </trkpt>
      <trkpt lat="47.16644" lon="5.35347">
        <ele>187</ele>
        <time>2012-10-16T12:39:38Z</time>
      </trkpt>
      <trkpt lat="47.16658" lon="5.35341">
        <ele>187</ele>
        <time>2012-10-16T12:39:40Z</time>
      </trkpt>
      <trkpt lat="47.16673" lon="5.35335">
        <ele>187</ele>
        <time>2012-10-16T12:39:42Z</time>
      </trkpt>
      <trkpt lat="47.16687" lon="5.35329">
        <ele>187</ele>
        <time>2012-10-16T12:39:44Z</time>
      </trkpt>
      <trkpt lat="47.16701" lon="5.35321">
        <ele>187</ele>
        <time>2012-10-16T12:39:46Z</time>
      </trkpt>
      <trkpt lat="47.16715" lon="5.35315">
        <ele>187</ele>
        <time>2012-10-16T12:39:48Z</time>
      </trkpt>
      <trkpt lat="47.16729" lon="5.35308">
        <ele>187</ele>
        <time>2012-10-16T12:39:50Z</time>
      </trkpt>
      <trkpt lat="47.16744" lon="5.35302">
        <ele>187</ele>
        <time>2012-10-16T12:39:52Z</time>
      </trkpt>
      <trkpt lat="47.16758" lon="5.35295">
        <ele>187</ele>
        <time>2012-10-16T12:39:54Z</time>
      </trkpt>
      <trkpt lat="47.16772" lon="5.35289">
        <ele>187</ele>
        <time>2012-10-16T12:39:56Z</time>
      </trkpt>
      <trkpt lat="47.16786" lon="5.35283">
        <ele>187</ele>
        <time>2012-10-16T12:39:58Z</time>
      </trkpt>
      <trkpt lat="47.168" lon="5.35276">
        <ele>187</ele>
        <time>2012-10-16T12:40:00Z</time>
      </trkpt>
      <trkpt lat="47.16814" lon="5.35267">
        <ele>187</ele>
        <time>2012-10-16T12:40:02Z</time>
      </trkpt>
      <trkpt lat="47.16827" lon="5.35256">
        <ele>187</ele>
        <time>2012-10-16T12:40:04Z</time>
      </trkpt>
      <trkpt lat="47.16839" lon="5.35243">
        <ele>187</ele>
        <time>2012-10-16T12:40:06Z</time>
      </trkpt>
      <trkpt lat="47.16851" lon="5.35231">
        <ele>187</ele>
        <time>2012-10-16T12:40:08Z</time>
      </trkpt>
      <trkpt lat="47.16864" lon="5.35217">
        <ele>187</ele>
        <time>2012-10-16T12:40:10Z</time>
      </trkpt>
      <trkpt lat="47.16876" lon="5.35205">
        <ele>187</ele>
        <time>2012-10-16T12:40:12Z</time>
      </trkpt>
      <trkpt lat="47.16889" lon="5.35193">
        <ele>187</ele>
        <time>2012-10-16T12:40:14Z</time>
      </trkpt>
      <trkpt lat="47.16902" lon="5.35182">
        <ele>187</ele>
        <time>2012-10-16T12:40:16Z</time>
      </trkpt>
      <trkpt lat="47.16916" lon="5.35172">
        <ele>187</ele>
        <time>2012-10-16T12:40:18Z</time>
      </trkpt>
      <trkpt lat="47.1693" lon="5.35163">
        <ele>187</ele>
        <time>2012-10-16T12:40:20Z</time>
      </trkpt>
      <trkpt lat="47.16946" lon="5.35154">
        <ele>187</ele>
        <time>2012-10-16T12:40:22Z</time>
      </trkpt>
      <trkpt lat="47.1696" lon="5.35146">
        <ele>187</ele>
        <time>2012-10-16T12:40:24Z</time>
      </trkpt>
      <trkpt lat="47.16974" lon="5.35139">
        <ele>187</ele>
        <time>2012-10-16T12:40:26Z</time>
      </trkpt>
      <trkpt lat="47.16987" lon="5.35131">
        <ele>187</ele>
        <time>2012-10-16T12:40:28Z</time>
      </trkpt>
      <trkpt lat="47.17001" lon="5.35125">
        <ele>187</ele>
        <time>2012-10-16T12:40:30Z</time>
      </trkpt>
      <trkpt lat="47.17015" lon="5.35117">
        <ele>187</ele>
        <time>2012-10-16T12:40:32Z</time>
      </trkpt>
      <trkpt lat="47.17028" lon="5.3511">
        <ele>187</ele>
        <time>2012-10-16T12:40:34Z</time>
      </trkpt>
      <trkpt lat="47.17042" lon="5.35104">
        <ele>187</ele>
        <time>2012-10-16T12:40:36Z</time>
      </trkpt>
      <trkpt lat="47.17056" lon="5.351">
        <ele>187</ele>
        <time>2012-10-16T12:40:38Z</time>
      </trkpt>
      <trkpt lat="47.1707" lon="5.35097">
        <ele>187</ele>
        <time>2012-10-16T12:40:40Z</time>
      </trkpt>
      <trkpt lat="47.17085" lon="5.35095">
        <ele>187</ele>
        <time>2012-10-16T12:40:42Z</time>
      </trkpt>
      <trkpt lat="47.171" lon="5.35094">
        <ele>187</ele>
        <time>2012-10-16T12:40:44Z</time>
      </trkpt>
      <trkpt lat="47.17114" lon="5.35095">
        <ele>187</ele>
        <time>2012-10-16T12:40:46Z</time>
      </trkpt>
      <trkpt lat="47.17128" lon="5.35097">
        <ele>187</ele>
        <time>2012-10-16T12:40:48Z</time>
      </trkpt>
      <trkpt lat="47.17142" lon="5.35099">
        <ele>187</ele>
        <time>2012-10-16T12:40:50Z</time>
      </trkpt>
      <trkpt lat="47.17156" lon="5.35102">
        <ele>187</ele>
        <time>2012-10-16T12:40:52Z</time>
      </trkpt>
      <trkpt lat="47.17205" lon="5.35113">
        <ele>187</ele>
        <time>2012-10-16T12:40:58Z</time>
      </trkpt>
      <trkpt lat="47.17218" lon="5.35115">
        <ele>187</ele>
        <time>2012-10-16T12:41:00Z</time>
      </trkpt>
      <trkpt lat="47.17232" lon="5.35117">
        <ele>187</ele>
        <time>2012-10-16T12:41:02Z</time>
      </trkpt>
      <trkpt lat="47.17246" lon="5.35121">
        <ele>187</ele>
        <time>2012-10-16T12:41:04Z</time>
      </trkpt>
      <trkpt lat="47.17261" lon="5.35125">
        <ele>187</ele>
        <time>2012-10-16T12:41:06Z</time>
      </trkpt>
      <trkpt lat="47.17274" lon="5.35129">
        <ele>187</ele>
        <time>2012-10-16T12:41:08Z</time>
      </trkpt>
      <trkpt lat="47.17288" lon="5.35133">
        <ele>187</ele>
        <time>2012-10-16T12:41:10Z</time>
      </trkpt>
      <trkpt lat="47.17302" lon="5.35137">
        <ele>187</ele>
        <time>2012-10-16T12:41:12Z</time>
      </trkpt>
      <trkpt lat="47.17316" lon="5.35142">
        <ele>187</ele>
        <time>2012-10-16T12:41:14Z</time>
      </trkpt>
      <trkpt lat="47.1733" lon="5.35146">
        <ele>187</ele>
        <time>2012-10-16T12:41:16Z</time>
      </trkpt>
      <trkpt lat="47.17343" lon="5.35151">
        <ele>187</ele>
        <time>2012-10-16T12:41:18Z</time>
      </trkpt>
      <trkpt lat="47.17357" lon="5.35156">
        <ele>187</ele>
        <time>2012-10-16T12:41:20Z</time>
      </trkpt>
      <trkpt lat="47.17371" lon="5.35161">
        <ele>187</ele>
        <time>2012-10-16T12:41:22Z</time>
      </trkpt>
      <trkpt lat="47.17386" lon="5.35166">
        <ele>187</ele>
        <time>2012-10-16T12:41:24Z</time>
      </trkpt>
      <trkpt lat="47.17399" lon="5.3517">
        <ele>187</ele>
        <time>2012-10-16T12:41:26Z</time>
      </trkpt>
      <trkpt lat="47.17414" lon="5.35176">
        <ele>187</ele>
        <time>2012-10-16T12:41:28Z</time>
      </trkpt>
      <trkpt lat="47.17428" lon="5.35181">
        <ele>187</ele>
        <time>2012-10-16T12:41:30Z</time>
      </trkpt>
      <trkpt lat="47.17443" lon="5.35187">
        <ele>187</ele>
        <time>2012-10-16T12:41:32Z</time>
      </trkpt>
      <trkpt lat="47.17458" lon="5.3519">
        <ele>187</ele>
        <time>2012-10-16T12:41:34Z</time>
      </trkpt>
      <trkpt lat="47.17473" lon="5.35194">
        <ele>187</ele>
        <time>2012-10-16T12:41:36Z</time>
      </trkpt>
      <trkpt lat="47.17487" lon="5.35197">
        <ele>187</ele>
        <time>2012-10-16T12:41:38Z</time>
      </trkpt>
      <trkpt lat="47.17501" lon="5.35202">
        <ele>187</ele>
        <time>2012-10-16T12:41:40Z</time>
      </trkpt>
      <trkpt lat="47.17515" lon="5.35206">
        <ele>187</ele>
        <time>2012-10-16T12:41:42Z</time>
      </trkpt>
      <trkpt lat="47.1753" lon="5.35209">
        <ele>187</ele>
        <time>2012-10-16T12:41:44Z</time>
      </trkpt>
      <trkpt lat="47.17544" lon="5.35212">
        <ele>187</ele>
        <time>2012-10-16T12:41:46Z</time>
      </trkpt>
      <trkpt lat="47.17558" lon="5.35215">
        <ele>187</ele>
        <time>2012-10-16T12:41:48Z</time>
      </trkpt>
      <trkpt lat="47.17573" lon="5.35218">
        <ele>187</ele>
        <time>2012-10-16T12:41:50Z</time>
      </trkpt>
      <trkpt lat="47.17587" lon="5.35222">
        <ele>187</ele>
        <time>2012-10-16T12:41:52Z</time>
      </trkpt>
      <trkpt lat="47.17602" lon="5.35225">
        <ele>187</ele>
        <time>2012-10-16T12:41:54Z</time>
      </trkpt>
      <trkpt lat="47.17617" lon="5.35231">
        <ele>187</ele>
        <time>2012-10-16T12:41:56Z</time>
      </trkpt>
      <trkpt lat="47.17631" lon="5.35236">
        <ele>187</ele>
        <time>2012-10-16T12:41:58Z</time>
      </trkpt>
      <trkpt lat="47.17645" lon="5.35243">
        <ele>187</ele>
        <time>2012-10-16T12:42:00Z</time>
      </trkpt>
      <trkpt lat="47.17659" lon="5.35252">
        <ele>187</ele>
        <time>2012-10-16T12:42:02Z</time>
      </trkpt>
      <trkpt lat="47.17673" lon="5.35262">
        <ele>187</ele>
        <time>2012-10-16T12:42:04Z</time>
      </trkpt>
      <trkpt lat="47.17688" lon="5.35274">
        <ele>187</ele>
        <time>2012-10-16T12:42:06Z</time>
      </trkpt>
      <trkpt lat="47.17702" lon="5.35285">
        <ele>187</ele>
        <time>2012-10-16T12:42:08Z</time>
      </trkpt>
      <trkpt lat="47.17716" lon="5.35297">
        <ele>187</ele>
        <time>2012-10-16T12:42:10Z</time>
      </trkpt>
      <trkpt lat="47.17729" lon="5.3531">
        <ele>187</ele>
        <time>2012-10-16T12:42:12Z</time>
      </trkpt>
      <trkpt lat="47.17743" lon="5.35323">
        <ele>187</ele>
        <time>2012-10-16T12:42:14Z</time>
      </trkpt>
      <trkpt lat="47.17758" lon="5.35337">
        <ele>187</ele>
        <time>2012-10-16T12:42:16Z</time>
      </trkpt>
      <trkpt lat="47.17772" lon="5.35348">
        <ele>187</ele>
        <time>2012-10-16T12:42:18Z</time>
      </trkpt>
      <trkpt lat="47.17788" lon="5.35359">
        <ele>187</ele>
        <time>2012-10-16T12:42:20Z</time>
      </trkpt>
      <trkpt lat="47.17803" lon="5.35369">
        <ele>187</ele>
        <time>2012-10-16T12:42:22Z</time>
      </trkpt>
      <trkpt lat="47.17819" lon="5.35377">
        <ele>187</ele>
        <time>2012-10-16T12:42:24Z</time>
      </trkpt>
      <trkpt lat="47.17835" lon="5.35386">
        <ele>187</ele>
        <time>2012-10-16T12:42:26Z</time>
      </trkpt>
      <trkpt lat="47.1785" lon="5.35394">
        <ele>187</ele>
        <time>2012-10-16T12:42:28Z</time>
      </trkpt>
      <trkpt lat="47.17865" lon="5.35402">
        <ele>187</ele>
        <time>2012-10-16T12:42:30Z</time>
      </trkpt>
      <trkpt lat="47.1788" lon="5.3541">
        <ele>187</ele>
        <time>2012-10-16T12:42:32Z</time>
      </trkpt>
      <trkpt lat="47.17895" lon="5.35419">
        <ele>187</ele>
        <time>2012-10-16T12:42:34Z</time>
      </trkpt>
      <trkpt lat="47.17909" lon="5.35427">
        <ele>187</ele>
        <time>2012-10-16T12:42:36Z</time>
      </trkpt>
      <trkpt lat="47.17925" lon="5.35436">
        <ele>187</ele>
        <time>2012-10-16T12:42:38Z</time>
      </trkpt>
      <trkpt lat="47.17939" lon="5.35444">
        <ele>187</ele>
        <time>2012-10-16T12:42:40Z</time>
      </trkpt>
      <trkpt lat="47.17955" lon="5.35453">
        <ele>187</ele>
        <time>2012-10-16T12:42:42Z</time>
      </trkpt>
      <trkpt lat="47.1797" lon="5.35462">
        <ele>187</ele>
        <time>2012-10-16T12:42:44Z</time>
      </trkpt>
      <trkpt lat="47.17985" lon="5.35471">
        <ele>187</ele>
        <time>2012-10-16T12:42:46Z</time>
      </trkpt>
      <trkpt lat="47.18" lon="5.35479">
        <ele>187</ele>
        <time>2012-10-16T12:42:48Z</time>
      </trkpt>
      <trkpt lat="47.18015" lon="5.35484">
        <ele>187</ele>
        <time>2012-10-16T12:42:50Z</time>
      </trkpt>
      <trkpt lat="47.18031" lon="5.35491">
        <ele>187</ele>
        <time>2012-10-16T12:42:52Z</time>
      </trkpt>
      <trkpt lat="47.18046" lon="5.35497">
        <ele>187</ele>
        <time>2012-10-16T12:42:54Z</time>
      </trkpt>
      <trkpt lat="47.18062" lon="5.35501">
        <ele>187</ele>
        <time>2012-10-16T12:42:56Z</time>
      </trkpt>
      <trkpt lat="47.18078" lon="5.35507">
        <ele>187</ele>
        <time>2012-10-16T12:42:58Z</time>
      </trkpt>
      <trkpt lat="47.18093" lon="5.35512">
        <ele>187</ele>
        <time>2012-10-16T12:43:00Z</time>
      </trkpt>
      <trkpt lat="47.18108" lon="5.35515">
        <ele>187</ele>
        <time>2012-10-16T12:43:02Z</time>
      </trkpt>
      <trkpt lat="47.18121" lon="5.35519">
        <ele>187</ele>
        <time>2012-10-16T12:43:04Z</time>
      </trkpt>
      <trkpt lat="47.18133" lon="5.35523">
        <ele>187</ele>
        <time>2012-10-16T12:43:06Z</time>
      </trkpt>
      <trkpt lat="47.18146" lon="5.35528">
        <ele>187</ele>
        <time>2012-10-16T12:43:08Z</time>
      </trkpt>
      <trkpt lat="47.18158" lon="5.35533">
        <ele>187</ele>
        <time>2012-10-16T12:43:10Z</time>
      </trkpt>
      <trkpt lat="47.18168" lon="5.35535">
        <ele>187</ele>
        <time>2012-10-16T12:43:12Z</time>
      </trkpt>
      <trkpt lat="47.18177" lon="5.35522">
        <ele>187</ele>
        <time>2012-10-16T12:43:15Z</time>
      </trkpt>
      <trkpt lat="47.18178" lon="5.35505">
        <ele>187</ele>
        <time>2012-10-16T12:43:17Z</time>
      </trkpt>
      <trkpt lat="47.18179" lon="5.35488">
        <ele>187</ele>
        <time>2012-10-16T12:43:19Z</time>
      </trkpt>
      <trkpt lat="47.1818" lon="5.35471">
        <ele>187</ele>
        <time>2012-10-16T12:43:21Z</time>
      </trkpt>
      <trkpt lat="47.18181" lon="5.35453">
        <ele>187</ele>
        <time>2012-10-16T12:43:23Z</time>
      </trkpt>
      <trkpt lat="47.18184" lon="5.35435">
        <ele>187</ele>
        <time>2012-10-16T12:43:25Z</time>
      </trkpt>
      <trkpt lat="47.18188" lon="5.35417">
        <ele>187</ele>
        <time>2012-10-16T12:43:27Z</time>
      </trkpt>
      <trkpt lat="47.18192" lon="5.354">
        <ele>187</ele>
        <time>2012-10-16T12:43:29Z</time>
      </trkpt>
      <trkpt lat="47.182" lon="5.35387">
        <ele>187</ele>
        <time>2012-10-16T12:43:31Z</time>
      </trkpt>
      <trkpt lat="47.18211" lon="5.35382">
        <ele>187</ele>
        <time>2012-10-16T12:43:33Z</time>
      </trkpt>
      <trkpt lat="47.18222" lon="5.35383">
        <ele>187</ele>
        <time>2012-10-16T12:43:35Z</time>
      </trkpt>
      <trkpt lat="47.18233" lon="5.35386">
        <ele>187</ele>
        <time>2012-10-16T12:43:37Z</time>
      </trkpt>
      <trkpt lat="47.18245" lon="5.35391">
        <ele>187</ele>
        <time>2012-10-16T12:43:39Z</time>
      </trkpt>
      <trkpt lat="47.18257" lon="5.35394">
        <ele>187</ele>
        <time>2012-10-16T12:43:41Z</time>
      </trkpt>
      <trkpt lat="47.1827" lon="5.35396">
        <ele>187</ele>
        <time>2012-10-16T12:43:43Z</time>
      </trkpt>
      <trkpt lat="47.18283" lon="5.35399">
        <ele>187</ele>
        <time>2012-10-16T12:43:45Z</time>
      </trkpt>
      <trkpt lat="47.18296" lon="5.354">
        <ele>187</ele>
        <time>2012-10-16T12:43:47Z</time>
      </trkpt>
      <trkpt lat="47.18309" lon="5.354">
        <ele>187</ele>
        <time>2012-10-16T12:43:49Z</time>
      </trkpt>
      <trkpt lat="47.18321" lon="5.35396">
        <ele>187</ele>
        <time>2012-10-16T12:43:51Z</time>
      </trkpt>
      <trkpt lat="47.18333" lon="5.35389">
        <ele>187</ele>
        <time>2012-10-16T12:43:53Z</time>
      </trkpt>
      <trkpt lat="47.18344" lon="5.3538">
        <ele>187</ele>
        <time>2012-10-16T12:43:55Z</time>
      </trkpt>
      <trkpt lat="47.18354" lon="5.35369">
        <ele>187</ele>
        <time>2012-10-16T12:43:57Z</time>
      </trkpt>
      <trkpt lat="47.18363" lon="5.35359">
        <ele>187</ele>
        <time>2012-10-16T12:43:59Z</time>
      </trkpt>
      <trkpt lat="47.18372" lon="5.35349">
        <ele>187</ele>
        <time>2012-10-16T12:44:01Z</time>
      </trkpt>
      <trkpt lat="47.1838" lon="5.3534">
        <ele>187</ele>
        <time>2012-10-16T12:44:03Z</time>
      </trkpt>
      <trkpt lat="47.18388" lon="5.35331">
        <ele>187</ele>
        <time>2012-10-16T12:44:05Z</time>
      </trkpt>
      <trkpt lat="47.18396" lon="5.35322">
        <ele>187</ele>
        <time>2012-10-16T12:44:07Z</time>
      </trkpt>
      <trkpt lat="47.18403" lon="5.35313">
        <ele>187</ele>
        <time>2012-10-16T12:44:09Z</time>
      </trkpt>
      <trkpt lat="47.1841" lon="5.35304">
        <ele>192</ele>
        <time>2012-10-16T12:44:11Z</time>
      </trkpt>
      <trkpt lat="47.18418" lon="5.35296">
        <ele>192</ele>
        <time>2012-10-16T12:44:13Z</time>
      </trkpt>
      <trkpt lat="47.18427" lon="5.35289">
        <ele>192</ele>
        <time>2012-10-16T12:44:15Z</time>
      </trkpt>
      <trkpt lat="47.18435" lon="5.35283">
        <ele>192</ele>
        <time>2012-10-16T12:44:17Z</time>
      </trkpt>
      <trkpt lat="47.18444" lon="5.35277">
        <ele>192</ele>
        <time>2012-10-16T12:44:19Z</time>
      </trkpt>
      <trkpt lat="47.18453" lon="5.35273">
        <ele>192</ele>
        <time>2012-10-16T12:44:21Z</time>
      </trkpt>
      <trkpt lat="47.18462" lon="5.3527">
        <ele>192</ele>
        <time>2012-10-16T12:44:23Z</time>
      </trkpt>
      <trkpt lat="47.18472" lon="5.35268">
        <ele>192</ele>
        <time>2012-10-16T12:44:25Z</time>
      </trkpt>
      <trkpt lat="47.18481" lon="5.35265">
        <ele>192</ele>
        <time>2012-10-16T12:44:27Z</time>
      </trkpt>
      <trkpt lat="47.1849" lon="5.35262">
        <ele>192</ele>
        <time>2012-10-16T12:44:29Z</time>
      </trkpt>
      <trkpt lat="47.18499" lon="5.35259">
        <ele>192</ele>
        <time>2012-10-16T12:44:31Z</time>
      </trkpt>
      <trkpt lat="47.18508" lon="5.35256">
        <ele>198</ele>
        <time>2012-10-16T12:44:33Z</time>
      </trkpt>
      <trkpt lat="47.18517" lon="5.35252">
        <ele>198</ele>
        <time>2012-10-16T12:44:35Z</time>
      </trkpt>
      <trkpt lat="47.18526" lon="5.35249">
        <ele>198</ele>
        <time>2012-10-16T12:44:37Z</time>
      </trkpt>
      <trkpt lat="47.18536" lon="5.35244">
        <ele>198</ele>
        <time>2012-10-16T12:44:39Z</time>
      </trkpt>
      <trkpt lat="47.18545" lon="5.3524">
        <ele>198</ele>
        <time>2012-10-16T12:44:41Z</time>
      </trkpt>
      <trkpt lat="47.18555" lon="5.35235">
        <ele>198</ele>
        <time>2012-10-16T12:44:43Z</time>
      </trkpt>
      <trkpt lat="47.18565" lon="5.35232">
        <ele>198</ele>
        <time>2012-10-16T12:44:45Z</time>
      </trkpt>
      <trkpt lat="47.18575" lon="5.35228">
        <ele>198</ele>
        <time>2012-10-16T12:44:47Z</time>
      </trkpt>
      <trkpt lat="47.18585" lon="5.35225">
        <ele>198</ele>
        <time>2012-10-16T12:44:49Z</time>
      </trkpt>
      <trkpt lat="47.18596" lon="5.35223">
        <ele>198</ele>
        <time>2012-10-16T12:44:51Z</time>
      </trkpt>
      <trkpt lat="47.18606" lon="5.35223">
        <ele>198</ele>
        <time>2012-10-16T12:44:53Z</time>
      </trkpt>
      <trkpt lat="47.18617" lon="5.35223">
        <ele>198</ele>
        <time>2012-10-16T12:44:55Z</time>
      </trkpt>
      <trkpt lat="47.18627" lon="5.35223">
        <ele>198</ele>
        <time>2012-10-16T12:44:57Z</time>
      </trkpt>
      <trkpt lat="47.18637" lon="5.35223">
        <ele>198</ele>
        <time>2012-10-16T12:44:59Z</time>
      </trkpt>
      <trkpt lat="47.18649" lon="5.35224">
        <ele>198</ele>
        <time>2012-10-16T12:45:01Z</time>
      </trkpt>
      <trkpt lat="47.18659" lon="5.35225">
        <ele>198</ele>
        <time>2012-10-16T12:45:03Z</time>
      </trkpt>
      <trkpt lat="47.1867" lon="5.35225">
        <ele>203</ele>
        <time>2012-10-16T12:45:05Z</time>
      </trkpt>
      <trkpt lat="47.1868" lon="5.35225">
        <ele>203</ele>
        <time>2012-10-16T12:45:07Z</time>
      </trkpt>
      <trkpt lat="47.18691" lon="5.35226">
        <ele>203</ele>
        <time>2012-10-16T12:45:09Z</time>
      </trkpt>
      <trkpt lat="47.18701" lon="5.35226">
        <ele>203</ele>
        <time>2012-10-16T12:45:11Z</time>
      </trkpt>
      <trkpt lat="47.18712" lon="5.35225">
        <ele>203</ele>
        <time>2012-10-16T12:45:13Z</time>
      </trkpt>
      <trkpt lat="47.18722" lon="5.35224">
        <ele>203</ele>
        <time>2012-10-16T12:45:15Z</time>
      </trkpt>
      <trkpt lat="47.18734" lon="5.35223">
        <ele>203</ele>
        <time>2012-10-16T12:45:17Z</time>
      </trkpt>
      <trkpt lat="47.18744" lon="5.3522">
        <ele>203</ele>
        <time>2012-10-16T12:45:19Z</time>
      </trkpt>
      <trkpt lat="47.18756" lon="5.35217">
        <ele>203</ele>
        <time>2012-10-16T12:45:21Z</time>
      </trkpt>
      <trkpt lat="47.18767" lon="5.35213">
        <ele>203</ele>
        <time>2012-10-16T12:45:23Z</time>
      </trkpt>
      <trkpt lat="47.18779" lon="5.35209">
        <ele>203</ele>
        <time>2012-10-16T12:45:25Z</time>
      </trkpt>
      <trkpt lat="47.18791" lon="5.35204">
        <ele>203</ele>
        <time>2012-10-16T12:45:27Z</time>
      </trkpt>
      <trkpt lat="47.18803" lon="5.35197">
        <ele>203</ele>
        <time>2012-10-16T12:45:29Z</time>
      </trkpt>
      <trkpt lat="47.18815" lon="5.35191">
        <ele>203</ele>
        <time>2012-10-16T12:45:31Z</time>
      </trkpt>
      <trkpt lat="47.18827" lon="5.35184">
        <ele>203</ele>
        <time>2012-10-16T12:45:33Z</time>
      </trkpt>
      <trkpt lat="47.1884" lon="5.35179">
        <ele>203</ele>
        <time>2012-10-16T12:45:35Z</time>
      </trkpt>
      <trkpt lat="47.18852" lon="5.35174">
        <ele>203</ele>
        <time>2012-10-16T12:45:37Z</time>
      </trkpt>
      <trkpt lat="47.18865" lon="5.35171">
        <ele>203</ele>
        <time>2012-10-16T12:45:39Z</time>
      </trkpt>
      <trkpt lat="47.18878" lon="5.3517">
        <ele>203</ele>
        <time>2012-10-16T12:45:41Z</time>
      </trkpt>
      <trkpt lat="47.18892" lon="5.35168">
        <ele>203</ele>
        <time>2012-10-16T12:45:43Z</time>
      </trkpt>
      <trkpt lat="47.18906" lon="5.35166">
        <ele>203</ele>
        <time>2012-10-16T12:45:45Z</time>
      </trkpt>
      <trkpt lat="47.1892" lon="5.35164">
        <ele>203</ele>
        <time>2012-10-16T12:45:47Z</time>
      </trkpt>
      <trkpt lat="47.18934" lon="5.35162">
        <ele>203</ele>
        <time>2012-10-16T12:45:49Z</time>
      </trkpt>
      <trkpt lat="47.18948" lon="5.35159">
        <ele>203</ele>
        <time>2012-10-16T12:45:51Z</time>
      </trkpt>
      <trkpt lat="47.1896" lon="5.35152">
        <ele>203</ele>
        <time>2012-10-16T12:45:53Z</time>
      </trkpt>
      <trkpt lat="47.18971" lon="5.35142">
        <ele>203</ele>
        <time>2012-10-16T12:45:55Z</time>
      </trkpt>
      <trkpt lat="47.1898" lon="5.3513">
        <ele>203</ele>
        <time>2012-10-16T12:45:57Z</time>
      </trkpt>
      <trkpt lat="47.18988" lon="5.35117">
        <ele>203</ele>
        <time>2012-10-16T12:45:59Z</time>
      </trkpt>
      <trkpt lat="47.18995" lon="5.35104">
        <ele>203</ele>
        <time>2012-10-16T12:46:01Z</time>
      </trkpt>
      <trkpt lat="47.19001" lon="5.35091">
        <ele>203</ele>
        <time>2012-10-16T12:46:03Z</time>
      </trkpt>
      <trkpt lat="47.19007" lon="5.35075">
        <ele>203</ele>
        <time>2012-10-16T12:46:05Z</time>
      </trkpt>
      <trkpt lat="47.19013" lon="5.35059">
        <ele>203</ele>
        <time>2012-10-16T12:46:07Z</time>
      </trkpt>
      <trkpt lat="47.19019" lon="5.35042">
        <ele>203</ele>
        <time>2012-10-16T12:46:09Z</time>
      </trkpt>
      <trkpt lat="47.19026" lon="5.35026">
        <ele>203</ele>
        <time>2012-10-16T12:46:11Z</time>
      </trkpt>
      <trkpt lat="47.19035" lon="5.3501">
        <ele>203</ele>
        <time>2012-10-16T12:46:13Z</time>
      </trkpt>
      <trkpt lat="47.19045" lon="5.34996">
        <ele>203</ele>
        <time>2012-10-16T12:46:15Z</time>
      </trkpt>
      <trkpt lat="47.19058" lon="5.34986">
        <ele>203</ele>
        <time>2012-10-16T12:46:17Z</time>
      </trkpt>
      <trkpt lat="47.1907" lon="5.34979">
        <ele>203</ele>
        <time>2012-10-16T12:46:19Z</time>
      </trkpt>
      <trkpt lat="47.19085" lon="5.34978">
        <ele>203</ele>
        <time>2012-10-16T12:46:21Z</time>
      </trkpt>
      <trkpt lat="47.19099" lon="5.3498">
        <ele>203</ele>
        <time>2012-10-16T12:46:23Z</time>
      </trkpt>
      <trkpt lat="47.19111" lon="5.34985">
        <ele>203</ele>
        <time>2012-10-16T12:46:25Z</time>
      </trkpt>
      <trkpt lat="47.19124" lon="5.34992">
        <ele>203</ele>
        <time>2012-10-16T12:46:27Z</time>
      </trkpt>
      <trkpt lat="47.19135" lon="5.35001">
        <ele>203</ele>
        <time>2012-10-16T12:46:29Z</time>
      </trkpt>
      <trkpt lat="47.19147" lon="5.3501">
        <ele>203</ele>
        <time>2012-10-16T12:46:31Z</time>
      </trkpt>
      <trkpt lat="47.19158" lon="5.3502">
        <ele>203</ele>
        <time>2012-10-16T12:46:33Z</time>
      </trkpt>
      <trkpt lat="47.1917" lon="5.35032">
        <ele>203</ele>
        <time>2012-10-16T12:46:35Z</time>
      </trkpt>
      <trkpt lat="47.19181" lon="5.35046">
        <ele>203</ele>
        <time>2012-10-16T12:46:37Z</time>
      </trkpt>
      <trkpt lat="47.19194" lon="5.35058">
        <ele>203</ele>
        <time>2012-10-16T12:46:39Z</time>
      </trkpt>
      <trkpt lat="47.19208" lon="5.35069">
        <ele>203</ele>
        <time>2012-10-16T12:46:41Z</time>
      </trkpt>
      <trkpt lat="47.19224" lon="5.35077">
        <ele>203</ele>
        <time>2012-10-16T12:46:43Z</time>
      </trkpt>
      <trkpt lat="47.19239" lon="5.35082">
        <ele>203</ele>
        <time>2012-10-16T12:46:45Z</time>
      </trkpt>
      <trkpt lat="47.19255" lon="5.35087">
        <ele>203</ele>
        <time>2012-10-16T12:46:47Z</time>
      </trkpt>
      <trkpt lat="47.19271" lon="5.35091">
        <ele>203</ele>
        <time>2012-10-16T12:46:49Z</time>
      </trkpt>
      <trkpt lat="47.19288" lon="5.35093">
        <ele>203</ele>
        <time>2012-10-16T12:46:51Z</time>
      </trkpt>
      <trkpt lat="47.19303" lon="5.35097">
        <ele>203</ele>
        <time>2012-10-16T12:46:53Z</time>
      </trkpt>
      <trkpt lat="47.19318" lon="5.35101">
        <ele>203</ele>
        <time>2012-10-16T12:46:55Z</time>
      </trkpt>
      <trkpt lat="47.19333" lon="5.35107">
        <ele>203</ele>
        <time>2012-10-16T12:46:57Z</time>
      </trkpt>
      <trkpt lat="47.19348" lon="5.35115">
        <ele>203</ele>
        <time>2012-10-16T12:46:59Z</time>
      </trkpt>
      <trkpt lat="47.19363" lon="5.35124">
        <ele>203</ele>
        <time>2012-10-16T12:47:01Z</time>
      </trkpt>
      <trkpt lat="47.19377" lon="5.35133">
        <ele>203</ele>
        <time>2012-10-16T12:47:03Z</time>
      </trkpt>
      <trkpt lat="47.19389" lon="5.35143">
        <ele>203</ele>
        <time>2012-10-16T12:47:05Z</time>
      </trkpt>
      <trkpt lat="47.19404" lon="5.35153">
        <ele>203</ele>
        <time>2012-10-16T12:47:07Z</time>
      </trkpt>
      <trkpt lat="47.19418" lon="5.35162">
        <ele>203</ele>
        <time>2012-10-16T12:47:09Z</time>
      </trkpt>
      <trkpt lat="47.19432" lon="5.3517">
        <ele>203</ele>
        <time>2012-10-16T12:47:11Z</time>
      </trkpt>
      <trkpt lat="47.19448" lon="5.35176">
        <ele>203</ele>
        <time>2012-10-16T12:47:13Z</time>
      </trkpt>
      <trkpt lat="47.19464" lon="5.35178">
        <ele>203</ele>
        <time>2012-10-16T12:47:15Z</time>
      </trkpt>
      <trkpt lat="47.19478" lon="5.35178">
        <ele>203</ele>
        <time>2012-10-16T12:47:17Z</time>
      </trkpt>
      <trkpt lat="47.19493" lon="5.35178">
        <ele>203</ele>
        <time>2012-10-16T12:47:19Z</time>
      </trkpt>
      <trkpt lat="47.19508" lon="5.35178">
        <ele>203</ele>
        <time>2012-10-16T12:47:21Z</time>
      </trkpt>
      <trkpt lat="47.19522" lon="5.35178">
        <ele>203</ele>
        <time>2012-10-16T12:47:23Z</time>
      </trkpt>
      <trkpt lat="47.19537" lon="5.35179">
        <ele>203</ele>
        <time>2012-10-16T12:47:25Z</time>
      </trkpt>
      <trkpt lat="47.19553" lon="5.35182">
        <ele>203</ele>
        <time>2012-10-16T12:47:27Z</time>
      </trkpt>
      <trkpt lat="47.19569" lon="5.35184">
        <ele>203</ele>
        <time>2012-10-16T12:47:29Z</time>
      </trkpt>
      <trkpt lat="47.19587" lon="5.35187">
        <ele>203</ele>
        <time>2012-10-16T12:47:31Z</time>
      </trkpt>
      <trkpt lat="47.19596" lon="5.35188">
        <ele>203</ele>
        <time>2012-10-16T12:47:32Z</time>
      </trkpt>
      <trkpt lat="47.19604" lon="5.35192">
        <ele>203</ele>
        <time>2012-10-16T12:47:33Z</time>
      </trkpt>
      <trkpt lat="47.19613" lon="5.35198">
        <ele>203</ele>
        <time>2012-10-16T12:47:34Z</time>
      </trkpt>
      <trkpt lat="47.19621" lon="5.35205">
        <ele>203</ele>
        <time>2012-10-16T12:47:35Z</time>
      </trkpt>
      <trkpt lat="47.19628" lon="5.35214">
        <ele>198</ele>
        <time>2012-10-16T12:47:36Z</time>
      </trkpt>
      <trkpt lat="47.19635" lon="5.35227">
        <ele>198</ele>
        <time>2012-10-16T12:47:37Z</time>
      </trkpt>
      <trkpt lat="47.19642" lon="5.35241">
        <ele>198</ele>
        <time>2012-10-16T12:47:38Z</time>
      </trkpt>
      <trkpt lat="47.19648" lon="5.35254">
        <ele>198</ele>
        <time>2012-10-16T12:47:39Z</time>
      </trkpt>
      <trkpt lat="47.19655" lon="5.35267">
        <ele>198</ele>
        <time>2012-10-16T12:47:40Z</time>
      </trkpt>
      <trkpt lat="47.19661" lon="5.3528">
        <ele>198</ele>
        <time>2012-10-16T12:47:41Z</time>
      </trkpt>
      <trkpt lat="47.19667" lon="5.35293">
        <ele>192</ele>
        <time>2012-10-16T12:47:42Z</time>
      </trkpt>
      <trkpt lat="47.19675" lon="5.35306">
        <ele>192</ele>
        <time>2012-10-16T12:47:43Z</time>
      </trkpt>
      <trkpt lat="47.19682" lon="5.35317">
        <ele>192</ele>
        <time>2012-10-16T12:47:44Z</time>
      </trkpt>
      <trkpt lat="47.1969" lon="5.35328">
        <ele>192</ele>
        <time>2012-10-16T12:47:45Z</time>
      </trkpt>
      <trkpt lat="47.19698" lon="5.35338">
        <ele>192</ele>
        <time>2012-10-16T12:47:46Z</time>
      </trkpt>
      <trkpt lat="47.19706" lon="5.35347">
        <ele>192</ele>
        <time>2012-10-16T12:47:47Z</time>
      </trkpt>
      <trkpt lat="47.19715" lon="5.35355">
        <ele>192</ele>
        <time>2012-10-16T12:47:48Z</time>
      </trkpt>
      <trkpt lat="47.19723" lon="5.35362">
        <ele>192</ele>
        <time>2012-10-16T12:47:49Z</time>
      </trkpt>
      <trkpt lat="47.19732" lon="5.35368">
        <ele>192</ele>
        <time>2012-10-16T12:47:50Z</time>
      </trkpt>
      <trkpt lat="47.19741" lon="5.35374">
        <ele>192</ele>
        <time>2012-10-16T12:47:51Z</time>
      </trkpt>
      <trkpt lat="47.1975" lon="5.35379">
        <ele>192</ele>
        <time>2012-10-16T12:47:52Z</time>
      </trkpt>
      <trkpt lat="47.19759" lon="5.35382">
        <ele>192</ele>
        <time>2012-10-16T12:47:53Z</time>
      </trkpt>
      <trkpt lat="47.19768" lon="5.35386">
        <ele>192</ele>
        <time>2012-10-16T12:47:54Z</time>
      </trkpt>
      <trkpt lat="47.19778" lon="5.35391">
        <ele>192</ele>
        <time>2012-10-16T12:47:55Z</time>
      </trkpt>
      <trkpt lat="47.19787" lon="5.35393">
        <ele>192</ele>
        <time>2012-10-16T12:47:56Z</time>
      </trkpt>
      <trkpt lat="47.19804" lon="5.354">
        <ele>192</ele>
        <time>2012-10-16T12:47:58Z</time>
      </trkpt>
      <trkpt lat="47.19821" lon="5.35406">
        <ele>192</ele>
        <time>2012-10-16T12:48:00Z</time>
      </trkpt>
      <trkpt lat="47.19836" lon="5.35411">
        <ele>192</ele>
        <time>2012-10-16T12:48:02Z</time>
      </trkpt>
      <trkpt lat="47.19852" lon="5.35417">
        <ele>192</ele>
        <time>2012-10-16T12:48:04Z</time>
      </trkpt>
      <trkpt lat="47.19866" lon="5.35421">
        <ele>192</ele>
        <time>2012-10-16T12:48:06Z</time>
      </trkpt>
      <trkpt lat="47.19881" lon="5.35425">
        <ele>192</ele>
        <time>2012-10-16T12:48:08Z</time>
      </trkpt>
      <trkpt lat="47.19895" lon="5.3543">
        <ele>192</ele>
        <time>2012-10-16T12:48:10Z</time>
      </trkpt>
      <trkpt lat="47.19907" lon="5.35434">
        <ele>192</ele>
        <time>2012-10-16T12:48:12Z</time>
      </trkpt>
      <trkpt lat="47.19918" lon="5.35437">
        <ele>192</ele>
        <time>2012-10-16T12:48:14Z</time>
      </trkpt>
      <trkpt lat="47.19926" lon="5.35442">
        <ele>192</ele>
        <time>2012-10-16T12:48:19Z</time>
      </trkpt>
      <trkpt lat="47.19939" lon="5.35441">
        <ele>192</ele>
        <time>2012-10-16T12:48:39Z</time>
      </trkpt>
      <trkpt lat="47.1995" lon="5.35437">
        <ele>192</ele>
        <time>2012-10-16T12:48:42Z</time>
      </trkpt>
      <trkpt lat="47.1996" lon="5.35435">
        <ele>192</ele>
        <time>2012-10-16T12:48:44Z</time>
      </trkpt>
      <trkpt lat="47.19969" lon="5.35435">
        <ele>192</ele>
        <time>2012-10-16T12:48:46Z</time>
      </trkpt>
      <trkpt lat="47.19978" lon="5.35436">
        <ele>192</ele>
        <time>2012-10-16T12:48:48Z</time>
      </trkpt>
      <trkpt lat="47.1999" lon="5.35438">
        <ele>192</ele>
        <time>2012-10-16T12:48:50Z</time>
      </trkpt>
      <trkpt lat="47.20001" lon="5.35439">
        <ele>192</ele>
        <time>2012-10-16T12:48:52Z</time>
      </trkpt>
      <trkpt lat="47.20012" lon="5.35441">
        <ele>192</ele>
        <time>2012-10-16T12:48:54Z</time>
      </trkpt>
      <trkpt lat="47.20024" lon="5.35443">
        <ele>192</ele>
        <time>2012-10-16T12:48:56Z</time>
      </trkpt>
      <trkpt lat="47.20037" lon="5.35444">
        <ele>192</ele>
        <time>2012-10-16T12:48:58Z</time>
      </trkpt>
      <trkpt lat="47.20049" lon="5.35447">
        <ele>192</ele>
        <time>2012-10-16T12:49:00Z</time>
      </trkpt>
      <trkpt lat="47.20062" lon="5.35449">
        <ele>192</ele>
        <time>2012-10-16T12:49:02Z</time>
      </trkpt>
      <trkpt lat="47.20075" lon="5.35451">
        <ele>192</ele>
        <time>2012-10-16T12:49:04Z</time>
      </trkpt>
      <trkpt lat="47.20088" lon="5.35453">
        <ele>192</ele>
        <time>2012-10-16T12:49:06Z</time>
      </trkpt>
      <trkpt lat="47.201" lon="5.35453">
        <ele>192</ele>
        <time>2012-10-16T12:49:08Z</time>
      </trkpt>
      <trkpt lat="47.20113" lon="5.35454">
        <ele>192</ele>
        <time>2012-10-16T12:49:10Z</time>
      </trkpt>
      <trkpt lat="47.20123" lon="5.35453">
        <ele>192</ele>
        <time>2012-10-16T12:49:12Z</time>
      </trkpt>
      <trkpt lat="47.20131" lon="5.35444">
        <ele>192</ele>
        <time>2012-10-16T12:49:14Z</time>
      </trkpt>
      <trkpt lat="47.20136" lon="5.35433">
        <ele>192</ele>
        <time>2012-10-16T12:49:16Z</time>
      </trkpt>
      <trkpt lat="47.20139" lon="5.35418">
        <ele>192</ele>
        <time>2012-10-16T12:49:18Z</time>
      </trkpt>
      <trkpt lat="47.20143" lon="5.35404">
        <ele>192</ele>
        <time>2012-10-16T12:49:20Z</time>
      </trkpt>
      <trkpt lat="47.20146" lon="5.3539">
        <ele>192</ele>
        <time>2012-10-16T12:49:22Z</time>
      </trkpt>
      <trkpt lat="47.20149" lon="5.35375">
        <ele>192</ele>
        <time>2012-10-16T12:49:24Z</time>
      </trkpt>
      <trkpt lat="47.20152" lon="5.35361">
        <ele>192</ele>
        <time>2012-10-16T12:49:26Z</time>
      </trkpt>
      <trkpt lat="47.20155" lon="5.35346">
        <ele>192</ele>
        <time>2012-10-16T12:49:28Z</time>
      </trkpt>
      <trkpt lat="47.20158" lon="5.35332">
        <ele>192</ele>
        <time>2012-10-16T12:49:30Z</time>
      </trkpt>
      <trkpt lat="47.20162" lon="5.35318">
        <ele>192</ele>
        <time>2012-10-16T12:49:32Z</time>
      </trkpt>
      <trkpt lat="47.20165" lon="5.35305">
        <ele>192</ele>
        <time>2012-10-16T12:49:34Z</time>
      </trkpt>
      <trkpt lat="47.20168" lon="5.35293">
        <ele>192</ele>
        <time>2012-10-16T12:49:36Z</time>
      </trkpt>
      <trkpt lat="47.20172" lon="5.35275">
        <ele>198</ele>
        <time>2012-10-16T12:49:39Z</time>
      </trkpt>
      <trkpt lat="47.20177" lon="5.35258">
        <ele>198</ele>
        <time>2012-10-16T12:49:42Z</time>
      </trkpt>
      <trkpt lat="47.20182" lon="5.35241">
        <ele>198</ele>
        <time>2012-10-16T12:49:45Z</time>
      </trkpt>
      <trkpt lat="47.20187" lon="5.35229">
        <ele>198</ele>
        <time>2012-10-16T12:49:47Z</time>
      </trkpt>
      <trkpt lat="47.20192" lon="5.35217">
        <ele>198</ele>
        <time>2012-10-16T12:49:49Z</time>
      </trkpt>
      <trkpt lat="47.20196" lon="5.35205">
        <ele>198</ele>
        <time>2012-10-16T12:49:51Z</time>
      </trkpt>
      <trkpt lat="47.20201" lon="5.35193">
        <ele>198</ele>
        <time>2012-10-16T12:49:53Z</time>
      </trkpt>
      <trkpt lat="47.20206" lon="5.35179">
        <ele>198</ele>
        <time>2012-10-16T12:49:55Z</time>
      </trkpt>
      <trkpt lat="47.20211" lon="5.35166">
        <ele>198</ele>
        <time>2012-10-16T12:49:57Z</time>
      </trkpt>
      <trkpt lat="47.20216" lon="5.35153">
        <ele>198</ele>
        <time>2012-10-16T12:49:59Z</time>
      </trkpt>
      <trkpt lat="47.20221" lon="5.3514">
        <ele>198</ele>
        <time>2012-10-16T12:50:01Z</time>
      </trkpt>
      <trkpt lat="47.20226" lon="5.35126">
        <ele>198</ele>
        <time>2012-10-16T12:50:03Z</time>
      </trkpt>
      <trkpt lat="47.20233" lon="5.35111">
        <ele>198</ele>
        <time>2012-10-16T12:50:05Z</time>
      </trkpt>
      <trkpt lat="47.2024" lon="5.35097">
        <ele>198</ele>
        <time>2012-10-16T12:50:07Z</time>
      </trkpt>
      <trkpt lat="47.20247" lon="5.35082">
        <ele>198</ele>
        <time>2012-10-16T12:50:09Z</time>
      </trkpt>
      <trkpt lat="47.20255" lon="5.35067">
        <ele>198</ele>
        <time>2012-10-16T12:50:11Z</time>
      </trkpt>
      <trkpt lat="47.20263" lon="5.35054">
        <ele>198</ele>
        <time>2012-10-16T12:50:13Z</time>
      </trkpt>
      <trkpt lat="47.20272" lon="5.3504">
        <ele>198</ele>
        <time>2012-10-16T12:50:15Z</time>
      </trkpt>
      <trkpt lat="47.20283" lon="5.3503">
        <ele>198</ele>
        <time>2012-10-16T12:50:17Z</time>
      </trkpt>
      <trkpt lat="47.20294" lon="5.35022">
        <ele>198</ele>
        <time>2012-10-16T12:50:19Z</time>
      </trkpt>
      <trkpt lat="47.20303" lon="5.35011">
        <ele>198</ele>
        <time>2012-10-16T12:50:21Z</time>
      </trkpt>
      <trkpt lat="47.2031" lon="5.34997">
        <ele>198</ele>
        <time>2012-10-16T12:50:23Z</time>
      </trkpt>
      <trkpt lat="47.20316" lon="5.34984">
        <ele>198</ele>
        <time>2012-10-16T12:50:25Z</time>
      </trkpt>
      <trkpt lat="47.20323" lon="5.3497">
        <ele>203</ele>
        <time>2012-10-16T12:50:27Z</time>
      </trkpt>
      <trkpt lat="47.20329" lon="5.34958">
        <ele>203</ele>
        <time>2012-10-16T12:50:29Z</time>
      </trkpt>
      <trkpt lat="47.20335" lon="5.34947">
        <ele>203</ele>
        <time>2012-10-16T12:50:31Z</time>
      </trkpt>
      <trkpt lat="47.20341" lon="5.34935">
        <ele>203</ele>
        <time>2012-10-16T12:50:33Z</time>
      </trkpt>
      <trkpt lat="47.20346" lon="5.34924">
        <ele>203</ele>
        <time>2012-10-16T12:50:35Z</time>
      </trkpt>
      <trkpt lat="47.20353" lon="5.34909">
        <ele>203</ele>
        <time>2012-10-16T12:50:38Z</time>
      </trkpt>
      <trkpt lat="47.2036" lon="5.34898">
        <ele>203</ele>
        <time>2012-10-16T12:50:41Z</time>
      </trkpt>
      <trkpt lat="47.2037" lon="5.34896">
        <ele>203</ele>
        <time>2012-10-16T12:50:45Z</time>
      </trkpt>
      <trkpt lat="47.20378" lon="5.34913">
        <ele>203</ele>
        <time>2012-10-16T12:50:48Z</time>
      </trkpt>
      <trkpt lat="47.20383" lon="5.34926">
        <ele>203</ele>
        <time>2012-10-16T12:50:50Z</time>
      </trkpt>
      <trkpt lat="47.20387" lon="5.34941">
        <ele>203</ele>
        <time>2012-10-16T12:50:52Z</time>
      </trkpt>
      <trkpt lat="47.20394" lon="5.34958">
        <ele>203</ele>
        <time>2012-10-16T12:50:54Z</time>
      </trkpt>
      <trkpt lat="47.20399" lon="5.34974">
        <ele>198</ele>
        <time>2012-10-16T12:50:56Z</time>
      </trkpt>
      <trkpt lat="47.20406" lon="5.34989">
        <ele>198</ele>
        <time>2012-10-16T12:50:58Z</time>
      </trkpt>
      <trkpt lat="47.20413" lon="5.35004">
        <ele>198</ele>
        <time>2012-10-16T12:51:00Z</time>
      </trkpt>
      <trkpt lat="47.2042" lon="5.3502">
        <ele>198</ele>
        <time>2012-10-16T12:51:02Z</time>
      </trkpt>
      <trkpt lat="47.20428" lon="5.35035">
        <ele>198</ele>
        <time>2012-10-16T12:51:04Z</time>
      </trkpt>
      <trkpt lat="47.20436" lon="5.35048">
        <ele>198</ele>
        <time>2012-10-16T12:51:06Z</time>
      </trkpt>
      <trkpt lat="47.20445" lon="5.35061">
        <ele>198</ele>
        <time>2012-10-16T12:51:08Z</time>
      </trkpt>
      <trkpt lat="47.20453" lon="5.35072">
        <ele>198</ele>
        <time>2012-10-16T12:51:10Z</time>
      </trkpt>
      <trkpt lat="47.20462" lon="5.35082">
        <ele>198</ele>
        <time>2012-10-16T12:51:12Z</time>
      </trkpt>
      <trkpt lat="47.2047" lon="5.35091">
        <ele>198</ele>
        <time>2012-10-16T12:51:14Z</time>
      </trkpt>
      <trkpt lat="47.20479" lon="5.351">
        <ele>204</ele>
        <time>2012-10-16T12:51:16Z</time>
      </trkpt>
      <trkpt lat="47.20487" lon="5.35107">
        <ele>204</ele>
        <time>2012-10-16T12:51:18Z</time>
      </trkpt>
      <trkpt lat="47.20496" lon="5.35115">
        <ele>204</ele>
        <time>2012-10-16T12:51:20Z</time>
      </trkpt>
      <trkpt lat="47.20505" lon="5.35123">
        <ele>204</ele>
        <time>2012-10-16T12:51:22Z</time>
      </trkpt>
      <trkpt lat="47.20515" lon="5.35131">
        <ele>204</ele>
        <time>2012-10-16T12:51:24Z</time>
      </trkpt>
      <trkpt lat="47.20526" lon="5.3514">
        <ele>204</ele>
        <time>2012-10-16T12:51:26Z</time>
      </trkpt>
      <trkpt lat="47.20537" lon="5.35151">
        <ele>204</ele>
        <time>2012-10-16T12:51:28Z</time>
      </trkpt>
      <trkpt lat="47.20547" lon="5.3516">
        <ele>204</ele>
        <time>2012-10-16T12:51:30Z</time>
      </trkpt>
      <trkpt lat="47.20557" lon="5.3517">
        <ele>204</ele>
        <time>2012-10-16T12:51:32Z</time>
      </trkpt>
      <trkpt lat="47.20567" lon="5.35179">
        <ele>204</ele>
        <time>2012-10-16T12:51:34Z</time>
      </trkpt>
      <trkpt lat="47.20578" lon="5.35188">
        <ele>204</ele>
        <time>2012-10-16T12:51:36Z</time>
      </trkpt>
      <trkpt lat="47.20588" lon="5.35198">
        <ele>204</ele>
        <time>2012-10-16T12:51:38Z</time>
      </trkpt>
      <trkpt lat="47.20599" lon="5.35207">
        <ele>204</ele>
        <time>2012-10-16T12:51:40Z</time>
      </trkpt>
      <trkpt lat="47.20608" lon="5.35216">
        <ele>204</ele>
        <time>2012-10-16T12:51:42Z</time>
      </trkpt>
      <trkpt lat="47.20618" lon="5.35225">
        <ele>209</ele>
        <time>2012-10-16T12:51:44Z</time>
      </trkpt>
      <trkpt lat="47.20629" lon="5.35234">
        <ele>209</ele>
        <time>2012-10-16T12:51:46Z</time>
      </trkpt>
      <trkpt lat="47.20639" lon="5.35242">
        <ele>209</ele>
        <time>2012-10-16T12:51:48Z</time>
      </trkpt>
      <trkpt lat="47.20649" lon="5.35252">
        <ele>209</ele>
        <time>2012-10-16T12:51:50Z</time>
      </trkpt>
      <trkpt lat="47.20661" lon="5.35262">
        <ele>209</ele>
        <time>2012-10-16T12:51:52Z</time>
      </trkpt>
      <trkpt lat="47.20672" lon="5.35272">
        <ele>209</ele>
        <time>2012-10-16T12:51:54Z</time>
      </trkpt>
      <trkpt lat="47.20683" lon="5.35283">
        <ele>209</ele>
        <time>2012-10-16T12:51:56Z</time>
      </trkpt>
      <trkpt lat="47.20694" lon="5.35294">
        <ele>209</ele>
        <time>2012-10-16T12:51:58Z</time>
      </trkpt>
      <trkpt lat="47.20706" lon="5.35305">
        <ele>209</ele>
        <time>2012-10-16T12:52:00Z</time>
      </trkpt>
      <trkpt lat="47.20717" lon="5.35316">
        <ele>209</ele>
        <time>2012-10-16T12:52:02Z</time>
      </trkpt>
      <trkpt lat="47.20729" lon="5.35327">
        <ele>209</ele>
        <time>2012-10-16T12:52:04Z</time>
      </trkpt>
      <trkpt lat="47.20739" lon="5.35339">
        <ele>209</ele>
        <time>2012-10-16T12:52:06Z</time>
      </trkpt>
      <trkpt lat="47.20747" lon="5.35357">
        <ele>209</ele>
        <time>2012-10-16T12:52:08Z</time>
      </trkpt>
      <trkpt lat="47.20752" lon="5.35376">
        <ele>209</ele>
        <time>2012-10-16T12:52:10Z</time>
      </trkpt>
      <trkpt lat="47.20755" lon="5.35396">
        <ele>209</ele>
        <time>2012-10-16T12:52:12Z</time>
      </trkpt>
      <trkpt lat="47.20758" lon="5.35416">
        <ele>203</ele>
        <time>2012-10-16T12:52:14Z</time>
      </trkpt>
      <trkpt lat="47.20764" lon="5.35434">
        <ele>203</ele>
        <time>2012-10-16T12:52:16Z</time>
      </trkpt>
      <trkpt lat="47.20773" lon="5.35449">
        <ele>203</ele>
        <time>2012-10-16T12:52:18Z</time>
      </trkpt>
      <trkpt lat="47.20785" lon="5.3546">
        <ele>203</ele>
        <time>2012-10-16T12:52:20Z</time>
      </trkpt>
      <trkpt lat="47.20801" lon="5.35467">
        <ele>203</ele>
        <time>2012-10-16T12:52:22Z</time>
      </trkpt>
      <trkpt lat="47.20816" lon="5.35472">
        <ele>203</ele>
        <time>2012-10-16T12:52:24Z</time>
      </trkpt>
      <trkpt lat="47.20833" lon="5.35479">
        <ele>203</ele>
        <time>2012-10-16T12:52:26Z</time>
      </trkpt>
      <trkpt lat="47.20849" lon="5.35484">
        <ele>203</ele>
        <time>2012-10-16T12:52:28Z</time>
      </trkpt>
      <trkpt lat="47.20866" lon="5.35487">
        <ele>203</ele>
        <time>2012-10-16T12:52:30Z</time>
      </trkpt>
      <trkpt lat="47.20881" lon="5.35488">
        <ele>203</ele>
        <time>2012-10-16T12:52:32Z</time>
      </trkpt>
      <trkpt lat="47.20897" lon="5.35489">
        <ele>203</ele>
        <time>2012-10-16T12:52:34Z</time>
      </trkpt>
      <trkpt lat="47.20913" lon="5.35489">
        <ele>203</ele>
        <time>2012-10-16T12:52:36Z</time>
      </trkpt>
      <trkpt lat="47.2093" lon="5.35489">
        <ele>203</ele>
        <time>2012-10-16T12:52:38Z</time>
      </trkpt>
      <trkpt lat="47.20947" lon="5.35491">
        <ele>203</ele>
        <time>2012-10-16T12:52:40Z</time>
      </trkpt>
      <trkpt lat="47.20964" lon="5.35494">
        <ele>203</ele>
        <time>2012-10-16T12:52:42Z</time>
      </trkpt>
      <trkpt lat="47.2098" lon="5.35497">
        <ele>203</ele>
        <time>2012-10-16T12:52:44Z</time>
      </trkpt>
      <trkpt lat="47.20995" lon="5.35504">
        <ele>203</ele>
        <time>2012-10-16T12:52:46Z</time>
      </trkpt>
      <trkpt lat="47.2101" lon="5.35509">
        <ele>203</ele>
        <time>2012-10-16T12:52:48Z</time>
      </trkpt>
      <trkpt lat="47.21026" lon="5.35515">
        <ele>203</ele>
        <time>2012-10-16T12:52:50Z</time>
      </trkpt>
      <trkpt lat="47.21042" lon="5.35521">
        <ele>198</ele>
        <time>2012-10-16T12:52:52Z</time>
      </trkpt>
      <trkpt lat="47.21058" lon="5.35525">
        <ele>198</ele>
        <time>2012-10-16T12:52:54Z</time>
      </trkpt>
      <trkpt lat="47.21074" lon="5.35531">
        <ele>198</ele>
        <time>2012-10-16T12:52:56Z</time>
      </trkpt>
      <trkpt lat="47.2109" lon="5.35537">
        <ele>198</ele>
        <time>2012-10-16T12:52:58Z</time>
      </trkpt>
      <trkpt lat="47.21106" lon="5.35543">
        <ele>198</ele>
        <time>2012-10-16T12:53:00Z</time>
      </trkpt>
      <trkpt lat="47.21121" lon="5.35549">
        <ele>198</ele>
        <time>2012-10-16T12:53:02Z</time>
      </trkpt>
      <trkpt lat="47.21137" lon="5.35554">
        <ele>198</ele>
        <time>2012-10-16T12:53:04Z</time>
      </trkpt>
      <trkpt lat="47.21152" lon="5.35559">
        <ele>198</ele>
        <time>2012-10-16T12:53:06Z</time>
      </trkpt>
      <trkpt lat="47.21167" lon="5.35563">
        <ele>198</ele>
        <time>2012-10-16T12:53:08Z</time>
      </trkpt>
      <trkpt lat="47.21181" lon="5.35568">
        <ele>198</ele>
        <time>2012-10-16T12:53:10Z</time>
      </trkpt>
      <trkpt lat="47.21194" lon="5.3557">
        <ele>198</ele>
        <time>2012-10-16T12:53:12Z</time>
      </trkpt>
      <trkpt lat="47.21206" lon="5.35573">
        <ele>198</ele>
        <time>2012-10-16T12:53:14Z</time>
      </trkpt>
      <trkpt lat="47.21219" lon="5.35576">
        <ele>198</ele>
        <time>2012-10-16T12:53:16Z</time>
      </trkpt>
      <trkpt lat="47.21232" lon="5.35579">
        <ele>198</ele>
        <time>2012-10-16T12:53:18Z</time>
      </trkpt>
      <trkpt lat="47.21246" lon="5.35583">
        <ele>198</ele>
        <time>2012-10-16T12:53:20Z</time>
      </trkpt>
      <trkpt lat="47.21261" lon="5.35587">
        <ele>198</ele>
        <time>2012-10-16T12:53:22Z</time>
      </trkpt>
      <trkpt lat="47.21275" lon="5.35592">
        <ele>198</ele>
        <time>2012-10-16T12:53:24Z</time>
      </trkpt>
      <trkpt lat="47.2129" lon="5.35597">
        <ele>198</ele>
        <time>2012-10-16T12:53:26Z</time>
      </trkpt>
      <trkpt lat="47.21304" lon="5.35605">
        <ele>198</ele>
        <time>2012-10-16T12:53:28Z</time>
      </trkpt>
      <trkpt lat="47.21319" lon="5.35615">
        <ele>198</ele>
        <time>2012-10-16T12:53:30Z</time>
      </trkpt>
      <trkpt lat="47.21333" lon="5.35626">
        <ele>198</ele>
        <time>2012-10-16T12:53:32Z</time>
      </trkpt>
      <trkpt lat="47.21346" lon="5.35637">
        <ele>198</ele>
        <time>2012-10-16T12:53:34Z</time>
      </trkpt>
      <trkpt lat="47.21359" lon="5.35647">
        <ele>198</ele>
        <time>2012-10-16T12:53:36Z</time>
      </trkpt>
      <trkpt lat="47.21372" lon="5.35657">
        <ele>198</ele>
        <time>2012-10-16T12:53:38Z</time>
      </trkpt>
      <trkpt lat="47.21385" lon="5.35666">
        <ele>198</ele>
        <time>2012-10-16T12:53:40Z</time>
      </trkpt>
      <trkpt lat="47.21398" lon="5.35677">
        <ele>198</ele>
        <time>2012-10-16T12:53:42Z</time>
      </trkpt>
      <trkpt lat="47.2141" lon="5.35688">
        <ele>198</ele>
        <time>2012-10-16T12:53:44Z</time>
      </trkpt>
      <trkpt lat="47.21424" lon="5.35699">
        <ele>198</ele>
        <time>2012-10-16T12:53:46Z</time>
      </trkpt>
      <trkpt lat="47.21437" lon="5.35709">
        <ele>198</ele>
        <time>2012-10-16T12:53:48Z</time>
      </trkpt>
      <trkpt lat="47.2145" lon="5.3572">
        <ele>198</ele>
        <time>2012-10-16T12:53:50Z</time>
      </trkpt>
      <trkpt lat="47.21464" lon="5.35729">
        <ele>198</ele>
        <time>2012-10-16T12:53:52Z</time>
      </trkpt>
      <trkpt lat="47.21478" lon="5.35738">
        <ele>198</ele>
        <time>2012-10-16T12:53:54Z</time>
      </trkpt>
      <trkpt lat="47.21491" lon="5.35749">
        <ele>198</ele>
        <time>2012-10-16T12:53:56Z</time>
      </trkpt>
      <trkpt lat="47.21503" lon="5.3576">
        <ele>198</ele>
        <time>2012-10-16T12:53:58Z</time>
      </trkpt>
      <trkpt lat="47.21517" lon="5.3577">
        <ele>198</ele>
        <time>2012-10-16T12:54:00Z</time>
      </trkpt>
      <trkpt lat="47.21531" lon="5.3578">
        <ele>198</ele>
        <time>2012-10-16T12:54:02Z</time>
      </trkpt>
      <trkpt lat="47.21546" lon="5.3579">
        <ele>198</ele>
        <time>2012-10-16T12:54:04Z</time>
      </trkpt>
      <trkpt lat="47.21561" lon="5.35801">
        <ele>198</ele>
        <time>2012-10-16T12:54:06Z</time>
      </trkpt>
      <trkpt lat="47.21576" lon="5.35811">
        <ele>198</ele>
        <time>2012-10-16T12:54:08Z</time>
      </trkpt>
      <trkpt lat="47.21592" lon="5.35823">
        <ele>198</ele>
        <time>2012-10-16T12:54:10Z</time>
      </trkpt>
      <trkpt lat="47.21607" lon="5.35833">
        <ele>198</ele>
        <time>2012-10-16T12:54:12Z</time>
      </trkpt>
      <trkpt lat="47.21623" lon="5.35844">
        <ele>198</ele>
        <time>2012-10-16T12:54:14Z</time>
      </trkpt>
      <trkpt lat="47.21639" lon="5.35855">
        <ele>198</ele>
        <time>2012-10-16T12:54:16Z</time>
      </trkpt>
      <trkpt lat="47.21647" lon="5.35862">
        <ele>198</ele>
        <time>2012-10-16T12:54:17Z</time>
      </trkpt>
      <trkpt lat="47.2166" lon="5.35876">
        <ele>198</ele>
        <time>2012-10-16T12:54:19Z</time>
      </trkpt>
      <trkpt lat="47.21675" lon="5.35889">
        <ele>198</ele>
        <time>2012-10-16T12:54:21Z</time>
      </trkpt>
      <trkpt lat="47.21688" lon="5.35904">
        <ele>198</ele>
        <time>2012-10-16T12:54:23Z</time>
      </trkpt>
      <trkpt lat="47.21702" lon="5.35919">
        <ele>198</ele>
        <time>2012-10-16T12:54:25Z</time>
      </trkpt>
      <trkpt lat="47.21715" lon="5.35933">
        <ele>198</ele>
        <time>2012-10-16T12:54:27Z</time>
      </trkpt>
      <trkpt lat="47.21728" lon="5.35947">
        <ele>198</ele>
        <time>2012-10-16T12:54:29Z</time>
      </trkpt>
      <trkpt lat="47.2174" lon="5.35961">
        <ele>198</ele>
        <time>2012-10-16T12:54:31Z</time>
      </trkpt>
      <trkpt lat="47.21753" lon="5.35975">
        <ele>198</ele>
        <time>2012-10-16T12:54:33Z</time>
      </trkpt>
      <trkpt lat="47.21764" lon="5.3599">
        <ele>198</ele>
        <time>2012-10-16T12:54:35Z</time>
      </trkpt>
      <trkpt lat="47.21775" lon="5.36005">
        <ele>198</ele>
        <time>2012-10-16T12:54:37Z</time>
      </trkpt>
      <trkpt lat="47.21787" lon="5.36023">
        <ele>198</ele>
        <time>2012-10-16T12:54:39Z</time>
      </trkpt>
      <trkpt lat="47.21798" lon="5.36041">
        <ele>198</ele>
        <time>2012-10-16T12:54:41Z</time>
      </trkpt>
      <trkpt lat="47.21808" lon="5.36058">
        <ele>198</ele>
        <time>2012-10-16T12:54:43Z</time>
      </trkpt>
      <trkpt lat="47.21817" lon="5.36075">
        <ele>198</ele>
        <time>2012-10-16T12:54:45Z</time>
      </trkpt>
      <trkpt lat="47.21827" lon="5.36091">
        <ele>198</ele>
        <time>2012-10-16T12:54:47Z</time>
      </trkpt>
      <trkpt lat="47.21837" lon="5.36107">
        <ele>198</ele>
        <time>2012-10-16T12:54:49Z</time>
      </trkpt>
      <trkpt lat="47.21846" lon="5.36124">
        <ele>198</ele>
        <time>2012-10-16T12:54:51Z</time>
      </trkpt>
      <trkpt lat="47.21857" lon="5.3614">
        <ele>198</ele>
        <time>2012-10-16T12:54:53Z</time>
      </trkpt>
      <trkpt lat="47.21867" lon="5.36154">
        <ele>198</ele>
        <time>2012-10-16T12:54:55Z</time>
      </trkpt>
      <trkpt lat="47.21879" lon="5.36168">
        <ele>198</ele>
        <time>2012-10-16T12:54:57Z</time>
      </trkpt>
      <trkpt lat="47.2189" lon="5.3618">
        <ele>198</ele>
        <time>2012-10-16T12:54:59Z</time>
      </trkpt>
      <trkpt lat="47.21902" lon="5.36191">
        <ele>198</ele>
        <time>2012-10-16T12:55:01Z</time>
      </trkpt>
      <trkpt lat="47.21915" lon="5.362">
        <ele>198</ele>
        <time>2012-10-16T12:55:03Z</time>
      </trkpt>
      <trkpt lat="47.21927" lon="5.36208">
        <ele>198</ele>
        <time>2012-10-16T12:55:05Z</time>
      </trkpt>
      <trkpt lat="47.21939" lon="5.36214">
        <ele>198</ele>
        <time>2012-10-16T12:55:07Z</time>
      </trkpt>
      <trkpt lat="47.21952" lon="5.3622">
        <ele>198</ele>
        <time>2012-10-16T12:55:09Z</time>
      </trkpt>
      <trkpt lat="47.21964" lon="5.36224">
        <ele>198</ele>
        <time>2012-10-16T12:55:11Z</time>
      </trkpt>
      <trkpt lat="47.21977" lon="5.36229">
        <ele>198</ele>
        <time>2012-10-16T12:55:13Z</time>
      </trkpt>
      <trkpt lat="47.21989" lon="5.36233">
        <ele>198</ele>
        <time>2012-10-16T12:55:15Z</time>
      </trkpt>
      <trkpt lat="47.22002" lon="5.36237">
        <ele>198</ele>
        <time>2012-10-16T12:55:17Z</time>
      </trkpt>
      <trkpt lat="47.22014" lon="5.3624">
        <ele>198</ele>
        <time>2012-10-16T12:55:19Z</time>
      </trkpt>
      <trkpt lat="47.22025" lon="5.36243">
        <ele>198</ele>
        <time>2012-10-16T12:55:21Z</time>
      </trkpt>
      <trkpt lat="47.22038" lon="5.36247">
        <ele>198</ele>
        <time>2012-10-16T12:55:23Z</time>
      </trkpt>
      <trkpt lat="47.22049" lon="5.36249">
        <ele>198</ele>
        <time>2012-10-16T12:55:25Z</time>
      </trkpt>
      <trkpt lat="47.22061" lon="5.36253">
        <ele>198</ele>
        <time>2012-10-16T12:55:27Z</time>
      </trkpt>
      <trkpt lat="47.22073" lon="5.36257">
        <ele>198</ele>
        <time>2012-10-16T12:55:29Z</time>
      </trkpt>
      <trkpt lat="47.22084" lon="5.3626">
        <ele>203</ele>
        <time>2012-10-16T12:55:31Z</time>
      </trkpt>
      <trkpt lat="47.22096" lon="5.36265">
        <ele>203</ele>
        <time>2012-10-16T12:55:33Z</time>
      </trkpt>
      <trkpt lat="47.22108" lon="5.36268">
        <ele>203</ele>
        <time>2012-10-16T12:55:35Z</time>
      </trkpt>
      <trkpt lat="47.2212" lon="5.36273">
        <ele>203</ele>
        <time>2012-10-16T12:55:37Z</time>
      </trkpt>
      <trkpt lat="47.22133" lon="5.36276">
        <ele>203</ele>
        <time>2012-10-16T12:55:39Z</time>
      </trkpt>
      <trkpt lat="47.22145" lon="5.36281">
        <ele>203</ele>
        <time>2012-10-16T12:55:41Z</time>
      </trkpt>
      <trkpt lat="47.22158" lon="5.36288">
        <ele>203</ele>
        <time>2012-10-16T12:55:43Z</time>
      </trkpt>
      <trkpt lat="47.22171" lon="5.36297">
        <ele>203</ele>
        <time>2012-10-16T12:55:45Z</time>
      </trkpt>
      <trkpt lat="47.22183" lon="5.36306">
        <ele>203</ele>
        <time>2012-10-16T12:55:47Z</time>
      </trkpt>
      <trkpt lat="47.22196" lon="5.36318">
        <ele>203</ele>
        <time>2012-10-16T12:55:49Z</time>
      </trkpt>
      <trkpt lat="47.22208" lon="5.3633">
        <ele>203</ele>
        <time>2012-10-16T12:55:51Z</time>
      </trkpt>
      <trkpt lat="47.2222" lon="5.36345">
        <ele>203</ele>
        <time>2012-10-16T12:55:53Z</time>
      </trkpt>
      <trkpt lat="47.22232" lon="5.36361">
        <ele>203</ele>
        <time>2012-10-16T12:55:55Z</time>
      </trkpt>
      <trkpt lat="47.22242" lon="5.36376">
        <ele>203</ele>
        <time>2012-10-16T12:55:57Z</time>
      </trkpt>
      <trkpt lat="47.22253" lon="5.36392">
        <ele>203</ele>
        <time>2012-10-16T12:55:59Z</time>
      </trkpt>
      <trkpt lat="47.22263" lon="5.36409">
        <ele>203</ele>
        <time>2012-10-16T12:56:01Z</time>
      </trkpt>
      <trkpt lat="47.22273" lon="5.36425">
        <ele>203</ele>
        <time>2012-10-16T12:56:03Z</time>
      </trkpt>
      <trkpt lat="47.22285" lon="5.36441">
        <ele>203</ele>
        <time>2012-10-16T12:56:05Z</time>
      </trkpt>
      <trkpt lat="47.22297" lon="5.36455">
        <ele>203</ele>
        <time>2012-10-16T12:56:07Z</time>
      </trkpt>
      <trkpt lat="47.22309" lon="5.36468">
        <ele>203</ele>
        <time>2012-10-16T12:56:09Z</time>
      </trkpt>
      <trkpt lat="47.22322" lon="5.36479">
        <ele>203</ele>
        <time>2012-10-16T12:56:11Z</time>
      </trkpt>
      <trkpt lat="47.22336" lon="5.36489">
        <ele>203</ele>
        <time>2012-10-16T12:56:13Z</time>
      </trkpt>
      <trkpt lat="47.22351" lon="5.36497">
        <ele>203</ele>
        <time>2012-10-16T12:56:15Z</time>
      </trkpt>
      <trkpt lat="47.22365" lon="5.36505">
        <ele>203</ele>
        <time>2012-10-16T12:56:17Z</time>
      </trkpt>
      <trkpt lat="47.22379" lon="5.36513">
        <ele>203</ele>
        <time>2012-10-16T12:56:19Z</time>
      </trkpt>
      <trkpt lat="47.22393" lon="5.36521">
        <ele>203</ele>
        <time>2012-10-16T12:56:21Z</time>
      </trkpt>
      <trkpt lat="47.22406" lon="5.36527">
        <ele>203</ele>
        <time>2012-10-16T12:56:23Z</time>
      </trkpt>
      <trkpt lat="47.2242" lon="5.36533">
        <ele>203</ele>
        <time>2012-10-16T12:56:25Z</time>
      </trkpt>
      <trkpt lat="47.22434" lon="5.36539">
        <ele>203</ele>
        <time>2012-10-16T12:56:27Z</time>
      </trkpt>
      <trkpt lat="47.22447" lon="5.36543">
        <ele>203</ele>
        <time>2012-10-16T12:56:29Z</time>
      </trkpt>
      <trkpt lat="47.22461" lon="5.36548">
        <ele>203</ele>
        <time>2012-10-16T12:56:31Z</time>
      </trkpt>
      <trkpt lat="47.22474" lon="5.36552">
        <ele>209</ele>
        <time>2012-10-16T12:56:33Z</time>
      </trkpt>
      <trkpt lat="47.22488" lon="5.36556">
        <ele>209</ele>
        <time>2012-10-16T12:56:35Z</time>
      </trkpt>
      <trkpt lat="47.22502" lon="5.36559">
        <ele>209</ele>
        <time>2012-10-16T12:56:37Z</time>
      </trkpt>
      <trkpt lat="47.22516" lon="5.36564">
        <ele>209</ele>
        <time>2012-10-16T12:56:39Z</time>
      </trkpt>
      <trkpt lat="47.22529" lon="5.36567">
        <ele>209</ele>
        <time>2012-10-16T12:56:41Z</time>
      </trkpt>
      <trkpt lat="47.22544" lon="5.36571">
        <ele>209</ele>
        <time>2012-10-16T12:56:43Z</time>
      </trkpt>
      <trkpt lat="47.22558" lon="5.36575">
        <ele>209</ele>
        <time>2012-10-16T12:56:45Z</time>
      </trkpt>
      <trkpt lat="47.22572" lon="5.36578">
        <ele>209</ele>
        <time>2012-10-16T12:56:47Z</time>
      </trkpt>
      <trkpt lat="47.22586" lon="5.36583">
        <ele>209</ele>
        <time>2012-10-16T12:56:49Z</time>
      </trkpt>
      <trkpt lat="47.226" lon="5.3659">
        <ele>209</ele>
        <time>2012-10-16T12:56:51Z</time>
      </trkpt>
      <trkpt lat="47.22613" lon="5.36599">
        <ele>209</ele>
        <time>2012-10-16T12:56:53Z</time>
      </trkpt>
      <trkpt lat="47.22626" lon="5.3661">
        <ele>209</ele>
        <time>2012-10-16T12:56:55Z</time>
      </trkpt>
      <trkpt lat="47.22639" lon="5.36622">
        <ele>209</ele>
        <time>2012-10-16T12:56:57Z</time>
      </trkpt>
      <trkpt lat="47.22652" lon="5.36634">
        <ele>209</ele>
        <time>2012-10-16T12:56:59Z</time>
      </trkpt>
      <trkpt lat="47.22665" lon="5.36646">
        <ele>209</ele>
        <time>2012-10-16T12:57:01Z</time>
      </trkpt>
      <trkpt lat="47.22678" lon="5.36658">
        <ele>209</ele>
        <time>2012-10-16T12:57:03Z</time>
      </trkpt>
      <trkpt lat="47.2269" lon="5.36669">
        <ele>209</ele>
        <time>2012-10-16T12:57:05Z</time>
      </trkpt>
      <trkpt lat="47.22702" lon="5.3668">
        <ele>209</ele>
        <time>2012-10-16T12:57:07Z</time>
      </trkpt>
      <trkpt lat="47.22714" lon="5.36691">
        <ele>209</ele>
        <time>2012-10-16T12:57:09Z</time>
      </trkpt>
      <trkpt lat="47.22726" lon="5.36701">
        <ele>209</ele>
        <time>2012-10-16T12:57:11Z</time>
      </trkpt>
      <trkpt lat="47.22737" lon="5.36712">
        <ele>209</ele>
        <time>2012-10-16T12:57:13Z</time>
      </trkpt>
      <trkpt lat="47.22748" lon="5.36723">
        <ele>209</ele>
        <time>2012-10-16T12:57:15Z</time>
      </trkpt>
      <trkpt lat="47.22759" lon="5.36734">
        <ele>209</ele>
        <time>2012-10-16T12:57:17Z</time>
      </trkpt>
      <trkpt lat="47.2277" lon="5.36747">
        <ele>209</ele>
        <time>2012-10-16T12:57:19Z</time>
      </trkpt>
      <trkpt lat="47.2278" lon="5.36761">
        <ele>209</ele>
        <time>2012-10-16T12:57:21Z</time>
      </trkpt>
      <trkpt lat="47.2279" lon="5.36774">
        <ele>209</ele>
        <time>2012-10-16T12:57:23Z</time>
      </trkpt>
      <trkpt lat="47.22801" lon="5.36788">
        <ele>209</ele>
        <time>2012-10-16T12:57:25Z</time>
      </trkpt>
      <trkpt lat="47.22811" lon="5.36802">
        <ele>209</ele>
        <time>2012-10-16T12:57:27Z</time>
      </trkpt>
      <trkpt lat="47.2282" lon="5.36816">
        <ele>209</ele>
        <time>2012-10-16T12:57:29Z</time>
      </trkpt>
      <trkpt lat="47.22831" lon="5.3683">
        <ele>209</ele>
        <time>2012-10-16T12:57:31Z</time>
      </trkpt>
      <trkpt lat="47.22841" lon="5.36844">
        <ele>209</ele>
        <time>2012-10-16T12:57:33Z</time>
      </trkpt>
      <trkpt lat="47.22852" lon="5.36858">
        <ele>209</ele>
        <time>2012-10-16T12:57:35Z</time>
      </trkpt>
      <trkpt lat="47.22863" lon="5.36874">
        <ele>209</ele>
        <time>2012-10-16T12:57:37Z</time>
      </trkpt>
      <trkpt lat="47.22874" lon="5.36891">
        <ele>209</ele>
        <time>2012-10-16T12:57:39Z</time>
      </trkpt>
      <trkpt lat="47.22881" lon="5.369">
        <ele>209</ele>
        <time>2012-10-16T12:57:40Z</time>
      </trkpt>
      <trkpt lat="47.22894" lon="5.36916">
        <ele>209</ele>
        <time>2012-10-16T12:57:42Z</time>
      </trkpt>
      <trkpt lat="47.22906" lon="5.36933">
        <ele>209</ele>
        <time>2012-10-16T12:57:44Z</time>
      </trkpt>
      <trkpt lat="47.22913" lon="5.36942">
        <ele>209</ele>
        <time>2012-10-16T12:57:45Z</time>
      </trkpt>
      <trkpt lat="47.22926" lon="5.3696">
        <ele>209</ele>
        <time>2012-10-16T12:57:47Z</time>
      </trkpt>
      <trkpt lat="47.22932" lon="5.36969">
        <ele>209</ele>
        <time>2012-10-16T12:57:48Z</time>
      </trkpt>
      <trkpt lat="47.22939" lon="5.36978">
        <ele>209</ele>
        <time>2012-10-16T12:57:49Z</time>
      </trkpt>
      <trkpt lat="47.22946" lon="5.36986">
        <ele>209</ele>
        <time>2012-10-16T12:57:50Z</time>
      </trkpt>
      <trkpt lat="47.22954" lon="5.36994">
        <ele>209</ele>
        <time>2012-10-16T12:57:51Z</time>
      </trkpt>
      <trkpt lat="47.2297" lon="5.37008">
        <ele>209</ele>
        <time>2012-10-16T12:57:53Z</time>
      </trkpt>
      <trkpt lat="47.22986" lon="5.37017">
        <ele>209</ele>
        <time>2012-10-16T12:57:55Z</time>
      </trkpt>
      <trkpt lat="47.22995" lon="5.37022">
        <ele>209</ele>
        <time>2012-10-16T12:57:56Z</time>
      </trkpt>
      <trkpt lat="47.2301" lon="5.37031">
        <ele>209</ele>
        <time>2012-10-16T12:57:58Z</time>
      </trkpt>
      <trkpt lat="47.23025" lon="5.37039">
        <ele>209</ele>
        <time>2012-10-16T12:58:00Z</time>
      </trkpt>
      <trkpt lat="47.23038" lon="5.37049">
        <ele>209</ele>
        <time>2012-10-16T12:58:02Z</time>
      </trkpt>
      <trkpt lat="47.23051" lon="5.3706">
        <ele>209</ele>
        <time>2012-10-16T12:58:04Z</time>
      </trkpt>
      <trkpt lat="47.23062" lon="5.37071">
        <ele>209</ele>
        <time>2012-10-16T12:58:06Z</time>
      </trkpt>
      <trkpt lat="47.23072" lon="5.37087">
        <ele>209</ele>
        <time>2012-10-16T12:58:08Z</time>
      </trkpt>
      <trkpt lat="47.2308" lon="5.37104">
        <ele>209</ele>
        <time>2012-10-16T12:58:10Z</time>
      </trkpt>
      <trkpt lat="47.23088" lon="5.3712">
        <ele>209</ele>
        <time>2012-10-16T12:58:12Z</time>
      </trkpt>
      <trkpt lat="47.23095" lon="5.37136">
        <ele>209</ele>
        <time>2012-10-16T12:58:14Z</time>
      </trkpt>
      <trkpt lat="47.23102" lon="5.37152">
        <ele>209</ele>
        <time>2012-10-16T12:58:16Z</time>
      </trkpt>
      <trkpt lat="47.23109" lon="5.37168">
        <ele>209</ele>
        <time>2012-10-16T12:58:18Z</time>
      </trkpt>
      <trkpt lat="47.23115" lon="5.37186">
        <ele>209</ele>
        <time>2012-10-16T12:58:20Z</time>
      </trkpt>
      <trkpt lat="47.23123" lon="5.37203">
        <ele>209</ele>
        <time>2012-10-16T12:58:22Z</time>
      </trkpt>
      <trkpt lat="47.23131" lon="5.37221">
        <ele>209</ele>
        <time>2012-10-16T12:58:24Z</time>
      </trkpt>
      <trkpt lat="47.23139" lon="5.37239">
        <ele>209</ele>
        <time>2012-10-16T12:58:26Z</time>
      </trkpt>
      <trkpt lat="47.23147" lon="5.37258">
        <ele>209</ele>
        <time>2012-10-16T12:58:28Z</time>
      </trkpt>
      <trkpt lat="47.23155" lon="5.37278">
        <ele>209</ele>
        <time>2012-10-16T12:58:30Z</time>
      </trkpt>
      <trkpt lat="47.23163" lon="5.37298">
        <ele>209</ele>
        <time>2012-10-16T12:58:32Z</time>
      </trkpt>
      <trkpt lat="47.23172" lon="5.37317">
        <ele>209</ele>
        <time>2012-10-16T12:58:34Z</time>
      </trkpt>
      <trkpt lat="47.23182" lon="5.37336">
        <ele>209</ele>
        <time>2012-10-16T12:58:36Z</time>
      </trkpt>
      <trkpt lat="47.23193" lon="5.37352">
        <ele>209</ele>
        <time>2012-10-16T12:58:38Z</time>
      </trkpt>
      <trkpt lat="47.23208" lon="5.37361">
        <ele>209</ele>
        <time>2012-10-16T12:58:40Z</time>
      </trkpt>
      <trkpt lat="47.23224" lon="5.37366">
        <ele>203</ele>
        <time>2012-10-16T12:58:42Z</time>
      </trkpt>
      <trkpt lat="47.2324" lon="5.37371">
        <ele>203</ele>
        <time>2012-10-16T12:58:44Z</time>
      </trkpt>
      <trkpt lat="47.23254" lon="5.37383">
        <ele>203</ele>
        <time>2012-10-16T12:58:46Z</time>
      </trkpt>
      <trkpt lat="47.23262" lon="5.37391">
        <ele>203</ele>
        <time>2012-10-16T12:58:47Z</time>
      </trkpt>
      <trkpt lat="47.23276" lon="5.37409">
        <ele>203</ele>
        <time>2012-10-16T12:58:49Z</time>
      </trkpt>
      <trkpt lat="47.23282" lon="5.37419">
        <ele>203</ele>
        <time>2012-10-16T12:58:50Z</time>
      </trkpt>
      <trkpt lat="47.23289" lon="5.3743">
        <ele>203</ele>
        <time>2012-10-16T12:58:51Z</time>
      </trkpt>
      <trkpt lat="47.23294" lon="5.37441">
        <ele>203</ele>
        <time>2012-10-16T12:58:52Z</time>
      </trkpt>
      <trkpt lat="47.233" lon="5.37451">
        <ele>203</ele>
        <time>2012-10-16T12:58:53Z</time>
      </trkpt>
      <trkpt lat="47.23304" lon="5.37463">
        <ele>203</ele>
        <time>2012-10-16T12:58:54Z</time>
      </trkpt>
      <trkpt lat="47.2331" lon="5.37474">
        <ele>203</ele>
        <time>2012-10-16T12:58:55Z</time>
      </trkpt>
      <trkpt lat="47.23315" lon="5.37485">
        <ele>203</ele>
        <time>2012-10-16T12:58:56Z</time>
      </trkpt>
      <trkpt lat="47.23325" lon="5.37508">
        <ele>198</ele>
        <time>2012-10-16T12:58:58Z</time>
      </trkpt>
      <trkpt lat="47.23334" lon="5.3753">
        <ele>198</ele>
        <time>2012-10-16T12:59:00Z</time>
      </trkpt>
      <trkpt lat="47.23342" lon="5.37552">
        <ele>198</ele>
        <time>2012-10-16T12:59:02Z</time>
      </trkpt>
      <trkpt lat="47.23352" lon="5.37573">
        <ele>198</ele>
        <time>2012-10-16T12:59:04Z</time>
      </trkpt>
      <trkpt lat="47.2336" lon="5.37595">
        <ele>198</ele>
        <time>2012-10-16T12:59:06Z</time>
      </trkpt>
      <trkpt lat="47.23369" lon="5.37615">
        <ele>198</ele>
        <time>2012-10-16T12:59:08Z</time>
      </trkpt>
      <trkpt lat="47.23379" lon="5.37635">
        <ele>198</ele>
        <time>2012-10-16T12:59:10Z</time>
      </trkpt>
      <trkpt lat="47.2339" lon="5.37653">
        <ele>198</ele>
        <time>2012-10-16T12:59:12Z</time>
      </trkpt>
      <trkpt lat="47.23402" lon="5.3767">
        <ele>198</ele>
        <time>2012-10-16T12:59:14Z</time>
      </trkpt>
      <trkpt lat="47.23414" lon="5.37685">
        <ele>198</ele>
        <time>2012-10-16T12:59:16Z</time>
      </trkpt>
      <trkpt lat="47.23427" lon="5.377">
        <ele>198</ele>
        <time>2012-10-16T12:59:18Z</time>
      </trkpt>
      <trkpt lat="47.2344" lon="5.37715">
        <ele>198</ele>
        <time>2012-10-16T12:59:20Z</time>
      </trkpt>
      <trkpt lat="47.23453" lon="5.37729">
        <ele>198</ele>
        <time>2012-10-16T12:59:22Z</time>
      </trkpt>
      <trkpt lat="47.23467" lon="5.37743">
        <ele>198</ele>
        <time>2012-10-16T12:59:24Z</time>
      </trkpt>
      <trkpt lat="47.23481" lon="5.37758">
        <ele>198</ele>
        <time>2012-10-16T12:59:26Z</time>
      </trkpt>
      <trkpt lat="47.23495" lon="5.37773">
        <ele>198</ele>
        <time>2012-10-16T12:59:28Z</time>
      </trkpt>
      <trkpt lat="47.23509" lon="5.37787">
        <ele>198</ele>
        <time>2012-10-16T12:59:30Z</time>
      </trkpt>
      <trkpt lat="47.23522" lon="5.37803">
        <ele>198</ele>
        <time>2012-10-16T12:59:32Z</time>
      </trkpt>
      <trkpt lat="47.23536" lon="5.37818">
        <ele>198</ele>
        <time>2012-10-16T12:59:34Z</time>
      </trkpt>
      <trkpt lat="47.2355" lon="5.37832">
        <ele>198</ele>
        <time>2012-10-16T12:59:36Z</time>
      </trkpt>
      <trkpt lat="47.23564" lon="5.37847">
        <ele>198</ele>
        <time>2012-10-16T12:59:38Z</time>
      </trkpt>
      <trkpt lat="47.23578" lon="5.37862">
        <ele>198</ele>
        <time>2012-10-16T12:59:40Z</time>
      </trkpt>
      <trkpt lat="47.23592" lon="5.37876">
        <ele>198</ele>
        <time>2012-10-16T12:59:42Z</time>
      </trkpt>
      <trkpt lat="47.23606" lon="5.37891">
        <ele>198</ele>
        <time>2012-10-16T12:59:44Z</time>
      </trkpt>
      <trkpt lat="47.2362" lon="5.37905">
        <ele>198</ele>
        <time>2012-10-16T12:59:46Z</time>
      </trkpt>
      <trkpt lat="47.23634" lon="5.3792">
        <ele>198</ele>
        <time>2012-10-16T12:59:48Z</time>
      </trkpt>
      <trkpt lat="47.23647" lon="5.37935">
        <ele>198</ele>
        <time>2012-10-16T12:59:50Z</time>
      </trkpt>
      <trkpt lat="47.23661" lon="5.3795">
        <ele>198</ele>
        <time>2012-10-16T12:59:52Z</time>
      </trkpt>
      <trkpt lat="47.23675" lon="5.37964">
        <ele>198</ele>
        <time>2012-10-16T12:59:54Z</time>
      </trkpt>
      <trkpt lat="47.23688" lon="5.3798">
        <ele>198</ele>
        <time>2012-10-16T12:59:56Z</time>
      </trkpt>
      <trkpt lat="47.23702" lon="5.37994">
        <ele>198</ele>
        <time>2012-10-16T12:59:58Z</time>
      </trkpt>
      <trkpt lat="47.23715" lon="5.38008">
        <ele>198</ele>
        <time>2012-10-16T13:00:00Z</time>
      </trkpt>
      <trkpt lat="47.23728" lon="5.38023">
        <ele>198</ele>
        <time>2012-10-16T13:00:02Z</time>
      </trkpt>
      <trkpt lat="47.23742" lon="5.38036">
        <ele>198</ele>
        <time>2012-10-16T13:00:04Z</time>
      </trkpt>
      <trkpt lat="47.23755" lon="5.3805">
        <ele>198</ele>
        <time>2012-10-16T13:00:06Z</time>
      </trkpt>
      <trkpt lat="47.23768" lon="5.38064">
        <ele>198</ele>
        <time>2012-10-16T13:00:08Z</time>
      </trkpt>
      <trkpt lat="47.2378" lon="5.38077">
        <ele>198</ele>
        <time>2012-10-16T13:00:10Z</time>
      </trkpt>
      <trkpt lat="47.23793" lon="5.38091">
        <ele>198</ele>
        <time>2012-10-16T13:00:12Z</time>
      </trkpt>
      <trkpt lat="47.23806" lon="5.38105">
        <ele>198</ele>
        <time>2012-10-16T13:00:14Z</time>
      </trkpt>
      <trkpt lat="47.23819" lon="5.3812">
        <ele>198</ele>
        <time>2012-10-16T13:00:16Z</time>
      </trkpt>
      <trkpt lat="47.23832" lon="5.38133">
        <ele>198</ele>
        <time>2012-10-16T13:00:18Z</time>
      </trkpt>
      <trkpt lat="47.23845" lon="5.38147">
        <ele>198</ele>
        <time>2012-10-16T13:00:20Z</time>
      </trkpt>
      <trkpt lat="47.23859" lon="5.38162">
        <ele>198</ele>
        <time>2012-10-16T13:00:22Z</time>
      </trkpt>
      <trkpt lat="47.23872" lon="5.38175">
        <ele>198</ele>
        <time>2012-10-16T13:00:24Z</time>
      </trkpt>
      <trkpt lat="47.23884" lon="5.38189">
        <ele>198</ele>
        <time>2012-10-16T13:00:26Z</time>
      </trkpt>
      <trkpt lat="47.23897" lon="5.38203">
        <ele>198</ele>
        <time>2012-10-16T13:00:28Z</time>
      </trkpt>
      <trkpt lat="47.2391" lon="5.38218">
        <ele>198</ele>
        <time>2012-10-16T13:00:30Z</time>
      </trkpt>
      <trkpt lat="47.23923" lon="5.38231">
        <ele>198</ele>
        <time>2012-10-16T13:00:32Z</time>
      </trkpt>
      <trkpt lat="47.23936" lon="5.38245">
        <ele>198</ele>
        <time>2012-10-16T13:00:34Z</time>
      </trkpt>
      <trkpt lat="47.2395" lon="5.3826">
        <ele>198</ele>
        <time>2012-10-16T13:00:36Z</time>
      </trkpt>
      <trkpt lat="47.23963" lon="5.38274">
        <ele>198</ele>
        <time>2012-10-16T13:00:38Z</time>
      </trkpt>
      <trkpt lat="47.23977" lon="5.3829">
        <ele>198</ele>
        <time>2012-10-16T13:00:40Z</time>
      </trkpt>
      <trkpt lat="47.23984" lon="5.38298">
        <ele>198</ele>
        <time>2012-10-16T13:00:41Z</time>
      </trkpt>
      <trkpt lat="47.23998" lon="5.38316">
        <ele>198</ele>
        <time>2012-10-16T13:00:43Z</time>
      </trkpt>
      <trkpt lat="47.24006" lon="5.38324">
        <ele>198</ele>
        <time>2012-10-16T13:00:44Z</time>
      </trkpt>
      <trkpt lat="47.24013" lon="5.38333">
        <ele>198</ele>
        <time>2012-10-16T13:00:45Z</time>
      </trkpt>
      <trkpt lat="47.2402" lon="5.38342">
        <ele>198</ele>
        <time>2012-10-16T13:00:46Z</time>
      </trkpt>
      <trkpt lat="47.24028" lon="5.38351">
        <ele>193</ele>
        <time>2012-10-16T13:00:47Z</time>
      </trkpt>
      <trkpt lat="47.24037" lon="5.38361">
        <ele>193</ele>
        <time>2012-10-16T13:00:48Z</time>
      </trkpt>
      <trkpt lat="47.24045" lon="5.3837">
        <ele>193</ele>
        <time>2012-10-16T13:00:49Z</time>
      </trkpt>
      <trkpt lat="47.24053" lon="5.38379">
        <ele>193</ele>
        <time>2012-10-16T13:00:50Z</time>
      </trkpt>
      <trkpt lat="47.24061" lon="5.38389">
        <ele>193</ele>
        <time>2012-10-16T13:00:51Z</time>
      </trkpt>
      <trkpt lat="47.24069" lon="5.38399">
        <ele>193</ele>
        <time>2012-10-16T13:00:52Z</time>
      </trkpt>
      <trkpt lat="47.24077" lon="5.38409">
        <ele>193</ele>
        <time>2012-10-16T13:00:53Z</time>
      </trkpt>
      <trkpt lat="47.24085" lon="5.38418">
        <ele>193</ele>
        <time>2012-10-16T13:00:54Z</time>
      </trkpt>
      <trkpt lat="47.24091" lon="5.38428">
        <ele>193</ele>
        <time>2012-10-16T13:00:55Z</time>
      </trkpt>
      <trkpt lat="47.24097" lon="5.38438">
        <ele>193</ele>
        <time>2012-10-16T13:00:56Z</time>
      </trkpt>
      <trkpt lat="47.24103" lon="5.38448">
        <ele>193</ele>
        <time>2012-10-16T13:00:57Z</time>
      </trkpt>
      <trkpt lat="47.24113" lon="5.38469">
        <ele>193</ele>
        <time>2012-10-16T13:00:59Z</time>
      </trkpt>
      <trkpt lat="47.2412" lon="5.38491">
        <ele>193</ele>
        <time>2012-10-16T13:01:01Z</time>
      </trkpt>
      <trkpt lat="47.24126" lon="5.38511">
        <ele>193</ele>
        <time>2012-10-16T13:01:03Z</time>
      </trkpt>
      <trkpt lat="47.24131" lon="5.3853">
        <ele>193</ele>
        <time>2012-10-16T13:01:05Z</time>
      </trkpt>
      <trkpt lat="47.24135" lon="5.38548">
        <ele>193</ele>
        <time>2012-10-16T13:01:07Z</time>
      </trkpt>
      <trkpt lat="47.24139" lon="5.38565">
        <ele>193</ele>
        <time>2012-10-16T13:01:09Z</time>
      </trkpt>
      <trkpt lat="47.24143" lon="5.38581">
        <ele>193</ele>
        <time>2012-10-16T13:01:11Z</time>
      </trkpt>
      <trkpt lat="47.24146" lon="5.38598">
        <ele>193</ele>
        <time>2012-10-16T13:01:13Z</time>
      </trkpt>
      <trkpt lat="47.24149" lon="5.38614">
        <ele>193</ele>
        <time>2012-10-16T13:01:15Z</time>
      </trkpt>
      <trkpt lat="47.24153" lon="5.38629">
        <ele>193</ele>
        <time>2012-10-16T13:01:17Z</time>
      </trkpt>
      <trkpt lat="47.24157" lon="5.38644">
        <ele>193</ele>
        <time>2012-10-16T13:01:19Z</time>
      </trkpt>
      <trkpt lat="47.24162" lon="5.38659">
        <ele>193</ele>
        <time>2012-10-16T13:01:21Z</time>
      </trkpt>
      <trkpt lat="47.24166" lon="5.38673">
        <ele>193</ele>
        <time>2012-10-16T13:01:23Z</time>
      </trkpt>
      <trkpt lat="47.24173" lon="5.38687">
        <ele>193</ele>
        <time>2012-10-16T13:01:25Z</time>
      </trkpt>
      <trkpt lat="47.24179" lon="5.38701">
        <ele>198</ele>
        <time>2012-10-16T13:01:27Z</time>
      </trkpt>
      <trkpt lat="47.24187" lon="5.38713">
        <ele>198</ele>
        <time>2012-10-16T13:01:29Z</time>
      </trkpt>
      <trkpt lat="47.24196" lon="5.38722">
        <ele>198</ele>
        <time>2012-10-16T13:01:31Z</time>
      </trkpt>
      <trkpt lat="47.24204" lon="5.3873">
        <ele>198</ele>
        <time>2012-10-16T13:01:33Z</time>
      </trkpt>
      <trkpt lat="47.24214" lon="5.38735">
        <ele>198</ele>
        <time>2012-10-16T13:01:35Z</time>
      </trkpt>
      <trkpt lat="47.24223" lon="5.38739">
        <ele>205</ele>
        <time>2012-10-16T13:01:37Z</time>
      </trkpt>
      <trkpt lat="47.24234" lon="5.38742">
        <ele>205</ele>
        <time>2012-10-16T13:01:39Z</time>
      </trkpt>
      <trkpt lat="47.24244" lon="5.38744">
        <ele>205</ele>
        <time>2012-10-16T13:01:41Z</time>
      </trkpt>
      <trkpt lat="47.24255" lon="5.38745">
        <ele>205</ele>
        <time>2012-10-16T13:01:43Z</time>
      </trkpt>
      <trkpt lat="47.24266" lon="5.38743">
        <ele>205</ele>
        <time>2012-10-16T13:01:45Z</time>
      </trkpt>
      <trkpt lat="47.24277" lon="5.38739">
        <ele>205</ele>
        <time>2012-10-16T13:01:47Z</time>
      </trkpt>
      <trkpt lat="47.24286" lon="5.38733">
        <ele>205</ele>
        <time>2012-10-16T13:01:49Z</time>
      </trkpt>
      <trkpt lat="47.24296" lon="5.38725">
        <ele>205</ele>
        <time>2012-10-16T13:01:51Z</time>
      </trkpt>
      <trkpt lat="47.24305" lon="5.38717">
        <ele>205</ele>
        <time>2012-10-16T13:01:53Z</time>
      </trkpt>
      <trkpt lat="47.24315" lon="5.38709">
        <ele>205</ele>
        <time>2012-10-16T13:01:55Z</time>
      </trkpt>
      <trkpt lat="47.24324" lon="5.38701">
        <ele>205</ele>
        <time>2012-10-16T13:01:57Z</time>
      </trkpt>
      <trkpt lat="47.24334" lon="5.38693">
        <ele>205</ele>
        <time>2012-10-16T13:01:59Z</time>
      </trkpt>
      <trkpt lat="47.24344" lon="5.38683">
        <ele>205</ele>
        <time>2012-10-16T13:02:01Z</time>
      </trkpt>
      <trkpt lat="47.24354" lon="5.38675">
        <ele>205</ele>
        <time>2012-10-16T13:02:03Z</time>
      </trkpt>
      <trkpt lat="47.24363" lon="5.38666">
        <ele>205</ele>
        <time>2012-10-16T13:02:05Z</time>
      </trkpt>
      <trkpt lat="47.24373" lon="5.38656">
        <ele>211</ele>
        <time>2012-10-16T13:02:07Z</time>
      </trkpt>
      <trkpt lat="47.24384" lon="5.38648">
        <ele>211</ele>
        <time>2012-10-16T13:02:09Z</time>
      </trkpt>
      <trkpt lat="47.24393" lon="5.38639">
        <ele>211</ele>
        <time>2012-10-16T13:02:11Z</time>
      </trkpt>
      <trkpt lat="47.24404" lon="5.3863">
        <ele>211</ele>
        <time>2012-10-16T13:02:13Z</time>
      </trkpt>
      <trkpt lat="47.24414" lon="5.38621">
        <ele>211</ele>
        <time>2012-10-16T13:02:15Z</time>
      </trkpt>
      <trkpt lat="47.24423" lon="5.38612">
        <ele>211</ele>
        <time>2012-10-16T13:02:17Z</time>
      </trkpt>
      <trkpt lat="47.24434" lon="5.38603">
        <ele>211</ele>
        <time>2012-10-16T13:02:19Z</time>
      </trkpt>
      <trkpt lat="47.24444" lon="5.38594">
        <ele>211</ele>
        <time>2012-10-16T13:02:21Z</time>
      </trkpt>
      <trkpt lat="47.24453" lon="5.38583">
        <ele>211</ele>
        <time>2012-10-16T13:02:23Z</time>
      </trkpt>
      <trkpt lat="47.24463" lon="5.38573">
        <ele>211</ele>
        <time>2012-10-16T13:02:25Z</time>
      </trkpt>
      <trkpt lat="47.24474" lon="5.38562">
        <ele>211</ele>
        <time>2012-10-16T13:02:27Z</time>
      </trkpt>
      <trkpt lat="47.24483" lon="5.3855">
        <ele>211</ele>
        <time>2012-10-16T13:02:29Z</time>
      </trkpt>
      <trkpt lat="47.24493" lon="5.38537">
        <ele>211</ele>
        <time>2012-10-16T13:02:31Z</time>
      </trkpt>
      <trkpt lat="47.24502" lon="5.38526">
        <ele>211</ele>
        <time>2012-10-16T13:02:33Z</time>
      </trkpt>
      <trkpt lat="47.24512" lon="5.38514">
        <ele>211</ele>
        <time>2012-10-16T13:02:35Z</time>
      </trkpt>
      <trkpt lat="47.24521" lon="5.38501">
        <ele>211</ele>
        <time>2012-10-16T13:02:37Z</time>
      </trkpt>
      <trkpt lat="47.24529" lon="5.38488">
        <ele>211</ele>
        <time>2012-10-16T13:02:39Z</time>
      </trkpt>
      <trkpt lat="47.24538" lon="5.38475">
        <ele>211</ele>
        <time>2012-10-16T13:02:41Z</time>
      </trkpt>
      <trkpt lat="47.24547" lon="5.38464">
        <ele>211</ele>
        <time>2012-10-16T13:02:43Z</time>
      </trkpt>
      <trkpt lat="47.24557" lon="5.38454">
        <ele>211</ele>
        <time>2012-10-16T13:02:45Z</time>
      </trkpt>
      <trkpt lat="47.24567" lon="5.38444">
        <ele>211</ele>
        <time>2012-10-16T13:02:47Z</time>
      </trkpt>
      <trkpt lat="47.24578" lon="5.38435">
        <ele>211</ele>
        <time>2012-10-16T13:02:49Z</time>
      </trkpt>
      <trkpt lat="47.24592" lon="5.3843">
        <ele>211</ele>
        <time>2012-10-16T13:02:51Z</time>
      </trkpt>
      <trkpt lat="47.24606" lon="5.38426">
        <ele>211</ele>
        <time>2012-10-16T13:02:53Z</time>
      </trkpt>
      <trkpt lat="47.24621" lon="5.38424">
        <ele>211</ele>
        <time>2012-10-16T13:02:55Z</time>
      </trkpt>
      <trkpt lat="47.24636" lon="5.38425">
        <ele>211</ele>
        <time>2012-10-16T13:02:57Z</time>
      </trkpt>
      <trkpt lat="47.24651" lon="5.38428">
        <ele>211</ele>
        <time>2012-10-16T13:02:59Z</time>
      </trkpt>
      <trkpt lat="47.24666" lon="5.38431">
        <ele>211</ele>
        <time>2012-10-16T13:03:01Z</time>
      </trkpt>
      <trkpt lat="47.2468" lon="5.38436">
        <ele>211</ele>
        <time>2012-10-16T13:03:03Z</time>
      </trkpt>
      <trkpt lat="47.24696" lon="5.38439">
        <ele>211</ele>
        <time>2012-10-16T13:03:05Z</time>
      </trkpt>
      <trkpt lat="47.2471" lon="5.38444">
        <ele>211</ele>
        <time>2012-10-16T13:03:07Z</time>
      </trkpt>
      <trkpt lat="47.24726" lon="5.38448">
        <ele>211</ele>
        <time>2012-10-16T13:03:09Z</time>
      </trkpt>
      <trkpt lat="47.24741" lon="5.38452">
        <ele>211</ele>
        <time>2012-10-16T13:03:11Z</time>
      </trkpt>
      <trkpt lat="47.24757" lon="5.38457">
        <ele>211</ele>
        <time>2012-10-16T13:03:13Z</time>
      </trkpt>
      <trkpt lat="47.24774" lon="5.38461">
        <ele>211</ele>
        <time>2012-10-16T13:03:15Z</time>
      </trkpt>
      <trkpt lat="47.24792" lon="5.38466">
        <ele>211</ele>
        <time>2012-10-16T13:03:17Z</time>
      </trkpt>
      <trkpt lat="47.24809" lon="5.38472">
        <ele>211</ele>
        <time>2012-10-16T13:03:19Z</time>
      </trkpt>
      <trkpt lat="47.24818" lon="5.38475">
        <ele>211</ele>
        <time>2012-10-16T13:03:20Z</time>
      </trkpt>
      <trkpt lat="47.24827" lon="5.38479">
        <ele>211</ele>
        <time>2012-10-16T13:03:21Z</time>
      </trkpt>
      <trkpt lat="47.24836" lon="5.38483">
        <ele>211</ele>
        <time>2012-10-16T13:03:22Z</time>
      </trkpt>
      <trkpt lat="47.24846" lon="5.38486">
        <ele>211</ele>
        <time>2012-10-16T13:03:23Z</time>
      </trkpt>
      <trkpt lat="47.24855" lon="5.38491">
        <ele>211</ele>
        <time>2012-10-16T13:03:24Z</time>
      </trkpt>
      <trkpt lat="47.24864" lon="5.38494">
        <ele>211</ele>
        <time>2012-10-16T13:03:25Z</time>
      </trkpt>
      <trkpt lat="47.24874" lon="5.385">
        <ele>211</ele>
        <time>2012-10-16T13:03:26Z</time>
      </trkpt>
      <trkpt lat="47.24883" lon="5.38504">
        <ele>211</ele>
        <time>2012-10-16T13:03:27Z</time>
      </trkpt>
      <trkpt lat="47.24892" lon="5.3851">
        <ele>211</ele>
        <time>2012-10-16T13:03:28Z</time>
      </trkpt>
      <trkpt lat="47.24902" lon="5.38515">
        <ele>211</ele>
        <time>2012-10-16T13:03:29Z</time>
      </trkpt>
      <trkpt lat="47.24911" lon="5.38519">
        <ele>211</ele>
        <time>2012-10-16T13:03:30Z</time>
      </trkpt>
      <trkpt lat="47.2492" lon="5.38525">
        <ele>211</ele>
        <time>2012-10-16T13:03:31Z</time>
      </trkpt>
      <trkpt lat="47.2493" lon="5.38529">
        <ele>211</ele>
        <time>2012-10-16T13:03:32Z</time>
      </trkpt>
      <trkpt lat="47.24939" lon="5.38534">
        <ele>211</ele>
        <time>2012-10-16T13:03:33Z</time>
      </trkpt>
      <trkpt lat="47.24948" lon="5.38537">
        <ele>211</ele>
        <time>2012-10-16T13:03:34Z</time>
      </trkpt>
      <trkpt lat="47.24957" lon="5.38541">
        <ele>211</ele>
        <time>2012-10-16T13:03:35Z</time>
      </trkpt>
      <trkpt lat="47.24966" lon="5.38545">
        <ele>211</ele>
        <time>2012-10-16T13:03:36Z</time>
      </trkpt>
      <trkpt lat="47.24975" lon="5.38547">
        <ele>211</ele>
        <time>2012-10-16T13:03:37Z</time>
      </trkpt>
      <trkpt lat="47.24984" lon="5.3855">
        <ele>211</ele>
        <time>2012-10-16T13:03:38Z</time>
      </trkpt>
      <trkpt lat="47.24994" lon="5.38553">
        <ele>211</ele>
        <time>2012-10-16T13:03:39Z</time>
      </trkpt>
      <trkpt lat="47.25011" lon="5.38556">
        <ele>211</ele>
        <time>2012-10-16T13:03:41Z</time>
      </trkpt>
      <trkpt lat="47.2502" lon="5.38558">
        <ele>211</ele>
        <time>2012-10-16T13:03:42Z</time>
      </trkpt>
      <trkpt lat="47.25036" lon="5.38562">
        <ele>211</ele>
        <time>2012-10-16T13:03:44Z</time>
      </trkpt>
      <trkpt lat="47.25053" lon="5.38565">
        <ele>211</ele>
        <time>2012-10-16T13:03:46Z</time>
      </trkpt>
      <trkpt lat="47.2507" lon="5.38568">
        <ele>211</ele>
        <time>2012-10-16T13:03:48Z</time>
      </trkpt>
      <trkpt lat="47.25087" lon="5.38571">
        <ele>211</ele>
        <time>2012-10-16T13:03:50Z</time>
      </trkpt>
      <trkpt lat="47.25104" lon="5.38574">
        <ele>211</ele>
        <time>2012-10-16T13:03:52Z</time>
      </trkpt>
      <trkpt lat="47.25121" lon="5.38577">
        <ele>211</ele>
        <time>2012-10-16T13:03:54Z</time>
      </trkpt>
      <trkpt lat="47.25137" lon="5.3858">
        <ele>211</ele>
        <time>2012-10-16T13:03:56Z</time>
      </trkpt>
      <trkpt lat="47.25153" lon="5.38583">
        <ele>211</ele>
        <time>2012-10-16T13:03:58Z</time>
      </trkpt>
      <trkpt lat="47.25169" lon="5.38587">
        <ele>211</ele>
        <time>2012-10-16T13:04:00Z</time>
      </trkpt>
      <trkpt lat="47.25184" lon="5.3859">
        <ele>211</ele>
        <time>2012-10-16T13:04:02Z</time>
      </trkpt>
      <trkpt lat="47.252" lon="5.38595">
        <ele>211</ele>
        <time>2012-10-16T13:04:04Z</time>
      </trkpt>
      <trkpt lat="47.25214" lon="5.38601">
        <ele>211</ele>
        <time>2012-10-16T13:04:06Z</time>
      </trkpt>
      <trkpt lat="47.25228" lon="5.38608">
        <ele>211</ele>
        <time>2012-10-16T13:04:08Z</time>
      </trkpt>
      <trkpt lat="47.25242" lon="5.38619">
        <ele>211</ele>
        <time>2012-10-16T13:04:10Z</time>
      </trkpt>
      <trkpt lat="47.25255" lon="5.38631">
        <ele>211</ele>
        <time>2012-10-16T13:04:12Z</time>
      </trkpt>
      <trkpt lat="47.25269" lon="5.38642">
        <ele>211</ele>
        <time>2012-10-16T13:04:14Z</time>
      </trkpt>
      <trkpt lat="47.25283" lon="5.38652">
        <ele>211</ele>
        <time>2012-10-16T13:04:16Z</time>
      </trkpt>
      <trkpt lat="47.25298" lon="5.38662">
        <ele>211</ele>
        <time>2012-10-16T13:04:18Z</time>
      </trkpt>
      <trkpt lat="47.25312" lon="5.3867">
        <ele>211</ele>
        <time>2012-10-16T13:04:20Z</time>
      </trkpt>
      <trkpt lat="47.25327" lon="5.38676">
        <ele>211</ele>
        <time>2012-10-16T13:04:22Z</time>
      </trkpt>
      <trkpt lat="47.25342" lon="5.38678">
        <ele>211</ele>
        <time>2012-10-16T13:04:24Z</time>
      </trkpt>
      <trkpt lat="47.25358" lon="5.38678">
        <ele>211</ele>
        <time>2012-10-16T13:04:26Z</time>
      </trkpt>
      <trkpt lat="47.25375" lon="5.38676">
        <ele>211</ele>
        <time>2012-10-16T13:04:28Z</time>
      </trkpt>
      <trkpt lat="47.25392" lon="5.38673">
        <ele>211</ele>
        <time>2012-10-16T13:04:30Z</time>
      </trkpt>
      <trkpt lat="47.25401" lon="5.38672">
        <ele>211</ele>
        <time>2012-10-16T13:04:31Z</time>
      </trkpt>
      <trkpt lat="47.2541" lon="5.3867">
        <ele>211</ele>
        <time>2012-10-16T13:04:32Z</time>
      </trkpt>
      <trkpt lat="47.2542" lon="5.38669">
        <ele>211</ele>
        <time>2012-10-16T13:04:33Z</time>
      </trkpt>
      <trkpt lat="47.2543" lon="5.38667">
        <ele>211</ele>
        <time>2012-10-16T13:04:34Z</time>
      </trkpt>
      <trkpt lat="47.2544" lon="5.38665">
        <ele>211</ele>
        <time>2012-10-16T13:04:35Z</time>
      </trkpt>
      <trkpt lat="47.25451" lon="5.38663">
        <ele>211</ele>
        <time>2012-10-16T13:04:36Z</time>
      </trkpt>
      <trkpt lat="47.25461" lon="5.3866">
        <ele>211</ele>
        <time>2012-10-16T13:04:37Z</time>
      </trkpt>
      <trkpt lat="47.25472" lon="5.3866">
        <ele>211</ele>
        <time>2012-10-16T13:04:38Z</time>
      </trkpt>
      <trkpt lat="47.25483" lon="5.38658">
        <ele>211</ele>
        <time>2012-10-16T13:04:39Z</time>
      </trkpt>
      <trkpt lat="47.25493" lon="5.38656">
        <ele>211</ele>
        <time>2012-10-16T13:04:40Z</time>
      </trkpt>
      <trkpt lat="47.25504" lon="5.38655">
        <ele>211</ele>
        <time>2012-10-16T13:04:41Z</time>
      </trkpt>
      <trkpt lat="47.25514" lon="5.38654">
        <ele>211</ele>
        <time>2012-10-16T13:04:42Z</time>
      </trkpt>
      <trkpt lat="47.25524" lon="5.38654">
        <ele>211</ele>
        <time>2012-10-16T13:04:43Z</time>
      </trkpt>
      <trkpt lat="47.25535" lon="5.38654">
        <ele>211</ele>
        <time>2012-10-16T13:04:44Z</time>
      </trkpt>
      <trkpt lat="47.25545" lon="5.38655">
        <ele>211</ele>
        <time>2012-10-16T13:04:45Z</time>
      </trkpt>
      <trkpt lat="47.25556" lon="5.38656">
        <ele>211</ele>
        <time>2012-10-16T13:04:46Z</time>
      </trkpt>
      <trkpt lat="47.25567" lon="5.38657">
        <ele>211</ele>
        <time>2012-10-16T13:04:47Z</time>
      </trkpt>
      <trkpt lat="47.25577" lon="5.38658">
        <ele>211</ele>
        <time>2012-10-16T13:04:48Z</time>
      </trkpt>
      <trkpt lat="47.25587" lon="5.38659">
        <ele>211</ele>
        <time>2012-10-16T13:04:49Z</time>
      </trkpt>
      <trkpt lat="47.25598" lon="5.38659">
        <ele>211</ele>
        <time>2012-10-16T13:04:50Z</time>
      </trkpt>
      <trkpt lat="47.25608" lon="5.3866">
        <ele>211</ele>
        <time>2012-10-16T13:04:51Z</time>
      </trkpt>
      <trkpt lat="47.25618" lon="5.3866">
        <ele>211</ele>
        <time>2012-10-16T13:04:52Z</time>
      </trkpt>
      <trkpt lat="47.25628" lon="5.3866">
        <ele>211</ele>
        <time>2012-10-16T13:04:53Z</time>
      </trkpt>
      <trkpt lat="47.25638" lon="5.3866">
        <ele>211</ele>
        <time>2012-10-16T13:04:54Z</time>
      </trkpt>
      <trkpt lat="47.25648" lon="5.38659">
        <ele>211</ele>
        <time>2012-10-16T13:04:55Z</time>
      </trkpt>
      <trkpt lat="47.25658" lon="5.38659">
        <ele>211</ele>
        <time>2012-10-16T13:04:56Z</time>
      </trkpt>
      <trkpt lat="47.25668" lon="5.38658">
        <ele>211</ele>
        <time>2012-10-16T13:04:57Z</time>
      </trkpt>
      <trkpt lat="47.25677" lon="5.38657">
        <ele>211</ele>
        <time>2012-10-16T13:04:58Z</time>
      </trkpt>
      <trkpt lat="47.25687" lon="5.38657">
        <ele>211</ele>
        <time>2012-10-16T13:04:59Z</time>
      </trkpt>
      <trkpt lat="47.25696" lon="5.38656">
        <ele>211</ele>
        <time>2012-10-16T13:05:00Z</time>
      </trkpt>
      <trkpt lat="47.25705" lon="5.38655">
        <ele>211</ele>
        <time>2012-10-16T13:05:01Z</time>
      </trkpt>
      <trkpt lat="47.25715" lon="5.38654">
        <ele>211</ele>
        <time>2012-10-16T13:05:02Z</time>
      </trkpt>
      <trkpt lat="47.25724" lon="5.38653">
        <ele>211</ele>
        <time>2012-10-16T13:05:03Z</time>
      </trkpt>
      <trkpt lat="47.25734" lon="5.38652">
        <ele>211</ele>
        <time>2012-10-16T13:05:04Z</time>
      </trkpt>
      <trkpt lat="47.25743" lon="5.38651">
        <ele>211</ele>
        <time>2012-10-16T13:05:05Z</time>
      </trkpt>
      <trkpt lat="47.25752" lon="5.38651">
        <ele>211</ele>
        <time>2012-10-16T13:05:06Z</time>
      </trkpt>
      <trkpt lat="47.25761" lon="5.3865">
        <ele>211</ele>
        <time>2012-10-16T13:05:07Z</time>
      </trkpt>
      <trkpt lat="47.2577" lon="5.3865">
        <ele>211</ele>
        <time>2012-10-16T13:05:08Z</time>
      </trkpt>
      <trkpt lat="47.25779" lon="5.38649">
        <ele>211</ele>
        <time>2012-10-16T13:05:09Z</time>
      </trkpt>
      <trkpt lat="47.25789" lon="5.38648">
        <ele>211</ele>
        <time>2012-10-16T13:05:10Z</time>
      </trkpt>
      <trkpt lat="47.25798" lon="5.38648">
        <ele>211</ele>
        <time>2012-10-16T13:05:11Z</time>
      </trkpt>
      <trkpt lat="47.25807" lon="5.38647">
        <ele>211</ele>
        <time>2012-10-16T13:05:12Z</time>
      </trkpt>
      <trkpt lat="47.25816" lon="5.38646">
        <ele>211</ele>
        <time>2012-10-16T13:05:13Z</time>
      </trkpt>
      <trkpt lat="47.25825" lon="5.38645">
        <ele>211</ele>
        <time>2012-10-16T13:05:14Z</time>
      </trkpt>
      <trkpt lat="47.25835" lon="5.38644">
        <ele>211</ele>
        <time>2012-10-16T13:05:15Z</time>
      </trkpt>
      <trkpt lat="47.25844" lon="5.38643">
        <ele>211</ele>
        <time>2012-10-16T13:05:16Z</time>
      </trkpt>
      <trkpt lat="47.25854" lon="5.38642">
        <ele>211</ele>
        <time>2012-10-16T13:05:17Z</time>
      </trkpt>
      <trkpt lat="47.25864" lon="5.38642">
        <ele>211</ele>
        <time>2012-10-16T13:05:18Z</time>
      </trkpt>
      <trkpt lat="47.25874" lon="5.38642">
        <ele>211</ele>
        <time>2012-10-16T13:05:19Z</time>
      </trkpt>
      <trkpt lat="47.25883" lon="5.38641">
        <ele>211</ele>
        <time>2012-10-16T13:05:20Z</time>
      </trkpt>
      <trkpt lat="47.25893" lon="5.3864">
        <ele>211</ele>
        <time>2012-10-16T13:05:21Z</time>
      </trkpt>
      <trkpt lat="47.25902" lon="5.38639">
        <ele>211</ele>
        <time>2012-10-16T13:05:22Z</time>
      </trkpt>
      <trkpt lat="47.25912" lon="5.38638">
        <ele>211</ele>
        <time>2012-10-16T13:05:23Z</time>
      </trkpt>
      <trkpt lat="47.25921" lon="5.38638">
        <ele>211</ele>
        <time>2012-10-16T13:05:24Z</time>
      </trkpt>
      <trkpt lat="47.25931" lon="5.38637">
        <ele>211</ele>
        <time>2012-10-16T13:05:25Z</time>
      </trkpt>
      <trkpt lat="47.2594" lon="5.38636">
        <ele>211</ele>
        <time>2012-10-16T13:05:26Z</time>
      </trkpt>
      <trkpt lat="47.2595" lon="5.38635">
        <ele>211</ele>
        <time>2012-10-16T13:05:27Z</time>
      </trkpt>
      <trkpt lat="47.2596" lon="5.38634">
        <ele>205</ele>
        <time>2012-10-16T13:05:28Z</time>
      </trkpt>
      <trkpt lat="47.2597" lon="5.38633">
        <ele>205</ele>
        <time>2012-10-16T13:05:29Z</time>
      </trkpt>
      <trkpt lat="47.25979" lon="5.38633">
        <ele>205</ele>
        <time>2012-10-16T13:05:30Z</time>
      </trkpt>
      <trkpt lat="47.2599" lon="5.38633">
        <ele>205</ele>
        <time>2012-10-16T13:05:31Z</time>
      </trkpt>
      <trkpt lat="47.26" lon="5.38632">
        <ele>205</ele>
        <time>2012-10-16T13:05:32Z</time>
      </trkpt>
      <trkpt lat="47.26009" lon="5.38631">
        <ele>205</ele>
        <time>2012-10-16T13:05:33Z</time>
      </trkpt>
      <trkpt lat="47.2602" lon="5.3863">
        <ele>205</ele>
        <time>2012-10-16T13:05:34Z</time>
      </trkpt>
      <trkpt lat="47.2603" lon="5.38628">
        <ele>205</ele>
        <time>2012-10-16T13:05:35Z</time>
      </trkpt>
      <trkpt lat="47.2604" lon="5.38627">
        <ele>205</ele>
        <time>2012-10-16T13:05:36Z</time>
      </trkpt>
      <trkpt lat="47.2605" lon="5.38626">
        <ele>205</ele>
        <time>2012-10-16T13:05:37Z</time>
      </trkpt>
      <trkpt lat="47.2606" lon="5.38625">
        <ele>205</ele>
        <time>2012-10-16T13:05:38Z</time>
      </trkpt>
      <trkpt lat="47.26071" lon="5.38624">
        <ele>205</ele>
        <time>2012-10-16T13:05:39Z</time>
      </trkpt>
      <trkpt lat="47.26081" lon="5.38623">
        <ele>205</ele>
        <time>2012-10-16T13:05:40Z</time>
      </trkpt>
      <trkpt lat="47.26091" lon="5.38622">
        <ele>205</ele>
        <time>2012-10-16T13:05:41Z</time>
      </trkpt>
      <trkpt lat="47.26101" lon="5.38621">
        <ele>205</ele>
        <time>2012-10-16T13:05:42Z</time>
      </trkpt>
      <trkpt lat="47.26112" lon="5.3862">
        <ele>205</ele>
        <time>2012-10-16T13:05:43Z</time>
      </trkpt>
      <trkpt lat="47.26122" lon="5.38619">
        <ele>205</ele>
        <time>2012-10-16T13:05:44Z</time>
      </trkpt>
      <trkpt lat="47.26132" lon="5.38617">
        <ele>205</ele>
        <time>2012-10-16T13:05:45Z</time>
      </trkpt>
      <trkpt lat="47.26142" lon="5.38616">
        <ele>205</ele>
        <time>2012-10-16T13:05:46Z</time>
      </trkpt>
      <trkpt lat="47.26152" lon="5.38615">
        <ele>205</ele>
        <time>2012-10-16T13:05:47Z</time>
      </trkpt>
      <trkpt lat="47.26162" lon="5.38614">
        <ele>200</ele>
        <time>2012-10-16T13:05:48Z</time>
      </trkpt>
      <trkpt lat="47.26171" lon="5.38612">
        <ele>200</ele>
        <time>2012-10-16T13:05:49Z</time>
      </trkpt>
      <trkpt lat="47.26181" lon="5.38611">
        <ele>200</ele>
        <time>2012-10-16T13:05:50Z</time>
      </trkpt>
      <trkpt lat="47.2619" lon="5.38611">
        <ele>200</ele>
        <time>2012-10-16T13:05:51Z</time>
      </trkpt>
      <trkpt lat="47.262" lon="5.3861">
        <ele>200</ele>
        <time>2012-10-16T13:05:52Z</time>
      </trkpt>
      <trkpt lat="47.26209" lon="5.38612">
        <ele>200</ele>
        <time>2012-10-16T13:05:53Z</time>
      </trkpt>
      <trkpt lat="47.26218" lon="5.38614">
        <ele>200</ele>
        <time>2012-10-16T13:05:54Z</time>
      </trkpt>
      <trkpt lat="47.26227" lon="5.38615">
        <ele>200</ele>
        <time>2012-10-16T13:05:55Z</time>
      </trkpt>
      <trkpt lat="47.26236" lon="5.38616">
        <ele>200</ele>
        <time>2012-10-16T13:05:56Z</time>
      </trkpt>
      <trkpt lat="47.26253" lon="5.38623">
        <ele>200</ele>
        <time>2012-10-16T13:05:58Z</time>
      </trkpt>
      <trkpt lat="47.26271" lon="5.38628">
        <ele>200</ele>
        <time>2012-10-16T13:06:00Z</time>
      </trkpt>
      <trkpt lat="47.2628" lon="5.38631">
        <ele>200</ele>
        <time>2012-10-16T13:06:01Z</time>
      </trkpt>
      <trkpt lat="47.2629" lon="5.38633">
        <ele>200</ele>
        <time>2012-10-16T13:06:02Z</time>
      </trkpt>
      <trkpt lat="47.26299" lon="5.38634">
        <ele>200</ele>
        <time>2012-10-16T13:06:03Z</time>
      </trkpt>
      <trkpt lat="47.26316" lon="5.38639">
        <ele>200</ele>
        <time>2012-10-16T13:06:05Z</time>
      </trkpt>
      <trkpt lat="47.26332" lon="5.38644">
        <ele>200</ele>
        <time>2012-10-16T13:06:07Z</time>
      </trkpt>
      <trkpt lat="47.26349" lon="5.38649">
        <ele>200</ele>
        <time>2012-10-16T13:06:09Z</time>
      </trkpt>
      <trkpt lat="47.26365" lon="5.38652">
        <ele>200</ele>
        <time>2012-10-16T13:06:11Z</time>
      </trkpt>
      <trkpt lat="47.2638" lon="5.38656">
        <ele>200</ele>
        <time>2012-10-16T13:06:13Z</time>
      </trkpt>
      <trkpt lat="47.26395" lon="5.3866">
        <ele>200</ele>
        <time>2012-10-16T13:06:15Z</time>
      </trkpt>
      <trkpt lat="47.26411" lon="5.38662">
        <ele>200</ele>
        <time>2012-10-16T13:06:17Z</time>
      </trkpt>
      <trkpt lat="47.26426" lon="5.38666">
        <ele>200</ele>
        <time>2012-10-16T13:06:19Z</time>
      </trkpt>
      <trkpt lat="47.26441" lon="5.38668">
        <ele>200</ele>
        <time>2012-10-16T13:06:21Z</time>
      </trkpt>
      <trkpt lat="47.26456" lon="5.38665">
        <ele>200</ele>
        <time>2012-10-16T13:06:23Z</time>
      </trkpt>
      <trkpt lat="47.26471" lon="5.38662">
        <ele>200</ele>
        <time>2012-10-16T13:06:25Z</time>
      </trkpt>
      <trkpt lat="47.26486" lon="5.3866">
        <ele>200</ele>
        <time>2012-10-16T13:06:27Z</time>
      </trkpt>
      <trkpt lat="47.26501" lon="5.38657">
        <ele>200</ele>
        <time>2012-10-16T13:06:29Z</time>
      </trkpt>
      <trkpt lat="47.26516" lon="5.38654">
        <ele>200</ele>
        <time>2012-10-16T13:06:31Z</time>
      </trkpt>
      <trkpt lat="47.26531" lon="5.38651">
        <ele>200</ele>
        <time>2012-10-16T13:06:33Z</time>
      </trkpt>
      <trkpt lat="47.26545" lon="5.3865">
        <ele>200</ele>
        <time>2012-10-16T13:06:35Z</time>
      </trkpt>
      <trkpt lat="47.26559" lon="5.38647">
        <ele>200</ele>
        <time>2012-10-16T13:06:37Z</time>
      </trkpt>
      <trkpt lat="47.26574" lon="5.38643">
        <ele>200</ele>
        <time>2012-10-16T13:06:39Z</time>
      </trkpt>
      <trkpt lat="47.26588" lon="5.38638">
        <ele>200</ele>
        <time>2012-10-16T13:06:41Z</time>
      </trkpt>
      <trkpt lat="47.26603" lon="5.38632">
        <ele>200</ele>
        <time>2012-10-16T13:06:43Z</time>
      </trkpt>
      <trkpt lat="47.26617" lon="5.38625">
        <ele>200</ele>
        <time>2012-10-16T13:06:45Z</time>
      </trkpt>
      <trkpt lat="47.26633" lon="5.38619">
        <ele>200</ele>
        <time>2012-10-16T13:06:47Z</time>
      </trkpt>
      <trkpt lat="47.26648" lon="5.38613">
        <ele>200</ele>
        <time>2012-10-16T13:06:49Z</time>
      </trkpt>
      <trkpt lat="47.26663" lon="5.38607">
        <ele>200</ele>
        <time>2012-10-16T13:06:51Z</time>
      </trkpt>
      <trkpt lat="47.26678" lon="5.386">
        <ele>200</ele>
        <time>2012-10-16T13:06:53Z</time>
      </trkpt>
      <trkpt lat="47.26692" lon="5.38595">
        <ele>200</ele>
        <time>2012-10-16T13:06:55Z</time>
      </trkpt>
      <trkpt lat="47.26707" lon="5.38589">
        <ele>200</ele>
        <time>2012-10-16T13:06:57Z</time>
      </trkpt>
      <trkpt lat="47.26721" lon="5.38585">
        <ele>200</ele>
        <time>2012-10-16T13:06:59Z</time>
      </trkpt>
      <trkpt lat="47.26735" lon="5.38579">
        <ele>200</ele>
        <time>2012-10-16T13:07:01Z</time>
      </trkpt>
      <trkpt lat="47.26751" lon="5.38572">
        <ele>200</ele>
        <time>2012-10-16T13:07:03Z</time>
      </trkpt>
      <trkpt lat="47.26766" lon="5.38567">
        <ele>200</ele>
        <time>2012-10-16T13:07:05Z</time>
      </trkpt>
      <trkpt lat="47.26783" lon="5.38564">
        <ele>200</ele>
        <time>2012-10-16T13:07:07Z</time>
      </trkpt>
      <trkpt lat="47.26799" lon="5.38562">
        <ele>200</ele>
        <time>2012-10-16T13:07:09Z</time>
      </trkpt>
      <trkpt lat="47.26817" lon="5.3856">
        <ele>200</ele>
        <time>2012-10-16T13:07:11Z</time>
      </trkpt>
      <trkpt lat="47.26833" lon="5.38557">
        <ele>200</ele>
        <time>2012-10-16T13:07:13Z</time>
      </trkpt>
      <trkpt lat="47.2685" lon="5.38554">
        <ele>200</ele>
        <time>2012-10-16T13:07:15Z</time>
      </trkpt>
      <trkpt lat="47.26866" lon="5.38553">
        <ele>200</ele>
        <time>2012-10-16T13:07:17Z</time>
      </trkpt>
      <trkpt lat="47.26881" lon="5.3855">
        <ele>200</ele>
        <time>2012-10-16T13:07:19Z</time>
      </trkpt>
      <trkpt lat="47.26897" lon="5.38548">
        <ele>200</ele>
        <time>2012-10-16T13:07:21Z</time>
      </trkpt>
      <trkpt lat="47.26913" lon="5.38545">
        <ele>200</ele>
        <time>2012-10-16T13:07:23Z</time>
      </trkpt>
      <trkpt lat="47.26927" lon="5.38544">
        <ele>200</ele>
        <time>2012-10-16T13:07:25Z</time>
      </trkpt>
      <trkpt lat="47.26942" lon="5.38541">
        <ele>200</ele>
        <time>2012-10-16T13:07:27Z</time>
      </trkpt>
      <trkpt lat="47.26956" lon="5.38539">
        <ele>200</ele>
        <time>2012-10-16T13:07:29Z</time>
      </trkpt>
      <trkpt lat="47.2697" lon="5.38536">
        <ele>200</ele>
        <time>2012-10-16T13:07:31Z</time>
      </trkpt>
      <trkpt lat="47.26984" lon="5.38535">
        <ele>200</ele>
        <time>2012-10-16T13:07:33Z</time>
      </trkpt>
      <trkpt lat="47.26998" lon="5.38534">
        <ele>200</ele>
        <time>2012-10-16T13:07:35Z</time>
      </trkpt>
      <trkpt lat="47.2701" lon="5.38534">
        <ele>200</ele>
        <time>2012-10-16T13:07:37Z</time>
      </trkpt>
      <trkpt lat="47.27023" lon="5.38535">
        <ele>200</ele>
        <time>2012-10-16T13:07:39Z</time>
      </trkpt>
      <trkpt lat="47.27037" lon="5.38536">
        <ele>200</ele>
        <time>2012-10-16T13:07:41Z</time>
      </trkpt>
      <trkpt lat="47.2705" lon="5.38539">
        <ele>200</ele>
        <time>2012-10-16T13:07:43Z</time>
      </trkpt>
      <trkpt lat="47.27063" lon="5.38544">
        <ele>200</ele>
        <time>2012-10-16T13:07:45Z</time>
      </trkpt>
      <trkpt lat="47.27074" lon="5.38549">
        <ele>200</ele>
        <time>2012-10-16T13:07:47Z</time>
      </trkpt>
      <trkpt lat="47.27083" lon="5.3856">
        <ele>200</ele>
        <time>2012-10-16T13:07:49Z</time>
      </trkpt>
      <trkpt lat="47.27087" lon="5.3858">
        <ele>200</ele>
        <time>2012-10-16T13:07:51Z</time>
      </trkpt>
      <trkpt lat="47.27087" lon="5.38603">
        <ele>200</ele>
        <time>2012-10-16T13:07:53Z</time>
      </trkpt>
      <trkpt lat="47.27087" lon="5.38627">
        <ele>194</ele>
        <time>2012-10-16T13:07:55Z</time>
      </trkpt>
      <trkpt lat="47.27086" lon="5.3865">
        <ele>194</ele>
        <time>2012-10-16T13:07:57Z</time>
      </trkpt>
      <trkpt lat="47.27086" lon="5.38672">
        <ele>194</ele>
        <time>2012-10-16T13:07:59Z</time>
      </trkpt>
      <trkpt lat="47.27084" lon="5.38694">
        <ele>194</ele>
        <time>2012-10-16T13:08:01Z</time>
      </trkpt>
      <trkpt lat="47.27082" lon="5.38713">
        <ele>194</ele>
        <time>2012-10-16T13:08:03Z</time>
      </trkpt>
      <trkpt lat="47.27081" lon="5.38733">
        <ele>194</ele>
        <time>2012-10-16T13:08:05Z</time>
      </trkpt>
      <trkpt lat="47.27079" lon="5.38752">
        <ele>194</ele>
        <time>2012-10-16T13:08:07Z</time>
      </trkpt>
      <trkpt lat="47.27078" lon="5.38769">
        <ele>194</ele>
        <time>2012-10-16T13:08:09Z</time>
      </trkpt>
      <trkpt lat="47.27077" lon="5.38786">
        <ele>194</ele>
        <time>2012-10-16T13:08:11Z</time>
      </trkpt>
      <trkpt lat="47.27078" lon="5.38803">
        <ele>194</ele>
        <time>2012-10-16T13:08:13Z</time>
      </trkpt>
      <trkpt lat="47.2708" lon="5.38819">
        <ele>194</ele>
        <time>2012-10-16T13:08:15Z</time>
      </trkpt>
      <trkpt lat="47.27081" lon="5.38836">
        <ele>194</ele>
        <time>2012-10-16T13:08:17Z</time>
      </trkpt>
      <trkpt lat="47.27083" lon="5.38851">
        <ele>194</ele>
        <time>2012-10-16T13:08:19Z</time>
      </trkpt>
      <trkpt lat="47.27085" lon="5.38866">
        <ele>194</ele>
        <time>2012-10-16T13:08:21Z</time>
      </trkpt>
      <trkpt lat="47.27086" lon="5.38882">
        <ele>194</ele>
        <time>2012-10-16T13:08:23Z</time>
      </trkpt>
      <trkpt lat="47.27089" lon="5.38897">
        <ele>194</ele>
        <time>2012-10-16T13:08:25Z</time>
      </trkpt>
      <trkpt lat="47.27091" lon="5.38911">
        <ele>194</ele>
        <time>2012-10-16T13:08:27Z</time>
      </trkpt>
      <trkpt lat="47.27092" lon="5.38926">
        <ele>194</ele>
        <time>2012-10-16T13:08:29Z</time>
      </trkpt>
      <trkpt lat="47.27094" lon="5.38942">
        <ele>194</ele>
        <time>2012-10-16T13:08:31Z</time>
      </trkpt>
      <trkpt lat="47.27096" lon="5.38958">
        <ele>194</ele>
        <time>2012-10-16T13:08:33Z</time>
      </trkpt>
      <trkpt lat="47.27098" lon="5.38976">
        <ele>194</ele>
        <time>2012-10-16T13:08:35Z</time>
      </trkpt>
      <trkpt lat="47.27101" lon="5.38996">
        <ele>194</ele>
        <time>2012-10-16T13:08:37Z</time>
      </trkpt>
      <trkpt lat="47.27103" lon="5.39016">
        <ele>194</ele>
        <time>2012-10-16T13:08:39Z</time>
      </trkpt>
      <trkpt lat="47.27105" lon="5.39038">
        <ele>194</ele>
        <time>2012-10-16T13:08:41Z</time>
      </trkpt>
      <trkpt lat="47.27108" lon="5.39061">
        <ele>194</ele>
        <time>2012-10-16T13:08:43Z</time>
      </trkpt>
      <trkpt lat="47.27111" lon="5.39086">
        <ele>189</ele>
        <time>2012-10-16T13:08:45Z</time>
      </trkpt>
      <trkpt lat="47.27114" lon="5.39112">
        <ele>189</ele>
        <time>2012-10-16T13:08:47Z</time>
      </trkpt>
      <trkpt lat="47.27116" lon="5.39126">
        <ele>189</ele>
        <time>2012-10-16T13:08:48Z</time>
      </trkpt>
      <trkpt lat="47.27117" lon="5.39139">
        <ele>189</ele>
        <time>2012-10-16T13:08:49Z</time>
      </trkpt>
      <trkpt lat="47.2712" lon="5.39165">
        <ele>189</ele>
        <time>2012-10-16T13:08:51Z</time>
      </trkpt>
      <trkpt lat="47.27121" lon="5.39179">
        <ele>189</ele>
        <time>2012-10-16T13:08:52Z</time>
      </trkpt>
      <trkpt lat="47.27124" lon="5.39205">
        <ele>189</ele>
        <time>2012-10-16T13:08:54Z</time>
      </trkpt>
      <trkpt lat="47.27127" lon="5.3923">
        <ele>189</ele>
        <time>2012-10-16T13:08:56Z</time>
      </trkpt>
      <trkpt lat="47.2713" lon="5.39255">
        <ele>189</ele>
        <time>2012-10-16T13:08:58Z</time>
      </trkpt>
      <trkpt lat="47.27133" lon="5.3928">
        <ele>189</ele>
        <time>2012-10-16T13:09:00Z</time>
      </trkpt>
      <trkpt lat="47.27135" lon="5.39305">
        <ele>189</ele>
        <time>2012-10-16T13:09:02Z</time>
      </trkpt>
      <trkpt lat="47.27138" lon="5.3933">
        <ele>189</ele>
        <time>2012-10-16T13:09:04Z</time>
      </trkpt>
      <trkpt lat="47.2714" lon="5.39354">
        <ele>189</ele>
        <time>2012-10-16T13:09:06Z</time>
      </trkpt>
      <trkpt lat="47.27143" lon="5.39377">
        <ele>189</ele>
        <time>2012-10-16T13:09:08Z</time>
      </trkpt>
      <trkpt lat="47.27145" lon="5.39401">
        <ele>189</ele>
        <time>2012-10-16T13:09:10Z</time>
      </trkpt>
      <trkpt lat="47.27147" lon="5.39424">
        <ele>189</ele>
        <time>2012-10-16T13:09:12Z</time>
      </trkpt>
      <trkpt lat="47.2715" lon="5.39447">
        <ele>189</ele>
        <time>2012-10-16T13:09:14Z</time>
      </trkpt>
      <trkpt lat="47.27152" lon="5.39471">
        <ele>189</ele>
        <time>2012-10-16T13:09:16Z</time>
      </trkpt>
      <trkpt lat="47.27155" lon="5.39494">
        <ele>189</ele>
        <time>2012-10-16T13:09:18Z</time>
      </trkpt>
      <trkpt lat="47.27157" lon="5.39517">
        <ele>189</ele>
        <time>2012-10-16T13:09:20Z</time>
      </trkpt>
      <trkpt lat="47.27159" lon="5.3954">
        <ele>189</ele>
        <time>2012-10-16T13:09:22Z</time>
      </trkpt>
      <trkpt lat="47.27161" lon="5.39562">
        <ele>189</ele>
        <time>2012-10-16T13:09:24Z</time>
      </trkpt>
      <trkpt lat="47.27164" lon="5.39586">
        <ele>189</ele>
        <time>2012-10-16T13:09:26Z</time>
      </trkpt>
      <trkpt lat="47.27166" lon="5.39608">
        <ele>189</ele>
        <time>2012-10-16T13:09:28Z</time>
      </trkpt>
      <trkpt lat="47.27169" lon="5.3963">
        <ele>189</ele>
        <time>2012-10-16T13:09:30Z</time>
      </trkpt>
      <trkpt lat="47.27171" lon="5.39651">
        <ele>189</ele>
        <time>2012-10-16T13:09:32Z</time>
      </trkpt>
      <trkpt lat="47.27174" lon="5.39673">
        <ele>189</ele>
        <time>2012-10-16T13:09:34Z</time>
      </trkpt>
      <trkpt lat="47.27176" lon="5.39694">
        <ele>189</ele>
        <time>2012-10-16T13:09:36Z</time>
      </trkpt>
      <trkpt lat="47.2718" lon="5.39716">
        <ele>189</ele>
        <time>2012-10-16T13:09:38Z</time>
      </trkpt>
      <trkpt lat="47.27185" lon="5.39737">
        <ele>189</ele>
        <time>2012-10-16T13:09:40Z</time>
      </trkpt>
      <trkpt lat="47.2719" lon="5.39758">
        <ele>189</ele>
        <time>2012-10-16T13:09:42Z</time>
      </trkpt>
      <trkpt lat="47.27194" lon="5.39779">
        <ele>189</ele>
        <time>2012-10-16T13:09:44Z</time>
      </trkpt>
      <trkpt lat="47.27196" lon="5.398">
        <ele>189</ele>
        <time>2012-10-16T13:09:46Z</time>
      </trkpt>
      <trkpt lat="47.27196" lon="5.39822">
        <ele>189</ele>
        <time>2012-10-16T13:09:48Z</time>
      </trkpt>
      <trkpt lat="47.27197" lon="5.39843">
        <ele>189</ele>
        <time>2012-10-16T13:09:50Z</time>
      </trkpt>
      <trkpt lat="47.27198" lon="5.39864">
        <ele>189</ele>
        <time>2012-10-16T13:09:52Z</time>
      </trkpt>
      <trkpt lat="47.27198" lon="5.39886">
        <ele>189</ele>
        <time>2012-10-16T13:09:54Z</time>
      </trkpt>
      <trkpt lat="47.27198" lon="5.39907">
        <ele>189</ele>
        <time>2012-10-16T13:09:56Z</time>
      </trkpt>
      <trkpt lat="47.27199" lon="5.39928">
        <ele>189</ele>
        <time>2012-10-16T13:09:58Z</time>
      </trkpt>
      <trkpt lat="47.27199" lon="5.3995">
        <ele>189</ele>
        <time>2012-10-16T13:10:00Z</time>
      </trkpt>
      <trkpt lat="47.272" lon="5.39972">
        <ele>189</ele>
        <time>2012-10-16T13:10:02Z</time>
      </trkpt>
      <trkpt lat="47.272" lon="5.39993">
        <ele>189</ele>
        <time>2012-10-16T13:10:04Z</time>
      </trkpt>
      <trkpt lat="47.27201" lon="5.40014">
        <ele>189</ele>
        <time>2012-10-16T13:10:06Z</time>
      </trkpt>
      <trkpt lat="47.27201" lon="5.40036">
        <ele>189</ele>
        <time>2012-10-16T13:10:08Z</time>
      </trkpt>
      <trkpt lat="47.27202" lon="5.40057">
        <ele>189</ele>
        <time>2012-10-16T13:10:10Z</time>
      </trkpt>
      <trkpt lat="47.27202" lon="5.40079">
        <ele>189</ele>
        <time>2012-10-16T13:10:12Z</time>
      </trkpt>
      <trkpt lat="47.27203" lon="5.40101">
        <ele>189</ele>
        <time>2012-10-16T13:10:14Z</time>
      </trkpt>
      <trkpt lat="47.27204" lon="5.40124">
        <ele>189</ele>
        <time>2012-10-16T13:10:16Z</time>
      </trkpt>
      <trkpt lat="47.27204" lon="5.40146">
        <ele>189</ele>
        <time>2012-10-16T13:10:18Z</time>
      </trkpt>
      <trkpt lat="47.27205" lon="5.4017">
        <ele>189</ele>
        <time>2012-10-16T13:10:20Z</time>
      </trkpt>
      <trkpt lat="47.27205" lon="5.40193">
        <ele>189</ele>
        <time>2012-10-16T13:10:22Z</time>
      </trkpt>
      <trkpt lat="47.27207" lon="5.40216">
        <ele>189</ele>
        <time>2012-10-16T13:10:24Z</time>
      </trkpt>
      <trkpt lat="47.27207" lon="5.4024">
        <ele>189</ele>
        <time>2012-10-16T13:10:26Z</time>
      </trkpt>
      <trkpt lat="47.27208" lon="5.40263">
        <ele>189</ele>
        <time>2012-10-16T13:10:28Z</time>
      </trkpt>
      <trkpt lat="47.27209" lon="5.40285">
        <ele>189</ele>
        <time>2012-10-16T13:10:30Z</time>
      </trkpt>
      <trkpt lat="47.2721" lon="5.40308">
        <ele>189</ele>
        <time>2012-10-16T13:10:32Z</time>
      </trkpt>
      <trkpt lat="47.27211" lon="5.4033">
        <ele>189</ele>
        <time>2012-10-16T13:10:34Z</time>
      </trkpt>
      <trkpt lat="47.27212" lon="5.40352">
        <ele>189</ele>
        <time>2012-10-16T13:10:36Z</time>
      </trkpt>
      <trkpt lat="47.27212" lon="5.40374">
        <ele>189</ele>
        <time>2012-10-16T13:10:38Z</time>
      </trkpt>
      <trkpt lat="47.27213" lon="5.40396">
        <ele>189</ele>
        <time>2012-10-16T13:10:40Z</time>
      </trkpt>
      <trkpt lat="47.27212" lon="5.40418">
        <ele>189</ele>
        <time>2012-10-16T13:10:42Z</time>
      </trkpt>
      <trkpt lat="47.27209" lon="5.4044">
        <ele>189</ele>
        <time>2012-10-16T13:10:44Z</time>
      </trkpt>
      <trkpt lat="47.27203" lon="5.4046">
        <ele>189</ele>
        <time>2012-10-16T13:10:46Z</time>
      </trkpt>
      <trkpt lat="47.27194" lon="5.40476">
        <ele>189</ele>
        <time>2012-10-16T13:10:48Z</time>
      </trkpt>
      <trkpt lat="47.27182" lon="5.40489">
        <ele>189</ele>
        <time>2012-10-16T13:10:50Z</time>
      </trkpt>
      <trkpt lat="47.2717" lon="5.40502">
        <ele>189</ele>
        <time>2012-10-16T13:10:52Z</time>
      </trkpt>
      <trkpt lat="47.27157" lon="5.40514">
        <ele>189</ele>
        <time>2012-10-16T13:10:54Z</time>
      </trkpt>
      <trkpt lat="47.27145" lon="5.40526">
        <ele>189</ele>
        <time>2012-10-16T13:10:56Z</time>
      </trkpt>
      <trkpt lat="47.27133" lon="5.40539">
        <ele>189</ele>
        <time>2012-10-16T13:10:58Z</time>
      </trkpt>
      <trkpt lat="47.27122" lon="5.40553">
        <ele>189</ele>
        <time>2012-10-16T13:11:00Z</time>
      </trkpt>
      <trkpt lat="47.27111" lon="5.40568">
        <ele>189</ele>
        <time>2012-10-16T13:11:02Z</time>
      </trkpt>
      <trkpt lat="47.27102" lon="5.40584">
        <ele>189</ele>
        <time>2012-10-16T13:11:04Z</time>
      </trkpt>
      <trkpt lat="47.27094" lon="5.40602">
        <ele>189</ele>
        <time>2012-10-16T13:11:06Z</time>
      </trkpt>
      <trkpt lat="47.27086" lon="5.40621">
        <ele>189</ele>
        <time>2012-10-16T13:11:08Z</time>
      </trkpt>
      <trkpt lat="47.2708" lon="5.4064">
        <ele>189</ele>
        <time>2012-10-16T13:11:10Z</time>
      </trkpt>
      <trkpt lat="47.27075" lon="5.40661">
        <ele>189</ele>
        <time>2012-10-16T13:11:12Z</time>
      </trkpt>
      <trkpt lat="47.2707" lon="5.40682">
        <ele>189</ele>
        <time>2012-10-16T13:11:14Z</time>
      </trkpt>
      <trkpt lat="47.27065" lon="5.40703">
        <ele>189</ele>
        <time>2012-10-16T13:11:16Z</time>
      </trkpt>
      <trkpt lat="47.27062" lon="5.40724">
        <ele>189</ele>
        <time>2012-10-16T13:11:18Z</time>
      </trkpt>
      <trkpt lat="47.27059" lon="5.40745">
        <ele>189</ele>
        <time>2012-10-16T13:11:20Z</time>
      </trkpt>
      <trkpt lat="47.27056" lon="5.40768">
        <ele>189</ele>
        <time>2012-10-16T13:11:22Z</time>
      </trkpt>
      <trkpt lat="47.27054" lon="5.40789">
        <ele>189</ele>
        <time>2012-10-16T13:11:24Z</time>
      </trkpt>
      <trkpt lat="47.27052" lon="5.40812">
        <ele>189</ele>
        <time>2012-10-16T13:11:26Z</time>
      </trkpt>
      <trkpt lat="47.2705" lon="5.40834">
        <ele>189</ele>
        <time>2012-10-16T13:11:28Z</time>
      </trkpt>
      <trkpt lat="47.27048" lon="5.40857">
        <ele>189</ele>
        <time>2012-10-16T13:11:30Z</time>
      </trkpt>
      <trkpt lat="47.27045" lon="5.40879">
        <ele>189</ele>
        <time>2012-10-16T13:11:32Z</time>
      </trkpt>
      <trkpt lat="47.27043" lon="5.40901">
        <ele>189</ele>
        <time>2012-10-16T13:11:34Z</time>
      </trkpt>
      <trkpt lat="47.27041" lon="5.40923">
        <ele>189</ele>
        <time>2012-10-16T13:11:36Z</time>
      </trkpt>
      <trkpt lat="47.27039" lon="5.40946">
        <ele>189</ele>
        <time>2012-10-16T13:11:38Z</time>
      </trkpt>
      <trkpt lat="47.27036" lon="5.40968">
        <ele>189</ele>
        <time>2012-10-16T13:11:40Z</time>
      </trkpt>
      <trkpt lat="47.27033" lon="5.40991">
        <ele>189</ele>
        <time>2012-10-16T13:11:42Z</time>
      </trkpt>
      <trkpt lat="47.2703" lon="5.41012">
        <ele>189</ele>
        <time>2012-10-16T13:11:44Z</time>
      </trkpt>
      <trkpt lat="47.27027" lon="5.41034">
        <ele>189</ele>
        <time>2012-10-16T13:11:46Z</time>
      </trkpt>
      <trkpt lat="47.27024" lon="5.41055">
        <ele>189</ele>
        <time>2012-10-16T13:11:48Z</time>
      </trkpt>
      <trkpt lat="47.27021" lon="5.41078">
        <ele>189</ele>
        <time>2012-10-16T13:11:50Z</time>
      </trkpt>
      <trkpt lat="47.27018" lon="5.41099">
        <ele>189</ele>
        <time>2012-10-16T13:11:52Z</time>
      </trkpt>
      <trkpt lat="47.27015" lon="5.41121">
        <ele>189</ele>
        <time>2012-10-16T13:11:54Z</time>
      </trkpt>
      <trkpt lat="47.27012" lon="5.41142">
        <ele>189</ele>
        <time>2012-10-16T13:11:56Z</time>
      </trkpt>
      <trkpt lat="47.27009" lon="5.41164">
        <ele>189</ele>
        <time>2012-10-16T13:11:58Z</time>
      </trkpt>
      <trkpt lat="47.27006" lon="5.41186">
        <ele>189</ele>
        <time>2012-10-16T13:12:00Z</time>
      </trkpt>
      <trkpt lat="47.27003" lon="5.41207">
        <ele>189</ele>
        <time>2012-10-16T13:12:02Z</time>
      </trkpt>
      <trkpt lat="47.27" lon="5.4123">
        <ele>189</ele>
        <time>2012-10-16T13:12:04Z</time>
      </trkpt>
      <trkpt lat="47.26997" lon="5.41251">
        <ele>189</ele>
        <time>2012-10-16T13:12:06Z</time>
      </trkpt>
      <trkpt lat="47.26993" lon="5.41273">
        <ele>189</ele>
        <time>2012-10-16T13:12:08Z</time>
      </trkpt>
      <trkpt lat="47.2699" lon="5.41294">
        <ele>189</ele>
        <time>2012-10-16T13:12:10Z</time>
      </trkpt>
      <trkpt lat="47.26987" lon="5.41316">
        <ele>189</ele>
        <time>2012-10-16T13:12:12Z</time>
      </trkpt>
      <trkpt lat="47.26984" lon="5.41338">
        <ele>189</ele>
        <time>2012-10-16T13:12:14Z</time>
      </trkpt>
      <trkpt lat="47.2698" lon="5.41361">
        <ele>189</ele>
        <time>2012-10-16T13:12:16Z</time>
      </trkpt>
      <trkpt lat="47.26977" lon="5.41382">
        <ele>189</ele>
        <time>2012-10-16T13:12:18Z</time>
      </trkpt>
      <trkpt lat="47.26974" lon="5.41405">
        <ele>189</ele>
        <time>2012-10-16T13:12:20Z</time>
      </trkpt>
      <trkpt lat="47.26971" lon="5.41427">
        <ele>189</ele>
        <time>2012-10-16T13:12:22Z</time>
      </trkpt>
      <trkpt lat="47.26968" lon="5.4145">
        <ele>189</ele>
        <time>2012-10-16T13:12:24Z</time>
      </trkpt>
      <trkpt lat="47.26965" lon="5.41471">
        <ele>189</ele>
        <time>2012-10-16T13:12:26Z</time>
      </trkpt>
      <trkpt lat="47.26962" lon="5.41494">
        <ele>189</ele>
        <time>2012-10-16T13:12:28Z</time>
      </trkpt>
      <trkpt lat="47.26959" lon="5.41516">
        <ele>189</ele>
        <time>2012-10-16T13:12:30Z</time>
      </trkpt>
      <trkpt lat="47.26956" lon="5.41539">
        <ele>189</ele>
        <time>2012-10-16T13:12:32Z</time>
      </trkpt>
      <trkpt lat="47.26953" lon="5.4156">
        <ele>189</ele>
        <time>2012-10-16T13:12:34Z</time>
      </trkpt>
      <trkpt lat="47.2695" lon="5.41583">
        <ele>189</ele>
        <time>2012-10-16T13:12:36Z</time>
      </trkpt>
      <trkpt lat="47.26947" lon="5.41604">
        <ele>189</ele>
        <time>2012-10-16T13:12:38Z</time>
      </trkpt>
      <trkpt lat="47.26944" lon="5.41626">
        <ele>189</ele>
        <time>2012-10-16T13:12:40Z</time>
      </trkpt>
      <trkpt lat="47.26941" lon="5.41648">
        <ele>189</ele>
        <time>2012-10-16T13:12:42Z</time>
      </trkpt>
      <trkpt lat="47.26938" lon="5.4167">
        <ele>189</ele>
        <time>2012-10-16T13:12:44Z</time>
      </trkpt>
      <trkpt lat="47.26935" lon="5.41691">
        <ele>189</ele>
        <time>2012-10-16T13:12:46Z</time>
      </trkpt>
      <trkpt lat="47.26933" lon="5.41714">
        <ele>189</ele>
        <time>2012-10-16T13:12:48Z</time>
      </trkpt>
      <trkpt lat="47.2693" lon="5.41735">
        <ele>189</ele>
        <time>2012-10-16T13:12:50Z</time>
      </trkpt>
      <trkpt lat="47.26928" lon="5.41756">
        <ele>189</ele>
        <time>2012-10-16T13:12:52Z</time>
      </trkpt>
      <trkpt lat="47.26925" lon="5.41776">
        <ele>189</ele>
        <time>2012-10-16T13:12:54Z</time>
      </trkpt>
      <trkpt lat="47.26922" lon="5.41796">
        <ele>189</ele>
        <time>2012-10-16T13:12:56Z</time>
      </trkpt>
      <trkpt lat="47.26919" lon="5.41817">
        <ele>189</ele>
        <time>2012-10-16T13:12:58Z</time>
      </trkpt>
      <trkpt lat="47.26917" lon="5.41839">
        <ele>189</ele>
        <time>2012-10-16T13:13:00Z</time>
      </trkpt>
      <trkpt lat="47.26914" lon="5.41859">
        <ele>189</ele>
        <time>2012-10-16T13:13:02Z</time>
      </trkpt>
      <trkpt lat="47.26911" lon="5.4188">
        <ele>189</ele>
        <time>2012-10-16T13:13:04Z</time>
      </trkpt>
      <trkpt lat="47.26908" lon="5.41902">
        <ele>189</ele>
        <time>2012-10-16T13:13:06Z</time>
      </trkpt>
      <trkpt lat="47.26905" lon="5.41922">
        <ele>189</ele>
        <time>2012-10-16T13:13:08Z</time>
      </trkpt>
      <trkpt lat="47.26902" lon="5.41942">
        <ele>189</ele>
        <time>2012-10-16T13:13:10Z</time>
      </trkpt>
      <trkpt lat="47.269" lon="5.41962">
        <ele>189</ele>
        <time>2012-10-16T13:13:12Z</time>
      </trkpt>
      <trkpt lat="47.26898" lon="5.41981">
        <ele>189</ele>
        <time>2012-10-16T13:13:14Z</time>
      </trkpt>
      <trkpt lat="47.26895" lon="5.41999">
        <ele>189</ele>
        <time>2012-10-16T13:13:16Z</time>
      </trkpt>
      <trkpt lat="47.26893" lon="5.42018">
        <ele>189</ele>
        <time>2012-10-16T13:13:18Z</time>
      </trkpt>
      <trkpt lat="47.26891" lon="5.42037">
        <ele>189</ele>
        <time>2012-10-16T13:13:20Z</time>
      </trkpt>
      <trkpt lat="47.26888" lon="5.42056">
        <ele>189</ele>
        <time>2012-10-16T13:13:22Z</time>
      </trkpt>
      <trkpt lat="47.26886" lon="5.42075">
        <ele>189</ele>
        <time>2012-10-16T13:13:24Z</time>
      </trkpt>
      <trkpt lat="47.26883" lon="5.42094">
        <ele>189</ele>
        <time>2012-10-16T13:13:26Z</time>
      </trkpt>
      <trkpt lat="47.2688" lon="5.42112">
        <ele>189</ele>
        <time>2012-10-16T13:13:28Z</time>
      </trkpt>
      <trkpt lat="47.26878" lon="5.42131">
        <ele>189</ele>
        <time>2012-10-16T13:13:30Z</time>
      </trkpt>
      <trkpt lat="47.26875" lon="5.42149">
        <ele>189</ele>
        <time>2012-10-16T13:13:32Z</time>
      </trkpt>
      <trkpt lat="47.26872" lon="5.42168">
        <ele>189</ele>
        <time>2012-10-16T13:13:34Z</time>
      </trkpt>
      <trkpt lat="47.2687" lon="5.42186">
        <ele>189</ele>
        <time>2012-10-16T13:13:36Z</time>
      </trkpt>
      <trkpt lat="47.26867" lon="5.42205">
        <ele>189</ele>
        <time>2012-10-16T13:13:38Z</time>
      </trkpt>
      <trkpt lat="47.26865" lon="5.42223">
        <ele>189</ele>
        <time>2012-10-16T13:13:40Z</time>
      </trkpt>
      <trkpt lat="47.26862" lon="5.42241">
        <ele>189</ele>
        <time>2012-10-16T13:13:42Z</time>
      </trkpt>
      <trkpt lat="47.26859" lon="5.42259">
        <ele>189</ele>
        <time>2012-10-16T13:13:44Z</time>
      </trkpt>
      <trkpt lat="47.26857" lon="5.42278">
        <ele>189</ele>
        <time>2012-10-16T13:13:46Z</time>
      </trkpt>
      <trkpt lat="47.26855" lon="5.42296">
        <ele>189</ele>
        <time>2012-10-16T13:13:48Z</time>
      </trkpt>
      <trkpt lat="47.26852" lon="5.42315">
        <ele>189</ele>
        <time>2012-10-16T13:13:50Z</time>
      </trkpt>
      <trkpt lat="47.2685" lon="5.42332">
        <ele>189</ele>
        <time>2012-10-16T13:13:52Z</time>
      </trkpt>
      <trkpt lat="47.26847" lon="5.4235">
        <ele>189</ele>
        <time>2012-10-16T13:13:54Z</time>
      </trkpt>
      <trkpt lat="47.26845" lon="5.42368">
        <ele>189</ele>
        <time>2012-10-16T13:13:56Z</time>
      </trkpt>
      <trkpt lat="47.26842" lon="5.42386">
        <ele>189</ele>
        <time>2012-10-16T13:13:58Z</time>
      </trkpt>
      <trkpt lat="47.2684" lon="5.42404">
        <ele>189</ele>
        <time>2012-10-16T13:14:00Z</time>
      </trkpt>
      <trkpt lat="47.26837" lon="5.42422">
        <ele>189</ele>
        <time>2012-10-16T13:14:02Z</time>
      </trkpt>
      <trkpt lat="47.26834" lon="5.4244">
        <ele>189</ele>
        <time>2012-10-16T13:14:04Z</time>
      </trkpt>
      <trkpt lat="47.26831" lon="5.42458">
        <ele>189</ele>
        <time>2012-10-16T13:14:06Z</time>
      </trkpt>
      <trkpt lat="47.26829" lon="5.42476">
        <ele>189</ele>
        <time>2012-10-16T13:14:08Z</time>
      </trkpt>
      <trkpt lat="47.26826" lon="5.42494">
        <ele>189</ele>
        <time>2012-10-16T13:14:10Z</time>
      </trkpt>
      <trkpt lat="47.26823" lon="5.42511">
        <ele>189</ele>
        <time>2012-10-16T13:14:12Z</time>
      </trkpt>
      <trkpt lat="47.2682" lon="5.42529">
        <ele>189</ele>
        <time>2012-10-16T13:14:14Z</time>
      </trkpt>
      <trkpt lat="47.26818" lon="5.42547">
        <ele>189</ele>
        <time>2012-10-16T13:14:16Z</time>
      </trkpt>
      <trkpt lat="47.26815" lon="5.42565">
        <ele>189</ele>
        <time>2012-10-16T13:14:18Z</time>
      </trkpt>
      <trkpt lat="47.26812" lon="5.42584">
        <ele>189</ele>
        <time>2012-10-16T13:14:20Z</time>
      </trkpt>
      <trkpt lat="47.26809" lon="5.42604">
        <ele>189</ele>
        <time>2012-10-16T13:14:22Z</time>
      </trkpt>
      <trkpt lat="47.26806" lon="5.42625">
        <ele>189</ele>
        <time>2012-10-16T13:14:24Z</time>
      </trkpt>
      <trkpt lat="47.26803" lon="5.42646">
        <ele>189</ele>
        <time>2012-10-16T13:14:26Z</time>
      </trkpt>
      <trkpt lat="47.26799" lon="5.42668">
        <ele>189</ele>
        <time>2012-10-16T13:14:28Z</time>
      </trkpt>
      <trkpt lat="47.26796" lon="5.42688">
        <ele>189</ele>
        <time>2012-10-16T13:14:30Z</time>
      </trkpt>
      <trkpt lat="47.26793" lon="5.42709">
        <ele>189</ele>
        <time>2012-10-16T13:14:32Z</time>
      </trkpt>
      <trkpt lat="47.2679" lon="5.42729">
        <ele>189</ele>
        <time>2012-10-16T13:14:34Z</time>
      </trkpt>
      <trkpt lat="47.26787" lon="5.42749">
        <ele>189</ele>
        <time>2012-10-16T13:14:36Z</time>
      </trkpt>
      <trkpt lat="47.26784" lon="5.42769">
        <ele>189</ele>
        <time>2012-10-16T13:14:38Z</time>
      </trkpt>
      <trkpt lat="47.26781" lon="5.42789">
        <ele>189</ele>
        <time>2012-10-16T13:14:40Z</time>
      </trkpt>
      <trkpt lat="47.26779" lon="5.42809">
        <ele>189</ele>
        <time>2012-10-16T13:14:42Z</time>
      </trkpt>
      <trkpt lat="47.26776" lon="5.42829">
        <ele>189</ele>
        <time>2012-10-16T13:14:44Z</time>
      </trkpt>
      <trkpt lat="47.26773" lon="5.42848">
        <ele>189</ele>
        <time>2012-10-16T13:14:46Z</time>
      </trkpt>
      <trkpt lat="47.26771" lon="5.42869">
        <ele>189</ele>
        <time>2012-10-16T13:14:48Z</time>
      </trkpt>
      <trkpt lat="47.26768" lon="5.42889">
        <ele>189</ele>
        <time>2012-10-16T13:14:50Z</time>
      </trkpt>
      <trkpt lat="47.26765" lon="5.42909">
        <ele>189</ele>
        <time>2012-10-16T13:14:52Z</time>
      </trkpt>
      <trkpt lat="47.26762" lon="5.4293">
        <ele>189</ele>
        <time>2012-10-16T13:14:54Z</time>
      </trkpt>
      <trkpt lat="47.26759" lon="5.42951">
        <ele>189</ele>
        <time>2012-10-16T13:14:56Z</time>
      </trkpt>
      <trkpt lat="47.26756" lon="5.42972">
        <ele>189</ele>
        <time>2012-10-16T13:14:58Z</time>
      </trkpt>
      <trkpt lat="47.26753" lon="5.42993">
        <ele>189</ele>
        <time>2012-10-16T13:15:00Z</time>
      </trkpt>
      <trkpt lat="47.26751" lon="5.43013">
        <ele>189</ele>
        <time>2012-10-16T13:15:02Z</time>
      </trkpt>
      <trkpt lat="47.26748" lon="5.43032">
        <ele>189</ele>
        <time>2012-10-16T13:15:04Z</time>
      </trkpt>
      <trkpt lat="47.26742" lon="5.43049">
        <ele>189</ele>
        <time>2012-10-16T13:15:06Z</time>
      </trkpt>
      <trkpt lat="47.26731" lon="5.43061">
        <ele>189</ele>
        <time>2012-10-16T13:15:08Z</time>
      </trkpt>
      <trkpt lat="47.26717" lon="5.4307">
        <ele>189</ele>
        <time>2012-10-16T13:15:10Z</time>
      </trkpt>
      <trkpt lat="47.26703" lon="5.43079">
        <ele>189</ele>
        <time>2012-10-16T13:15:12Z</time>
      </trkpt>
      <trkpt lat="47.2669" lon="5.43088">
        <ele>189</ele>
        <time>2012-10-16T13:15:14Z</time>
      </trkpt>
      <trkpt lat="47.26677" lon="5.43098">
        <ele>189</ele>
        <time>2012-10-16T13:15:16Z</time>
      </trkpt>
      <trkpt lat="47.26665" lon="5.43109">
        <ele>189</ele>
        <time>2012-10-16T13:15:18Z</time>
      </trkpt>
      <trkpt lat="47.26653" lon="5.43121">
        <ele>189</ele>
        <time>2012-10-16T13:15:20Z</time>
      </trkpt>
      <trkpt lat="47.26642" lon="5.43133">
        <ele>189</ele>
        <time>2012-10-16T13:15:22Z</time>
      </trkpt>
      <trkpt lat="47.26631" lon="5.43148">
        <ele>189</ele>
        <time>2012-10-16T13:15:24Z</time>
      </trkpt>
      <trkpt lat="47.26622" lon="5.43165">
        <ele>189</ele>
        <time>2012-10-16T13:15:26Z</time>
      </trkpt>
      <trkpt lat="47.26613" lon="5.43182">
        <ele>189</ele>
        <time>2012-10-16T13:15:28Z</time>
      </trkpt>
      <trkpt lat="47.26604" lon="5.432">
        <ele>189</ele>
        <time>2012-10-16T13:15:30Z</time>
      </trkpt>
      <trkpt lat="47.26594" lon="5.43217">
        <ele>189</ele>
        <time>2012-10-16T13:15:32Z</time>
      </trkpt>
      <trkpt lat="47.26585" lon="5.43234">
        <ele>189</ele>
        <time>2012-10-16T13:15:34Z</time>
      </trkpt>
      <trkpt lat="47.26576" lon="5.43251">
        <ele>189</ele>
        <time>2012-10-16T13:15:36Z</time>
      </trkpt>
      <trkpt lat="47.26568" lon="5.4327">
        <ele>189</ele>
        <time>2012-10-16T13:15:38Z</time>
      </trkpt>
      <trkpt lat="47.26558" lon="5.43287">
        <ele>189</ele>
        <time>2012-10-16T13:15:40Z</time>
      </trkpt>
      <trkpt lat="47.26548" lon="5.43305">
        <ele>189</ele>
        <time>2012-10-16T13:15:42Z</time>
      </trkpt>
      <trkpt lat="47.26539" lon="5.43323">
        <ele>195</ele>
        <time>2012-10-16T13:15:44Z</time>
      </trkpt>
      <trkpt lat="47.26527" lon="5.4334">
        <ele>195</ele>
        <time>2012-10-16T13:15:46Z</time>
      </trkpt>
      <trkpt lat="47.26518" lon="5.43358">
        <ele>195</ele>
        <time>2012-10-16T13:15:48Z</time>
      </trkpt>
      <trkpt lat="47.26508" lon="5.43376">
        <ele>195</ele>
        <time>2012-10-16T13:15:50Z</time>
      </trkpt>
      <trkpt lat="47.265" lon="5.43394">
        <ele>195</ele>
        <time>2012-10-16T13:15:52Z</time>
      </trkpt>
      <trkpt lat="47.26491" lon="5.43412">
        <ele>195</ele>
        <time>2012-10-16T13:15:54Z</time>
      </trkpt>
      <trkpt lat="47.26483" lon="5.4343">
        <ele>195</ele>
        <time>2012-10-16T13:15:56Z</time>
      </trkpt>
      <trkpt lat="47.26475" lon="5.43449">
        <ele>195</ele>
        <time>2012-10-16T13:15:58Z</time>
      </trkpt>
      <trkpt lat="47.26467" lon="5.43469">
        <ele>195</ele>
        <time>2012-10-16T13:16:00Z</time>
      </trkpt>
      <trkpt lat="47.2646" lon="5.43489">
        <ele>195</ele>
        <time>2012-10-16T13:16:02Z</time>
      </trkpt>
      <trkpt lat="47.26452" lon="5.43509">
        <ele>195</ele>
        <time>2012-10-16T13:16:04Z</time>
      </trkpt>
      <trkpt lat="47.26444" lon="5.4353">
        <ele>195</ele>
        <time>2012-10-16T13:16:06Z</time>
      </trkpt>
      <trkpt lat="47.26435" lon="5.4355">
        <ele>195</ele>
        <time>2012-10-16T13:16:08Z</time>
      </trkpt>
      <trkpt lat="47.26426" lon="5.43569">
        <ele>195</ele>
        <time>2012-10-16T13:16:10Z</time>
      </trkpt>
      <trkpt lat="47.26417" lon="5.43588">
        <ele>195</ele>
        <time>2012-10-16T13:16:12Z</time>
      </trkpt>
      <trkpt lat="47.26407" lon="5.43607">
        <ele>195</ele>
        <time>2012-10-16T13:16:14Z</time>
      </trkpt>
      <trkpt lat="47.26397" lon="5.43625">
        <ele>195</ele>
        <time>2012-10-16T13:16:16Z</time>
      </trkpt>
      <trkpt lat="47.26387" lon="5.43642">
        <ele>195</ele>
        <time>2012-10-16T13:16:18Z</time>
      </trkpt>
      <trkpt lat="47.26377" lon="5.4366">
        <ele>195</ele>
        <time>2012-10-16T13:16:20Z</time>
      </trkpt>
      <trkpt lat="47.26367" lon="5.43678">
        <ele>195</ele>
        <time>2012-10-16T13:16:22Z</time>
      </trkpt>
      <trkpt lat="47.26358" lon="5.43697">
        <ele>195</ele>
        <time>2012-10-16T13:16:24Z</time>
      </trkpt>
      <trkpt lat="47.26349" lon="5.43716">
        <ele>195</ele>
        <time>2012-10-16T13:16:26Z</time>
      </trkpt>
      <trkpt lat="47.2634" lon="5.43735">
        <ele>195</ele>
        <time>2012-10-16T13:16:28Z</time>
      </trkpt>
      <trkpt lat="47.26332" lon="5.43755">
        <ele>195</ele>
        <time>2012-10-16T13:16:30Z</time>
      </trkpt>
      <trkpt lat="47.26327" lon="5.43776">
        <ele>195</ele>
        <time>2012-10-16T13:16:32Z</time>
      </trkpt>
      <trkpt lat="47.26325" lon="5.43799">
        <ele>195</ele>
        <time>2012-10-16T13:16:34Z</time>
      </trkpt>
      <trkpt lat="47.26326" lon="5.43821">
        <ele>195</ele>
        <time>2012-10-16T13:16:36Z</time>
      </trkpt>
      <trkpt lat="47.26326" lon="5.43845">
        <ele>195</ele>
        <time>2012-10-16T13:16:38Z</time>
      </trkpt>
      <trkpt lat="47.26327" lon="5.43868">
        <ele>189</ele>
        <time>2012-10-16T13:16:40Z</time>
      </trkpt>
      <trkpt lat="47.26329" lon="5.43891">
        <ele>189</ele>
        <time>2012-10-16T13:16:42Z</time>
      </trkpt>
      <trkpt lat="47.2633" lon="5.43916">
        <ele>189</ele>
        <time>2012-10-16T13:16:44Z</time>
      </trkpt>
      <trkpt lat="47.26331" lon="5.43939">
        <ele>189</ele>
        <time>2012-10-16T13:16:46Z</time>
      </trkpt>
      <trkpt lat="47.26332" lon="5.43963">
        <ele>189</ele>
        <time>2012-10-16T13:16:48Z</time>
      </trkpt>
      <trkpt lat="47.26333" lon="5.43987">
        <ele>189</ele>
        <time>2012-10-16T13:16:50Z</time>
      </trkpt>
      <trkpt lat="47.26334" lon="5.44011">
        <ele>189</ele>
        <time>2012-10-16T13:16:52Z</time>
      </trkpt>
      <trkpt lat="47.26336" lon="5.44034">
        <ele>189</ele>
        <time>2012-10-16T13:16:54Z</time>
      </trkpt>
      <trkpt lat="47.26337" lon="5.44058">
        <ele>189</ele>
        <time>2012-10-16T13:16:56Z</time>
      </trkpt>
      <trkpt lat="47.2634" lon="5.44081">
        <ele>189</ele>
        <time>2012-10-16T13:16:58Z</time>
      </trkpt>
      <trkpt lat="47.26345" lon="5.44104">
        <ele>189</ele>
        <time>2012-10-16T13:17:00Z</time>
      </trkpt>
      <trkpt lat="47.26352" lon="5.44127">
        <ele>189</ele>
        <time>2012-10-16T13:17:02Z</time>
      </trkpt>
      <trkpt lat="47.26356" lon="5.44138">
        <ele>189</ele>
        <time>2012-10-16T13:17:03Z</time>
      </trkpt>
      <trkpt lat="47.26364" lon="5.44161">
        <ele>189</ele>
        <time>2012-10-16T13:17:05Z</time>
      </trkpt>
      <trkpt lat="47.26373" lon="5.44183">
        <ele>189</ele>
        <time>2012-10-16T13:17:07Z</time>
      </trkpt>
      <trkpt lat="47.26378" lon="5.44195">
        <ele>189</ele>
        <time>2012-10-16T13:17:08Z</time>
      </trkpt>
      <trkpt lat="47.26382" lon="5.44207">
        <ele>189</ele>
        <time>2012-10-16T13:17:09Z</time>
      </trkpt>
      <trkpt lat="47.2639" lon="5.44229">
        <ele>189</ele>
        <time>2012-10-16T13:17:11Z</time>
      </trkpt>
      <trkpt lat="47.26398" lon="5.44252">
        <ele>189</ele>
        <time>2012-10-16T13:17:13Z</time>
      </trkpt>
      <trkpt lat="47.26406" lon="5.44276">
        <ele>189</ele>
        <time>2012-10-16T13:17:15Z</time>
      </trkpt>
      <trkpt lat="47.26412" lon="5.44299">
        <ele>189</ele>
        <time>2012-10-16T13:17:17Z</time>
      </trkpt>
      <trkpt lat="47.26419" lon="5.44323">
        <ele>189</ele>
        <time>2012-10-16T13:17:19Z</time>
      </trkpt>
      <trkpt lat="47.26425" lon="5.44346">
        <ele>189</ele>
        <time>2012-10-16T13:17:21Z</time>
      </trkpt>
      <trkpt lat="47.26428" lon="5.44358">
        <ele>189</ele>
        <time>2012-10-16T13:17:22Z</time>
      </trkpt>
      <trkpt lat="47.26435" lon="5.44382">
        <ele>189</ele>
        <time>2012-10-16T13:17:24Z</time>
      </trkpt>
      <trkpt lat="47.26441" lon="5.44405">
        <ele>189</ele>
        <time>2012-10-16T13:17:26Z</time>
      </trkpt>
      <trkpt lat="47.26445" lon="5.44418">
        <ele>189</ele>
        <time>2012-10-16T13:17:27Z</time>
      </trkpt>
      <trkpt lat="47.26451" lon="5.44441">
        <ele>189</ele>
        <time>2012-10-16T13:17:29Z</time>
      </trkpt>
      <trkpt lat="47.26457" lon="5.44464">
        <ele>189</ele>
        <time>2012-10-16T13:17:31Z</time>
      </trkpt>
      <trkpt lat="47.26463" lon="5.44488">
        <ele>189</ele>
        <time>2012-10-16T13:17:33Z</time>
      </trkpt>
      <trkpt lat="47.26469" lon="5.44511">
        <ele>189</ele>
        <time>2012-10-16T13:17:35Z</time>
      </trkpt>
      <trkpt lat="47.26472" lon="5.44524">
        <ele>189</ele>
        <time>2012-10-16T13:17:36Z</time>
      </trkpt>
      <trkpt lat="47.26477" lon="5.44547">
        <ele>189</ele>
        <time>2012-10-16T13:17:38Z</time>
      </trkpt>
      <trkpt lat="47.26483" lon="5.4457">
        <ele>189</ele>
        <time>2012-10-16T13:17:40Z</time>
      </trkpt>
      <trkpt lat="47.26489" lon="5.44594">
        <ele>189</ele>
        <time>2012-10-16T13:17:42Z</time>
      </trkpt>
      <trkpt lat="47.26493" lon="5.44618">
        <ele>189</ele>
        <time>2012-10-16T13:17:44Z</time>
      </trkpt>
      <trkpt lat="47.26495" lon="5.44643">
        <ele>189</ele>
        <time>2012-10-16T13:17:46Z</time>
      </trkpt>
      <trkpt lat="47.26494" lon="5.44667">
        <ele>189</ele>
        <time>2012-10-16T13:17:48Z</time>
      </trkpt>
      <trkpt lat="47.26494" lon="5.44689">
        <ele>189</ele>
        <time>2012-10-16T13:17:50Z</time>
      </trkpt>
      <trkpt lat="47.26494" lon="5.44711">
        <ele>189</ele>
        <time>2012-10-16T13:17:52Z</time>
      </trkpt>
      <trkpt lat="47.26498" lon="5.44733">
        <ele>189</ele>
        <time>2012-10-16T13:17:54Z</time>
      </trkpt>
      <trkpt lat="47.26505" lon="5.44756">
        <ele>189</ele>
        <time>2012-10-16T13:17:56Z</time>
      </trkpt>
      <trkpt lat="47.26515" lon="5.44774">
        <ele>189</ele>
        <time>2012-10-16T13:17:58Z</time>
      </trkpt>
      <trkpt lat="47.26526" lon="5.44791">
        <ele>189</ele>
        <time>2012-10-16T13:18:00Z</time>
      </trkpt>
      <trkpt lat="47.26538" lon="5.44808">
        <ele>189</ele>
        <time>2012-10-16T13:18:02Z</time>
      </trkpt>
      <trkpt lat="47.2655" lon="5.44824">
        <ele>189</ele>
        <time>2012-10-16T13:18:04Z</time>
      </trkpt>
      <trkpt lat="47.26561" lon="5.4484">
        <ele>189</ele>
        <time>2012-10-16T13:18:06Z</time>
      </trkpt>
      <trkpt lat="47.26571" lon="5.44856">
        <ele>189</ele>
        <time>2012-10-16T13:18:08Z</time>
      </trkpt>
      <trkpt lat="47.26583" lon="5.4487">
        <ele>189</ele>
        <time>2012-10-16T13:18:10Z</time>
      </trkpt>
      <trkpt lat="47.26594" lon="5.44885">
        <ele>189</ele>
        <time>2012-10-16T13:18:12Z</time>
      </trkpt>
      <trkpt lat="47.26606" lon="5.44898">
        <ele>189</ele>
        <time>2012-10-16T13:18:14Z</time>
      </trkpt>
      <trkpt lat="47.26617" lon="5.44911">
        <ele>189</ele>
        <time>2012-10-16T13:18:16Z</time>
      </trkpt>
      <trkpt lat="47.26628" lon="5.44922">
        <ele>189</ele>
        <time>2012-10-16T13:18:18Z</time>
      </trkpt>
      <trkpt lat="47.26639" lon="5.44932">
        <ele>189</ele>
        <time>2012-10-16T13:18:20Z</time>
      </trkpt>
      <trkpt lat="47.26651" lon="5.44944">
        <ele>189</ele>
        <time>2012-10-16T13:18:22Z</time>
      </trkpt>
      <trkpt lat="47.26662" lon="5.44956">
        <ele>189</ele>
        <time>2012-10-16T13:18:24Z</time>
      </trkpt>
      <trkpt lat="47.26672" lon="5.44968">
        <ele>189</ele>
        <time>2012-10-16T13:18:26Z</time>
      </trkpt>
      <trkpt lat="47.2668" lon="5.44982">
        <ele>189</ele>
        <time>2012-10-16T13:18:28Z</time>
      </trkpt>
      <trkpt lat="47.26688" lon="5.44998">
        <ele>189</ele>
        <time>2012-10-16T13:18:30Z</time>
      </trkpt>
      <trkpt lat="47.26693" lon="5.45014">
        <ele>189</ele>
        <time>2012-10-16T13:18:32Z</time>
      </trkpt>
      <trkpt lat="47.26696" lon="5.45031">
        <ele>189</ele>
        <time>2012-10-16T13:18:34Z</time>
      </trkpt>
      <trkpt lat="47.26694" lon="5.45049">
        <ele>189</ele>
        <time>2012-10-16T13:18:36Z</time>
      </trkpt>
      <trkpt lat="47.26689" lon="5.45067">
        <ele>189</ele>
        <time>2012-10-16T13:18:38Z</time>
      </trkpt>
      <trkpt lat="47.26686" lon="5.45085">
        <ele>189</ele>
        <time>2012-10-16T13:18:40Z</time>
      </trkpt>
      <trkpt lat="47.26683" lon="5.45102">
        <ele>189</ele>
        <time>2012-10-16T13:18:42Z</time>
      </trkpt>
      <trkpt lat="47.26681" lon="5.45118">
        <ele>189</ele>
        <time>2012-10-16T13:18:44Z</time>
      </trkpt>
      <trkpt lat="47.26681" lon="5.45134">
        <ele>189</ele>
        <time>2012-10-16T13:18:46Z</time>
      </trkpt>
      <trkpt lat="47.2668" lon="5.45149">
        <ele>189</ele>
        <time>2012-10-16T13:18:48Z</time>
      </trkpt>
      <trkpt lat="47.26677" lon="5.45164">
        <ele>189</ele>
        <time>2012-10-16T13:18:51Z</time>
      </trkpt>
      <trkpt lat="47.26663" lon="5.45167">
        <ele>189</ele>
        <time>2012-10-16T13:18:54Z</time>
      </trkpt>
      <trkpt lat="47.26652" lon="5.45165">
        <ele>189</ele>
        <time>2012-10-16T13:18:56Z</time>
      </trkpt>
      <trkpt lat="47.26639" lon="5.45165">
        <ele>189</ele>
        <time>2012-10-16T13:18:58Z</time>
      </trkpt>
      <trkpt lat="47.26626" lon="5.45165">
        <ele>189</ele>
        <time>2012-10-16T13:19:00Z</time>
      </trkpt>
      <trkpt lat="47.26613" lon="5.45164">
        <ele>189</ele>
        <time>2012-10-16T13:19:02Z</time>
      </trkpt>
      <trkpt lat="47.266" lon="5.45163">
        <ele>189</ele>
        <time>2012-10-16T13:19:04Z</time>
      </trkpt>
      <trkpt lat="47.26586" lon="5.45162">
        <ele>189</ele>
        <time>2012-10-16T13:19:06Z</time>
      </trkpt>
      <trkpt lat="47.26573" lon="5.45161">
        <ele>189</ele>
        <time>2012-10-16T13:19:08Z</time>
      </trkpt>
      <trkpt lat="47.2656" lon="5.4516">
        <ele>189</ele>
        <time>2012-10-16T13:19:10Z</time>
      </trkpt>
      <trkpt lat="47.26548" lon="5.4516">
        <ele>189</ele>
        <time>2012-10-16T13:19:12Z</time>
      </trkpt>
      <trkpt lat="47.26536" lon="5.45162">
        <ele>189</ele>
        <time>2012-10-16T13:19:14Z</time>
      </trkpt>
      <trkpt lat="47.26523" lon="5.45168">
        <ele>189</ele>
        <time>2012-10-16T13:19:16Z</time>
      </trkpt>
      <trkpt lat="47.2651" lon="5.45178">
        <ele>189</ele>
        <time>2012-10-16T13:19:18Z</time>
      </trkpt>
      <trkpt lat="47.26498" lon="5.45189">
        <ele>189</ele>
        <time>2012-10-16T13:19:20Z</time>
      </trkpt>
      <trkpt lat="47.26486" lon="5.452">
        <ele>189</ele>
        <time>2012-10-16T13:19:22Z</time>
      </trkpt>
      <trkpt lat="47.26473" lon="5.45209">
        <ele>189</ele>
        <time>2012-10-16T13:19:24Z</time>
      </trkpt>
      <trkpt lat="47.2646" lon="5.45216">
        <ele>189</ele>
        <time>2012-10-16T13:19:26Z</time>
      </trkpt>
      <trkpt lat="47.26445" lon="5.45221">
        <ele>189</ele>
        <time>2012-10-16T13:19:28Z</time>
      </trkpt>
      <trkpt lat="47.26431" lon="5.45224">
        <ele>189</ele>
        <time>2012-10-16T13:19:30Z</time>
      </trkpt>
      <trkpt lat="47.26417" lon="5.45226">
        <ele>189</ele>
        <time>2012-10-16T13:19:32Z</time>
      </trkpt>
      <trkpt lat="47.26403" lon="5.45228">
        <ele>189</ele>
        <time>2012-10-16T13:19:34Z</time>
      </trkpt>
      <trkpt lat="47.26389" lon="5.4523">
        <ele>189</ele>
        <time>2012-10-16T13:19:36Z</time>
      </trkpt>
      <trkpt lat="47.26376" lon="5.45231">
        <ele>189</ele>
        <time>2012-10-16T13:19:38Z</time>
      </trkpt>
      <trkpt lat="47.26362" lon="5.45233">
        <ele>189</ele>
        <time>2012-10-16T13:19:40Z</time>
      </trkpt>
      <trkpt lat="47.26349" lon="5.45235">
        <ele>189</ele>
        <time>2012-10-16T13:19:42Z</time>
      </trkpt>
      <trkpt lat="47.26336" lon="5.45238">
        <ele>189</ele>
        <time>2012-10-16T13:19:44Z</time>
      </trkpt>
      <trkpt lat="47.26323" lon="5.45241">
        <ele>189</ele>
        <time>2012-10-16T13:19:46Z</time>
      </trkpt>
      <trkpt lat="47.2631" lon="5.45244">
        <ele>189</ele>
        <time>2012-10-16T13:19:48Z</time>
      </trkpt>
      <trkpt lat="47.26297" lon="5.45248">
        <ele>189</ele>
        <time>2012-10-16T13:19:50Z</time>
      </trkpt>
      <trkpt lat="47.26285" lon="5.45252">
        <ele>189</ele>
        <time>2012-10-16T13:19:52Z</time>
      </trkpt>
      <trkpt lat="47.26273" lon="5.45258">
        <ele>189</ele>
        <time>2012-10-16T13:19:54Z</time>
      </trkpt>
      <trkpt lat="47.26261" lon="5.45263">
        <ele>189</ele>
        <time>2012-10-16T13:19:56Z</time>
      </trkpt>
      <trkpt lat="47.26249" lon="5.45268">
        <ele>189</ele>
        <time>2012-10-16T13:19:58Z</time>
      </trkpt>
      <trkpt lat="47.26238" lon="5.45274">
        <ele>189</ele>
        <time>2012-10-16T13:20:00Z</time>
      </trkpt>
      <trkpt lat="47.26227" lon="5.4528">
        <ele>189</ele>
        <time>2012-10-16T13:20:02Z</time>
      </trkpt>
      <trkpt lat="47.26216" lon="5.45286">
        <ele>189</ele>
        <time>2012-10-16T13:20:04Z</time>
      </trkpt>
      <trkpt lat="47.26206" lon="5.45294">
        <ele>189</ele>
        <time>2012-10-16T13:20:06Z</time>
      </trkpt>
      <trkpt lat="47.26197" lon="5.45303">
        <ele>189</ele>
        <time>2012-10-16T13:20:08Z</time>
      </trkpt>
      <trkpt lat="47.26189" lon="5.45312">
        <ele>189</ele>
        <time>2012-10-16T13:20:10Z</time>
      </trkpt>
      <trkpt lat="47.26181" lon="5.45323">
        <ele>195</ele>
        <time>2012-10-16T13:20:12Z</time>
      </trkpt>
      <trkpt lat="47.26173" lon="5.45333">
        <ele>195</ele>
        <time>2012-10-16T13:20:14Z</time>
      </trkpt>
      <trkpt lat="47.26165" lon="5.45344">
        <ele>195</ele>
        <time>2012-10-16T13:20:16Z</time>
      </trkpt>
      <trkpt lat="47.26158" lon="5.45355">
        <ele>195</ele>
        <time>2012-10-16T13:20:18Z</time>
      </trkpt>
      <trkpt lat="47.26151" lon="5.45365">
        <ele>195</ele>
        <time>2012-10-16T13:20:20Z</time>
      </trkpt>
      <trkpt lat="47.26145" lon="5.45376">
        <ele>195</ele>
        <time>2012-10-16T13:20:22Z</time>
      </trkpt>
      <trkpt lat="47.26137" lon="5.45386">
        <ele>200</ele>
        <time>2012-10-16T13:20:24Z</time>
      </trkpt>
      <trkpt lat="47.2613" lon="5.45396">
        <ele>200</ele>
        <time>2012-10-16T13:20:26Z</time>
      </trkpt>
      <trkpt lat="47.26123" lon="5.45407">
        <ele>200</ele>
        <time>2012-10-16T13:20:28Z</time>
      </trkpt>
      <trkpt lat="47.26116" lon="5.45417">
        <ele>200</ele>
        <time>2012-10-16T13:20:30Z</time>
      </trkpt>
      <trkpt lat="47.26108" lon="5.45427">
        <ele>200</ele>
        <time>2012-10-16T13:20:32Z</time>
      </trkpt>
      <trkpt lat="47.26102" lon="5.45438">
        <ele>200</ele>
        <time>2012-10-16T13:20:34Z</time>
      </trkpt>
      <trkpt lat="47.26094" lon="5.45448">
        <ele>200</ele>
        <time>2012-10-16T13:20:36Z</time>
      </trkpt>
      <trkpt lat="47.26086" lon="5.45458">
        <ele>200</ele>
        <time>2012-10-16T13:20:38Z</time>
      </trkpt>
      <trkpt lat="47.26079" lon="5.45469">
        <ele>200</ele>
        <time>2012-10-16T13:20:40Z</time>
      </trkpt>
      <trkpt lat="47.26071" lon="5.4548">
        <ele>200</ele>
        <time>2012-10-16T13:20:42Z</time>
      </trkpt>
      <trkpt lat="47.26063" lon="5.45491">
        <ele>200</ele>
        <time>2012-10-16T13:20:44Z</time>
      </trkpt>
      <trkpt lat="47.26057" lon="5.45502">
        <ele>200</ele>
        <time>2012-10-16T13:20:46Z</time>
      </trkpt>
      <trkpt lat="47.26049" lon="5.45513">
        <ele>200</ele>
        <time>2012-10-16T13:20:48Z</time>
      </trkpt>
      <trkpt lat="47.26041" lon="5.45523">
        <ele>205</ele>
        <time>2012-10-16T13:20:50Z</time>
      </trkpt>
      <trkpt lat="47.26034" lon="5.45533">
        <ele>205</ele>
        <time>2012-10-16T13:20:52Z</time>
      </trkpt>
      <trkpt lat="47.26028" lon="5.45543">
        <ele>205</ele>
        <time>2012-10-16T13:20:54Z</time>
      </trkpt>
      <trkpt lat="47.26021" lon="5.45552">
        <ele>205</ele>
        <time>2012-10-16T13:20:56Z</time>
      </trkpt>
      <trkpt lat="47.2601" lon="5.45563">
        <ele>205</ele>
        <time>2012-10-16T13:20:59Z</time>
      </trkpt>
      <trkpt lat="47.26" lon="5.45564">
        <ele>205</ele>
        <time>2012-10-16T13:21:01Z</time>
      </trkpt>
      <trkpt lat="47.25989" lon="5.45556">
        <ele>205</ele>
        <time>2012-10-16T13:21:03Z</time>
      </trkpt>
      <trkpt lat="47.25979" lon="5.45546">
        <ele>205</ele>
        <time>2012-10-16T13:21:05Z</time>
      </trkpt>
      <trkpt lat="47.25968" lon="5.45537">
        <ele>205</ele>
        <time>2012-10-16T13:21:07Z</time>
      </trkpt>
      <trkpt lat="47.25957" lon="5.45528">
        <ele>205</ele>
        <time>2012-10-16T13:21:09Z</time>
      </trkpt>
      <trkpt lat="47.25946" lon="5.45519">
        <ele>205</ele>
        <time>2012-10-16T13:21:11Z</time>
      </trkpt>
      <trkpt lat="47.25935" lon="5.4551">
        <ele>205</ele>
        <time>2012-10-16T13:21:13Z</time>
      </trkpt>
      <trkpt lat="47.25925" lon="5.455">
        <ele>205</ele>
        <time>2012-10-16T13:21:15Z</time>
      </trkpt>
      <trkpt lat="47.25914" lon="5.45491">
        <ele>205</ele>
        <time>2012-10-16T13:21:17Z</time>
      </trkpt>
      <trkpt lat="47.25904" lon="5.45482">
        <ele>205</ele>
        <time>2012-10-16T13:21:19Z</time>
      </trkpt>
      <trkpt lat="47.25893" lon="5.45472">
        <ele>205</ele>
        <time>2012-10-16T13:21:21Z</time>
      </trkpt>
      <trkpt lat="47.25882" lon="5.45463">
        <ele>205</ele>
        <time>2012-10-16T13:21:23Z</time>
      </trkpt>
      <trkpt lat="47.25872" lon="5.45453">
        <ele>205</ele>
        <time>2012-10-16T13:21:25Z</time>
      </trkpt>
      <trkpt lat="47.25861" lon="5.45442">
        <ele>205</ele>
        <time>2012-10-16T13:21:27Z</time>
      </trkpt>
      <trkpt lat="47.25852" lon="5.45431">
        <ele>205</ele>
        <time>2012-10-16T13:21:29Z</time>
      </trkpt>
      <trkpt lat="47.25841" lon="5.45419">
        <ele>205</ele>
        <time>2012-10-16T13:21:31Z</time>
      </trkpt>
      <trkpt lat="47.25831" lon="5.45409">
        <ele>205</ele>
        <time>2012-10-16T13:21:33Z</time>
      </trkpt>
      <trkpt lat="47.25821" lon="5.45398">
        <ele>205</ele>
        <time>2012-10-16T13:21:35Z</time>
      </trkpt>
      <trkpt lat="47.25811" lon="5.45389">
        <ele>205</ele>
        <time>2012-10-16T13:21:37Z</time>
      </trkpt>
      <trkpt lat="47.258" lon="5.45381">
        <ele>205</ele>
        <time>2012-10-16T13:21:39Z</time>
      </trkpt>
      <trkpt lat="47.25787" lon="5.45374">
        <ele>205</ele>
        <time>2012-10-16T13:21:41Z</time>
      </trkpt>
      <trkpt lat="47.25775" lon="5.45373">
        <ele>205</ele>
        <time>2012-10-16T13:21:43Z</time>
      </trkpt>
      <trkpt lat="47.25764" lon="5.45379">
        <ele>205</ele>
        <time>2012-10-16T13:21:45Z</time>
      </trkpt>
      <trkpt lat="47.25754" lon="5.45392">
        <ele>205</ele>
        <time>2012-10-16T13:21:47Z</time>
      </trkpt>
      <trkpt lat="47.25742" lon="5.45397">
        <ele>205</ele>
        <time>2012-10-16T13:21:49Z</time>
      </trkpt>
      <trkpt lat="47.2573" lon="5.45389">
        <ele>205</ele>
        <time>2012-10-16T13:21:51Z</time>
      </trkpt>
      <trkpt lat="47.2572" lon="5.45378">
        <ele>205</ele>
        <time>2012-10-16T13:21:53Z</time>
      </trkpt>
      <trkpt lat="47.25709" lon="5.45365">
        <ele>205</ele>
        <time>2012-10-16T13:21:55Z</time>
      </trkpt>
      <trkpt lat="47.25699" lon="5.45354">
        <ele>205</ele>
        <time>2012-10-16T13:21:57Z</time>
      </trkpt>
      <trkpt lat="47.2569" lon="5.45342">
        <ele>205</ele>
        <time>2012-10-16T13:21:59Z</time>
      </trkpt>
      <trkpt lat="47.25679" lon="5.45333">
        <ele>205</ele>
        <time>2012-10-16T13:22:01Z</time>
      </trkpt>
      <trkpt lat="47.25668" lon="5.45334">
        <ele>205</ele>
        <time>2012-10-16T13:22:03Z</time>
      </trkpt>
      <trkpt lat="47.25657" lon="5.45342">
        <ele>205</ele>
        <time>2012-10-16T13:22:05Z</time>
      </trkpt>
      <trkpt lat="47.25645" lon="5.45352">
        <ele>205</ele>
        <time>2012-10-16T13:22:07Z</time>
      </trkpt>
      <trkpt lat="47.25633" lon="5.45363">
        <ele>205</ele>
        <time>2012-10-16T13:22:09Z</time>
      </trkpt>
      <trkpt lat="47.2562" lon="5.45373">
        <ele>205</ele>
        <time>2012-10-16T13:22:11Z</time>
      </trkpt>
      <trkpt lat="47.25607" lon="5.45379">
        <ele>205</ele>
        <time>2012-10-16T13:22:13Z</time>
      </trkpt>
      <trkpt lat="47.25593" lon="5.45383">
        <ele>205</ele>
        <time>2012-10-16T13:22:15Z</time>
      </trkpt>
      <trkpt lat="47.25579" lon="5.45384">
        <ele>205</ele>
        <time>2012-10-16T13:22:17Z</time>
      </trkpt>
      <trkpt lat="47.25566" lon="5.45386">
        <ele>205</ele>
        <time>2012-10-16T13:22:19Z</time>
      </trkpt>
      <trkpt lat="47.25552" lon="5.45388">
        <ele>205</ele>
        <time>2012-10-16T13:22:21Z</time>
      </trkpt>
      <trkpt lat="47.25538" lon="5.45389">
        <ele>205</ele>
        <time>2012-10-16T13:22:23Z</time>
      </trkpt>
      <trkpt lat="47.25525" lon="5.45391">
        <ele>205</ele>
        <time>2012-10-16T13:22:25Z</time>
      </trkpt>
      <trkpt lat="47.25512" lon="5.45394">
        <ele>205</ele>
        <time>2012-10-16T13:22:27Z</time>
      </trkpt>
      <trkpt lat="47.25499" lon="5.45402">
        <ele>205</ele>
        <time>2012-10-16T13:22:29Z</time>
      </trkpt>
      <trkpt lat="47.25489" lon="5.45415">
        <ele>199</ele>
        <time>2012-10-16T13:22:31Z</time>
      </trkpt>
      <trkpt lat="47.2548" lon="5.45431">
        <ele>199</ele>
        <time>2012-10-16T13:22:33Z</time>
      </trkpt>
      <trkpt lat="47.25471" lon="5.4545">
        <ele>199</ele>
        <time>2012-10-16T13:22:35Z</time>
      </trkpt>
      <trkpt lat="47.25461" lon="5.45469">
        <ele>199</ele>
        <time>2012-10-16T13:22:37Z</time>
      </trkpt>
      <trkpt lat="47.25451" lon="5.45489">
        <ele>199</ele>
        <time>2012-10-16T13:22:39Z</time>
      </trkpt>
      <trkpt lat="47.2544" lon="5.4551">
        <ele>199</ele>
        <time>2012-10-16T13:22:41Z</time>
      </trkpt>
      <trkpt lat="47.25434" lon="5.45521">
        <ele>199</ele>
        <time>2012-10-16T13:22:42Z</time>
      </trkpt>
      <trkpt lat="47.25428" lon="5.45532">
        <ele>199</ele>
        <time>2012-10-16T13:22:43Z</time>
      </trkpt>
      <trkpt lat="47.25422" lon="5.45542">
        <ele>194</ele>
        <time>2012-10-16T13:22:44Z</time>
      </trkpt>
      <trkpt lat="47.25417" lon="5.45552">
        <ele>194</ele>
        <time>2012-10-16T13:22:45Z</time>
      </trkpt>
      <trkpt lat="47.25411" lon="5.45564">
        <ele>194</ele>
        <time>2012-10-16T13:22:46Z</time>
      </trkpt>
      <trkpt lat="47.25406" lon="5.45575">
        <ele>194</ele>
        <time>2012-10-16T13:22:47Z</time>
      </trkpt>
      <trkpt lat="47.25395" lon="5.45596">
        <ele>194</ele>
        <time>2012-10-16T13:22:49Z</time>
      </trkpt>
      <trkpt lat="47.25387" lon="5.45619">
        <ele>194</ele>
        <time>2012-10-16T13:22:51Z</time>
      </trkpt>
      <trkpt lat="47.25381" lon="5.45642">
        <ele>194</ele>
        <time>2012-10-16T13:22:53Z</time>
      </trkpt>
      <trkpt lat="47.25377" lon="5.45666">
        <ele>194</ele>
        <time>2012-10-16T13:22:55Z</time>
      </trkpt>
      <trkpt lat="47.25373" lon="5.45688">
        <ele>194</ele>
        <time>2012-10-16T13:22:57Z</time>
      </trkpt>
      <trkpt lat="47.25363" lon="5.45705">
        <ele>194</ele>
        <time>2012-10-16T13:22:59Z</time>
      </trkpt>
      <trkpt lat="47.2535" lon="5.45718">
        <ele>194</ele>
        <time>2012-10-16T13:23:01Z</time>
      </trkpt>
      <trkpt lat="47.25335" lon="5.45729">
        <ele>194</ele>
        <time>2012-10-16T13:23:03Z</time>
      </trkpt>
      <trkpt lat="47.25322" lon="5.45741">
        <ele>194</ele>
        <time>2012-10-16T13:23:05Z</time>
      </trkpt>
      <trkpt lat="47.25309" lon="5.45754">
        <ele>194</ele>
        <time>2012-10-16T13:23:07Z</time>
      </trkpt>
      <trkpt lat="47.25298" lon="5.45769">
        <ele>194</ele>
        <time>2012-10-16T13:23:09Z</time>
      </trkpt>
      <trkpt lat="47.25286" lon="5.45783">
        <ele>194</ele>
        <time>2012-10-16T13:23:11Z</time>
      </trkpt>
      <trkpt lat="47.25275" lon="5.45798">
        <ele>194</ele>
        <time>2012-10-16T13:23:13Z</time>
      </trkpt>
      <trkpt lat="47.25264" lon="5.45813">
        <ele>194</ele>
        <time>2012-10-16T13:23:15Z</time>
      </trkpt>
      <trkpt lat="47.25255" lon="5.4583">
        <ele>194</ele>
        <time>2012-10-16T13:23:17Z</time>
      </trkpt>
      <trkpt lat="47.25246" lon="5.45847">
        <ele>194</ele>
        <time>2012-10-16T13:23:19Z</time>
      </trkpt>
      <trkpt lat="47.25238" lon="5.45864">
        <ele>194</ele>
        <time>2012-10-16T13:23:21Z</time>
      </trkpt>
      <trkpt lat="47.2523" lon="5.45881">
        <ele>194</ele>
        <time>2012-10-16T13:23:23Z</time>
      </trkpt>
      <trkpt lat="47.2522" lon="5.45898">
        <ele>194</ele>
        <time>2012-10-16T13:23:25Z</time>
      </trkpt>
      <trkpt lat="47.2521" lon="5.45913">
        <ele>194</ele>
        <time>2012-10-16T13:23:27Z</time>
      </trkpt>
      <trkpt lat="47.25198" lon="5.45924">
        <ele>194</ele>
        <time>2012-10-16T13:23:29Z</time>
      </trkpt>
      <trkpt lat="47.25186" lon="5.45935">
        <ele>194</ele>
        <time>2012-10-16T13:23:31Z</time>
      </trkpt>
      <trkpt lat="47.25173" lon="5.45944">
        <ele>194</ele>
        <time>2012-10-16T13:23:33Z</time>
      </trkpt>
      <trkpt lat="47.2516" lon="5.45953">
        <ele>194</ele>
        <time>2012-10-16T13:23:35Z</time>
      </trkpt>
      <trkpt lat="47.25147" lon="5.45962">
        <ele>194</ele>
        <time>2012-10-16T13:23:37Z</time>
      </trkpt>
      <trkpt lat="47.25134" lon="5.45971">
        <ele>194</ele>
        <time>2012-10-16T13:23:39Z</time>
      </trkpt>
      <trkpt lat="47.25121" lon="5.4598">
        <ele>194</ele>
        <time>2012-10-16T13:23:41Z</time>
      </trkpt>
      <trkpt lat="47.25109" lon="5.4599">
        <ele>194</ele>
        <time>2012-10-16T13:23:43Z</time>
      </trkpt>
      <trkpt lat="47.25098" lon="5.46">
        <ele>194</ele>
        <time>2012-10-16T13:23:45Z</time>
      </trkpt>
      <trkpt lat="47.25086" lon="5.4601">
        <ele>194</ele>
        <time>2012-10-16T13:23:47Z</time>
      </trkpt>
      <trkpt lat="47.25075" lon="5.46021">
        <ele>194</ele>
        <time>2012-10-16T13:23:49Z</time>
      </trkpt>
      <trkpt lat="47.25064" lon="5.46034">
        <ele>194</ele>
        <time>2012-10-16T13:23:51Z</time>
      </trkpt>
      <trkpt lat="47.25055" lon="5.46045">
        <ele>194</ele>
        <time>2012-10-16T13:23:53Z</time>
      </trkpt>
      <trkpt lat="47.25045" lon="5.46059">
        <ele>194</ele>
        <time>2012-10-16T13:23:55Z</time>
      </trkpt>
      <trkpt lat="47.25035" lon="5.46072">
        <ele>194</ele>
        <time>2012-10-16T13:23:57Z</time>
      </trkpt>
      <trkpt lat="47.25026" lon="5.46087">
        <ele>194</ele>
        <time>2012-10-16T13:23:59Z</time>
      </trkpt>
      <trkpt lat="47.25017" lon="5.46102">
        <ele>194</ele>
        <time>2012-10-16T13:24:01Z</time>
      </trkpt>
      <trkpt lat="47.25009" lon="5.46118">
        <ele>194</ele>
        <time>2012-10-16T13:24:03Z</time>
      </trkpt>
      <trkpt lat="47.25001" lon="5.46134">
        <ele>194</ele>
        <time>2012-10-16T13:24:05Z</time>
      </trkpt>
      <trkpt lat="47.24994" lon="5.46151">
        <ele>194</ele>
        <time>2012-10-16T13:24:07Z</time>
      </trkpt>
      <trkpt lat="47.24987" lon="5.46168">
        <ele>194</ele>
        <time>2012-10-16T13:24:09Z</time>
      </trkpt>
      <trkpt lat="47.2498" lon="5.46186">
        <ele>194</ele>
        <time>2012-10-16T13:24:11Z</time>
      </trkpt>
      <trkpt lat="47.24973" lon="5.46204">
        <ele>194</ele>
        <time>2012-10-16T13:24:13Z</time>
      </trkpt>
      <trkpt lat="47.24967" lon="5.46222">
        <ele>194</ele>
        <time>2012-10-16T13:24:15Z</time>
      </trkpt>
      <trkpt lat="47.2496" lon="5.4624">
        <ele>194</ele>
        <time>2012-10-16T13:24:17Z</time>
      </trkpt>
      <trkpt lat="47.24954" lon="5.46258">
        <ele>194</ele>
        <time>2012-10-16T13:24:19Z</time>
      </trkpt>
      <trkpt lat="47.24947" lon="5.46278">
        <ele>194</ele>
        <time>2012-10-16T13:24:21Z</time>
      </trkpt>
      <trkpt lat="47.2494" lon="5.46297">
        <ele>194</ele>
        <time>2012-10-16T13:24:23Z</time>
      </trkpt>
      <trkpt lat="47.24933" lon="5.46316">
        <ele>194</ele>
        <time>2012-10-16T13:24:25Z</time>
      </trkpt>
      <trkpt lat="47.24926" lon="5.46335">
        <ele>194</ele>
        <time>2012-10-16T13:24:27Z</time>
      </trkpt>
      <trkpt lat="47.24917" lon="5.46353">
        <ele>194</ele>
        <time>2012-10-16T13:24:29Z</time>
      </trkpt>
      <trkpt lat="47.24908" lon="5.4637">
        <ele>194</ele>
        <time>2012-10-16T13:24:31Z</time>
      </trkpt>
      <trkpt lat="47.24898" lon="5.46386">
        <ele>194</ele>
        <time>2012-10-16T13:24:33Z</time>
      </trkpt>
      <trkpt lat="47.24888" lon="5.46401">
        <ele>194</ele>
        <time>2012-10-16T13:24:35Z</time>
      </trkpt>
      <trkpt lat="47.24878" lon="5.46416">
        <ele>194</ele>
        <time>2012-10-16T13:24:37Z</time>
      </trkpt>
      <trkpt lat="47.24867" lon="5.4643">
        <ele>194</ele>
        <time>2012-10-16T13:24:39Z</time>
      </trkpt>
      <trkpt lat="47.24857" lon="5.46444">
        <ele>194</ele>
        <time>2012-10-16T13:24:41Z</time>
      </trkpt>
      <trkpt lat="47.24846" lon="5.46458">
        <ele>194</ele>
        <time>2012-10-16T13:24:43Z</time>
      </trkpt>
      <trkpt lat="47.24836" lon="5.46472">
        <ele>194</ele>
        <time>2012-10-16T13:24:45Z</time>
      </trkpt>
      <trkpt lat="47.24825" lon="5.46487">
        <ele>194</ele>
        <time>2012-10-16T13:24:47Z</time>
      </trkpt>
      <trkpt lat="47.24814" lon="5.46501">
        <ele>194</ele>
        <time>2012-10-16T13:24:49Z</time>
      </trkpt>
      <trkpt lat="47.24803" lon="5.46514">
        <ele>194</ele>
        <time>2012-10-16T13:24:51Z</time>
      </trkpt>
      <trkpt lat="47.24793" lon="5.46528">
        <ele>194</ele>
        <time>2012-10-16T13:24:53Z</time>
      </trkpt>
      <trkpt lat="47.24782" lon="5.4654">
        <ele>194</ele>
        <time>2012-10-16T13:24:55Z</time>
      </trkpt>
      <trkpt lat="47.24772" lon="5.46554">
        <ele>194</ele>
        <time>2012-10-16T13:24:57Z</time>
      </trkpt>
      <trkpt lat="47.24762" lon="5.46567">
        <ele>194</ele>
        <time>2012-10-16T13:24:59Z</time>
      </trkpt>
      <trkpt lat="47.24753" lon="5.46582">
        <ele>199</ele>
        <time>2012-10-16T13:25:01Z</time>
      </trkpt>
      <trkpt lat="47.24742" lon="5.46595">
        <ele>199</ele>
        <time>2012-10-16T13:25:03Z</time>
      </trkpt>
      <trkpt lat="47.24731" lon="5.46608">
        <ele>199</ele>
        <time>2012-10-16T13:25:05Z</time>
      </trkpt>
      <trkpt lat="47.24719" lon="5.4662">
        <ele>199</ele>
        <time>2012-10-16T13:25:07Z</time>
      </trkpt>
      <trkpt lat="47.24707" lon="5.46632">
        <ele>199</ele>
        <time>2012-10-16T13:25:09Z</time>
      </trkpt>
      <trkpt lat="47.24695" lon="5.46643">
        <ele>199</ele>
        <time>2012-10-16T13:25:11Z</time>
      </trkpt>
      <trkpt lat="47.24683" lon="5.46655">
        <ele>199</ele>
        <time>2012-10-16T13:25:13Z</time>
      </trkpt>
      <trkpt lat="47.2467" lon="5.46664">
        <ele>199</ele>
        <time>2012-10-16T13:25:15Z</time>
      </trkpt>
      <trkpt lat="47.24657" lon="5.46674">
        <ele>199</ele>
        <time>2012-10-16T13:25:17Z</time>
      </trkpt>
      <trkpt lat="47.24645" lon="5.46684">
        <ele>199</ele>
        <time>2012-10-16T13:25:19Z</time>
      </trkpt>
      <trkpt lat="47.24634" lon="5.46694">
        <ele>199</ele>
        <time>2012-10-16T13:25:21Z</time>
      </trkpt>
      <trkpt lat="47.24621" lon="5.46703">
        <ele>199</ele>
        <time>2012-10-16T13:25:23Z</time>
      </trkpt>
      <trkpt lat="47.24609" lon="5.46711">
        <ele>199</ele>
        <time>2012-10-16T13:25:25Z</time>
      </trkpt>
      <trkpt lat="47.24598" lon="5.46719">
        <ele>199</ele>
        <time>2012-10-16T13:25:27Z</time>
      </trkpt>
      <trkpt lat="47.24586" lon="5.46727">
        <ele>199</ele>
        <time>2012-10-16T13:25:29Z</time>
      </trkpt>
      <trkpt lat="47.24574" lon="5.46735">
        <ele>199</ele>
        <time>2012-10-16T13:25:31Z</time>
      </trkpt>
      <trkpt lat="47.24562" lon="5.46742">
        <ele>199</ele>
        <time>2012-10-16T13:25:33Z</time>
      </trkpt>
      <trkpt lat="47.24549" lon="5.46748">
        <ele>204</ele>
        <time>2012-10-16T13:25:35Z</time>
      </trkpt>
      <trkpt lat="47.24537" lon="5.46753">
        <ele>204</ele>
        <time>2012-10-16T13:25:37Z</time>
      </trkpt>
      <trkpt lat="47.24524" lon="5.46758">
        <ele>204</ele>
        <time>2012-10-16T13:25:39Z</time>
      </trkpt>
      <trkpt lat="47.24512" lon="5.46762">
        <ele>204</ele>
        <time>2012-10-16T13:25:41Z</time>
      </trkpt>
      <trkpt lat="47.245" lon="5.46767">
        <ele>204</ele>
        <time>2012-10-16T13:25:43Z</time>
      </trkpt>
      <trkpt lat="47.24488" lon="5.46771">
        <ele>204</ele>
        <time>2012-10-16T13:25:45Z</time>
      </trkpt>
      <trkpt lat="47.24477" lon="5.46778">
        <ele>204</ele>
        <time>2012-10-16T13:25:47Z</time>
      </trkpt>
      <trkpt lat="47.24465" lon="5.46785">
        <ele>204</ele>
        <time>2012-10-16T13:25:49Z</time>
      </trkpt>
      <trkpt lat="47.24454" lon="5.46795">
        <ele>204</ele>
        <time>2012-10-16T13:25:51Z</time>
      </trkpt>
      <trkpt lat="47.24444" lon="5.46805">
        <ele>204</ele>
        <time>2012-10-16T13:25:53Z</time>
      </trkpt>
      <trkpt lat="47.24434" lon="5.46818">
        <ele>204</ele>
        <time>2012-10-16T13:25:55Z</time>
      </trkpt>
      <trkpt lat="47.24424" lon="5.46832">
        <ele>204</ele>
        <time>2012-10-16T13:25:57Z</time>
      </trkpt>
      <trkpt lat="47.24414" lon="5.46844">
        <ele>204</ele>
        <time>2012-10-16T13:25:59Z</time>
      </trkpt>
      <trkpt lat="47.24404" lon="5.46857">
        <ele>204</ele>
        <time>2012-10-16T13:26:01Z</time>
      </trkpt>
      <trkpt lat="47.24395" lon="5.46871">
        <ele>204</ele>
        <time>2012-10-16T13:26:03Z</time>
      </trkpt>
      <trkpt lat="47.24387" lon="5.46885">
        <ele>204</ele>
        <time>2012-10-16T13:26:05Z</time>
      </trkpt>
      <trkpt lat="47.2438" lon="5.469">
        <ele>204</ele>
        <time>2012-10-16T13:26:07Z</time>
      </trkpt>
      <trkpt lat="47.24376" lon="5.46918">
        <ele>204</ele>
        <time>2012-10-16T13:26:09Z</time>
      </trkpt>
      <trkpt lat="47.24372" lon="5.46935">
        <ele>204</ele>
        <time>2012-10-16T13:26:11Z</time>
      </trkpt>
      <trkpt lat="47.24368" lon="5.46952">
        <ele>204</ele>
        <time>2012-10-16T13:26:13Z</time>
      </trkpt>
      <trkpt lat="47.24363" lon="5.46969">
        <ele>204</ele>
        <time>2012-10-16T13:26:15Z</time>
      </trkpt>
      <trkpt lat="47.24359" lon="5.46987">
        <ele>204</ele>
        <time>2012-10-16T13:26:17Z</time>
      </trkpt>
      <trkpt lat="47.24355" lon="5.47004">
        <ele>204</ele>
        <time>2012-10-16T13:26:19Z</time>
      </trkpt>
      <trkpt lat="47.24351" lon="5.47021">
        <ele>210</ele>
        <time>2012-10-16T13:26:21Z</time>
      </trkpt>
      <trkpt lat="47.24347" lon="5.47038">
        <ele>210</ele>
        <time>2012-10-16T13:26:23Z</time>
      </trkpt>
      <trkpt lat="47.24341" lon="5.47055">
        <ele>210</ele>
        <time>2012-10-16T13:26:25Z</time>
      </trkpt>
      <trkpt lat="47.24338" lon="5.47071">
        <ele>210</ele>
        <time>2012-10-16T13:26:27Z</time>
      </trkpt>
      <trkpt lat="47.24335" lon="5.47089">
        <ele>210</ele>
        <time>2012-10-16T13:26:29Z</time>
      </trkpt>
      <trkpt lat="47.24331" lon="5.47106">
        <ele>210</ele>
        <time>2012-10-16T13:26:31Z</time>
      </trkpt>
      <trkpt lat="47.24327" lon="5.47123">
        <ele>210</ele>
        <time>2012-10-16T13:26:33Z</time>
      </trkpt>
      <trkpt lat="47.24323" lon="5.4714">
        <ele>210</ele>
        <time>2012-10-16T13:26:35Z</time>
      </trkpt>
      <trkpt lat="47.24319" lon="5.47156">
        <ele>210</ele>
        <time>2012-10-16T13:26:37Z</time>
      </trkpt>
      <trkpt lat="47.24315" lon="5.47171">
        <ele>210</ele>
        <time>2012-10-16T13:26:39Z</time>
      </trkpt>
      <trkpt lat="47.2431" lon="5.47186">
        <ele>210</ele>
        <time>2012-10-16T13:26:41Z</time>
      </trkpt>
      <trkpt lat="47.24307" lon="5.47202">
        <ele>210</ele>
        <time>2012-10-16T13:26:43Z</time>
      </trkpt>
      <trkpt lat="47.24303" lon="5.47217">
        <ele>210</ele>
        <time>2012-10-16T13:26:45Z</time>
      </trkpt>
      <trkpt lat="47.24299" lon="5.47233">
        <ele>210</ele>
        <time>2012-10-16T13:26:47Z</time>
      </trkpt>
      <trkpt lat="47.24295" lon="5.47248">
        <ele>210</ele>
        <time>2012-10-16T13:26:49Z</time>
      </trkpt>
      <trkpt lat="47.24291" lon="5.47264">
        <ele>210</ele>
        <time>2012-10-16T13:26:51Z</time>
      </trkpt>
      <trkpt lat="47.24287" lon="5.47279">
        <ele>210</ele>
        <time>2012-10-16T13:26:53Z</time>
      </trkpt>
      <trkpt lat="47.24283" lon="5.47294">
        <ele>210</ele>
        <time>2012-10-16T13:26:55Z</time>
      </trkpt>
      <trkpt lat="47.24279" lon="5.47311">
        <ele>210</ele>
        <time>2012-10-16T13:26:57Z</time>
      </trkpt>
      <trkpt lat="47.24275" lon="5.47328">
        <ele>210</ele>
        <time>2012-10-16T13:26:59Z</time>
      </trkpt>
      <trkpt lat="47.24271" lon="5.47344">
        <ele>210</ele>
        <time>2012-10-16T13:27:01Z</time>
      </trkpt>
      <trkpt lat="47.24267" lon="5.47361">
        <ele>210</ele>
        <time>2012-10-16T13:27:03Z</time>
      </trkpt>
      <trkpt lat="47.24263" lon="5.47378">
        <ele>210</ele>
        <time>2012-10-16T13:27:05Z</time>
      </trkpt>
      <trkpt lat="47.24258" lon="5.47394">
        <ele>210</ele>
        <time>2012-10-16T13:27:07Z</time>
      </trkpt>
      <trkpt lat="47.24254" lon="5.4741">
        <ele>210</ele>
        <time>2012-10-16T13:27:09Z</time>
      </trkpt>
      <trkpt lat="47.2425" lon="5.47426">
        <ele>210</ele>
        <time>2012-10-16T13:27:11Z</time>
      </trkpt>
      <trkpt lat="47.24244" lon="5.47441">
        <ele>210</ele>
        <time>2012-10-16T13:27:13Z</time>
      </trkpt>
      <trkpt lat="47.24238" lon="5.47457">
        <ele>210</ele>
        <time>2012-10-16T13:27:15Z</time>
      </trkpt>
      <trkpt lat="47.24233" lon="5.47472">
        <ele>210</ele>
        <time>2012-10-16T13:27:17Z</time>
      </trkpt>
      <trkpt lat="47.24228" lon="5.47487">
        <ele>210</ele>
        <time>2012-10-16T13:27:19Z</time>
      </trkpt>
      <trkpt lat="47.24221" lon="5.47503">
        <ele>210</ele>
        <time>2012-10-16T13:27:21Z</time>
      </trkpt>
      <trkpt lat="47.24216" lon="5.47518">
        <ele>210</ele>
        <time>2012-10-16T13:27:23Z</time>
      </trkpt>
      <trkpt lat="47.24211" lon="5.47534">
        <ele>210</ele>
        <time>2012-10-16T13:27:25Z</time>
      </trkpt>
      <trkpt lat="47.24204" lon="5.47552">
        <ele>210</ele>
        <time>2012-10-16T13:27:27Z</time>
      </trkpt>
      <trkpt lat="47.242" lon="5.4757">
        <ele>210</ele>
        <time>2012-10-16T13:27:29Z</time>
      </trkpt>
      <trkpt lat="47.24193" lon="5.47586">
        <ele>210</ele>
        <time>2012-10-16T13:27:31Z</time>
      </trkpt>
      <trkpt lat="47.24187" lon="5.47603">
        <ele>210</ele>
        <time>2012-10-16T13:27:33Z</time>
      </trkpt>
      <trkpt lat="47.24181" lon="5.4762">
        <ele>210</ele>
        <time>2012-10-16T13:27:35Z</time>
      </trkpt>
      <trkpt lat="47.24175" lon="5.47638">
        <ele>210</ele>
        <time>2012-10-16T13:27:37Z</time>
      </trkpt>
      <trkpt lat="47.24169" lon="5.47656">
        <ele>210</ele>
        <time>2012-10-16T13:27:39Z</time>
      </trkpt>
      <trkpt lat="47.24163" lon="5.47674">
        <ele>210</ele>
        <time>2012-10-16T13:27:41Z</time>
      </trkpt>
      <trkpt lat="47.2416" lon="5.47693">
        <ele>210</ele>
        <time>2012-10-16T13:27:43Z</time>
      </trkpt>
      <trkpt lat="47.24156" lon="5.47711">
        <ele>210</ele>
        <time>2012-10-16T13:27:45Z</time>
      </trkpt>
      <trkpt lat="47.24151" lon="5.47726">
        <ele>210</ele>
        <time>2012-10-16T13:27:47Z</time>
      </trkpt>
      <trkpt lat="47.24145" lon="5.47742">
        <ele>210</ele>
        <time>2012-10-16T13:27:49Z</time>
      </trkpt>
      <trkpt lat="47.24139" lon="5.47757">
        <ele>210</ele>
        <time>2012-10-16T13:27:51Z</time>
      </trkpt>
      <trkpt lat="47.24133" lon="5.47771">
        <ele>210</ele>
        <time>2012-10-16T13:27:53Z</time>
      </trkpt>
      <trkpt lat="47.24127" lon="5.47786">
        <ele>210</ele>
        <time>2012-10-16T13:27:55Z</time>
      </trkpt>
      <trkpt lat="47.24121" lon="5.478">
        <ele>210</ele>
        <time>2012-10-16T13:27:57Z</time>
      </trkpt>
      <trkpt lat="47.24114" lon="5.47814">
        <ele>210</ele>
        <time>2012-10-16T13:27:59Z</time>
      </trkpt>
      <trkpt lat="47.24109" lon="5.4783">
        <ele>210</ele>
        <time>2012-10-16T13:28:01Z</time>
      </trkpt>
      <trkpt lat="47.24103" lon="5.47846">
        <ele>210</ele>
        <time>2012-10-16T13:28:03Z</time>
      </trkpt>
      <trkpt lat="47.24099" lon="5.47861">
        <ele>210</ele>
        <time>2012-10-16T13:28:05Z</time>
      </trkpt>
      <trkpt lat="47.24093" lon="5.47877">
        <ele>210</ele>
        <time>2012-10-16T13:28:07Z</time>
      </trkpt>
      <trkpt lat="47.24086" lon="5.47893">
        <ele>210</ele>
        <time>2012-10-16T13:28:09Z</time>
      </trkpt>
      <trkpt lat="47.24079" lon="5.47909">
        <ele>210</ele>
        <time>2012-10-16T13:28:11Z</time>
      </trkpt>
      <trkpt lat="47.24073" lon="5.47924">
        <ele>210</ele>
        <time>2012-10-16T13:28:13Z</time>
      </trkpt>
      <trkpt lat="47.24068" lon="5.4794">
        <ele>210</ele>
        <time>2012-10-16T13:28:15Z</time>
      </trkpt>
      <trkpt lat="47.24062" lon="5.47956">
        <ele>210</ele>
        <time>2012-10-16T13:28:17Z</time>
      </trkpt>
      <trkpt lat="47.24056" lon="5.47973">
        <ele>210</ele>
        <time>2012-10-16T13:28:19Z</time>
      </trkpt>
      <trkpt lat="47.2405" lon="5.47989">
        <ele>210</ele>
        <time>2012-10-16T13:28:21Z</time>
      </trkpt>
      <trkpt lat="47.24044" lon="5.48007">
        <ele>210</ele>
        <time>2012-10-16T13:28:23Z</time>
      </trkpt>
      <trkpt lat="47.24038" lon="5.48024">
        <ele>210</ele>
        <time>2012-10-16T13:28:25Z</time>
      </trkpt>
      <trkpt lat="47.24032" lon="5.48042">
        <ele>210</ele>
        <time>2012-10-16T13:28:27Z</time>
      </trkpt>
      <trkpt lat="47.24025" lon="5.48061">
        <ele>210</ele>
        <time>2012-10-16T13:28:29Z</time>
      </trkpt>
      <trkpt lat="47.24018" lon="5.4808">
        <ele>204</ele>
        <time>2012-10-16T13:28:31Z</time>
      </trkpt>
      <trkpt lat="47.24011" lon="5.481">
        <ele>204</ele>
        <time>2012-10-16T13:28:33Z</time>
      </trkpt>
      <trkpt lat="47.24004" lon="5.4812">
        <ele>204</ele>
        <time>2012-10-16T13:28:35Z</time>
      </trkpt>
      <trkpt lat="47.23996" lon="5.48139">
        <ele>204</ele>
        <time>2012-10-16T13:28:37Z</time>
      </trkpt>
      <trkpt lat="47.2399" lon="5.48157">
        <ele>204</ele>
        <time>2012-10-16T13:28:39Z</time>
      </trkpt>
      <trkpt lat="47.23984" lon="5.48175">
        <ele>204</ele>
        <time>2012-10-16T13:28:41Z</time>
      </trkpt>
      <trkpt lat="47.23978" lon="5.48192">
        <ele>204</ele>
        <time>2012-10-16T13:28:43Z</time>
      </trkpt>
      <trkpt lat="47.23973" lon="5.48209">
        <ele>204</ele>
        <time>2012-10-16T13:28:45Z</time>
      </trkpt>
      <trkpt lat="47.23967" lon="5.48224">
        <ele>204</ele>
        <time>2012-10-16T13:28:47Z</time>
      </trkpt>
      <trkpt lat="47.23962" lon="5.48239">
        <ele>204</ele>
        <time>2012-10-16T13:28:49Z</time>
      </trkpt>
      <trkpt lat="47.23957" lon="5.48253">
        <ele>204</ele>
        <time>2012-10-16T13:28:51Z</time>
      </trkpt>
      <trkpt lat="47.23951" lon="5.48267">
        <ele>204</ele>
        <time>2012-10-16T13:28:54Z</time>
      </trkpt>
      <trkpt lat="47.23948" lon="5.4828">
        <ele>204</ele>
        <time>2012-10-16T13:29:35Z</time>
      </trkpt>
      <trkpt lat="47.23943" lon="5.48294">
        <ele>204</ele>
        <time>2012-10-16T13:29:40Z</time>
      </trkpt>
      <trkpt lat="47.23936" lon="5.48302">
        <ele>204</ele>
        <time>2012-10-16T13:29:46Z</time>
      </trkpt>
      <trkpt lat="47.23927" lon="5.483">
        <ele>210</ele>
        <time>2012-10-16T13:30:07Z</time>
      </trkpt>
      <trkpt lat="47.23934" lon="5.48292">
        <ele>210</ele>
        <time>2012-10-16T13:32:05Z</time>
      </trkpt>
      <trkpt lat="47.23936" lon="5.48305">
        <ele>210</ele>
        <time>2012-10-16T13:35:32Z</time>
      </trkpt>
      <trkpt lat="47.23927" lon="5.48308">
        <ele>210</ele>
        <time>2012-10-16T13:36:26Z</time>
      </trkpt>
      <trkpt lat="47.23919" lon="5.48315">
        <ele>210</ele>
        <time>2012-10-16T13:36:52Z</time>
      </trkpt>
      <trkpt lat="47.23911" lon="5.48325">
        <ele>210</ele>
        <time>2012-10-16T13:36:56Z</time>
      </trkpt>
      <trkpt lat="47.23902" lon="5.48336">
        <ele>210</ele>
        <time>2012-10-16T13:37:00Z</time>
      </trkpt>
      <trkpt lat="47.23896" lon="5.48347">
        <ele>210</ele>
        <time>2012-10-16T13:37:03Z</time>
      </trkpt>
      <trkpt lat="47.23889" lon="5.48361">
        <ele>210</ele>
        <time>2012-10-16T13:37:07Z</time>
      </trkpt>
      <trkpt lat="47.23882" lon="5.4837">
        <ele>210</ele>
        <time>2012-10-16T13:37:10Z</time>
      </trkpt>
      <trkpt lat="47.23872" lon="5.4838">
        <ele>210</ele>
        <time>2012-10-16T13:37:13Z</time>
      </trkpt>
      <trkpt lat="47.23862" lon="5.48391">
        <ele>210</ele>
        <time>2012-10-16T13:37:16Z</time>
      </trkpt>
      <trkpt lat="47.23853" lon="5.48404">
        <ele>210</ele>
        <time>2012-10-16T13:37:19Z</time>
      </trkpt>
      <trkpt lat="47.23846" lon="5.48413">
        <ele>210</ele>
        <time>2012-10-16T13:37:21Z</time>
      </trkpt>
      <trkpt lat="47.23839" lon="5.48424">
        <ele>210</ele>
        <time>2012-10-16T13:37:23Z</time>
      </trkpt>
      <trkpt lat="47.2383" lon="5.48435">
        <ele>210</ele>
        <time>2012-10-16T13:37:25Z</time>
      </trkpt>
      <trkpt lat="47.23821" lon="5.48447">
        <ele>210</ele>
        <time>2012-10-16T13:37:27Z</time>
      </trkpt>
      <trkpt lat="47.23813" lon="5.48459">
        <ele>210</ele>
        <time>2012-10-16T13:37:29Z</time>
      </trkpt>
      <trkpt lat="47.23805" lon="5.48472">
        <ele>210</ele>
        <time>2012-10-16T13:37:31Z</time>
      </trkpt>
      <trkpt lat="47.23797" lon="5.48485">
        <ele>210</ele>
        <time>2012-10-16T13:37:33Z</time>
      </trkpt>
      <trkpt lat="47.23789" lon="5.48499">
        <ele>210</ele>
        <time>2012-10-16T13:37:35Z</time>
      </trkpt>
      <trkpt lat="47.23782" lon="5.48513">
        <ele>210</ele>
        <time>2012-10-16T13:37:37Z</time>
      </trkpt>
      <trkpt lat="47.23775" lon="5.48526">
        <ele>210</ele>
        <time>2012-10-16T13:37:39Z</time>
      </trkpt>
      <trkpt lat="47.23768" lon="5.48539">
        <ele>210</ele>
        <time>2012-10-16T13:37:41Z</time>
      </trkpt>
      <trkpt lat="47.23762" lon="5.48552">
        <ele>210</ele>
        <time>2012-10-16T13:37:43Z</time>
      </trkpt>
      <trkpt lat="47.23756" lon="5.48564">
        <ele>210</ele>
        <time>2012-10-16T13:37:45Z</time>
      </trkpt>
      <trkpt lat="47.2375" lon="5.48577">
        <ele>210</ele>
        <time>2012-10-16T13:37:47Z</time>
      </trkpt>
      <trkpt lat="47.23745" lon="5.48589">
        <ele>210</ele>
        <time>2012-10-16T13:37:49Z</time>
      </trkpt>
      <trkpt lat="47.23739" lon="5.48599">
        <ele>210</ele>
        <time>2012-10-16T13:37:51Z</time>
      </trkpt>
      <trkpt lat="47.23732" lon="5.48616">
        <ele>210</ele>
        <time>2012-10-16T13:37:54Z</time>
      </trkpt>
      <trkpt lat="47.23727" lon="5.48627">
        <ele>210</ele>
        <time>2012-10-16T13:37:56Z</time>
      </trkpt>
      <trkpt lat="47.23722" lon="5.48639">
        <ele>210</ele>
        <time>2012-10-16T13:37:58Z</time>
      </trkpt>
      <trkpt lat="47.23716" lon="5.48651">
        <ele>210</ele>
        <time>2012-10-16T13:38:00Z</time>
      </trkpt>
      <trkpt lat="47.23711" lon="5.48663">
        <ele>210</ele>
        <time>2012-10-16T13:38:02Z</time>
      </trkpt>
      <trkpt lat="47.23706" lon="5.48675">
        <ele>210</ele>
        <time>2012-10-16T13:38:04Z</time>
      </trkpt>
      <trkpt lat="47.23701" lon="5.48688">
        <ele>210</ele>
        <time>2012-10-16T13:38:06Z</time>
      </trkpt>
      <trkpt lat="47.23695" lon="5.48701">
        <ele>210</ele>
        <time>2012-10-16T13:38:08Z</time>
      </trkpt>
      <trkpt lat="47.2369" lon="5.48715">
        <ele>210</ele>
        <time>2012-10-16T13:38:10Z</time>
      </trkpt>
      <trkpt lat="47.23685" lon="5.4873">
        <ele>210</ele>
        <time>2012-10-16T13:38:12Z</time>
      </trkpt>
      <trkpt lat="47.23681" lon="5.48744">
        <ele>210</ele>
        <time>2012-10-16T13:38:14Z</time>
      </trkpt>
      <trkpt lat="47.23676" lon="5.48759">
        <ele>210</ele>
        <time>2012-10-16T13:38:16Z</time>
      </trkpt>
      <trkpt lat="47.23672" lon="5.48774">
        <ele>210</ele>
        <time>2012-10-16T13:38:18Z</time>
      </trkpt>
      <trkpt lat="47.23667" lon="5.48788">
        <ele>210</ele>
        <time>2012-10-16T13:38:20Z</time>
      </trkpt>
      <trkpt lat="47.23662" lon="5.48803">
        <ele>210</ele>
        <time>2012-10-16T13:38:22Z</time>
      </trkpt>
      <trkpt lat="47.23657" lon="5.48818">
        <ele>210</ele>
        <time>2012-10-16T13:38:24Z</time>
      </trkpt>
      <trkpt lat="47.23652" lon="5.48833">
        <ele>210</ele>
        <time>2012-10-16T13:38:26Z</time>
      </trkpt>
      <trkpt lat="47.23648" lon="5.48847">
        <ele>210</ele>
        <time>2012-10-16T13:38:28Z</time>
      </trkpt>
      <trkpt lat="47.23643" lon="5.48863">
        <ele>210</ele>
        <time>2012-10-16T13:38:30Z</time>
      </trkpt>
      <trkpt lat="47.23638" lon="5.48877">
        <ele>210</ele>
        <time>2012-10-16T13:38:32Z</time>
      </trkpt>
      <trkpt lat="47.23634" lon="5.48892">
        <ele>210</ele>
        <time>2012-10-16T13:38:34Z</time>
      </trkpt>
      <trkpt lat="47.23629" lon="5.48907">
        <ele>210</ele>
        <time>2012-10-16T13:38:36Z</time>
      </trkpt>
      <trkpt lat="47.23623" lon="5.48922">
        <ele>210</ele>
        <time>2012-10-16T13:38:38Z</time>
      </trkpt>
      <trkpt lat="47.23619" lon="5.48937">
        <ele>210</ele>
        <time>2012-10-16T13:38:40Z</time>
      </trkpt>
      <trkpt lat="47.23613" lon="5.48952">
        <ele>210</ele>
        <time>2012-10-16T13:38:42Z</time>
      </trkpt>
      <trkpt lat="47.23608" lon="5.48967">
        <ele>210</ele>
        <time>2012-10-16T13:38:44Z</time>
      </trkpt>
      <trkpt lat="47.23602" lon="5.48982">
        <ele>210</ele>
        <time>2012-10-16T13:38:46Z</time>
      </trkpt>
      <trkpt lat="47.23596" lon="5.48998">
        <ele>210</ele>
        <time>2012-10-16T13:38:48Z</time>
      </trkpt>
      <trkpt lat="47.23589" lon="5.49015">
        <ele>210</ele>
        <time>2012-10-16T13:38:50Z</time>
      </trkpt>
      <trkpt lat="47.23582" lon="5.49032">
        <ele>210</ele>
        <time>2012-10-16T13:38:52Z</time>
      </trkpt>
      <trkpt lat="47.23575" lon="5.49049">
        <ele>210</ele>
        <time>2012-10-16T13:38:54Z</time>
      </trkpt>
      <trkpt lat="47.23568" lon="5.49067">
        <ele>210</ele>
        <time>2012-10-16T13:38:56Z</time>
      </trkpt>
      <trkpt lat="47.23561" lon="5.49084">
        <ele>210</ele>
        <time>2012-10-16T13:38:58Z</time>
      </trkpt>
      <trkpt lat="47.23555" lon="5.49101">
        <ele>210</ele>
        <time>2012-10-16T13:39:00Z</time>
      </trkpt>
      <trkpt lat="47.23547" lon="5.49118">
        <ele>210</ele>
        <time>2012-10-16T13:39:02Z</time>
      </trkpt>
      <trkpt lat="47.2354" lon="5.49133">
        <ele>210</ele>
        <time>2012-10-16T13:39:04Z</time>
      </trkpt>
      <trkpt lat="47.23533" lon="5.49147">
        <ele>210</ele>
        <time>2012-10-16T13:39:06Z</time>
      </trkpt>
      <trkpt lat="47.23525" lon="5.49162">
        <ele>210</ele>
        <time>2012-10-16T13:39:08Z</time>
      </trkpt>
      <trkpt lat="47.23519" lon="5.49175">
        <ele>210</ele>
        <time>2012-10-16T13:39:10Z</time>
      </trkpt>
      <trkpt lat="47.23512" lon="5.49189">
        <ele>210</ele>
        <time>2012-10-16T13:39:12Z</time>
      </trkpt>
      <trkpt lat="47.23505" lon="5.49202">
        <ele>210</ele>
        <time>2012-10-16T13:39:14Z</time>
      </trkpt>
      <trkpt lat="47.23499" lon="5.49216">
        <ele>210</ele>
        <time>2012-10-16T13:39:16Z</time>
      </trkpt>
      <trkpt lat="47.23492" lon="5.49229">
        <ele>210</ele>
        <time>2012-10-16T13:39:18Z</time>
      </trkpt>
      <trkpt lat="47.23486" lon="5.49242">
        <ele>210</ele>
        <time>2012-10-16T13:39:20Z</time>
      </trkpt>
      <trkpt lat="47.23479" lon="5.49255">
        <ele>210</ele>
        <time>2012-10-16T13:39:22Z</time>
      </trkpt>
      <trkpt lat="47.23472" lon="5.49268">
        <ele>210</ele>
        <time>2012-10-16T13:39:24Z</time>
      </trkpt>
      <trkpt lat="47.23466" lon="5.4928">
        <ele>210</ele>
        <time>2012-10-16T13:39:26Z</time>
      </trkpt>
      <trkpt lat="47.2346" lon="5.49294">
        <ele>210</ele>
        <time>2012-10-16T13:39:28Z</time>
      </trkpt>
      <trkpt lat="47.23453" lon="5.49306">
        <ele>210</ele>
        <time>2012-10-16T13:39:30Z</time>
      </trkpt>
      <trkpt lat="47.23447" lon="5.49319">
        <ele>210</ele>
        <time>2012-10-16T13:39:32Z</time>
      </trkpt>
      <trkpt lat="47.23441" lon="5.49332">
        <ele>210</ele>
        <time>2012-10-16T13:39:34Z</time>
      </trkpt>
      <trkpt lat="47.23434" lon="5.49345">
        <ele>210</ele>
        <time>2012-10-16T13:39:36Z</time>
      </trkpt>
      <trkpt lat="47.23428" lon="5.49357">
        <ele>210</ele>
        <time>2012-10-16T13:39:38Z</time>
      </trkpt>
      <trkpt lat="47.23423" lon="5.49369">
        <ele>210</ele>
        <time>2012-10-16T13:39:40Z</time>
      </trkpt>
      <trkpt lat="47.23416" lon="5.49382">
        <ele>210</ele>
        <time>2012-10-16T13:39:42Z</time>
      </trkpt>
      <trkpt lat="47.2341" lon="5.49394">
        <ele>210</ele>
        <time>2012-10-16T13:39:44Z</time>
      </trkpt>
      <trkpt lat="47.23404" lon="5.49407">
        <ele>210</ele>
        <time>2012-10-16T13:39:46Z</time>
      </trkpt>
      <trkpt lat="47.23398" lon="5.49419">
        <ele>210</ele>
        <time>2012-10-16T13:39:48Z</time>
      </trkpt>
      <trkpt lat="47.23392" lon="5.4943">
        <ele>215</ele>
        <time>2012-10-16T13:39:50Z</time>
      </trkpt>
      <trkpt lat="47.23386" lon="5.49443">
        <ele>215</ele>
        <time>2012-10-16T13:39:52Z</time>
      </trkpt>
      <trkpt lat="47.2338" lon="5.49455">
        <ele>215</ele>
        <time>2012-10-16T13:39:54Z</time>
      </trkpt>
      <trkpt lat="47.23374" lon="5.49466">
        <ele>215</ele>
        <time>2012-10-16T13:39:56Z</time>
      </trkpt>
      <trkpt lat="47.23369" lon="5.49478">
        <ele>215</ele>
        <time>2012-10-16T13:39:58Z</time>
      </trkpt>
      <trkpt lat="47.23363" lon="5.4949">
        <ele>215</ele>
        <time>2012-10-16T13:40:00Z</time>
      </trkpt>
      <trkpt lat="47.23356" lon="5.495">
        <ele>215</ele>
        <time>2012-10-16T13:40:02Z</time>
      </trkpt>
      <trkpt lat="47.23351" lon="5.49511">
        <ele>215</ele>
        <time>2012-10-16T13:40:04Z</time>
      </trkpt>
      <trkpt lat="47.23344" lon="5.49522">
        <ele>215</ele>
        <time>2012-10-16T13:40:06Z</time>
      </trkpt>
      <trkpt lat="47.23339" lon="5.49534">
        <ele>215</ele>
        <time>2012-10-16T13:40:08Z</time>
      </trkpt>
      <trkpt lat="47.23332" lon="5.49544">
        <ele>215</ele>
        <time>2012-10-16T13:40:10Z</time>
      </trkpt>
      <trkpt lat="47.23326" lon="5.49554">
        <ele>220</ele>
        <time>2012-10-16T13:40:12Z</time>
      </trkpt>
      <trkpt lat="47.2332" lon="5.49565">
        <ele>220</ele>
        <time>2012-10-16T13:40:14Z</time>
      </trkpt>
      <trkpt lat="47.23313" lon="5.49576">
        <ele>220</ele>
        <time>2012-10-16T13:40:16Z</time>
      </trkpt>
      <trkpt lat="47.23306" lon="5.49587">
        <ele>220</ele>
        <time>2012-10-16T13:40:18Z</time>
      </trkpt>
      <trkpt lat="47.23299" lon="5.49598">
        <ele>220</ele>
        <time>2012-10-16T13:40:20Z</time>
      </trkpt>
      <trkpt lat="47.23291" lon="5.49609">
        <ele>220</ele>
        <time>2012-10-16T13:40:22Z</time>
      </trkpt>
      <trkpt lat="47.23284" lon="5.49621">
        <ele>220</ele>
        <time>2012-10-16T13:40:24Z</time>
      </trkpt>
      <trkpt lat="47.23276" lon="5.49632">
        <ele>220</ele>
        <time>2012-10-16T13:40:26Z</time>
      </trkpt>
      <trkpt lat="47.23267" lon="5.49643">
        <ele>220</ele>
        <time>2012-10-16T13:40:28Z</time>
      </trkpt>
      <trkpt lat="47.23257" lon="5.49654">
        <ele>220</ele>
        <time>2012-10-16T13:40:30Z</time>
      </trkpt>
      <trkpt lat="47.23248" lon="5.49665">
        <ele>220</ele>
        <time>2012-10-16T13:40:32Z</time>
      </trkpt>
      <trkpt lat="47.23237" lon="5.49676">
        <ele>220</ele>
        <time>2012-10-16T13:40:34Z</time>
      </trkpt>
      <trkpt lat="47.23227" lon="5.49688">
        <ele>220</ele>
        <time>2012-10-16T13:40:36Z</time>
      </trkpt>
      <trkpt lat="47.23217" lon="5.49701">
        <ele>220</ele>
        <time>2012-10-16T13:40:38Z</time>
      </trkpt>
      <trkpt lat="47.23207" lon="5.49713">
        <ele>220</ele>
        <time>2012-10-16T13:40:40Z</time>
      </trkpt>
      <trkpt lat="47.23195" lon="5.49725">
        <ele>226</ele>
        <time>2012-10-16T13:40:42Z</time>
      </trkpt>
      <trkpt lat="47.23183" lon="5.49737">
        <ele>226</ele>
        <time>2012-10-16T13:40:44Z</time>
      </trkpt>
      <trkpt lat="47.23172" lon="5.49747">
        <ele>226</ele>
        <time>2012-10-16T13:40:46Z</time>
      </trkpt>
      <trkpt lat="47.23159" lon="5.49757">
        <ele>226</ele>
        <time>2012-10-16T13:40:48Z</time>
      </trkpt>
      <trkpt lat="47.23148" lon="5.49765">
        <ele>226</ele>
        <time>2012-10-16T13:40:50Z</time>
      </trkpt>
      <trkpt lat="47.23136" lon="5.49773">
        <ele>226</ele>
        <time>2012-10-16T13:40:52Z</time>
      </trkpt>
      <trkpt lat="47.23124" lon="5.49779">
        <ele>226</ele>
        <time>2012-10-16T13:40:54Z</time>
      </trkpt>
      <trkpt lat="47.23113" lon="5.49784">
        <ele>226</ele>
        <time>2012-10-16T13:40:56Z</time>
      </trkpt>
      <trkpt lat="47.23101" lon="5.4979">
        <ele>226</ele>
        <time>2012-10-16T13:40:58Z</time>
      </trkpt>
      <trkpt lat="47.23089" lon="5.49794">
        <ele>226</ele>
        <time>2012-10-16T13:41:00Z</time>
      </trkpt>
      <trkpt lat="47.23077" lon="5.498">
        <ele>226</ele>
        <time>2012-10-16T13:41:02Z</time>
      </trkpt>
      <trkpt lat="47.23066" lon="5.49805">
        <ele>226</ele>
        <time>2012-10-16T13:41:04Z</time>
      </trkpt>
      <trkpt lat="47.23054" lon="5.4981">
        <ele>226</ele>
        <time>2012-10-16T13:41:06Z</time>
      </trkpt>
      <trkpt lat="47.23042" lon="5.49816">
        <ele>226</ele>
        <time>2012-10-16T13:41:08Z</time>
      </trkpt>
      <trkpt lat="47.2303" lon="5.49821">
        <ele>226</ele>
        <time>2012-10-16T13:41:10Z</time>
      </trkpt>
      <trkpt lat="47.23017" lon="5.49826">
        <ele>226</ele>
        <time>2012-10-16T13:41:12Z</time>
      </trkpt>
      <trkpt lat="47.23004" lon="5.49832">
        <ele>226</ele>
        <time>2012-10-16T13:41:14Z</time>
      </trkpt>
      <trkpt lat="47.22991" lon="5.49837">
        <ele>226</ele>
        <time>2012-10-16T13:41:16Z</time>
      </trkpt>
      <trkpt lat="47.22978" lon="5.49844">
        <ele>226</ele>
        <time>2012-10-16T13:41:18Z</time>
      </trkpt>
      <trkpt lat="47.22964" lon="5.4985">
        <ele>226</ele>
        <time>2012-10-16T13:41:20Z</time>
      </trkpt>
      <trkpt lat="47.2295" lon="5.49856">
        <ele>226</ele>
        <time>2012-10-16T13:41:22Z</time>
      </trkpt>
      <trkpt lat="47.22934" lon="5.49863">
        <ele>226</ele>
        <time>2012-10-16T13:41:24Z</time>
      </trkpt>
      <trkpt lat="47.22919" lon="5.4987">
        <ele>226</ele>
        <time>2012-10-16T13:41:26Z</time>
      </trkpt>
      <trkpt lat="47.22904" lon="5.49876">
        <ele>226</ele>
        <time>2012-10-16T13:41:28Z</time>
      </trkpt>
      <trkpt lat="47.22889" lon="5.49882">
        <ele>226</ele>
        <time>2012-10-16T13:41:30Z</time>
      </trkpt>
      <trkpt lat="47.22874" lon="5.49888">
        <ele>226</ele>
        <time>2012-10-16T13:41:32Z</time>
      </trkpt>
      <trkpt lat="47.2286" lon="5.49895">
        <ele>226</ele>
        <time>2012-10-16T13:41:34Z</time>
      </trkpt>
      <trkpt lat="47.22847" lon="5.499">
        <ele>226</ele>
        <time>2012-10-16T13:41:36Z</time>
      </trkpt>
      <trkpt lat="47.22833" lon="5.49906">
        <ele>226</ele>
        <time>2012-10-16T13:41:38Z</time>
      </trkpt>
      <trkpt lat="47.2282" lon="5.49912">
        <ele>226</ele>
        <time>2012-10-16T13:41:40Z</time>
      </trkpt>
      <trkpt lat="47.22807" lon="5.49918">
        <ele>226</ele>
        <time>2012-10-16T13:41:42Z</time>
      </trkpt>
      <trkpt lat="47.22794" lon="5.49924">
        <ele>226</ele>
        <time>2012-10-16T13:41:44Z</time>
      </trkpt>
      <trkpt lat="47.22781" lon="5.49931">
        <ele>226</ele>
        <time>2012-10-16T13:41:46Z</time>
      </trkpt>
      <trkpt lat="47.22768" lon="5.49938">
        <ele>226</ele>
        <time>2012-10-16T13:41:48Z</time>
      </trkpt>
      <trkpt lat="47.22756" lon="5.49943">
        <ele>226</ele>
        <time>2012-10-16T13:41:50Z</time>
      </trkpt>
      <trkpt lat="47.22743" lon="5.4995">
        <ele>226</ele>
        <time>2012-10-16T13:41:52Z</time>
      </trkpt>
      <trkpt lat="47.2273" lon="5.49956">
        <ele>226</ele>
        <time>2012-10-16T13:41:54Z</time>
      </trkpt>
      <trkpt lat="47.22718" lon="5.49963">
        <ele>226</ele>
        <time>2012-10-16T13:41:56Z</time>
      </trkpt>
      <trkpt lat="47.22705" lon="5.4997">
        <ele>226</ele>
        <time>2012-10-16T13:41:58Z</time>
      </trkpt>
      <trkpt lat="47.22692" lon="5.49978">
        <ele>226</ele>
        <time>2012-10-16T13:42:00Z</time>
      </trkpt>
      <trkpt lat="47.22679" lon="5.49986">
        <ele>226</ele>
        <time>2012-10-16T13:42:02Z</time>
      </trkpt>
      <trkpt lat="47.22666" lon="5.49994">
        <ele>226</ele>
        <time>2012-10-16T13:42:04Z</time>
      </trkpt>
      <trkpt lat="47.22653" lon="5.50003">
        <ele>226</ele>
        <time>2012-10-16T13:42:06Z</time>
      </trkpt>
      <trkpt lat="47.22641" lon="5.50011">
        <ele>226</ele>
        <time>2012-10-16T13:42:08Z</time>
      </trkpt>
      <trkpt lat="47.22628" lon="5.50018">
        <ele>226</ele>
        <time>2012-10-16T13:42:10Z</time>
      </trkpt>
      <trkpt lat="47.22614" lon="5.50021">
        <ele>226</ele>
        <time>2012-10-16T13:42:12Z</time>
      </trkpt>
      <trkpt lat="47.22599" lon="5.50017">
        <ele>220</ele>
        <time>2012-10-16T13:42:14Z</time>
      </trkpt>
      <trkpt lat="47.22586" lon="5.50005">
        <ele>220</ele>
        <time>2012-10-16T13:42:16Z</time>
      </trkpt>
      <trkpt lat="47.22574" lon="5.49992">
        <ele>220</ele>
        <time>2012-10-16T13:42:18Z</time>
      </trkpt>
      <trkpt lat="47.22562" lon="5.49978">
        <ele>220</ele>
        <time>2012-10-16T13:42:20Z</time>
      </trkpt>
      <trkpt lat="47.22551" lon="5.49964">
        <ele>220</ele>
        <time>2012-10-16T13:42:22Z</time>
      </trkpt>
      <trkpt lat="47.2254" lon="5.49951">
        <ele>220</ele>
        <time>2012-10-16T13:42:24Z</time>
      </trkpt>
      <trkpt lat="47.22527" lon="5.49939">
        <ele>220</ele>
        <time>2012-10-16T13:42:26Z</time>
      </trkpt>
      <trkpt lat="47.22515" lon="5.49929">
        <ele>220</ele>
        <time>2012-10-16T13:42:28Z</time>
      </trkpt>
      <trkpt lat="47.22503" lon="5.49923">
        <ele>214</ele>
        <time>2012-10-16T13:42:30Z</time>
      </trkpt>
      <trkpt lat="47.22491" lon="5.49922">
        <ele>214</ele>
        <time>2012-10-16T13:42:32Z</time>
      </trkpt>
      <trkpt lat="47.2248" lon="5.49924">
        <ele>214</ele>
        <time>2012-10-16T13:42:35Z</time>
      </trkpt>
      <trkpt lat="47.22474" lon="5.49936">
        <ele>214</ele>
        <time>2012-10-16T13:42:38Z</time>
      </trkpt>
      <trkpt lat="47.22469" lon="5.4995">
        <ele>214</ele>
        <time>2012-10-16T13:42:41Z</time>
      </trkpt>
      <trkpt lat="47.22463" lon="5.49967">
        <ele>214</ele>
        <time>2012-10-16T13:42:44Z</time>
      </trkpt>
      <trkpt lat="47.22458" lon="5.49985">
        <ele>214</ele>
        <time>2012-10-16T13:42:47Z</time>
      </trkpt>
      <trkpt lat="47.22456" lon="5.49997">
        <ele>214</ele>
        <time>2012-10-16T13:42:49Z</time>
      </trkpt>
      <trkpt lat="47.22452" lon="5.5001">
        <ele>214</ele>
        <time>2012-10-16T13:42:51Z</time>
      </trkpt>
      <trkpt lat="47.22448" lon="5.50027">
        <ele>214</ele>
        <time>2012-10-16T13:42:54Z</time>
      </trkpt>
      <trkpt lat="47.22445" lon="5.5004">
        <ele>214</ele>
        <time>2012-10-16T13:42:56Z</time>
      </trkpt>
      <trkpt lat="47.22443" lon="5.50054">
        <ele>214</ele>
        <time>2012-10-16T13:42:58Z</time>
      </trkpt>
      <trkpt lat="47.22439" lon="5.50068">
        <ele>214</ele>
        <time>2012-10-16T13:43:00Z</time>
      </trkpt>
      <trkpt lat="47.22434" lon="5.50082">
        <ele>209</ele>
        <time>2012-10-16T13:43:02Z</time>
      </trkpt>
      <trkpt lat="47.22428" lon="5.50094">
        <ele>209</ele>
        <time>2012-10-16T13:43:04Z</time>
      </trkpt>
      <trkpt lat="47.22421" lon="5.50107">
        <ele>209</ele>
        <time>2012-10-16T13:43:06Z</time>
      </trkpt>
      <trkpt lat="47.22415" lon="5.50118">
        <ele>209</ele>
        <time>2012-10-16T13:43:08Z</time>
      </trkpt>
      <trkpt lat="47.22407" lon="5.50132">
        <ele>209</ele>
        <time>2012-10-16T13:43:10Z</time>
      </trkpt>
      <trkpt lat="47.22397" lon="5.50144">
        <ele>209</ele>
        <time>2012-10-16T13:43:12Z</time>
      </trkpt>
      <trkpt lat="47.22387" lon="5.50156">
        <ele>209</ele>
        <time>2012-10-16T13:43:14Z</time>
      </trkpt>
      <trkpt lat="47.22376" lon="5.50167">
        <ele>209</ele>
        <time>2012-10-16T13:43:16Z</time>
      </trkpt>
      <trkpt lat="47.22363" lon="5.50176">
        <ele>209</ele>
        <time>2012-10-16T13:43:18Z</time>
      </trkpt>
      <trkpt lat="47.2235" lon="5.50184">
        <ele>209</ele>
        <time>2012-10-16T13:43:20Z</time>
      </trkpt>
      <trkpt lat="47.22336" lon="5.50192">
        <ele>209</ele>
        <time>2012-10-16T13:43:22Z</time>
      </trkpt>
      <trkpt lat="47.22321" lon="5.50199">
        <ele>209</ele>
        <time>2012-10-16T13:43:24Z</time>
      </trkpt>
      <trkpt lat="47.22308" lon="5.50208">
        <ele>209</ele>
        <time>2012-10-16T13:43:26Z</time>
      </trkpt>
      <trkpt lat="47.22294" lon="5.50217">
        <ele>209</ele>
        <time>2012-10-16T13:43:28Z</time>
      </trkpt>
      <trkpt lat="47.22279" lon="5.50226">
        <ele>209</ele>
        <time>2012-10-16T13:43:30Z</time>
      </trkpt>
      <trkpt lat="47.22264" lon="5.50234">
        <ele>209</ele>
        <time>2012-10-16T13:43:32Z</time>
      </trkpt>
      <trkpt lat="47.22249" lon="5.50242">
        <ele>209</ele>
        <time>2012-10-16T13:43:34Z</time>
      </trkpt>
      <trkpt lat="47.22234" lon="5.50251">
        <ele>209</ele>
        <time>2012-10-16T13:43:36Z</time>
      </trkpt>
      <trkpt lat="47.22219" lon="5.50256">
        <ele>209</ele>
        <time>2012-10-16T13:43:38Z</time>
      </trkpt>
      <trkpt lat="47.22202" lon="5.50258">
        <ele>209</ele>
        <time>2012-10-16T13:43:40Z</time>
      </trkpt>
      <trkpt lat="47.22186" lon="5.50255">
        <ele>209</ele>
        <time>2012-10-16T13:43:42Z</time>
      </trkpt>
      <trkpt lat="47.22171" lon="5.5025">
        <ele>209</ele>
        <time>2012-10-16T13:43:44Z</time>
      </trkpt>
      <trkpt lat="47.22156" lon="5.50242">
        <ele>209</ele>
        <time>2012-10-16T13:43:46Z</time>
      </trkpt>
      <trkpt lat="47.22142" lon="5.50233">
        <ele>209</ele>
        <time>2012-10-16T13:43:48Z</time>
      </trkpt>
      <trkpt lat="47.22128" lon="5.50223">
        <ele>209</ele>
        <time>2012-10-16T13:43:50Z</time>
      </trkpt>
      <trkpt lat="47.22115" lon="5.50214">
        <ele>209</ele>
        <time>2012-10-16T13:43:52Z</time>
      </trkpt>
      <trkpt lat="47.22101" lon="5.50205">
        <ele>209</ele>
        <time>2012-10-16T13:43:54Z</time>
      </trkpt>
      <trkpt lat="47.22087" lon="5.50196">
        <ele>209</ele>
        <time>2012-10-16T13:43:56Z</time>
      </trkpt>
      <trkpt lat="47.22074" lon="5.50189">
        <ele>209</ele>
        <time>2012-10-16T13:43:58Z</time>
      </trkpt>
      <trkpt lat="47.22061" lon="5.50187">
        <ele>209</ele>
        <time>2012-10-16T13:44:00Z</time>
      </trkpt>
      <trkpt lat="47.22048" lon="5.50186">
        <ele>209</ele>
        <time>2012-10-16T13:44:02Z</time>
      </trkpt>
      <trkpt lat="47.22034" lon="5.50189">
        <ele>209</ele>
        <time>2012-10-16T13:44:04Z</time>
      </trkpt>
      <trkpt lat="47.22021" lon="5.50192">
        <ele>209</ele>
        <time>2012-10-16T13:44:06Z</time>
      </trkpt>
      <trkpt lat="47.22007" lon="5.50197">
        <ele>209</ele>
        <time>2012-10-16T13:44:08Z</time>
      </trkpt>
      <trkpt lat="47.21995" lon="5.50203">
        <ele>209</ele>
        <time>2012-10-16T13:44:10Z</time>
      </trkpt>
      <trkpt lat="47.21983" lon="5.50209">
        <ele>209</ele>
        <time>2012-10-16T13:44:12Z</time>
      </trkpt>
      <trkpt lat="47.21971" lon="5.50216">
        <ele>209</ele>
        <time>2012-10-16T13:44:14Z</time>
      </trkpt>
      <trkpt lat="47.2196" lon="5.50224">
        <ele>209</ele>
        <time>2012-10-16T13:44:16Z</time>
      </trkpt>
      <trkpt lat="47.2195" lon="5.50233">
        <ele>209</ele>
        <time>2012-10-16T13:44:18Z</time>
      </trkpt>
      <trkpt lat="47.21941" lon="5.50242">
        <ele>209</ele>
        <time>2012-10-16T13:44:20Z</time>
      </trkpt>
      <trkpt lat="47.21933" lon="5.50251">
        <ele>209</ele>
        <time>2012-10-16T13:44:22Z</time>
      </trkpt>
      <trkpt lat="47.21924" lon="5.50262">
        <ele>209</ele>
        <time>2012-10-16T13:44:25Z</time>
      </trkpt>
      <trkpt lat="47.21919" lon="5.50276">
        <ele>209</ele>
        <time>2012-10-16T13:44:29Z</time>
      </trkpt>
      <trkpt lat="47.21921" lon="5.50261">
        <ele>209</ele>
        <time>2012-10-16T13:44:34Z</time>
      </trkpt>
      <trkpt lat="47.21912" lon="5.50252">
        <ele>209</ele>
        <time>2012-10-16T13:44:37Z</time>
      </trkpt>
      <trkpt lat="47.21902" lon="5.50253">
        <ele>209</ele>
        <time>2012-10-16T13:44:39Z</time>
      </trkpt>
      <trkpt lat="47.21893" lon="5.50253">
        <ele>209</ele>
        <time>2012-10-16T13:44:41Z</time>
      </trkpt>
      <trkpt lat="47.21884" lon="5.50253">
        <ele>209</ele>
        <time>2012-10-16T13:44:43Z</time>
      </trkpt>
      <trkpt lat="47.21875" lon="5.50254">
        <ele>209</ele>
        <time>2012-10-16T13:44:45Z</time>
      </trkpt>
      <trkpt lat="47.21865" lon="5.50253">
        <ele>209</ele>
        <time>2012-10-16T13:44:47Z</time>
      </trkpt>
      <trkpt lat="47.21852" lon="5.50253">
        <ele>209</ele>
        <time>2012-10-16T13:44:50Z</time>
      </trkpt>
      <trkpt lat="47.21843" lon="5.50253">
        <ele>209</ele>
        <time>2012-10-16T13:44:52Z</time>
      </trkpt>
      <trkpt lat="47.21834" lon="5.50253">
        <ele>209</ele>
        <time>2012-10-16T13:44:54Z</time>
      </trkpt>
      <trkpt lat="47.21825" lon="5.50254">
        <ele>209</ele>
        <time>2012-10-16T13:44:56Z</time>
      </trkpt>
      <trkpt lat="47.21811" lon="5.50253">
        <ele>209</ele>
        <time>2012-10-16T13:44:59Z</time>
      </trkpt>
      <trkpt lat="47.21798" lon="5.50253">
        <ele>209</ele>
        <time>2012-10-16T13:45:02Z</time>
      </trkpt>
      <trkpt lat="47.21785" lon="5.50253">
        <ele>209</ele>
        <time>2012-10-16T13:45:05Z</time>
      </trkpt>
      <trkpt lat="47.21772" lon="5.50254">
        <ele>209</ele>
        <time>2012-10-16T13:45:08Z</time>
      </trkpt>
      <trkpt lat="47.21759" lon="5.50254">
        <ele>209</ele>
        <time>2012-10-16T13:45:11Z</time>
      </trkpt>
      <trkpt lat="47.21746" lon="5.50254">
        <ele>209</ele>
        <time>2012-10-16T13:45:14Z</time>
      </trkpt>
      <trkpt lat="47.21737" lon="5.50255">
        <ele>209</ele>
        <time>2012-10-16T13:45:16Z</time>
      </trkpt>
      <trkpt lat="47.21724" lon="5.50255">
        <ele>214</ele>
        <time>2012-10-16T13:45:19Z</time>
      </trkpt>
      <trkpt lat="47.21714" lon="5.50256">
        <ele>214</ele>
        <time>2012-10-16T13:45:21Z</time>
      </trkpt>
      <trkpt lat="47.21704" lon="5.50256">
        <ele>214</ele>
        <time>2012-10-16T13:45:23Z</time>
      </trkpt>
      <trkpt lat="47.21693" lon="5.50256">
        <ele>214</ele>
        <time>2012-10-16T13:45:25Z</time>
      </trkpt>
      <trkpt lat="47.21682" lon="5.50257">
        <ele>214</ele>
        <time>2012-10-16T13:45:27Z</time>
      </trkpt>
      <trkpt lat="47.2167" lon="5.50257">
        <ele>214</ele>
        <time>2012-10-16T13:45:29Z</time>
      </trkpt>
      <trkpt lat="47.21658" lon="5.50257">
        <ele>214</ele>
        <time>2012-10-16T13:45:31Z</time>
      </trkpt>
      <trkpt lat="47.21645" lon="5.50257">
        <ele>214</ele>
        <time>2012-10-16T13:45:33Z</time>
      </trkpt>
      <trkpt lat="47.21632" lon="5.50258">
        <ele>214</ele>
        <time>2012-10-16T13:45:35Z</time>
      </trkpt>
      <trkpt lat="47.21618" lon="5.50259">
        <ele>214</ele>
        <time>2012-10-16T13:45:37Z</time>
      </trkpt>
      <trkpt lat="47.21604" lon="5.50259">
        <ele>214</ele>
        <time>2012-10-16T13:45:39Z</time>
      </trkpt>
      <trkpt lat="47.2159" lon="5.50259">
        <ele>214</ele>
        <time>2012-10-16T13:45:41Z</time>
      </trkpt>
      <trkpt lat="47.21574" lon="5.5026">
        <ele>214</ele>
        <time>2012-10-16T13:45:43Z</time>
      </trkpt>
      <trkpt lat="47.21559" lon="5.5026">
        <ele>214</ele>
        <time>2012-10-16T13:45:45Z</time>
      </trkpt>
      <trkpt lat="47.21544" lon="5.50261">
        <ele>214</ele>
        <time>2012-10-16T13:45:47Z</time>
      </trkpt>
      <trkpt lat="47.2153" lon="5.50262">
        <ele>214</ele>
        <time>2012-10-16T13:45:49Z</time>
      </trkpt>
      <trkpt lat="47.21516" lon="5.50262">
        <ele>214</ele>
        <time>2012-10-16T13:45:51Z</time>
      </trkpt>
      <trkpt lat="47.21502" lon="5.50262">
        <ele>214</ele>
        <time>2012-10-16T13:45:53Z</time>
      </trkpt>
      <trkpt lat="47.21487" lon="5.50262">
        <ele>214</ele>
        <time>2012-10-16T13:45:55Z</time>
      </trkpt>
      <trkpt lat="47.21473" lon="5.50262">
        <ele>214</ele>
        <time>2012-10-16T13:45:57Z</time>
      </trkpt>
      <trkpt lat="47.21459" lon="5.50262">
        <ele>214</ele>
        <time>2012-10-16T13:45:59Z</time>
      </trkpt>
      <trkpt lat="47.21446" lon="5.50263">
        <ele>214</ele>
        <time>2012-10-16T13:46:01Z</time>
      </trkpt>
      <trkpt lat="47.21433" lon="5.50264">
        <ele>214</ele>
        <time>2012-10-16T13:46:03Z</time>
      </trkpt>
      <trkpt lat="47.21421" lon="5.50264">
        <ele>214</ele>
        <time>2012-10-16T13:46:05Z</time>
      </trkpt>
      <trkpt lat="47.21409" lon="5.50264">
        <ele>214</ele>
        <time>2012-10-16T13:46:07Z</time>
      </trkpt>
      <trkpt lat="47.21398" lon="5.50264">
        <ele>214</ele>
        <time>2012-10-16T13:46:09Z</time>
      </trkpt>
      <trkpt lat="47.21386" lon="5.50264">
        <ele>214</ele>
        <time>2012-10-16T13:46:11Z</time>
      </trkpt>
      <trkpt lat="47.21375" lon="5.50265">
        <ele>214</ele>
        <time>2012-10-16T13:46:13Z</time>
      </trkpt>
      <trkpt lat="47.21364" lon="5.50265">
        <ele>214</ele>
        <time>2012-10-16T13:46:15Z</time>
      </trkpt>
      <trkpt lat="47.21353" lon="5.50265">
        <ele>214</ele>
        <time>2012-10-16T13:46:17Z</time>
      </trkpt>
      <trkpt lat="47.21341" lon="5.50264">
        <ele>214</ele>
        <time>2012-10-16T13:46:19Z</time>
      </trkpt>
      <trkpt lat="47.2133" lon="5.50259">
        <ele>214</ele>
        <time>2012-10-16T13:46:21Z</time>
      </trkpt>
      <trkpt lat="47.21317" lon="5.50252">
        <ele>214</ele>
        <time>2012-10-16T13:46:23Z</time>
      </trkpt>
      <trkpt lat="47.21306" lon="5.50243">
        <ele>214</ele>
        <time>2012-10-16T13:46:25Z</time>
      </trkpt>
      <trkpt lat="47.21295" lon="5.50233">
        <ele>214</ele>
        <time>2012-10-16T13:46:27Z</time>
      </trkpt>
      <trkpt lat="47.21284" lon="5.50224">
        <ele>214</ele>
        <time>2012-10-16T13:46:29Z</time>
      </trkpt>
      <trkpt lat="47.21273" lon="5.50215">
        <ele>214</ele>
        <time>2012-10-16T13:46:31Z</time>
      </trkpt>
      <trkpt lat="47.21262" lon="5.50206">
        <ele>214</ele>
        <time>2012-10-16T13:46:33Z</time>
      </trkpt>
      <trkpt lat="47.21251" lon="5.50198">
        <ele>214</ele>
        <time>2012-10-16T13:46:35Z</time>
      </trkpt>
      <trkpt lat="47.21241" lon="5.50189">
        <ele>214</ele>
        <time>2012-10-16T13:46:37Z</time>
      </trkpt>
      <trkpt lat="47.2123" lon="5.50181">
        <ele>214</ele>
        <time>2012-10-16T13:46:39Z</time>
      </trkpt>
      <trkpt lat="47.21219" lon="5.50172">
        <ele>214</ele>
        <time>2012-10-16T13:46:41Z</time>
      </trkpt>
      <trkpt lat="47.21208" lon="5.50165">
        <ele>214</ele>
        <time>2012-10-16T13:46:43Z</time>
      </trkpt>
      <trkpt lat="47.21197" lon="5.50156">
        <ele>214</ele>
        <time>2012-10-16T13:46:45Z</time>
      </trkpt>
      <trkpt lat="47.21187" lon="5.50148">
        <ele>214</ele>
        <time>2012-10-16T13:46:47Z</time>
      </trkpt>
      <trkpt lat="47.21176" lon="5.5014">
        <ele>214</ele>
        <time>2012-10-16T13:46:49Z</time>
      </trkpt>
      <trkpt lat="47.21166" lon="5.50132">
        <ele>214</ele>
        <time>2012-10-16T13:46:51Z</time>
      </trkpt>
      <trkpt lat="47.21155" lon="5.50125">
        <ele>214</ele>
        <time>2012-10-16T13:46:53Z</time>
      </trkpt>
      <trkpt lat="47.21145" lon="5.50118">
        <ele>214</ele>
        <time>2012-10-16T13:46:55Z</time>
      </trkpt>
      <trkpt lat="47.21134" lon="5.50109">
        <ele>214</ele>
        <time>2012-10-16T13:46:57Z</time>
      </trkpt>
      <trkpt lat="47.21124" lon="5.50102">
        <ele>214</ele>
        <time>2012-10-16T13:46:59Z</time>
      </trkpt>
      <trkpt lat="47.21113" lon="5.50095">
        <ele>214</ele>
        <time>2012-10-16T13:47:01Z</time>
      </trkpt>
      <trkpt lat="47.21102" lon="5.50089">
        <ele>214</ele>
        <time>2012-10-16T13:47:03Z</time>
      </trkpt>
      <trkpt lat="47.21092" lon="5.50084">
        <ele>214</ele>
        <time>2012-10-16T13:47:05Z</time>
      </trkpt>
      <trkpt lat="47.21082" lon="5.50084">
        <ele>214</ele>
        <time>2012-10-16T13:47:07Z</time>
      </trkpt>
      <trkpt lat="47.21071" lon="5.50092">
        <ele>214</ele>
        <time>2012-10-16T13:47:09Z</time>
      </trkpt>
      <trkpt lat="47.21063" lon="5.50104">
        <ele>214</ele>
        <time>2012-10-16T13:47:11Z</time>
      </trkpt>
      <trkpt lat="47.21057" lon="5.50118">
        <ele>214</ele>
        <time>2012-10-16T13:47:13Z</time>
      </trkpt>
      <trkpt lat="47.2105" lon="5.5013">
        <ele>214</ele>
        <time>2012-10-16T13:47:15Z</time>
      </trkpt>
      <trkpt lat="47.21044" lon="5.50142">
        <ele>214</ele>
        <time>2012-10-16T13:47:17Z</time>
      </trkpt>
      <trkpt lat="47.21037" lon="5.50153">
        <ele>214</ele>
        <time>2012-10-16T13:47:19Z</time>
      </trkpt>
      <trkpt lat="47.2103" lon="5.50166">
        <ele>214</ele>
        <time>2012-10-16T13:47:21Z</time>
      </trkpt>
      <trkpt lat="47.21023" lon="5.50177">
        <ele>214</ele>
        <time>2012-10-16T13:47:23Z</time>
      </trkpt>
      <trkpt lat="47.21015" lon="5.50187">
        <ele>214</ele>
        <time>2012-10-16T13:47:25Z</time>
      </trkpt>
      <trkpt lat="47.21007" lon="5.50197">
        <ele>214</ele>
        <time>2012-10-16T13:47:27Z</time>
      </trkpt>
      <trkpt lat="47.20999" lon="5.50205">
        <ele>214</ele>
        <time>2012-10-16T13:47:29Z</time>
      </trkpt>
      <trkpt lat="47.2099" lon="5.50213">
        <ele>214</ele>
        <time>2012-10-16T13:47:31Z</time>
      </trkpt>
      <trkpt lat="47.20982" lon="5.50218">
        <ele>214</ele>
        <time>2012-10-16T13:47:33Z</time>
      </trkpt>
      <trkpt lat="47.20972" lon="5.50221">
        <ele>214</ele>
        <time>2012-10-16T13:47:35Z</time>
      </trkpt>
      <trkpt lat="47.20962" lon="5.50221">
        <ele>214</ele>
        <time>2012-10-16T13:47:37Z</time>
      </trkpt>
      <trkpt lat="47.20953" lon="5.50219">
        <ele>214</ele>
        <time>2012-10-16T13:47:39Z</time>
      </trkpt>
      <trkpt lat="47.2094" lon="5.50216">
        <ele>214</ele>
        <time>2012-10-16T13:47:42Z</time>
      </trkpt>
      <trkpt lat="47.20927" lon="5.50212">
        <ele>219</ele>
        <time>2012-10-16T13:47:45Z</time>
      </trkpt>
      <trkpt lat="47.20919" lon="5.50208">
        <ele>219</ele>
        <time>2012-10-16T13:47:47Z</time>
      </trkpt>
      <trkpt lat="47.20909" lon="5.50206">
        <ele>219</ele>
        <time>2012-10-16T13:47:49Z</time>
      </trkpt>
      <trkpt lat="47.20896" lon="5.50202">
        <ele>219</ele>
        <time>2012-10-16T13:47:52Z</time>
      </trkpt>
      <trkpt lat="47.20884" lon="5.50198">
        <ele>219</ele>
        <time>2012-10-16T13:47:55Z</time>
      </trkpt>
      <trkpt lat="47.2087" lon="5.50193">
        <ele>219</ele>
        <time>2012-10-16T13:47:58Z</time>
      </trkpt>
      <trkpt lat="47.20861" lon="5.50189">
        <ele>219</ele>
        <time>2012-10-16T13:48:00Z</time>
      </trkpt>
      <trkpt lat="47.2085" lon="5.50184">
        <ele>219</ele>
        <time>2012-10-16T13:48:03Z</time>
      </trkpt>
      <trkpt lat="47.20837" lon="5.50179">
        <ele>219</ele>
        <time>2012-10-16T13:48:06Z</time>
      </trkpt>
      <trkpt lat="47.20825" lon="5.5017">
        <ele>219</ele>
        <time>2012-10-16T13:48:09Z</time>
      </trkpt>
      <trkpt lat="47.20813" lon="5.50162">
        <ele>219</ele>
        <time>2012-10-16T13:48:12Z</time>
      </trkpt>
      <trkpt lat="47.20804" lon="5.50157">
        <ele>219</ele>
        <time>2012-10-16T13:48:14Z</time>
      </trkpt>
      <trkpt lat="47.20792" lon="5.50149">
        <ele>219</ele>
        <time>2012-10-16T13:48:17Z</time>
      </trkpt>
      <trkpt lat="47.20784" lon="5.50144">
        <ele>219</ele>
        <time>2012-10-16T13:48:19Z</time>
      </trkpt>
      <trkpt lat="47.20775" lon="5.50139">
        <ele>219</ele>
        <time>2012-10-16T13:48:21Z</time>
      </trkpt>
      <trkpt lat="47.20766" lon="5.50135">
        <ele>219</ele>
        <time>2012-10-16T13:48:23Z</time>
      </trkpt>
      <trkpt lat="47.20758" lon="5.5013">
        <ele>219</ele>
        <time>2012-10-16T13:48:25Z</time>
      </trkpt>
      <trkpt lat="47.20749" lon="5.50127">
        <ele>219</ele>
        <time>2012-10-16T13:48:27Z</time>
      </trkpt>
      <trkpt lat="47.2074" lon="5.50123">
        <ele>225</ele>
        <time>2012-10-16T13:48:29Z</time>
      </trkpt>
      <trkpt lat="47.20732" lon="5.50119">
        <ele>225</ele>
        <time>2012-10-16T13:48:31Z</time>
      </trkpt>
      <trkpt lat="47.20723" lon="5.50116">
        <ele>225</ele>
        <time>2012-10-16T13:48:33Z</time>
      </trkpt>
      <trkpt lat="47.20714" lon="5.50111">
        <ele>225</ele>
        <time>2012-10-16T13:48:35Z</time>
      </trkpt>
      <trkpt lat="47.20706" lon="5.50107">
        <ele>225</ele>
        <time>2012-10-16T13:48:37Z</time>
      </trkpt>
      <trkpt lat="47.20697" lon="5.50102">
        <ele>225</ele>
        <time>2012-10-16T13:48:39Z</time>
      </trkpt>
      <trkpt lat="47.20687" lon="5.50099">
        <ele>225</ele>
        <time>2012-10-16T13:48:41Z</time>
      </trkpt>
      <trkpt lat="47.20678" lon="5.50096">
        <ele>225</ele>
        <time>2012-10-16T13:48:43Z</time>
      </trkpt>
      <trkpt lat="47.20668" lon="5.50095">
        <ele>225</ele>
        <time>2012-10-16T13:48:45Z</time>
      </trkpt>
      <trkpt lat="47.20655" lon="5.50096">
        <ele>225</ele>
        <time>2012-10-16T13:48:48Z</time>
      </trkpt>
      <trkpt lat="47.20643" lon="5.50097">
        <ele>225</ele>
        <time>2012-10-16T13:48:51Z</time>
      </trkpt>
      <trkpt lat="47.20632" lon="5.50099">
        <ele>225</ele>
        <time>2012-10-16T13:48:54Z</time>
      </trkpt>
      <trkpt lat="47.20621" lon="5.50099">
        <ele>230</ele>
        <time>2012-10-16T13:48:57Z</time>
      </trkpt>
      <trkpt lat="47.2061" lon="5.50099">
        <ele>230</ele>
        <time>2012-10-16T13:49:00Z</time>
      </trkpt>
      <trkpt lat="47.20601" lon="5.50096">
        <ele>230</ele>
        <time>2012-10-16T13:49:03Z</time>
      </trkpt>
      <trkpt lat="47.2059" lon="5.50091">
        <ele>230</ele>
        <time>2012-10-16T13:49:06Z</time>
      </trkpt>
      <trkpt lat="47.20579" lon="5.50085">
        <ele>230</ele>
        <time>2012-10-16T13:49:09Z</time>
      </trkpt>
      <trkpt lat="47.20569" lon="5.50079">
        <ele>230</ele>
        <time>2012-10-16T13:49:12Z</time>
      </trkpt>
      <trkpt lat="47.20561" lon="5.50071">
        <ele>230</ele>
        <time>2012-10-16T13:49:15Z</time>
      </trkpt>
      <trkpt lat="47.20553" lon="5.50065">
        <ele>235</ele>
        <time>2012-10-16T13:49:18Z</time>
      </trkpt>
      <trkpt lat="47.20544" lon="5.50059">
        <ele>235</ele>
        <time>2012-10-16T13:49:21Z</time>
      </trkpt>
      <trkpt lat="47.20536" lon="5.50054">
        <ele>235</ele>
        <time>2012-10-16T13:49:24Z</time>
      </trkpt>
      <trkpt lat="47.20527" lon="5.50048">
        <ele>235</ele>
        <time>2012-10-16T13:49:27Z</time>
      </trkpt>
      <trkpt lat="47.20517" lon="5.50044">
        <ele>235</ele>
        <time>2012-10-16T13:49:30Z</time>
      </trkpt>
      <trkpt lat="47.20509" lon="5.5004">
        <ele>235</ele>
        <time>2012-10-16T13:49:33Z</time>
      </trkpt>
      <trkpt lat="47.20499" lon="5.50032">
        <ele>235</ele>
        <time>2012-10-16T13:49:37Z</time>
      </trkpt>
      <trkpt lat="47.2049" lon="5.50022">
        <ele>235</ele>
        <time>2012-10-16T13:49:41Z</time>
      </trkpt>
      <trkpt lat="47.20481" lon="5.50012">
        <ele>242</ele>
        <time>2012-10-16T13:49:45Z</time>
      </trkpt>
      <trkpt lat="47.20469" lon="5.50004">
        <ele>242</ele>
        <time>2012-10-16T13:49:49Z</time>
      </trkpt>
      <trkpt lat="47.20461" lon="5.49998">
        <ele>242</ele>
        <time>2012-10-16T13:49:52Z</time>
      </trkpt>
      <trkpt lat="47.20451" lon="5.49992">
        <ele>242</ele>
        <time>2012-10-16T13:49:55Z</time>
      </trkpt>
      <trkpt lat="47.20441" lon="5.49985">
        <ele>242</ele>
        <time>2012-10-16T13:49:58Z</time>
      </trkpt>
      <trkpt lat="47.20432" lon="5.4998">
        <ele>242</ele>
        <time>2012-10-16T13:50:00Z</time>
      </trkpt>
      <trkpt lat="47.20424" lon="5.49976">
        <ele>242</ele>
        <time>2012-10-16T13:50:02Z</time>
      </trkpt>
      <trkpt lat="47.20414" lon="5.4997">
        <ele>242</ele>
        <time>2012-10-16T13:50:04Z</time>
      </trkpt>
      <trkpt lat="47.20406" lon="5.49964">
        <ele>242</ele>
        <time>2012-10-16T13:50:06Z</time>
      </trkpt>
      <trkpt lat="47.20397" lon="5.49957">
        <ele>242</ele>
        <time>2012-10-16T13:50:08Z</time>
      </trkpt>
      <trkpt lat="47.20387" lon="5.49949">
        <ele>242</ele>
        <time>2012-10-16T13:50:10Z</time>
      </trkpt>
      <trkpt lat="47.20378" lon="5.49937">
        <ele>242</ele>
        <time>2012-10-16T13:50:12Z</time>
      </trkpt>
      <trkpt lat="47.20373" lon="5.49922">
        <ele>242</ele>
        <time>2012-10-16T13:50:14Z</time>
      </trkpt>
      <trkpt lat="47.20372" lon="5.49903">
        <ele>242</ele>
        <time>2012-10-16T13:50:16Z</time>
      </trkpt>
      <trkpt lat="47.20373" lon="5.49886">
        <ele>242</ele>
        <time>2012-10-16T13:50:18Z</time>
      </trkpt>
      <trkpt lat="47.20375" lon="5.4987">
        <ele>242</ele>
        <time>2012-10-16T13:50:20Z</time>
      </trkpt>
      <trkpt lat="47.20375" lon="5.49853">
        <ele>242</ele>
        <time>2012-10-16T13:50:22Z</time>
      </trkpt>
      <trkpt lat="47.20373" lon="5.49835">
        <ele>242</ele>
        <time>2012-10-16T13:50:24Z</time>
      </trkpt>
      <trkpt lat="47.20366" lon="5.49819">
        <ele>242</ele>
        <time>2012-10-16T13:50:26Z</time>
      </trkpt>
      <trkpt lat="47.20356" lon="5.49808">
        <ele>242</ele>
        <time>2012-10-16T13:50:28Z</time>
      </trkpt>
      <trkpt lat="47.20345" lon="5.49797">
        <ele>242</ele>
        <time>2012-10-16T13:50:30Z</time>
      </trkpt>
      <trkpt lat="47.20332" lon="5.49785">
        <ele>242</ele>
        <time>2012-10-16T13:50:32Z</time>
      </trkpt>
      <trkpt lat="47.2032" lon="5.49773">
        <ele>236</ele>
        <time>2012-10-16T13:50:34Z</time>
      </trkpt>
      <trkpt lat="47.20307" lon="5.4976">
        <ele>236</ele>
        <time>2012-10-16T13:50:36Z</time>
      </trkpt>
      <trkpt lat="47.20294" lon="5.49748">
        <ele>236</ele>
        <time>2012-10-16T13:50:38Z</time>
      </trkpt>
      <trkpt lat="47.20279" lon="5.49738">
        <ele>236</ele>
        <time>2012-10-16T13:50:40Z</time>
      </trkpt>
      <trkpt lat="47.20262" lon="5.49729">
        <ele>236</ele>
        <time>2012-10-16T13:50:42Z</time>
      </trkpt>
      <trkpt lat="47.20253" lon="5.49727">
        <ele>231</ele>
        <time>2012-10-16T13:50:43Z</time>
      </trkpt>
      <trkpt lat="47.20243" lon="5.49722">
        <ele>231</ele>
        <time>2012-10-16T13:50:44Z</time>
      </trkpt>
      <trkpt lat="47.20234" lon="5.49718">
        <ele>231</ele>
        <time>2012-10-16T13:50:45Z</time>
      </trkpt>
      <trkpt lat="47.20224" lon="5.49712">
        <ele>231</ele>
        <time>2012-10-16T13:50:46Z</time>
      </trkpt>
      <trkpt lat="47.20215" lon="5.49705">
        <ele>231</ele>
        <time>2012-10-16T13:50:47Z</time>
      </trkpt>
      <trkpt lat="47.20206" lon="5.49697">
        <ele>231</ele>
        <time>2012-10-16T13:50:48Z</time>
      </trkpt>
      <trkpt lat="47.20197" lon="5.49689">
        <ele>231</ele>
        <time>2012-10-16T13:50:49Z</time>
      </trkpt>
      <trkpt lat="47.20189" lon="5.49681">
        <ele>231</ele>
        <time>2012-10-16T13:50:50Z</time>
      </trkpt>
      <trkpt lat="47.20181" lon="5.49672">
        <ele>231</ele>
        <time>2012-10-16T13:50:51Z</time>
      </trkpt>
      <trkpt lat="47.20174" lon="5.49663">
        <ele>231</ele>
        <time>2012-10-16T13:50:52Z</time>
      </trkpt>
      <trkpt lat="47.20167" lon="5.49653">
        <ele>231</ele>
        <time>2012-10-16T13:50:53Z</time>
      </trkpt>
      <trkpt lat="47.2016" lon="5.49643">
        <ele>231</ele>
        <time>2012-10-16T13:50:54Z</time>
      </trkpt>
      <trkpt lat="47.20154" lon="5.49633">
        <ele>231</ele>
        <time>2012-10-16T13:50:55Z</time>
      </trkpt>
      <trkpt lat="47.20147" lon="5.49623">
        <ele>226</ele>
        <time>2012-10-16T13:50:56Z</time>
      </trkpt>
      <trkpt lat="47.2014" lon="5.49614">
        <ele>226</ele>
        <time>2012-10-16T13:50:57Z</time>
      </trkpt>
      <trkpt lat="47.20133" lon="5.49604">
        <ele>226</ele>
        <time>2012-10-16T13:50:58Z</time>
      </trkpt>
      <trkpt lat="47.20127" lon="5.49594">
        <ele>226</ele>
        <time>2012-10-16T13:50:59Z</time>
      </trkpt>
      <trkpt lat="47.20114" lon="5.49575">
        <ele>226</ele>
        <time>2012-10-16T13:51:01Z</time>
      </trkpt>
      <trkpt lat="47.20102" lon="5.49556">
        <ele>226</ele>
        <time>2012-10-16T13:51:03Z</time>
      </trkpt>
      <trkpt lat="47.20095" lon="5.49546">
        <ele>226</ele>
        <time>2012-10-16T13:51:04Z</time>
      </trkpt>
      <trkpt lat="47.20086" lon="5.49526">
        <ele>226</ele>
        <time>2012-10-16T13:51:06Z</time>
      </trkpt>
      <trkpt lat="47.20078" lon="5.49504">
        <ele>226</ele>
        <time>2012-10-16T13:51:08Z</time>
      </trkpt>
      <trkpt lat="47.20068" lon="5.49482">
        <ele>226</ele>
        <time>2012-10-16T13:51:10Z</time>
      </trkpt>
      <trkpt lat="47.20059" lon="5.49462">
        <ele>226</ele>
        <time>2012-10-16T13:51:12Z</time>
      </trkpt>
      <trkpt lat="47.20048" lon="5.49441">
        <ele>226</ele>
        <time>2012-10-16T13:51:14Z</time>
      </trkpt>
      <trkpt lat="47.20042" lon="5.4943">
        <ele>220</ele>
        <time>2012-10-16T13:51:15Z</time>
      </trkpt>
      <trkpt lat="47.20036" lon="5.4942">
        <ele>220</ele>
        <time>2012-10-16T13:51:16Z</time>
      </trkpt>
      <trkpt lat="47.2003" lon="5.4941">
        <ele>220</ele>
        <time>2012-10-16T13:51:17Z</time>
      </trkpt>
      <trkpt lat="47.20024" lon="5.49399">
        <ele>220</ele>
        <time>2012-10-16T13:51:18Z</time>
      </trkpt>
      <trkpt lat="47.20018" lon="5.49388">
        <ele>220</ele>
        <time>2012-10-16T13:51:19Z</time>
      </trkpt>
      <trkpt lat="47.20013" lon="5.49377">
        <ele>220</ele>
        <time>2012-10-16T13:51:20Z</time>
      </trkpt>
      <trkpt lat="47.20007" lon="5.49367">
        <ele>220</ele>
        <time>2012-10-16T13:51:21Z</time>
      </trkpt>
      <trkpt lat="47.20002" lon="5.49356">
        <ele>220</ele>
        <time>2012-10-16T13:51:22Z</time>
      </trkpt>
      <trkpt lat="47.19996" lon="5.49345">
        <ele>220</ele>
        <time>2012-10-16T13:51:23Z</time>
      </trkpt>
      <trkpt lat="47.19986" lon="5.49323">
        <ele>220</ele>
        <time>2012-10-16T13:51:25Z</time>
      </trkpt>
      <trkpt lat="47.19982" lon="5.4931">
        <ele>220</ele>
        <time>2012-10-16T13:51:26Z</time>
      </trkpt>
      <trkpt lat="47.19977" lon="5.49297">
        <ele>220</ele>
        <time>2012-10-16T13:51:27Z</time>
      </trkpt>
      <trkpt lat="47.19973" lon="5.49285">
        <ele>215</ele>
        <time>2012-10-16T13:51:28Z</time>
      </trkpt>
      <trkpt lat="47.19969" lon="5.49271">
        <ele>215</ele>
        <time>2012-10-16T13:51:29Z</time>
      </trkpt>
      <trkpt lat="47.19964" lon="5.49259">
        <ele>215</ele>
        <time>2012-10-16T13:51:30Z</time>
      </trkpt>
      <trkpt lat="47.1996" lon="5.49245">
        <ele>215</ele>
        <time>2012-10-16T13:51:31Z</time>
      </trkpt>
      <trkpt lat="47.19955" lon="5.49232">
        <ele>215</ele>
        <time>2012-10-16T13:51:32Z</time>
      </trkpt>
      <trkpt lat="47.1995" lon="5.49218">
        <ele>215</ele>
        <time>2012-10-16T13:51:33Z</time>
      </trkpt>
      <trkpt lat="47.19944" lon="5.49205">
        <ele>215</ele>
        <time>2012-10-16T13:51:34Z</time>
      </trkpt>
      <trkpt lat="47.19938" lon="5.49191">
        <ele>215</ele>
        <time>2012-10-16T13:51:35Z</time>
      </trkpt>
      <trkpt lat="47.19933" lon="5.49179">
        <ele>210</ele>
        <time>2012-10-16T13:51:36Z</time>
      </trkpt>
      <trkpt lat="47.19926" lon="5.49165">
        <ele>210</ele>
        <time>2012-10-16T13:51:37Z</time>
      </trkpt>
      <trkpt lat="47.1992" lon="5.49152">
        <ele>210</ele>
        <time>2012-10-16T13:51:38Z</time>
      </trkpt>
      <trkpt lat="47.19914" lon="5.49139">
        <ele>210</ele>
        <time>2012-10-16T13:51:39Z</time>
      </trkpt>
      <trkpt lat="47.19908" lon="5.49126">
        <ele>210</ele>
        <time>2012-10-16T13:51:40Z</time>
      </trkpt>
      <trkpt lat="47.19903" lon="5.49112">
        <ele>210</ele>
        <time>2012-10-16T13:51:41Z</time>
      </trkpt>
      <trkpt lat="47.19897" lon="5.491">
        <ele>210</ele>
        <time>2012-10-16T13:51:42Z</time>
      </trkpt>
      <trkpt lat="47.19891" lon="5.49087">
        <ele>210</ele>
        <time>2012-10-16T13:51:43Z</time>
      </trkpt>
      <trkpt lat="47.19885" lon="5.49076">
        <ele>210</ele>
        <time>2012-10-16T13:51:44Z</time>
      </trkpt>
      <trkpt lat="47.19879" lon="5.49064">
        <ele>210</ele>
        <time>2012-10-16T13:51:45Z</time>
      </trkpt>
      <trkpt lat="47.19873" lon="5.49053">
        <ele>210</ele>
        <time>2012-10-16T13:51:46Z</time>
      </trkpt>
      <trkpt lat="47.19866" lon="5.49042">
        <ele>210</ele>
        <time>2012-10-16T13:51:47Z</time>
      </trkpt>
      <trkpt lat="47.1986" lon="5.49032">
        <ele>210</ele>
        <time>2012-10-16T13:51:48Z</time>
      </trkpt>
      <trkpt lat="47.19855" lon="5.49022">
        <ele>210</ele>
        <time>2012-10-16T13:51:49Z</time>
      </trkpt>
      <trkpt lat="47.19844" lon="5.49001">
        <ele>210</ele>
        <time>2012-10-16T13:51:51Z</time>
      </trkpt>
      <trkpt lat="47.19838" lon="5.4899">
        <ele>210</ele>
        <time>2012-10-16T13:51:52Z</time>
      </trkpt>
      <trkpt lat="47.19827" lon="5.4897">
        <ele>210</ele>
        <time>2012-10-16T13:51:54Z</time>
      </trkpt>
      <trkpt lat="47.19821" lon="5.4896">
        <ele>210</ele>
        <time>2012-10-16T13:51:55Z</time>
      </trkpt>
      <trkpt lat="47.1981" lon="5.4894">
        <ele>210</ele>
        <time>2012-10-16T13:51:57Z</time>
      </trkpt>
      <trkpt lat="47.19798" lon="5.4892">
        <ele>210</ele>
        <time>2012-10-16T13:51:59Z</time>
      </trkpt>
      <trkpt lat="47.19787" lon="5.489">
        <ele>210</ele>
        <time>2012-10-16T13:52:01Z</time>
      </trkpt>
      <trkpt lat="47.19777" lon="5.48882">
        <ele>210</ele>
        <time>2012-10-16T13:52:03Z</time>
      </trkpt>
      <trkpt lat="47.19766" lon="5.48865">
        <ele>210</ele>
        <time>2012-10-16T13:52:05Z</time>
      </trkpt>
      <trkpt lat="47.19757" lon="5.48849">
        <ele>210</ele>
        <time>2012-10-16T13:52:07Z</time>
      </trkpt>
      <trkpt lat="47.19748" lon="5.48835">
        <ele>210</ele>
        <time>2012-10-16T13:52:09Z</time>
      </trkpt>
      <trkpt lat="47.1974" lon="5.48821">
        <ele>210</ele>
        <time>2012-10-16T13:52:11Z</time>
      </trkpt>
      <trkpt lat="47.19733" lon="5.48808">
        <ele>210</ele>
        <time>2012-10-16T13:52:13Z</time>
      </trkpt>
      <trkpt lat="47.19726" lon="5.48794">
        <ele>210</ele>
        <time>2012-10-16T13:52:15Z</time>
      </trkpt>
      <trkpt lat="47.19718" lon="5.48782">
        <ele>210</ele>
        <time>2012-10-16T13:52:17Z</time>
      </trkpt>
      <trkpt lat="47.1971" lon="5.48767">
        <ele>210</ele>
        <time>2012-10-16T13:52:19Z</time>
      </trkpt>
      <trkpt lat="47.19703" lon="5.48753">
        <ele>210</ele>
        <time>2012-10-16T13:52:21Z</time>
      </trkpt>
      <trkpt lat="47.19695" lon="5.48739">
        <ele>210</ele>
        <time>2012-10-16T13:52:23Z</time>
      </trkpt>
      <trkpt lat="47.19686" lon="5.48724">
        <ele>210</ele>
        <time>2012-10-16T13:52:25Z</time>
      </trkpt>
      <trkpt lat="47.19678" lon="5.4871">
        <ele>210</ele>
        <time>2012-10-16T13:52:27Z</time>
      </trkpt>
      <trkpt lat="47.1967" lon="5.48695">
        <ele>210</ele>
        <time>2012-10-16T13:52:29Z</time>
      </trkpt>
      <trkpt lat="47.19662" lon="5.48681">
        <ele>210</ele>
        <time>2012-10-16T13:52:31Z</time>
      </trkpt>
      <trkpt lat="47.19655" lon="5.48669">
        <ele>210</ele>
        <time>2012-10-16T13:52:33Z</time>
      </trkpt>
      <trkpt lat="47.19648" lon="5.48657">
        <ele>210</ele>
        <time>2012-10-16T13:52:35Z</time>
      </trkpt>
      <trkpt lat="47.19641" lon="5.48645">
        <ele>210</ele>
        <time>2012-10-16T13:52:37Z</time>
      </trkpt>
      <trkpt lat="47.19634" lon="5.48633">
        <ele>210</ele>
        <time>2012-10-16T13:52:39Z</time>
      </trkpt>
      <trkpt lat="47.19628" lon="5.48621">
        <ele>210</ele>
        <time>2012-10-16T13:52:41Z</time>
      </trkpt>
      <trkpt lat="47.19621" lon="5.48608">
        <ele>210</ele>
        <time>2012-10-16T13:52:43Z</time>
      </trkpt>
      <trkpt lat="47.19614" lon="5.48597">
        <ele>210</ele>
        <time>2012-10-16T13:52:45Z</time>
      </trkpt>
      <trkpt lat="47.19607" lon="5.48584">
        <ele>210</ele>
        <time>2012-10-16T13:52:47Z</time>
      </trkpt>
      <trkpt lat="47.196" lon="5.48573">
        <ele>210</ele>
        <time>2012-10-16T13:52:49Z</time>
      </trkpt>
      <trkpt lat="47.19593" lon="5.48562">
        <ele>210</ele>
        <time>2012-10-16T13:52:51Z</time>
      </trkpt>
      <trkpt lat="47.19587" lon="5.4855">
        <ele>210</ele>
        <time>2012-10-16T13:52:53Z</time>
      </trkpt>
      <trkpt lat="47.1958" lon="5.48538">
        <ele>210</ele>
        <time>2012-10-16T13:52:55Z</time>
      </trkpt>
      <trkpt lat="47.19573" lon="5.48526">
        <ele>210</ele>
        <time>2012-10-16T13:52:57Z</time>
      </trkpt>
      <trkpt lat="47.19566" lon="5.48513">
        <ele>210</ele>
        <time>2012-10-16T13:52:59Z</time>
      </trkpt>
      <trkpt lat="47.1956" lon="5.48501">
        <ele>210</ele>
        <time>2012-10-16T13:53:01Z</time>
      </trkpt>
      <trkpt lat="47.19552" lon="5.4849">
        <ele>210</ele>
        <time>2012-10-16T13:53:03Z</time>
      </trkpt>
      <trkpt lat="47.19546" lon="5.48478">
        <ele>210</ele>
        <time>2012-10-16T13:53:05Z</time>
      </trkpt>
      <trkpt lat="47.19539" lon="5.48466">
        <ele>210</ele>
        <time>2012-10-16T13:53:07Z</time>
      </trkpt>
      <trkpt lat="47.19532" lon="5.48454">
        <ele>210</ele>
        <time>2012-10-16T13:53:09Z</time>
      </trkpt>
      <trkpt lat="47.19525" lon="5.48442">
        <ele>210</ele>
        <time>2012-10-16T13:53:11Z</time>
      </trkpt>
      <trkpt lat="47.19519" lon="5.48431">
        <ele>210</ele>
        <time>2012-10-16T13:53:13Z</time>
      </trkpt>
      <trkpt lat="47.19512" lon="5.48419">
        <ele>210</ele>
        <time>2012-10-16T13:53:15Z</time>
      </trkpt>
      <trkpt lat="47.19505" lon="5.48407">
        <ele>210</ele>
        <time>2012-10-16T13:53:17Z</time>
      </trkpt>
      <trkpt lat="47.19498" lon="5.48395">
        <ele>210</ele>
        <time>2012-10-16T13:53:19Z</time>
      </trkpt>
      <trkpt lat="47.19491" lon="5.48384">
        <ele>210</ele>
        <time>2012-10-16T13:53:21Z</time>
      </trkpt>
      <trkpt lat="47.19484" lon="5.48372">
        <ele>210</ele>
        <time>2012-10-16T13:53:23Z</time>
      </trkpt>
      <trkpt lat="47.19477" lon="5.4836">
        <ele>210</ele>
        <time>2012-10-16T13:53:25Z</time>
      </trkpt>
      <trkpt lat="47.1947" lon="5.48349">
        <ele>210</ele>
        <time>2012-10-16T13:53:27Z</time>
      </trkpt>
      <trkpt lat="47.19463" lon="5.48337">
        <ele>210</ele>
        <time>2012-10-16T13:53:29Z</time>
      </trkpt>
      <trkpt lat="47.19456" lon="5.48325">
        <ele>210</ele>
        <time>2012-10-16T13:53:31Z</time>
      </trkpt>
      <trkpt lat="47.19449" lon="5.48312">
        <ele>215</ele>
        <time>2012-10-16T13:53:33Z</time>
      </trkpt>
      <trkpt lat="47.19442" lon="5.48298">
        <ele>215</ele>
        <time>2012-10-16T13:53:35Z</time>
      </trkpt>
      <trkpt lat="47.19434" lon="5.48285">
        <ele>215</ele>
        <time>2012-10-16T13:53:37Z</time>
      </trkpt>
      <trkpt lat="47.19427" lon="5.48272">
        <ele>215</ele>
        <time>2012-10-16T13:53:39Z</time>
      </trkpt>
      <trkpt lat="47.19419" lon="5.48258">
        <ele>215</ele>
        <time>2012-10-16T13:53:41Z</time>
      </trkpt>
      <trkpt lat="47.19412" lon="5.48244">
        <ele>215</ele>
        <time>2012-10-16T13:53:43Z</time>
      </trkpt>
      <trkpt lat="47.19403" lon="5.48229">
        <ele>215</ele>
        <time>2012-10-16T13:53:45Z</time>
      </trkpt>
      <trkpt lat="47.19394" lon="5.48216">
        <ele>215</ele>
        <time>2012-10-16T13:53:47Z</time>
      </trkpt>
      <trkpt lat="47.19385" lon="5.48202">
        <ele>215</ele>
        <time>2012-10-16T13:53:49Z</time>
      </trkpt>
      <trkpt lat="47.19375" lon="5.48191">
        <ele>215</ele>
        <time>2012-10-16T13:53:51Z</time>
      </trkpt>
      <trkpt lat="47.19367" lon="5.48181">
        <ele>215</ele>
        <time>2012-10-16T13:53:53Z</time>
      </trkpt>
      <trkpt lat="47.19358" lon="5.48171">
        <ele>215</ele>
        <time>2012-10-16T13:53:55Z</time>
      </trkpt>
      <trkpt lat="47.1935" lon="5.48163">
        <ele>215</ele>
        <time>2012-10-16T13:53:57Z</time>
      </trkpt>
      <trkpt lat="47.19342" lon="5.48152">
        <ele>215</ele>
        <time>2012-10-16T13:53:59Z</time>
      </trkpt>
      <trkpt lat="47.19338" lon="5.48138">
        <ele>215</ele>
        <time>2012-10-16T13:54:01Z</time>
      </trkpt>
      <trkpt lat="47.1934" lon="5.48121">
        <ele>215</ele>
        <time>2012-10-16T13:54:03Z</time>
      </trkpt>
      <trkpt lat="47.19346" lon="5.48104">
        <ele>215</ele>
        <time>2012-10-16T13:54:05Z</time>
      </trkpt>
      <trkpt lat="47.19353" lon="5.48089">
        <ele>215</ele>
        <time>2012-10-16T13:54:07Z</time>
      </trkpt>
      <trkpt lat="47.19359" lon="5.48072">
        <ele>215</ele>
        <time>2012-10-16T13:54:09Z</time>
      </trkpt>
      <trkpt lat="47.19368" lon="5.48054">
        <ele>215</ele>
        <time>2012-10-16T13:54:11Z</time>
      </trkpt>
      <trkpt lat="47.19375" lon="5.48036">
        <ele>215</ele>
        <time>2012-10-16T13:54:13Z</time>
      </trkpt>
      <trkpt lat="47.1938" lon="5.48017">
        <ele>215</ele>
        <time>2012-10-16T13:54:15Z</time>
      </trkpt>
      <trkpt lat="47.19383" lon="5.47998">
        <ele>215</ele>
        <time>2012-10-16T13:54:17Z</time>
      </trkpt>
      <trkpt lat="47.19378" lon="5.47984">
        <ele>215</ele>
        <time>2012-10-16T13:54:19Z</time>
      </trkpt>
      <trkpt lat="47.19369" lon="5.47973">
        <ele>215</ele>
        <time>2012-10-16T13:54:21Z</time>
      </trkpt>
      <trkpt lat="47.19358" lon="5.47964">
        <ele>215</ele>
        <time>2012-10-16T13:54:23Z</time>
      </trkpt>
      <trkpt lat="47.1935" lon="5.47954">
        <ele>215</ele>
        <time>2012-10-16T13:54:25Z</time>
      </trkpt>
      <trkpt lat="47.19343" lon="5.47941">
        <ele>215</ele>
        <time>2012-10-16T13:54:27Z</time>
      </trkpt>
      <trkpt lat="47.19339" lon="5.47927">
        <ele>215</ele>
        <time>2012-10-16T13:54:29Z</time>
      </trkpt>
      <trkpt lat="47.19336" lon="5.47913">
        <ele>215</ele>
        <time>2012-10-16T13:54:31Z</time>
      </trkpt>
      <trkpt lat="47.19333" lon="5.479">
        <ele>215</ele>
        <time>2012-10-16T13:54:33Z</time>
      </trkpt>
      <trkpt lat="47.19329" lon="5.47885">
        <ele>215</ele>
        <time>2012-10-16T13:54:36Z</time>
      </trkpt>
      <trkpt lat="47.19317" lon="5.47877">
        <ele>215</ele>
        <time>2012-10-16T13:54:39Z</time>
      </trkpt>
      <trkpt lat="47.19307" lon="5.47875">
        <ele>215</ele>
        <time>2012-10-16T13:54:41Z</time>
      </trkpt>
      <trkpt lat="47.19295" lon="5.47871">
        <ele>215</ele>
        <time>2012-10-16T13:54:44Z</time>
      </trkpt>
      <trkpt lat="47.19281" lon="5.47866">
        <ele>215</ele>
        <time>2012-10-16T13:54:47Z</time>
      </trkpt>
      <trkpt lat="47.19272" lon="5.47863">
        <ele>215</ele>
        <time>2012-10-16T13:54:49Z</time>
      </trkpt>
      <trkpt lat="47.19262" lon="5.47859">
        <ele>215</ele>
        <time>2012-10-16T13:54:51Z</time>
      </trkpt>
      <trkpt lat="47.19253" lon="5.47856">
        <ele>215</ele>
        <time>2012-10-16T13:54:53Z</time>
      </trkpt>
      <trkpt lat="47.19243" lon="5.47853">
        <ele>215</ele>
        <time>2012-10-16T13:54:55Z</time>
      </trkpt>
      <trkpt lat="47.19233" lon="5.47849">
        <ele>215</ele>
        <time>2012-10-16T13:54:57Z</time>
      </trkpt>
      <trkpt lat="47.19223" lon="5.47846">
        <ele>215</ele>
        <time>2012-10-16T13:54:59Z</time>
      </trkpt>
      <trkpt lat="47.19213" lon="5.47842">
        <ele>215</ele>
        <time>2012-10-16T13:55:01Z</time>
      </trkpt>
      <trkpt lat="47.19203" lon="5.47839">
        <ele>215</ele>
        <time>2012-10-16T13:55:03Z</time>
      </trkpt>
      <trkpt lat="47.19193" lon="5.47836">
        <ele>215</ele>
        <time>2012-10-16T13:55:05Z</time>
      </trkpt>
      <trkpt lat="47.19183" lon="5.47832">
        <ele>215</ele>
        <time>2012-10-16T13:55:07Z</time>
      </trkpt>
      <trkpt lat="47.19172" lon="5.47829">
        <ele>215</ele>
        <time>2012-10-16T13:55:09Z</time>
      </trkpt>
      <trkpt lat="47.19162" lon="5.47825">
        <ele>215</ele>
        <time>2012-10-16T13:55:11Z</time>
      </trkpt>
      <trkpt lat="47.19152" lon="5.47822">
        <ele>215</ele>
        <time>2012-10-16T13:55:13Z</time>
      </trkpt>
      <trkpt lat="47.19141" lon="5.47819">
        <ele>215</ele>
        <time>2012-10-16T13:55:15Z</time>
      </trkpt>
      <trkpt lat="47.19132" lon="5.47815">
        <ele>215</ele>
        <time>2012-10-16T13:55:17Z</time>
      </trkpt>
      <trkpt lat="47.19122" lon="5.47812">
        <ele>215</ele>
        <time>2012-10-16T13:55:19Z</time>
      </trkpt>
      <trkpt lat="47.19113" lon="5.47807">
        <ele>215</ele>
        <time>2012-10-16T13:55:21Z</time>
      </trkpt>
      <trkpt lat="47.19105" lon="5.47803">
        <ele>220</ele>
        <time>2012-10-16T13:55:23Z</time>
      </trkpt>
      <trkpt lat="47.19096" lon="5.47796">
        <ele>220</ele>
        <time>2012-10-16T13:55:25Z</time>
      </trkpt>
      <trkpt lat="47.19087" lon="5.47791">
        <ele>220</ele>
        <time>2012-10-16T13:55:27Z</time>
      </trkpt>
      <trkpt lat="47.19078" lon="5.47785">
        <ele>220</ele>
        <time>2012-10-16T13:55:29Z</time>
      </trkpt>
      <trkpt lat="47.1907" lon="5.47778">
        <ele>220</ele>
        <time>2012-10-16T13:55:31Z</time>
      </trkpt>
      <trkpt lat="47.19062" lon="5.47771">
        <ele>220</ele>
        <time>2012-10-16T13:55:33Z</time>
      </trkpt>
      <trkpt lat="47.19055" lon="5.47764">
        <ele>220</ele>
        <time>2012-10-16T13:55:35Z</time>
      </trkpt>
      <trkpt lat="47.19046" lon="5.47758">
        <ele>220</ele>
        <time>2012-10-16T13:55:37Z</time>
      </trkpt>
      <trkpt lat="47.19038" lon="5.47751">
        <ele>220</ele>
        <time>2012-10-16T13:55:39Z</time>
      </trkpt>
      <trkpt lat="47.19029" lon="5.47745">
        <ele>220</ele>
        <time>2012-10-16T13:55:41Z</time>
      </trkpt>
      <trkpt lat="47.19021" lon="5.47739">
        <ele>226</ele>
        <time>2012-10-16T13:55:43Z</time>
      </trkpt>
      <trkpt lat="47.19013" lon="5.47732">
        <ele>226</ele>
        <time>2012-10-16T13:55:45Z</time>
      </trkpt>
      <trkpt lat="47.19006" lon="5.47725">
        <ele>226</ele>
        <time>2012-10-16T13:55:47Z</time>
      </trkpt>
      <trkpt lat="47.18994" lon="5.47715">
        <ele>226</ele>
        <time>2012-10-16T13:55:50Z</time>
      </trkpt>
      <trkpt lat="47.18986" lon="5.47708">
        <ele>226</ele>
        <time>2012-10-16T13:55:52Z</time>
      </trkpt>
      <trkpt lat="47.18977" lon="5.47702">
        <ele>226</ele>
        <time>2012-10-16T13:55:54Z</time>
      </trkpt>
      <trkpt lat="47.18969" lon="5.47696">
        <ele>226</ele>
        <time>2012-10-16T13:55:56Z</time>
      </trkpt>
      <trkpt lat="47.1896" lon="5.47689">
        <ele>226</ele>
        <time>2012-10-16T13:55:58Z</time>
      </trkpt>
      <trkpt lat="47.18951" lon="5.47684">
        <ele>226</ele>
        <time>2012-10-16T13:56:00Z</time>
      </trkpt>
      <trkpt lat="47.18942" lon="5.4768">
        <ele>226</ele>
        <time>2012-10-16T13:56:02Z</time>
      </trkpt>
      <trkpt lat="47.18933" lon="5.47675">
        <ele>226</ele>
        <time>2012-10-16T13:56:04Z</time>
      </trkpt>
      <trkpt lat="47.18924" lon="5.47671">
        <ele>226</ele>
        <time>2012-10-16T13:56:06Z</time>
      </trkpt>
      <trkpt lat="47.18911" lon="5.47667">
        <ele>226</ele>
        <time>2012-10-16T13:56:09Z</time>
      </trkpt>
      <trkpt lat="47.18901" lon="5.47665">
        <ele>226</ele>
        <time>2012-10-16T13:56:11Z</time>
      </trkpt>
      <trkpt lat="47.18889" lon="5.47661">
        <ele>226</ele>
        <time>2012-10-16T13:56:14Z</time>
      </trkpt>
      <trkpt lat="47.18878" lon="5.47656">
        <ele>226</ele>
        <time>2012-10-16T13:56:17Z</time>
      </trkpt>
      <trkpt lat="47.18867" lon="5.47651">
        <ele>226</ele>
        <time>2012-10-16T13:56:20Z</time>
      </trkpt>
      <trkpt lat="47.18854" lon="5.47645">
        <ele>231</ele>
        <time>2012-10-16T13:56:23Z</time>
      </trkpt>
      <trkpt lat="47.18843" lon="5.47639">
        <ele>231</ele>
        <time>2012-10-16T13:56:26Z</time>
      </trkpt>
      <trkpt lat="47.1883" lon="5.47633">
        <ele>231</ele>
        <time>2012-10-16T13:56:29Z</time>
      </trkpt>
      <trkpt lat="47.18822" lon="5.47629">
        <ele>231</ele>
        <time>2012-10-16T13:56:31Z</time>
      </trkpt>
      <trkpt lat="47.18813" lon="5.47626">
        <ele>231</ele>
        <time>2012-10-16T13:56:33Z</time>
      </trkpt>
      <trkpt lat="47.18804" lon="5.47621">
        <ele>231</ele>
        <time>2012-10-16T13:56:35Z</time>
      </trkpt>
      <trkpt lat="47.18795" lon="5.47618">
        <ele>231</ele>
        <time>2012-10-16T13:56:37Z</time>
      </trkpt>
      <trkpt lat="47.18783" lon="5.47613">
        <ele>237</ele>
        <time>2012-10-16T13:56:40Z</time>
      </trkpt>
      <trkpt lat="47.1877" lon="5.47609">
        <ele>237</ele>
        <time>2012-10-16T13:56:43Z</time>
      </trkpt>
      <trkpt lat="47.18758" lon="5.47605">
        <ele>237</ele>
        <time>2012-10-16T13:56:46Z</time>
      </trkpt>
      <trkpt lat="47.18749" lon="5.47603">
        <ele>237</ele>
        <time>2012-10-16T13:56:48Z</time>
      </trkpt>
      <trkpt lat="47.18739" lon="5.47601">
        <ele>237</ele>
        <time>2012-10-16T13:56:50Z</time>
      </trkpt>
      <trkpt lat="47.18729" lon="5.476">
        <ele>237</ele>
        <time>2012-10-16T13:56:52Z</time>
      </trkpt>
      <trkpt lat="47.18717" lon="5.47601">
        <ele>237</ele>
        <time>2012-10-16T13:56:54Z</time>
      </trkpt>
      <trkpt lat="47.18706" lon="5.47604">
        <ele>237</ele>
        <time>2012-10-16T13:56:56Z</time>
      </trkpt>
      <trkpt lat="47.18694" lon="5.47605">
        <ele>237</ele>
        <time>2012-10-16T13:56:58Z</time>
      </trkpt>
      <trkpt lat="47.18679" lon="5.47605">
        <ele>237</ele>
        <time>2012-10-16T13:57:00Z</time>
      </trkpt>
      <trkpt lat="47.18664" lon="5.47605">
        <ele>237</ele>
        <time>2012-10-16T13:57:02Z</time>
      </trkpt>
      <trkpt lat="47.18648" lon="5.47606">
        <ele>237</ele>
        <time>2012-10-16T13:57:04Z</time>
      </trkpt>
      <trkpt lat="47.18639" lon="5.47606">
        <ele>237</ele>
        <time>2012-10-16T13:57:05Z</time>
      </trkpt>
      <trkpt lat="47.18621" lon="5.47608">
        <ele>237</ele>
        <time>2012-10-16T13:57:07Z</time>
      </trkpt>
      <trkpt lat="47.18612" lon="5.47609">
        <ele>237</ele>
        <time>2012-10-16T13:57:08Z</time>
      </trkpt>
      <trkpt lat="47.18595" lon="5.47609">
        <ele>237</ele>
        <time>2012-10-16T13:57:10Z</time>
      </trkpt>
      <trkpt lat="47.18585" lon="5.4761">
        <ele>237</ele>
        <time>2012-10-16T13:57:11Z</time>
      </trkpt>
      <trkpt lat="47.18576" lon="5.4761">
        <ele>237</ele>
        <time>2012-10-16T13:57:12Z</time>
      </trkpt>
      <trkpt lat="47.18566" lon="5.4761">
        <ele>237</ele>
        <time>2012-10-16T13:57:13Z</time>
      </trkpt>
      <trkpt lat="47.18557" lon="5.4761">
        <ele>237</ele>
        <time>2012-10-16T13:57:14Z</time>
      </trkpt>
      <trkpt lat="47.1854" lon="5.47609">
        <ele>237</ele>
        <time>2012-10-16T13:57:16Z</time>
      </trkpt>
      <trkpt lat="47.18522" lon="5.47609">
        <ele>237</ele>
        <time>2012-10-16T13:57:18Z</time>
      </trkpt>
      <trkpt lat="47.18505" lon="5.47608">
        <ele>237</ele>
        <time>2012-10-16T13:57:20Z</time>
      </trkpt>
      <trkpt lat="47.18489" lon="5.47604">
        <ele>237</ele>
        <time>2012-10-16T13:57:22Z</time>
      </trkpt>
      <trkpt lat="47.18474" lon="5.476">
        <ele>237</ele>
        <time>2012-10-16T13:57:24Z</time>
      </trkpt>
      <trkpt lat="47.18459" lon="5.47595">
        <ele>231</ele>
        <time>2012-10-16T13:57:26Z</time>
      </trkpt>
      <trkpt lat="47.18446" lon="5.47589">
        <ele>231</ele>
        <time>2012-10-16T13:57:28Z</time>
      </trkpt>
      <trkpt lat="47.18432" lon="5.47583">
        <ele>231</ele>
        <time>2012-10-16T13:57:30Z</time>
      </trkpt>
      <trkpt lat="47.18418" lon="5.47578">
        <ele>231</ele>
        <time>2012-10-16T13:57:32Z</time>
      </trkpt>
      <trkpt lat="47.18404" lon="5.47574">
        <ele>231</ele>
        <time>2012-10-16T13:57:34Z</time>
      </trkpt>
      <trkpt lat="47.18391" lon="5.47569">
        <ele>231</ele>
        <time>2012-10-16T13:57:36Z</time>
      </trkpt>
      <trkpt lat="47.18376" lon="5.47566">
        <ele>231</ele>
        <time>2012-10-16T13:57:38Z</time>
      </trkpt>
      <trkpt lat="47.18362" lon="5.47565">
        <ele>231</ele>
        <time>2012-10-16T13:57:40Z</time>
      </trkpt>
      <trkpt lat="47.18348" lon="5.47566">
        <ele>231</ele>
        <time>2012-10-16T13:57:42Z</time>
      </trkpt>
      <trkpt lat="47.18334" lon="5.47571">
        <ele>226</ele>
        <time>2012-10-16T13:57:44Z</time>
      </trkpt>
      <trkpt lat="47.1832" lon="5.47574">
        <ele>226</ele>
        <time>2012-10-16T13:57:46Z</time>
      </trkpt>
      <trkpt lat="47.18306" lon="5.47575">
        <ele>226</ele>
        <time>2012-10-16T13:57:48Z</time>
      </trkpt>
      <trkpt lat="47.18292" lon="5.47574">
        <ele>226</ele>
        <time>2012-10-16T13:57:50Z</time>
      </trkpt>
      <trkpt lat="47.18279" lon="5.47571">
        <ele>226</ele>
        <time>2012-10-16T13:57:52Z</time>
      </trkpt>
      <trkpt lat="47.18266" lon="5.47568">
        <ele>226</ele>
        <time>2012-10-16T13:57:54Z</time>
      </trkpt>
      <trkpt lat="47.18252" lon="5.47565">
        <ele>226</ele>
        <time>2012-10-16T13:57:56Z</time>
      </trkpt>
      <trkpt lat="47.18239" lon="5.47564">
        <ele>226</ele>
        <time>2012-10-16T13:57:58Z</time>
      </trkpt>
      <trkpt lat="47.18225" lon="5.47562">
        <ele>226</ele>
        <time>2012-10-16T13:58:00Z</time>
      </trkpt>
      <trkpt lat="47.18211" lon="5.4756">
        <ele>226</ele>
        <time>2012-10-16T13:58:02Z</time>
      </trkpt>
      <trkpt lat="47.18197" lon="5.47558">
        <ele>226</ele>
        <time>2012-10-16T13:58:04Z</time>
      </trkpt>
      <trkpt lat="47.18182" lon="5.47556">
        <ele>221</ele>
        <time>2012-10-16T13:58:06Z</time>
      </trkpt>
      <trkpt lat="47.18167" lon="5.47555">
        <ele>221</ele>
        <time>2012-10-16T13:58:08Z</time>
      </trkpt>
      <trkpt lat="47.1815" lon="5.47555">
        <ele>221</ele>
        <time>2012-10-16T13:58:10Z</time>
      </trkpt>
      <trkpt lat="47.18133" lon="5.47557">
        <ele>221</ele>
        <time>2012-10-16T13:58:12Z</time>
      </trkpt>
      <trkpt lat="47.18116" lon="5.47565">
        <ele>221</ele>
        <time>2012-10-16T13:58:14Z</time>
      </trkpt>
      <trkpt lat="47.181" lon="5.47575">
        <ele>215</ele>
        <time>2012-10-16T13:58:16Z</time>
      </trkpt>
      <trkpt lat="47.18092" lon="5.47582">
        <ele>215</ele>
        <time>2012-10-16T13:58:17Z</time>
      </trkpt>
      <trkpt lat="47.18084" lon="5.47589">
        <ele>215</ele>
        <time>2012-10-16T13:58:18Z</time>
      </trkpt>
      <trkpt lat="47.18076" lon="5.47596">
        <ele>215</ele>
        <time>2012-10-16T13:58:19Z</time>
      </trkpt>
      <trkpt lat="47.18068" lon="5.47603">
        <ele>215</ele>
        <time>2012-10-16T13:58:20Z</time>
      </trkpt>
      <trkpt lat="47.18059" lon="5.4761">
        <ele>215</ele>
        <time>2012-10-16T13:58:21Z</time>
      </trkpt>
      <trkpt lat="47.18051" lon="5.47617">
        <ele>215</ele>
        <time>2012-10-16T13:58:22Z</time>
      </trkpt>
      <trkpt lat="47.18042" lon="5.47623">
        <ele>215</ele>
        <time>2012-10-16T13:58:23Z</time>
      </trkpt>
      <trkpt lat="47.18032" lon="5.47629">
        <ele>215</ele>
        <time>2012-10-16T13:58:24Z</time>
      </trkpt>
      <trkpt lat="47.18023" lon="5.47636">
        <ele>215</ele>
        <time>2012-10-16T13:58:25Z</time>
      </trkpt>
      <trkpt lat="47.18014" lon="5.47641">
        <ele>209</ele>
        <time>2012-10-16T13:58:26Z</time>
      </trkpt>
      <trkpt lat="47.18004" lon="5.47644">
        <ele>209</ele>
        <time>2012-10-16T13:58:27Z</time>
      </trkpt>
      <trkpt lat="47.17994" lon="5.47646">
        <ele>209</ele>
        <time>2012-10-16T13:58:28Z</time>
      </trkpt>
      <trkpt lat="47.17984" lon="5.47644">
        <ele>209</ele>
        <time>2012-10-16T13:58:29Z</time>
      </trkpt>
      <trkpt lat="47.17974" lon="5.47641">
        <ele>209</ele>
        <time>2012-10-16T13:58:30Z</time>
      </trkpt>
      <trkpt lat="47.17963" lon="5.47636">
        <ele>209</ele>
        <time>2012-10-16T13:58:31Z</time>
      </trkpt>
      <trkpt lat="47.17952" lon="5.47628">
        <ele>209</ele>
        <time>2012-10-16T13:58:32Z</time>
      </trkpt>
      <trkpt lat="47.17942" lon="5.47621">
        <ele>209</ele>
        <time>2012-10-16T13:58:33Z</time>
      </trkpt>
      <trkpt lat="47.17931" lon="5.47613">
        <ele>204</ele>
        <time>2012-10-16T13:58:34Z</time>
      </trkpt>
      <trkpt lat="47.17921" lon="5.47606">
        <ele>204</ele>
        <time>2012-10-16T13:58:35Z</time>
      </trkpt>
      <trkpt lat="47.17912" lon="5.476">
        <ele>204</ele>
        <time>2012-10-16T13:58:36Z</time>
      </trkpt>
      <trkpt lat="47.17902" lon="5.47592">
        <ele>204</ele>
        <time>2012-10-16T13:58:37Z</time>
      </trkpt>
      <trkpt lat="47.17892" lon="5.47586">
        <ele>204</ele>
        <time>2012-10-16T13:58:38Z</time>
      </trkpt>
      <trkpt lat="47.17883" lon="5.4758">
        <ele>204</ele>
        <time>2012-10-16T13:58:39Z</time>
      </trkpt>
      <trkpt lat="47.17874" lon="5.47574">
        <ele>204</ele>
        <time>2012-10-16T13:58:40Z</time>
      </trkpt>
      <trkpt lat="47.17864" lon="5.47568">
        <ele>204</ele>
        <time>2012-10-16T13:58:41Z</time>
      </trkpt>
      <trkpt lat="47.17855" lon="5.47564">
        <ele>204</ele>
        <time>2012-10-16T13:58:42Z</time>
      </trkpt>
      <trkpt lat="47.17846" lon="5.47559">
        <ele>204</ele>
        <time>2012-10-16T13:58:43Z</time>
      </trkpt>
      <trkpt lat="47.17837" lon="5.47556">
        <ele>204</ele>
        <time>2012-10-16T13:58:44Z</time>
      </trkpt>
      <trkpt lat="47.1782" lon="5.47552">
        <ele>204</ele>
        <time>2012-10-16T13:58:46Z</time>
      </trkpt>
      <trkpt lat="47.17811" lon="5.47552">
        <ele>204</ele>
        <time>2012-10-16T13:58:47Z</time>
      </trkpt>
      <trkpt lat="47.17795" lon="5.47552">
        <ele>204</ele>
        <time>2012-10-16T13:58:49Z</time>
      </trkpt>
      <trkpt lat="47.17782" lon="5.47556">
        <ele>204</ele>
        <time>2012-10-16T13:58:51Z</time>
      </trkpt>
      <trkpt lat="47.17769" lon="5.4756">
        <ele>204</ele>
        <time>2012-10-16T13:58:53Z</time>
      </trkpt>
      <trkpt lat="47.17757" lon="5.47563">
        <ele>211</ele>
        <time>2012-10-16T13:58:55Z</time>
      </trkpt>
      <trkpt lat="47.17745" lon="5.47565">
        <ele>211</ele>
        <time>2012-10-16T13:58:57Z</time>
      </trkpt>
      <trkpt lat="47.17732" lon="5.47567">
        <ele>211</ele>
        <time>2012-10-16T13:58:59Z</time>
      </trkpt>
      <trkpt lat="47.17718" lon="5.47569">
        <ele>211</ele>
        <time>2012-10-16T13:59:01Z</time>
      </trkpt>
      <trkpt lat="47.17707" lon="5.4757">
        <ele>211</ele>
        <time>2012-10-16T13:59:03Z</time>
      </trkpt>
      <trkpt lat="47.17697" lon="5.47571">
        <ele>211</ele>
        <time>2012-10-16T13:59:05Z</time>
      </trkpt>
      <trkpt lat="47.17688" lon="5.47573">
        <ele>211</ele>
        <time>2012-10-16T13:59:07Z</time>
      </trkpt>
      <trkpt lat="47.17679" lon="5.47573">
        <ele>211</ele>
        <time>2012-10-16T13:59:09Z</time>
      </trkpt>
      <trkpt lat="47.1767" lon="5.47574">
        <ele>211</ele>
        <time>2012-10-16T13:59:11Z</time>
      </trkpt>
      <trkpt lat="47.17661" lon="5.47574">
        <ele>211</ele>
        <time>2012-10-16T13:59:13Z</time>
      </trkpt>
      <trkpt lat="47.17649" lon="5.47574">
        <ele>217</ele>
        <time>2012-10-16T13:59:16Z</time>
      </trkpt>
      <trkpt lat="47.17635" lon="5.47572">
        <ele>217</ele>
        <time>2012-10-16T13:59:19Z</time>
      </trkpt>
      <trkpt lat="47.17623" lon="5.47571">
        <ele>217</ele>
        <time>2012-10-16T13:59:22Z</time>
      </trkpt>
      <trkpt lat="47.1761" lon="5.4757">
        <ele>217</ele>
        <time>2012-10-16T13:59:25Z</time>
      </trkpt>
      <trkpt lat="47.17596" lon="5.47568">
        <ele>217</ele>
        <time>2012-10-16T13:59:28Z</time>
      </trkpt>
      <trkpt lat="47.17583" lon="5.47568">
        <ele>217</ele>
        <time>2012-10-16T13:59:31Z</time>
      </trkpt>
      <trkpt lat="47.17572" lon="5.47567">
        <ele>217</ele>
        <time>2012-10-16T13:59:34Z</time>
      </trkpt>
      <trkpt lat="47.17559" lon="5.47565">
        <ele>217</ele>
        <time>2012-10-16T13:59:37Z</time>
      </trkpt>
      <trkpt lat="47.17547" lon="5.4756">
        <ele>217</ele>
        <time>2012-10-16T13:59:40Z</time>
      </trkpt>
      <trkpt lat="47.17536" lon="5.47547">
        <ele>217</ele>
        <time>2012-10-16T13:59:43Z</time>
      </trkpt>
      <trkpt lat="47.1753" lon="5.47537">
        <ele>217</ele>
        <time>2012-10-16T13:59:45Z</time>
      </trkpt>
      <trkpt lat="47.17525" lon="5.47525">
        <ele>217</ele>
        <time>2012-10-16T13:59:47Z</time>
      </trkpt>
      <trkpt lat="47.17517" lon="5.47509">
        <ele>222</ele>
        <time>2012-10-16T13:59:50Z</time>
      </trkpt>
      <trkpt lat="47.17509" lon="5.47494">
        <ele>222</ele>
        <time>2012-10-16T13:59:53Z</time>
      </trkpt>
      <trkpt lat="47.17504" lon="5.47484">
        <ele>222</ele>
        <time>2012-10-16T13:59:55Z</time>
      </trkpt>
      <trkpt lat="47.17495" lon="5.47468">
        <ele>222</ele>
        <time>2012-10-16T13:59:58Z</time>
      </trkpt>
      <trkpt lat="47.1749" lon="5.47456">
        <ele>222</ele>
        <time>2012-10-16T14:00:00Z</time>
      </trkpt>
      <trkpt lat="47.17484" lon="5.47445">
        <ele>222</ele>
        <time>2012-10-16T14:00:02Z</time>
      </trkpt>
      <trkpt lat="47.17476" lon="5.47435">
        <ele>222</ele>
        <time>2012-10-16T14:00:04Z</time>
      </trkpt>
      <trkpt lat="47.17466" lon="5.47429">
        <ele>222</ele>
        <time>2012-10-16T14:00:06Z</time>
      </trkpt>
      <trkpt lat="47.17457" lon="5.47427">
        <ele>222</ele>
        <time>2012-10-16T14:00:08Z</time>
      </trkpt>
      <trkpt lat="47.17447" lon="5.47428">
        <ele>222</ele>
        <time>2012-10-16T14:00:10Z</time>
      </trkpt>
      <trkpt lat="47.17438" lon="5.47433">
        <ele>222</ele>
        <time>2012-10-16T14:00:12Z</time>
      </trkpt>
      <trkpt lat="47.17427" lon="5.47442">
        <ele>222</ele>
        <time>2012-10-16T14:00:15Z</time>
      </trkpt>
      <trkpt lat="47.17416" lon="5.47451">
        <ele>222</ele>
        <time>2012-10-16T14:00:18Z</time>
      </trkpt>
      <trkpt lat="47.17407" lon="5.47461">
        <ele>222</ele>
        <time>2012-10-16T14:00:21Z</time>
      </trkpt>
      <trkpt lat="47.17398" lon="5.47474">
        <ele>222</ele>
        <time>2012-10-16T14:00:24Z</time>
      </trkpt>
      <trkpt lat="47.17392" lon="5.47484">
        <ele>222</ele>
        <time>2012-10-16T14:00:26Z</time>
      </trkpt>
      <trkpt lat="47.17384" lon="5.47498">
        <ele>222</ele>
        <time>2012-10-16T14:00:29Z</time>
      </trkpt>
      <trkpt lat="47.17378" lon="5.47509">
        <ele>222</ele>
        <time>2012-10-16T14:00:31Z</time>
      </trkpt>
      <trkpt lat="47.17373" lon="5.4752">
        <ele>222</ele>
        <time>2012-10-16T14:00:33Z</time>
      </trkpt>
      <trkpt lat="47.17368" lon="5.47531">
        <ele>222</ele>
        <time>2012-10-16T14:00:35Z</time>
      </trkpt>
      <trkpt lat="47.17361" lon="5.47547">
        <ele>228</ele>
        <time>2012-10-16T14:00:38Z</time>
      </trkpt>
      <trkpt lat="47.17357" lon="5.47559">
        <ele>228</ele>
        <time>2012-10-16T14:00:40Z</time>
      </trkpt>
      <trkpt lat="47.17351" lon="5.47575">
        <ele>228</ele>
        <time>2012-10-16T14:00:43Z</time>
      </trkpt>
      <trkpt lat="47.17346" lon="5.47587">
        <ele>228</ele>
        <time>2012-10-16T14:00:45Z</time>
      </trkpt>
      <trkpt lat="47.1734" lon="5.47604">
        <ele>228</ele>
        <time>2012-10-16T14:00:48Z</time>
      </trkpt>
      <trkpt lat="47.17334" lon="5.47622">
        <ele>228</ele>
        <time>2012-10-16T14:00:51Z</time>
      </trkpt>
      <trkpt lat="47.17329" lon="5.47636">
        <ele>228</ele>
        <time>2012-10-16T14:00:53Z</time>
      </trkpt>
      <trkpt lat="47.17323" lon="5.47649">
        <ele>228</ele>
        <time>2012-10-16T14:00:55Z</time>
      </trkpt>
      <trkpt lat="47.17317" lon="5.47663">
        <ele>228</ele>
        <time>2012-10-16T14:00:57Z</time>
      </trkpt>
      <trkpt lat="47.1731" lon="5.47676">
        <ele>228</ele>
        <time>2012-10-16T14:00:59Z</time>
      </trkpt>
      <trkpt lat="47.17302" lon="5.47688">
        <ele>228</ele>
        <time>2012-10-16T14:01:01Z</time>
      </trkpt>
      <trkpt lat="47.17292" lon="5.47696">
        <ele>228</ele>
        <time>2012-10-16T14:01:03Z</time>
      </trkpt>
      <trkpt lat="47.17281" lon="5.477">
        <ele>228</ele>
        <time>2012-10-16T14:01:05Z</time>
      </trkpt>
      <trkpt lat="47.1727" lon="5.47702">
        <ele>228</ele>
        <time>2012-10-16T14:01:07Z</time>
      </trkpt>
      <trkpt lat="47.1726" lon="5.47701">
        <ele>228</ele>
        <time>2012-10-16T14:01:09Z</time>
      </trkpt>
      <trkpt lat="47.17249" lon="5.47699">
        <ele>228</ele>
        <time>2012-10-16T14:01:11Z</time>
      </trkpt>
      <trkpt lat="47.17239" lon="5.47698">
        <ele>228</ele>
        <time>2012-10-16T14:01:13Z</time>
      </trkpt>
      <trkpt lat="47.17229" lon="5.47696">
        <ele>228</ele>
        <time>2012-10-16T14:01:15Z</time>
      </trkpt>
      <trkpt lat="47.17218" lon="5.47695">
        <ele>228</ele>
        <time>2012-10-16T14:01:17Z</time>
      </trkpt>
      <trkpt lat="47.17208" lon="5.47693">
        <ele>228</ele>
        <time>2012-10-16T14:01:19Z</time>
      </trkpt>
      <trkpt lat="47.17198" lon="5.47691">
        <ele>228</ele>
        <time>2012-10-16T14:01:21Z</time>
      </trkpt>
      <trkpt lat="47.17188" lon="5.4769">
        <ele>228</ele>
        <time>2012-10-16T14:01:23Z</time>
      </trkpt>
      <trkpt lat="47.17179" lon="5.47688">
        <ele>228</ele>
        <time>2012-10-16T14:01:25Z</time>
      </trkpt>
      <trkpt lat="47.17169" lon="5.47686">
        <ele>228</ele>
        <time>2012-10-16T14:01:27Z</time>
      </trkpt>
      <trkpt lat="47.1716" lon="5.47685">
        <ele>228</ele>
        <time>2012-10-16T14:01:29Z</time>
      </trkpt>
      <trkpt lat="47.1715" lon="5.47683">
        <ele>228</ele>
        <time>2012-10-16T14:01:31Z</time>
      </trkpt>
      <trkpt lat="47.17141" lon="5.47682">
        <ele>228</ele>
        <time>2012-10-16T14:01:33Z</time>
      </trkpt>
      <trkpt lat="47.17132" lon="5.4768">
        <ele>228</ele>
        <time>2012-10-16T14:01:35Z</time>
      </trkpt>
      <trkpt lat="47.17123" lon="5.47679">
        <ele>228</ele>
        <time>2012-10-16T14:01:37Z</time>
      </trkpt>
      <trkpt lat="47.17114" lon="5.47677">
        <ele>228</ele>
        <time>2012-10-16T14:01:39Z</time>
      </trkpt>
      <trkpt lat="47.17104" lon="5.47675">
        <ele>228</ele>
        <time>2012-10-16T14:01:41Z</time>
      </trkpt>
      <trkpt lat="47.17092" lon="5.47673">
        <ele>228</ele>
        <time>2012-10-16T14:01:44Z</time>
      </trkpt>
      <trkpt lat="47.1708" lon="5.47671">
        <ele>233</ele>
        <time>2012-10-16T14:01:47Z</time>
      </trkpt>
      <trkpt lat="47.17068" lon="5.47669">
        <ele>233</ele>
        <time>2012-10-16T14:01:50Z</time>
      </trkpt>
      <trkpt lat="47.17057" lon="5.47666">
        <ele>233</ele>
        <time>2012-10-16T14:01:53Z</time>
      </trkpt>
      <trkpt lat="47.17046" lon="5.47663">
        <ele>233</ele>
        <time>2012-10-16T14:01:56Z</time>
      </trkpt>
      <trkpt lat="47.17034" lon="5.47661">
        <ele>233</ele>
        <time>2012-10-16T14:01:59Z</time>
      </trkpt>
      <trkpt lat="47.17022" lon="5.47658">
        <ele>233</ele>
        <time>2012-10-16T14:02:02Z</time>
      </trkpt>
      <trkpt lat="47.17011" lon="5.47655">
        <ele>233</ele>
        <time>2012-10-16T14:02:05Z</time>
      </trkpt>
      <trkpt lat="47.17" lon="5.47653">
        <ele>239</ele>
        <time>2012-10-16T14:02:08Z</time>
      </trkpt>
      <trkpt lat="47.16988" lon="5.47649">
        <ele>239</ele>
        <time>2012-10-16T14:02:11Z</time>
      </trkpt>
      <trkpt lat="47.16976" lon="5.47646">
        <ele>239</ele>
        <time>2012-10-16T14:02:14Z</time>
      </trkpt>
      <trkpt lat="47.16965" lon="5.47642">
        <ele>239</ele>
        <time>2012-10-16T14:02:17Z</time>
      </trkpt>
      <trkpt lat="47.16954" lon="5.47637">
        <ele>239</ele>
        <time>2012-10-16T14:02:20Z</time>
      </trkpt>
      <trkpt lat="47.16943" lon="5.47632">
        <ele>239</ele>
        <time>2012-10-16T14:02:23Z</time>
      </trkpt>
      <trkpt lat="47.16932" lon="5.47626">
        <ele>239</ele>
        <time>2012-10-16T14:02:26Z</time>
      </trkpt>
      <trkpt lat="47.16921" lon="5.4762">
        <ele>239</ele>
        <time>2012-10-16T14:02:29Z</time>
      </trkpt>
      <trkpt lat="47.1691" lon="5.47614">
        <ele>239</ele>
        <time>2012-10-16T14:02:32Z</time>
      </trkpt>
      <trkpt lat="47.16898" lon="5.47609">
        <ele>239</ele>
        <time>2012-10-16T14:02:35Z</time>
      </trkpt>
      <trkpt lat="47.16886" lon="5.47604">
        <ele>239</ele>
        <time>2012-10-16T14:02:38Z</time>
      </trkpt>
      <trkpt lat="47.16875" lon="5.47599">
        <ele>239</ele>
        <time>2012-10-16T14:02:41Z</time>
      </trkpt>
      <trkpt lat="47.16863" lon="5.47594">
        <ele>245</ele>
        <time>2012-10-16T14:02:44Z</time>
      </trkpt>
      <trkpt lat="47.16852" lon="5.47589">
        <ele>245</ele>
        <time>2012-10-16T14:02:47Z</time>
      </trkpt>
      <trkpt lat="47.16842" lon="5.47583">
        <ele>245</ele>
        <time>2012-10-16T14:02:50Z</time>
      </trkpt>
      <trkpt lat="47.16831" lon="5.47578">
        <ele>245</ele>
        <time>2012-10-16T14:02:53Z</time>
      </trkpt>
      <trkpt lat="47.1682" lon="5.47574">
        <ele>245</ele>
        <time>2012-10-16T14:02:56Z</time>
      </trkpt>
      <trkpt lat="47.16809" lon="5.47569">
        <ele>245</ele>
        <time>2012-10-16T14:02:59Z</time>
      </trkpt>
      <trkpt lat="47.16798" lon="5.47564">
        <ele>245</ele>
        <time>2012-10-16T14:03:02Z</time>
      </trkpt>
      <trkpt lat="47.16787" lon="5.4756">
        <ele>245</ele>
        <time>2012-10-16T14:03:05Z</time>
      </trkpt>
      <trkpt lat="47.16776" lon="5.47556">
        <ele>250</ele>
        <time>2012-10-16T14:03:08Z</time>
      </trkpt>
      <trkpt lat="47.16764" lon="5.47552">
        <ele>250</ele>
        <time>2012-10-16T14:03:11Z</time>
      </trkpt>
      <trkpt lat="47.16753" lon="5.47547">
        <ele>250</ele>
        <time>2012-10-16T14:03:14Z</time>
      </trkpt>
      <trkpt lat="47.16742" lon="5.47543">
        <ele>250</ele>
        <time>2012-10-16T14:03:17Z</time>
      </trkpt>
      <trkpt lat="47.16731" lon="5.47538">
        <ele>250</ele>
        <time>2012-10-16T14:03:20Z</time>
      </trkpt>
      <trkpt lat="47.1672" lon="5.47535">
        <ele>250</ele>
        <time>2012-10-16T14:03:23Z</time>
      </trkpt>
      <trkpt lat="47.16708" lon="5.47531">
        <ele>256</ele>
        <time>2012-10-16T14:03:26Z</time>
      </trkpt>
      <trkpt lat="47.16696" lon="5.47527">
        <ele>256</ele>
        <time>2012-10-16T14:03:29Z</time>
      </trkpt>
      <trkpt lat="47.16685" lon="5.47522">
        <ele>256</ele>
        <time>2012-10-16T14:03:32Z</time>
      </trkpt>
      <trkpt lat="47.16673" lon="5.4752">
        <ele>256</ele>
        <time>2012-10-16T14:03:35Z</time>
      </trkpt>
      <trkpt lat="47.1666" lon="5.47516">
        <ele>256</ele>
        <time>2012-10-16T14:03:38Z</time>
      </trkpt>
      <trkpt lat="47.16647" lon="5.47513">
        <ele>256</ele>
        <time>2012-10-16T14:03:41Z</time>
      </trkpt>
      <trkpt lat="47.16634" lon="5.47511">
        <ele>256</ele>
        <time>2012-10-16T14:03:44Z</time>
      </trkpt>
      <trkpt lat="47.16625" lon="5.47509">
        <ele>256</ele>
        <time>2012-10-16T14:03:46Z</time>
      </trkpt>
      <trkpt lat="47.16616" lon="5.47507">
        <ele>256</ele>
        <time>2012-10-16T14:03:48Z</time>
      </trkpt>
      <trkpt lat="47.16606" lon="5.47505">
        <ele>256</ele>
        <time>2012-10-16T14:03:50Z</time>
      </trkpt>
      <trkpt lat="47.16597" lon="5.47503">
        <ele>256</ele>
        <time>2012-10-16T14:03:52Z</time>
      </trkpt>
      <trkpt lat="47.16587" lon="5.47502">
        <ele>256</ele>
        <time>2012-10-16T14:03:54Z</time>
      </trkpt>
      <trkpt lat="47.16578" lon="5.475">
        <ele>256</ele>
        <time>2012-10-16T14:03:56Z</time>
      </trkpt>
      <trkpt lat="47.16569" lon="5.47499">
        <ele>256</ele>
        <time>2012-10-16T14:03:58Z</time>
      </trkpt>
      <trkpt lat="47.16559" lon="5.47499">
        <ele>256</ele>
        <time>2012-10-16T14:04:00Z</time>
      </trkpt>
      <trkpt lat="47.16549" lon="5.47499">
        <ele>256</ele>
        <time>2012-10-16T14:04:02Z</time>
      </trkpt>
      <trkpt lat="47.1654" lon="5.47502">
        <ele>256</ele>
        <time>2012-10-16T14:04:04Z</time>
      </trkpt>
      <trkpt lat="47.1653" lon="5.47506">
        <ele>256</ele>
        <time>2012-10-16T14:04:06Z</time>
      </trkpt>
      <trkpt lat="47.16519" lon="5.47511">
        <ele>256</ele>
        <time>2012-10-16T14:04:08Z</time>
      </trkpt>
      <trkpt lat="47.16508" lon="5.47516">
        <ele>256</ele>
        <time>2012-10-16T14:04:10Z</time>
      </trkpt>
      <trkpt lat="47.16497" lon="5.47522">
        <ele>256</ele>
        <time>2012-10-16T14:04:12Z</time>
      </trkpt>
      <trkpt lat="47.16484" lon="5.4753">
        <ele>256</ele>
        <time>2012-10-16T14:04:14Z</time>
      </trkpt>
      <trkpt lat="47.1647" lon="5.47541">
        <ele>256</ele>
        <time>2012-10-16T14:04:16Z</time>
      </trkpt>
      <trkpt lat="47.16456" lon="5.47555">
        <ele>256</ele>
        <time>2012-10-16T14:04:18Z</time>
      </trkpt>
      <trkpt lat="47.16448" lon="5.47561">
        <ele>256</ele>
        <time>2012-10-16T14:04:19Z</time>
      </trkpt>
      <trkpt lat="47.1644" lon="5.47569">
        <ele>256</ele>
        <time>2012-10-16T14:04:20Z</time>
      </trkpt>
      <trkpt lat="47.16432" lon="5.47576">
        <ele>256</ele>
        <time>2012-10-16T14:04:21Z</time>
      </trkpt>
      <trkpt lat="47.16424" lon="5.47583">
        <ele>256</ele>
        <time>2012-10-16T14:04:22Z</time>
      </trkpt>
      <trkpt lat="47.16415" lon="5.4759">
        <ele>256</ele>
        <time>2012-10-16T14:04:23Z</time>
      </trkpt>
      <trkpt lat="47.16407" lon="5.47596">
        <ele>256</ele>
        <time>2012-10-16T14:04:24Z</time>
      </trkpt>
      <trkpt lat="47.16398" lon="5.47601">
        <ele>256</ele>
        <time>2012-10-16T14:04:25Z</time>
      </trkpt>
      <trkpt lat="47.16389" lon="5.47607">
        <ele>250</ele>
        <time>2012-10-16T14:04:26Z</time>
      </trkpt>
      <trkpt lat="47.1638" lon="5.4761">
        <ele>250</ele>
        <time>2012-10-16T14:04:27Z</time>
      </trkpt>
      <trkpt lat="47.1637" lon="5.47614">
        <ele>250</ele>
        <time>2012-10-16T14:04:28Z</time>
      </trkpt>
      <trkpt lat="47.1636" lon="5.47615">
        <ele>250</ele>
        <time>2012-10-16T14:04:29Z</time>
      </trkpt>
      <trkpt lat="47.1635" lon="5.47616">
        <ele>250</ele>
        <time>2012-10-16T14:04:30Z</time>
      </trkpt>
      <trkpt lat="47.1634" lon="5.47614">
        <ele>250</ele>
        <time>2012-10-16T14:04:31Z</time>
      </trkpt>
      <trkpt lat="47.1633" lon="5.47612">
        <ele>250</ele>
        <time>2012-10-16T14:04:32Z</time>
      </trkpt>
      <trkpt lat="47.16321" lon="5.47608">
        <ele>250</ele>
        <time>2012-10-16T14:04:33Z</time>
      </trkpt>
      <trkpt lat="47.16312" lon="5.47602">
        <ele>250</ele>
        <time>2012-10-16T14:04:34Z</time>
      </trkpt>
      <trkpt lat="47.16303" lon="5.47596">
        <ele>250</ele>
        <time>2012-10-16T14:04:35Z</time>
      </trkpt>
      <trkpt lat="47.16295" lon="5.4759">
        <ele>250</ele>
        <time>2012-10-16T14:04:36Z</time>
      </trkpt>
      <trkpt lat="47.16278" lon="5.47579">
        <ele>245</ele>
        <time>2012-10-16T14:04:38Z</time>
      </trkpt>
      <trkpt lat="47.16261" lon="5.47572">
        <ele>245</ele>
        <time>2012-10-16T14:04:40Z</time>
      </trkpt>
      <trkpt lat="47.16252" lon="5.47571">
        <ele>245</ele>
        <time>2012-10-16T14:04:41Z</time>
      </trkpt>
      <trkpt lat="47.16242" lon="5.4757">
        <ele>245</ele>
        <time>2012-10-16T14:04:42Z</time>
      </trkpt>
      <trkpt lat="47.16233" lon="5.47571">
        <ele>245</ele>
        <time>2012-10-16T14:04:43Z</time>
      </trkpt>
      <trkpt lat="47.16223" lon="5.47572">
        <ele>245</ele>
        <time>2012-10-16T14:04:44Z</time>
      </trkpt>
      <trkpt lat="47.16214" lon="5.47574">
        <ele>245</ele>
        <time>2012-10-16T14:04:45Z</time>
      </trkpt>
      <trkpt lat="47.16204" lon="5.47576">
        <ele>245</ele>
        <time>2012-10-16T14:04:46Z</time>
      </trkpt>
      <trkpt lat="47.16194" lon="5.47579">
        <ele>245</ele>
        <time>2012-10-16T14:04:47Z</time>
      </trkpt>
      <trkpt lat="47.16184" lon="5.47583">
        <ele>245</ele>
        <time>2012-10-16T14:04:48Z</time>
      </trkpt>
      <trkpt lat="47.16174" lon="5.47585">
        <ele>239</ele>
        <time>2012-10-16T14:04:49Z</time>
      </trkpt>
      <trkpt lat="47.16165" lon="5.47589">
        <ele>239</ele>
        <time>2012-10-16T14:04:50Z</time>
      </trkpt>
      <trkpt lat="47.16155" lon="5.47592">
        <ele>239</ele>
        <time>2012-10-16T14:04:51Z</time>
      </trkpt>
      <trkpt lat="47.16146" lon="5.47596">
        <ele>239</ele>
        <time>2012-10-16T14:04:52Z</time>
      </trkpt>
      <trkpt lat="47.16136" lon="5.476">
        <ele>239</ele>
        <time>2012-10-16T14:04:53Z</time>
      </trkpt>
      <trkpt lat="47.16127" lon="5.47603">
        <ele>239</ele>
        <time>2012-10-16T14:04:54Z</time>
      </trkpt>
      <trkpt lat="47.16119" lon="5.47608">
        <ele>239</ele>
        <time>2012-10-16T14:04:55Z</time>
      </trkpt>
      <trkpt lat="47.16103" lon="5.4762">
        <ele>239</ele>
        <time>2012-10-16T14:04:57Z</time>
      </trkpt>
      <trkpt lat="47.16096" lon="5.47628">
        <ele>239</ele>
        <time>2012-10-16T14:04:58Z</time>
      </trkpt>
      <trkpt lat="47.16084" lon="5.47646">
        <ele>239</ele>
        <time>2012-10-16T14:05:00Z</time>
      </trkpt>
      <trkpt lat="47.16074" lon="5.47666">
        <ele>239</ele>
        <time>2012-10-16T14:05:02Z</time>
      </trkpt>
      <trkpt lat="47.16064" lon="5.47684">
        <ele>239</ele>
        <time>2012-10-16T14:05:04Z</time>
      </trkpt>
      <trkpt lat="47.16055" lon="5.47699">
        <ele>239</ele>
        <time>2012-10-16T14:05:06Z</time>
      </trkpt>
      <trkpt lat="47.16045" lon="5.47711">
        <ele>239</ele>
        <time>2012-10-16T14:05:08Z</time>
      </trkpt>
      <trkpt lat="47.16036" lon="5.47719">
        <ele>239</ele>
        <time>2012-10-16T14:05:10Z</time>
      </trkpt>
      <trkpt lat="47.16028" lon="5.47727">
        <ele>239</ele>
        <time>2012-10-16T14:05:12Z</time>
      </trkpt>
      <trkpt lat="47.16019" lon="5.47733">
        <ele>245</ele>
        <time>2012-10-16T14:05:14Z</time>
      </trkpt>
      <trkpt lat="47.16011" lon="5.4774">
        <ele>245</ele>
        <time>2012-10-16T14:05:16Z</time>
      </trkpt>
      <trkpt lat="47.16001" lon="5.4775">
        <ele>250</ele>
        <time>2012-10-16T14:05:19Z</time>
      </trkpt>
      <trkpt lat="47.15991" lon="5.4776">
        <ele>250</ele>
        <time>2012-10-16T14:05:22Z</time>
      </trkpt>
      <trkpt lat="47.15981" lon="5.47772">
        <ele>250</ele>
        <time>2012-10-16T14:05:25Z</time>
      </trkpt>
      <trkpt lat="47.15973" lon="5.47778">
        <ele>250</ele>
        <time>2012-10-16T14:05:27Z</time>
      </trkpt>
      <trkpt lat="47.15964" lon="5.47784">
        <ele>250</ele>
        <time>2012-10-16T14:05:29Z</time>
      </trkpt>
      <trkpt lat="47.15954" lon="5.47787">
        <ele>250</ele>
        <time>2012-10-16T14:05:31Z</time>
      </trkpt>
      <trkpt lat="47.15945" lon="5.47789">
        <ele>250</ele>
        <time>2012-10-16T14:05:33Z</time>
      </trkpt>
      <trkpt lat="47.15935" lon="5.47789">
        <ele>255</ele>
        <time>2012-10-16T14:05:35Z</time>
      </trkpt>
      <trkpt lat="47.15926" lon="5.47787">
        <ele>255</ele>
        <time>2012-10-16T14:05:37Z</time>
      </trkpt>
      <trkpt lat="47.15916" lon="5.47783">
        <ele>255</ele>
        <time>2012-10-16T14:05:39Z</time>
      </trkpt>
      <trkpt lat="47.15905" lon="5.47777">
        <ele>255</ele>
        <time>2012-10-16T14:05:41Z</time>
      </trkpt>
      <trkpt lat="47.15894" lon="5.47772">
        <ele>255</ele>
        <time>2012-10-16T14:05:43Z</time>
      </trkpt>
      <trkpt lat="47.15882" lon="5.47766">
        <ele>255</ele>
        <time>2012-10-16T14:05:45Z</time>
      </trkpt>
      <trkpt lat="47.15871" lon="5.4776">
        <ele>255</ele>
        <time>2012-10-16T14:05:47Z</time>
      </trkpt>
      <trkpt lat="47.15858" lon="5.47754">
        <ele>255</ele>
        <time>2012-10-16T14:05:49Z</time>
      </trkpt>
      <trkpt lat="47.15846" lon="5.4775">
        <ele>255</ele>
        <time>2012-10-16T14:05:51Z</time>
      </trkpt>
      <trkpt lat="47.15833" lon="5.47748">
        <ele>255</ele>
        <time>2012-10-16T14:05:53Z</time>
      </trkpt>
      <trkpt lat="47.1582" lon="5.47745">
        <ele>255</ele>
        <time>2012-10-16T14:05:55Z</time>
      </trkpt>
      <trkpt lat="47.15808" lon="5.47742">
        <ele>255</ele>
        <time>2012-10-16T14:05:57Z</time>
      </trkpt>
      <trkpt lat="47.15796" lon="5.4774">
        <ele>255</ele>
        <time>2012-10-16T14:05:59Z</time>
      </trkpt>
      <trkpt lat="47.15783" lon="5.47737">
        <ele>255</ele>
        <time>2012-10-16T14:06:01Z</time>
      </trkpt>
      <trkpt lat="47.15771" lon="5.47735">
        <ele>255</ele>
        <time>2012-10-16T14:06:03Z</time>
      </trkpt>
      <trkpt lat="47.15758" lon="5.47733">
        <ele>255</ele>
        <time>2012-10-16T14:06:05Z</time>
      </trkpt>
      <trkpt lat="47.15744" lon="5.47731">
        <ele>255</ele>
        <time>2012-10-16T14:06:07Z</time>
      </trkpt>
      <trkpt lat="47.15731" lon="5.47729">
        <ele>255</ele>
        <time>2012-10-16T14:06:09Z</time>
      </trkpt>
      <trkpt lat="47.15719" lon="5.47725">
        <ele>255</ele>
        <time>2012-10-16T14:06:11Z</time>
      </trkpt>
      <trkpt lat="47.15706" lon="5.47722">
        <ele>255</ele>
        <time>2012-10-16T14:06:13Z</time>
      </trkpt>
      <trkpt lat="47.15693" lon="5.47718">
        <ele>255</ele>
        <time>2012-10-16T14:06:15Z</time>
      </trkpt>
      <trkpt lat="47.15681" lon="5.47715">
        <ele>255</ele>
        <time>2012-10-16T14:06:17Z</time>
      </trkpt>
      <trkpt lat="47.15667" lon="5.47711">
        <ele>255</ele>
        <time>2012-10-16T14:06:19Z</time>
      </trkpt>
      <trkpt lat="47.15654" lon="5.47707">
        <ele>255</ele>
        <time>2012-10-16T14:06:21Z</time>
      </trkpt>
      <trkpt lat="47.1564" lon="5.47702">
        <ele>255</ele>
        <time>2012-10-16T14:06:23Z</time>
      </trkpt>
      <trkpt lat="47.15625" lon="5.47701">
        <ele>255</ele>
        <time>2012-10-16T14:06:25Z</time>
      </trkpt>
      <trkpt lat="47.1561" lon="5.47702">
        <ele>255</ele>
        <time>2012-10-16T14:06:27Z</time>
      </trkpt>
      <trkpt lat="47.15597" lon="5.47704">
        <ele>255</ele>
        <time>2012-10-16T14:06:29Z</time>
      </trkpt>
      <trkpt lat="47.15584" lon="5.47706">
        <ele>255</ele>
        <time>2012-10-16T14:06:31Z</time>
      </trkpt>
      <trkpt lat="47.15572" lon="5.4771">
        <ele>255</ele>
        <time>2012-10-16T14:06:33Z</time>
      </trkpt>
      <trkpt lat="47.15562" lon="5.47713">
        <ele>255</ele>
        <time>2012-10-16T14:06:35Z</time>
      </trkpt>
      <trkpt lat="47.1555" lon="5.47714">
        <ele>255</ele>
        <time>2012-10-16T14:06:38Z</time>
      </trkpt>
      <trkpt lat="47.1554" lon="5.47714">
        <ele>255</ele>
        <time>2012-10-16T14:06:42Z</time>
      </trkpt>
      <trkpt lat="47.15533" lon="5.47723">
        <ele>248</ele>
        <time>2012-10-16T14:07:17Z</time>
      </trkpt>
      <trkpt lat="47.1553" lon="5.47736">
        <ele>248</ele>
        <time>2012-10-16T14:07:21Z</time>
      </trkpt>
      <trkpt lat="47.1553" lon="5.47752">
        <ele>248</ele>
        <time>2012-10-16T14:07:25Z</time>
      </trkpt>
      <trkpt lat="47.15529" lon="5.47768">
        <ele>248</ele>
        <time>2012-10-16T14:07:29Z</time>
      </trkpt>
      <trkpt lat="47.15527" lon="5.47785">
        <ele>248</ele>
        <time>2012-10-16T14:07:33Z</time>
      </trkpt>
      <trkpt lat="47.15524" lon="5.47801">
        <ele>254</ele>
        <time>2012-10-16T14:07:37Z</time>
      </trkpt>
      <trkpt lat="47.15521" lon="5.47813">
        <ele>254</ele>
        <time>2012-10-16T14:07:40Z</time>
      </trkpt>
      <trkpt lat="47.15518" lon="5.47827">
        <ele>254</ele>
        <time>2012-10-16T14:07:43Z</time>
      </trkpt>
      <trkpt lat="47.15514" lon="5.4784">
        <ele>254</ele>
        <time>2012-10-16T14:07:46Z</time>
      </trkpt>
      <trkpt lat="47.1551" lon="5.47854">
        <ele>254</ele>
        <time>2012-10-16T14:07:49Z</time>
      </trkpt>
      <trkpt lat="47.15507" lon="5.47867">
        <ele>254</ele>
        <time>2012-10-16T14:07:52Z</time>
      </trkpt>
      <trkpt lat="47.15503" lon="5.47883">
        <ele>259</ele>
        <time>2012-10-16T14:07:56Z</time>
      </trkpt>
      <trkpt lat="47.155" lon="5.47896">
        <ele>259</ele>
        <time>2012-10-16T14:07:59Z</time>
      </trkpt>
      <trkpt lat="47.15498" lon="5.47909">
        <ele>259</ele>
        <time>2012-10-16T14:08:02Z</time>
      </trkpt>
      <trkpt lat="47.15494" lon="5.47925">
        <ele>259</ele>
        <time>2012-10-16T14:08:05Z</time>
      </trkpt>
      <trkpt lat="47.15491" lon="5.47939">
        <ele>259</ele>
        <time>2012-10-16T14:08:08Z</time>
      </trkpt>
      <trkpt lat="47.15489" lon="5.47954">
        <ele>259</ele>
        <time>2012-10-16T14:08:11Z</time>
      </trkpt>
      <trkpt lat="47.15483" lon="5.4797">
        <ele>259</ele>
        <time>2012-10-16T14:08:14Z</time>
      </trkpt>
      <trkpt lat="47.15476" lon="5.47985">
        <ele>259</ele>
        <time>2012-10-16T14:08:17Z</time>
      </trkpt>
      <trkpt lat="47.1547" lon="5.47996">
        <ele>259</ele>
        <time>2012-10-16T14:08:19Z</time>
      </trkpt>
      <trkpt lat="47.15462" lon="5.48007">
        <ele>259</ele>
        <time>2012-10-16T14:08:21Z</time>
      </trkpt>
      <trkpt lat="47.15457" lon="5.4802">
        <ele>259</ele>
        <time>2012-10-16T14:08:23Z</time>
      </trkpt>
      <trkpt lat="47.15453" lon="5.48033">
        <ele>259</ele>
        <time>2012-10-16T14:08:25Z</time>
      </trkpt>
      <trkpt lat="47.15452" lon="5.48047">
        <ele>259</ele>
        <time>2012-10-16T14:08:27Z</time>
      </trkpt>
      <trkpt lat="47.1545" lon="5.48067">
        <ele>259</ele>
        <time>2012-10-16T14:08:30Z</time>
      </trkpt>
      <trkpt lat="47.15451" lon="5.48086">
        <ele>259</ele>
        <time>2012-10-16T14:08:33Z</time>
      </trkpt>
      <trkpt lat="47.15451" lon="5.48101">
        <ele>259</ele>
        <time>2012-10-16T14:08:35Z</time>
      </trkpt>
      <trkpt lat="47.15452" lon="5.48115">
        <ele>259</ele>
        <time>2012-10-16T14:08:37Z</time>
      </trkpt>
      <trkpt lat="47.15454" lon="5.48131">
        <ele>259</ele>
        <time>2012-10-16T14:08:39Z</time>
      </trkpt>
      <trkpt lat="47.15459" lon="5.48148">
        <ele>259</ele>
        <time>2012-10-16T14:08:41Z</time>
      </trkpt>
      <trkpt lat="47.15462" lon="5.48166">
        <ele>259</ele>
        <time>2012-10-16T14:08:43Z</time>
      </trkpt>
      <trkpt lat="47.15464" lon="5.48185">
        <ele>259</ele>
        <time>2012-10-16T14:08:45Z</time>
      </trkpt>
      <trkpt lat="47.15464" lon="5.48205">
        <ele>259</ele>
        <time>2012-10-16T14:08:47Z</time>
      </trkpt>
      <trkpt lat="47.15462" lon="5.48225">
        <ele>259</ele>
        <time>2012-10-16T14:08:49Z</time>
      </trkpt>
      <trkpt lat="47.15461" lon="5.48245">
        <ele>259</ele>
        <time>2012-10-16T14:08:51Z</time>
      </trkpt>
      <trkpt lat="47.15459" lon="5.48263">
        <ele>259</ele>
        <time>2012-10-16T14:08:53Z</time>
      </trkpt>
      <trkpt lat="47.15456" lon="5.48283">
        <ele>259</ele>
        <time>2012-10-16T14:08:55Z</time>
      </trkpt>
      <trkpt lat="47.15454" lon="5.48304">
        <ele>259</ele>
        <time>2012-10-16T14:08:57Z</time>
      </trkpt>
      <trkpt lat="47.15453" lon="5.48326">
        <ele>259</ele>
        <time>2012-10-16T14:08:59Z</time>
      </trkpt>
      <trkpt lat="47.15447" lon="5.48348">
        <ele>254</ele>
        <time>2012-10-16T14:09:01Z</time>
      </trkpt>
      <trkpt lat="47.1544" lon="5.48369">
        <ele>254</ele>
        <time>2012-10-16T14:09:03Z</time>
      </trkpt>
      <trkpt lat="47.15431" lon="5.48389">
        <ele>254</ele>
        <time>2012-10-16T14:09:05Z</time>
      </trkpt>
      <trkpt lat="47.15423" lon="5.4841">
        <ele>254</ele>
        <time>2012-10-16T14:09:07Z</time>
      </trkpt>
      <trkpt lat="47.15416" lon="5.48432">
        <ele>254</ele>
        <time>2012-10-16T14:09:09Z</time>
      </trkpt>
      <trkpt lat="47.15411" lon="5.48456">
        <ele>249</ele>
        <time>2012-10-16T14:09:11Z</time>
      </trkpt>
      <trkpt lat="47.15407" lon="5.48468">
        <ele>249</ele>
        <time>2012-10-16T14:09:12Z</time>
      </trkpt>
      <trkpt lat="47.15403" lon="5.4848">
        <ele>249</ele>
        <time>2012-10-16T14:09:13Z</time>
      </trkpt>
      <trkpt lat="47.15393" lon="5.48501">
        <ele>249</ele>
        <time>2012-10-16T14:09:15Z</time>
      </trkpt>
      <trkpt lat="47.15386" lon="5.4851">
        <ele>249</ele>
        <time>2012-10-16T14:09:16Z</time>
      </trkpt>
      <trkpt lat="47.15374" lon="5.48527">
        <ele>249</ele>
        <time>2012-10-16T14:09:18Z</time>
      </trkpt>
      <trkpt lat="47.15362" lon="5.48542">
        <ele>249</ele>
        <time>2012-10-16T14:09:20Z</time>
      </trkpt>
      <trkpt lat="47.15352" lon="5.48556">
        <ele>249</ele>
        <time>2012-10-16T14:09:22Z</time>
      </trkpt>
      <trkpt lat="47.15343" lon="5.48567">
        <ele>249</ele>
        <time>2012-10-16T14:09:24Z</time>
      </trkpt>
      <trkpt lat="47.15333" lon="5.4857">
        <ele>249</ele>
        <time>2012-10-16T14:09:26Z</time>
      </trkpt>
      <trkpt lat="47.15321" lon="5.48563">
        <ele>249</ele>
        <time>2012-10-16T14:09:28Z</time>
      </trkpt>
      <trkpt lat="47.15309" lon="5.48554">
        <ele>249</ele>
        <time>2012-10-16T14:09:30Z</time>
      </trkpt>
      <trkpt lat="47.15296" lon="5.48545">
        <ele>249</ele>
        <time>2012-10-16T14:09:32Z</time>
      </trkpt>
      <trkpt lat="47.15282" lon="5.48537">
        <ele>249</ele>
        <time>2012-10-16T14:09:34Z</time>
      </trkpt>
      <trkpt lat="47.1527" lon="5.48528">
        <ele>249</ele>
        <time>2012-10-16T14:09:36Z</time>
      </trkpt>
      <trkpt lat="47.15257" lon="5.4852">
        <ele>249</ele>
        <time>2012-10-16T14:09:38Z</time>
      </trkpt>
      <trkpt lat="47.15245" lon="5.48513">
        <ele>249</ele>
        <time>2012-10-16T14:09:40Z</time>
      </trkpt>
      <trkpt lat="47.15234" lon="5.48505">
        <ele>249</ele>
        <time>2012-10-16T14:09:42Z</time>
      </trkpt>
      <trkpt lat="47.15222" lon="5.48497">
        <ele>249</ele>
        <time>2012-10-16T14:09:44Z</time>
      </trkpt>
      <trkpt lat="47.15211" lon="5.48489">
        <ele>249</ele>
        <time>2012-10-16T14:09:46Z</time>
      </trkpt>
      <trkpt lat="47.15198" lon="5.48481">
        <ele>249</ele>
        <time>2012-10-16T14:09:48Z</time>
      </trkpt>
      <trkpt lat="47.15186" lon="5.48473">
        <ele>249</ele>
        <time>2012-10-16T14:09:50Z</time>
      </trkpt>
      <trkpt lat="47.15173" lon="5.48465">
        <ele>249</ele>
        <time>2012-10-16T14:09:52Z</time>
      </trkpt>
      <trkpt lat="47.15161" lon="5.48456">
        <ele>249</ele>
        <time>2012-10-16T14:09:54Z</time>
      </trkpt>
      <trkpt lat="47.15148" lon="5.48448">
        <ele>249</ele>
        <time>2012-10-16T14:09:56Z</time>
      </trkpt>
      <trkpt lat="47.15135" lon="5.48439">
        <ele>249</ele>
        <time>2012-10-16T14:09:58Z</time>
      </trkpt>
      <trkpt lat="47.15122" lon="5.48431">
        <ele>249</ele>
        <time>2012-10-16T14:10:00Z</time>
      </trkpt>
      <trkpt lat="47.15109" lon="5.48422">
        <ele>249</ele>
        <time>2012-10-16T14:10:02Z</time>
      </trkpt>
      <trkpt lat="47.15095" lon="5.48413">
        <ele>249</ele>
        <time>2012-10-16T14:10:04Z</time>
      </trkpt>
      <trkpt lat="47.15083" lon="5.48404">
        <ele>249</ele>
        <time>2012-10-16T14:10:06Z</time>
      </trkpt>
      <trkpt lat="47.1507" lon="5.48396">
        <ele>249</ele>
        <time>2012-10-16T14:10:08Z</time>
      </trkpt>
      <trkpt lat="47.15059" lon="5.48388">
        <ele>249</ele>
        <time>2012-10-16T14:10:10Z</time>
      </trkpt>
      <trkpt lat="47.15047" lon="5.48381">
        <ele>249</ele>
        <time>2012-10-16T14:10:12Z</time>
      </trkpt>
      <trkpt lat="47.15036" lon="5.48374">
        <ele>249</ele>
        <time>2012-10-16T14:10:14Z</time>
      </trkpt>
      <trkpt lat="47.15024" lon="5.48367">
        <ele>249</ele>
        <time>2012-10-16T14:10:16Z</time>
      </trkpt>
      <trkpt lat="47.15014" lon="5.4836">
        <ele>249</ele>
        <time>2012-10-16T14:10:18Z</time>
      </trkpt>
      <trkpt lat="47.15002" lon="5.48353">
        <ele>249</ele>
        <time>2012-10-16T14:10:20Z</time>
      </trkpt>
      <trkpt lat="47.14992" lon="5.48346">
        <ele>249</ele>
        <time>2012-10-16T14:10:22Z</time>
      </trkpt>
      <trkpt lat="47.14981" lon="5.48339">
        <ele>249</ele>
        <time>2012-10-16T14:10:24Z</time>
      </trkpt>
      <trkpt lat="47.1497" lon="5.48332">
        <ele>249</ele>
        <time>2012-10-16T14:10:26Z</time>
      </trkpt>
      <trkpt lat="47.14958" lon="5.48325">
        <ele>249</ele>
        <time>2012-10-16T14:10:28Z</time>
      </trkpt>
      <trkpt lat="47.14946" lon="5.48317">
        <ele>249</ele>
        <time>2012-10-16T14:10:30Z</time>
      </trkpt>
      <trkpt lat="47.14935" lon="5.48309">
        <ele>249</ele>
        <time>2012-10-16T14:10:32Z</time>
      </trkpt>
      <trkpt lat="47.14923" lon="5.48301">
        <ele>249</ele>
        <time>2012-10-16T14:10:34Z</time>
      </trkpt>
      <trkpt lat="47.14911" lon="5.48293">
        <ele>249</ele>
        <time>2012-10-16T14:10:36Z</time>
      </trkpt>
      <trkpt lat="47.14899" lon="5.48285">
        <ele>249</ele>
        <time>2012-10-16T14:10:38Z</time>
      </trkpt>
      <trkpt lat="47.14887" lon="5.48277">
        <ele>249</ele>
        <time>2012-10-16T14:10:40Z</time>
      </trkpt>
      <trkpt lat="47.14875" lon="5.48269">
        <ele>249</ele>
        <time>2012-10-16T14:10:42Z</time>
      </trkpt>
      <trkpt lat="47.14863" lon="5.48262">
        <ele>249</ele>
        <time>2012-10-16T14:10:44Z</time>
      </trkpt>
      <trkpt lat="47.14851" lon="5.48254">
        <ele>249</ele>
        <time>2012-10-16T14:10:46Z</time>
      </trkpt>
      <trkpt lat="47.14839" lon="5.48246">
        <ele>249</ele>
        <time>2012-10-16T14:10:48Z</time>
      </trkpt>
      <trkpt lat="47.14828" lon="5.4824">
        <ele>249</ele>
        <time>2012-10-16T14:10:50Z</time>
      </trkpt>
      <trkpt lat="47.14815" lon="5.48236">
        <ele>249</ele>
        <time>2012-10-16T14:10:52Z</time>
      </trkpt>
      <trkpt lat="47.14802" lon="5.48233">
        <ele>249</ele>
        <time>2012-10-16T14:10:54Z</time>
      </trkpt>
      <trkpt lat="47.14788" lon="5.48232">
        <ele>249</ele>
        <time>2012-10-16T14:10:56Z</time>
      </trkpt>
      <trkpt lat="47.14775" lon="5.48234">
        <ele>249</ele>
        <time>2012-10-16T14:10:58Z</time>
      </trkpt>
      <trkpt lat="47.14761" lon="5.48236">
        <ele>249</ele>
        <time>2012-10-16T14:11:00Z</time>
      </trkpt>
      <trkpt lat="47.14748" lon="5.48243">
        <ele>249</ele>
        <time>2012-10-16T14:11:02Z</time>
      </trkpt>
      <trkpt lat="47.14736" lon="5.48251">
        <ele>249</ele>
        <time>2012-10-16T14:11:04Z</time>
      </trkpt>
      <trkpt lat="47.14723" lon="5.4826">
        <ele>249</ele>
        <time>2012-10-16T14:11:06Z</time>
      </trkpt>
      <trkpt lat="47.14712" lon="5.48271">
        <ele>249</ele>
        <time>2012-10-16T14:11:08Z</time>
      </trkpt>
      <trkpt lat="47.14701" lon="5.48282">
        <ele>249</ele>
        <time>2012-10-16T14:11:10Z</time>
      </trkpt>
      <trkpt lat="47.1469" lon="5.48294">
        <ele>249</ele>
        <time>2012-10-16T14:11:12Z</time>
      </trkpt>
      <trkpt lat="47.14679" lon="5.48306">
        <ele>249</ele>
        <time>2012-10-16T14:11:14Z</time>
      </trkpt>
      <trkpt lat="47.14668" lon="5.48317">
        <ele>249</ele>
        <time>2012-10-16T14:11:16Z</time>
      </trkpt>
      <trkpt lat="47.14658" lon="5.48328">
        <ele>249</ele>
        <time>2012-10-16T14:11:18Z</time>
      </trkpt>
      <trkpt lat="47.14647" lon="5.4834">
        <ele>249</ele>
        <time>2012-10-16T14:11:20Z</time>
      </trkpt>
      <trkpt lat="47.14636" lon="5.48351">
        <ele>249</ele>
        <time>2012-10-16T14:11:22Z</time>
      </trkpt>
      <trkpt lat="47.14625" lon="5.48362">
        <ele>249</ele>
        <time>2012-10-16T14:11:24Z</time>
      </trkpt>
      <trkpt lat="47.14614" lon="5.48373">
        <ele>249</ele>
        <time>2012-10-16T14:11:26Z</time>
      </trkpt>
      <trkpt lat="47.14603" lon="5.48384">
        <ele>249</ele>
        <time>2012-10-16T14:11:28Z</time>
      </trkpt>
      <trkpt lat="47.14593" lon="5.48395">
        <ele>249</ele>
        <time>2012-10-16T14:11:30Z</time>
      </trkpt>
      <trkpt lat="47.14582" lon="5.48406">
        <ele>249</ele>
        <time>2012-10-16T14:11:32Z</time>
      </trkpt>
      <trkpt lat="47.14572" lon="5.48418">
        <ele>249</ele>
        <time>2012-10-16T14:11:34Z</time>
      </trkpt>
      <trkpt lat="47.14561" lon="5.48429">
        <ele>249</ele>
        <time>2012-10-16T14:11:36Z</time>
      </trkpt>
      <trkpt lat="47.14551" lon="5.4844">
        <ele>249</ele>
        <time>2012-10-16T14:11:38Z</time>
      </trkpt>
      <trkpt lat="47.14539" lon="5.48451">
        <ele>249</ele>
        <time>2012-10-16T14:11:40Z</time>
      </trkpt>
      <trkpt lat="47.14528" lon="5.48463">
        <ele>249</ele>
        <time>2012-10-16T14:11:42Z</time>
      </trkpt>
      <trkpt lat="47.14517" lon="5.48475">
        <ele>249</ele>
        <time>2012-10-16T14:11:44Z</time>
      </trkpt>
      <trkpt lat="47.14506" lon="5.48486">
        <ele>249</ele>
        <time>2012-10-16T14:11:46Z</time>
      </trkpt>
      <trkpt lat="47.14495" lon="5.48498">
        <ele>249</ele>
        <time>2012-10-16T14:11:48Z</time>
      </trkpt>
      <trkpt lat="47.14484" lon="5.4851">
        <ele>249</ele>
        <time>2012-10-16T14:11:50Z</time>
      </trkpt>
      <trkpt lat="47.14473" lon="5.48521">
        <ele>249</ele>
        <time>2012-10-16T14:11:52Z</time>
      </trkpt>
      <trkpt lat="47.14462" lon="5.48532">
        <ele>249</ele>
        <time>2012-10-16T14:11:54Z</time>
      </trkpt>
      <trkpt lat="47.1445" lon="5.48543">
        <ele>249</ele>
        <time>2012-10-16T14:11:56Z</time>
      </trkpt>
      <trkpt lat="47.14439" lon="5.48554">
        <ele>249</ele>
        <time>2012-10-16T14:11:58Z</time>
      </trkpt>
      <trkpt lat="47.14427" lon="5.48565">
        <ele>249</ele>
        <time>2012-10-16T14:12:00Z</time>
      </trkpt>
      <trkpt lat="47.14416" lon="5.48577">
        <ele>249</ele>
        <time>2012-10-16T14:12:02Z</time>
      </trkpt>
      <trkpt lat="47.14405" lon="5.48589">
        <ele>249</ele>
        <time>2012-10-16T14:12:04Z</time>
      </trkpt>
      <trkpt lat="47.14394" lon="5.486">
        <ele>249</ele>
        <time>2012-10-16T14:12:06Z</time>
      </trkpt>
      <trkpt lat="47.14384" lon="5.48615">
        <ele>249</ele>
        <time>2012-10-16T14:12:08Z</time>
      </trkpt>
      <trkpt lat="47.14378" lon="5.48633">
        <ele>249</ele>
        <time>2012-10-16T14:12:10Z</time>
      </trkpt>
      <trkpt lat="47.14374" lon="5.48652">
        <ele>249</ele>
        <time>2012-10-16T14:12:12Z</time>
      </trkpt>
      <trkpt lat="47.14375" lon="5.48673">
        <ele>249</ele>
        <time>2012-10-16T14:12:14Z</time>
      </trkpt>
      <trkpt lat="47.14376" lon="5.48695">
        <ele>249</ele>
        <time>2012-10-16T14:12:16Z</time>
      </trkpt>
      <trkpt lat="47.14379" lon="5.48717">
        <ele>249</ele>
        <time>2012-10-16T14:12:18Z</time>
      </trkpt>
      <trkpt lat="47.14383" lon="5.4874">
        <ele>249</ele>
        <time>2012-10-16T14:12:20Z</time>
      </trkpt>
      <trkpt lat="47.14385" lon="5.48765">
        <ele>249</ele>
        <time>2012-10-16T14:12:22Z</time>
      </trkpt>
      <trkpt lat="47.14386" lon="5.48789">
        <ele>249</ele>
        <time>2012-10-16T14:12:24Z</time>
      </trkpt>
      <trkpt lat="47.14389" lon="5.48814">
        <ele>249</ele>
        <time>2012-10-16T14:12:26Z</time>
      </trkpt>
      <trkpt lat="47.14391" lon="5.4884">
        <ele>249</ele>
        <time>2012-10-16T14:12:28Z</time>
      </trkpt>
      <trkpt lat="47.14394" lon="5.48865">
        <ele>249</ele>
        <time>2012-10-16T14:12:30Z</time>
      </trkpt>
      <trkpt lat="47.14395" lon="5.48879">
        <ele>249</ele>
        <time>2012-10-16T14:12:31Z</time>
      </trkpt>
      <trkpt lat="47.14398" lon="5.48904">
        <ele>249</ele>
        <time>2012-10-16T14:12:33Z</time>
      </trkpt>
      <trkpt lat="47.144" lon="5.4893">
        <ele>249</ele>
        <time>2012-10-16T14:12:35Z</time>
      </trkpt>
      <trkpt lat="47.14403" lon="5.48956">
        <ele>249</ele>
        <time>2012-10-16T14:12:37Z</time>
      </trkpt>
      <trkpt lat="47.14405" lon="5.4897">
        <ele>249</ele>
        <time>2012-10-16T14:12:38Z</time>
      </trkpt>
      <trkpt lat="47.14406" lon="5.48983">
        <ele>249</ele>
        <time>2012-10-16T14:12:39Z</time>
      </trkpt>
      <trkpt lat="47.14408" lon="5.48996">
        <ele>249</ele>
        <time>2012-10-16T14:12:40Z</time>
      </trkpt>
      <trkpt lat="47.14408" lon="5.4901">
        <ele>249</ele>
        <time>2012-10-16T14:12:41Z</time>
      </trkpt>
      <trkpt lat="47.14408" lon="5.49023">
        <ele>249</ele>
        <time>2012-10-16T14:12:42Z</time>
      </trkpt>
      <trkpt lat="47.14405" lon="5.49037">
        <ele>243</ele>
        <time>2012-10-16T14:12:43Z</time>
      </trkpt>
      <trkpt lat="47.14402" lon="5.49049">
        <ele>243</ele>
        <time>2012-10-16T14:12:44Z</time>
      </trkpt>
      <trkpt lat="47.14397" lon="5.49061">
        <ele>243</ele>
        <time>2012-10-16T14:12:45Z</time>
      </trkpt>
      <trkpt lat="47.14391" lon="5.49072">
        <ele>243</ele>
        <time>2012-10-16T14:12:46Z</time>
      </trkpt>
      <trkpt lat="47.14384" lon="5.49081">
        <ele>243</ele>
        <time>2012-10-16T14:12:47Z</time>
      </trkpt>
      <trkpt lat="47.14377" lon="5.4909">
        <ele>243</ele>
        <time>2012-10-16T14:12:48Z</time>
      </trkpt>
      <trkpt lat="47.1437" lon="5.49099">
        <ele>243</ele>
        <time>2012-10-16T14:12:49Z</time>
      </trkpt>
      <trkpt lat="47.14356" lon="5.49116">
        <ele>243</ele>
        <time>2012-10-16T14:12:51Z</time>
      </trkpt>
      <trkpt lat="47.14343" lon="5.49132">
        <ele>243</ele>
        <time>2012-10-16T14:12:53Z</time>
      </trkpt>
      <trkpt lat="47.1433" lon="5.49147">
        <ele>243</ele>
        <time>2012-10-16T14:12:55Z</time>
      </trkpt>
      <trkpt lat="47.14318" lon="5.49163">
        <ele>243</ele>
        <time>2012-10-16T14:12:57Z</time>
      </trkpt>
      <trkpt lat="47.14307" lon="5.49181">
        <ele>243</ele>
        <time>2012-10-16T14:12:59Z</time>
      </trkpt>
      <trkpt lat="47.14297" lon="5.49202">
        <ele>243</ele>
        <time>2012-10-16T14:13:01Z</time>
      </trkpt>
      <trkpt lat="47.14294" lon="5.49215">
        <ele>243</ele>
        <time>2012-10-16T14:13:02Z</time>
      </trkpt>
      <trkpt lat="47.14292" lon="5.49228">
        <ele>243</ele>
        <time>2012-10-16T14:13:03Z</time>
      </trkpt>
      <trkpt lat="47.14291" lon="5.49243">
        <ele>243</ele>
        <time>2012-10-16T14:13:04Z</time>
      </trkpt>
      <trkpt lat="47.14292" lon="5.49257">
        <ele>243</ele>
        <time>2012-10-16T14:13:05Z</time>
      </trkpt>
      <trkpt lat="47.14294" lon="5.49271">
        <ele>243</ele>
        <time>2012-10-16T14:13:06Z</time>
      </trkpt>
      <trkpt lat="47.14296" lon="5.49287">
        <ele>243</ele>
        <time>2012-10-16T14:13:07Z</time>
      </trkpt>
      <trkpt lat="47.14299" lon="5.49301">
        <ele>243</ele>
        <time>2012-10-16T14:13:08Z</time>
      </trkpt>
      <trkpt lat="47.14301" lon="5.49316">
        <ele>243</ele>
        <time>2012-10-16T14:13:09Z</time>
      </trkpt>
      <trkpt lat="47.14304" lon="5.49332">
        <ele>243</ele>
        <time>2012-10-16T14:13:10Z</time>
      </trkpt>
      <trkpt lat="47.14307" lon="5.49347">
        <ele>243</ele>
        <time>2012-10-16T14:13:11Z</time>
      </trkpt>
      <trkpt lat="47.14309" lon="5.49362">
        <ele>243</ele>
        <time>2012-10-16T14:13:12Z</time>
      </trkpt>
      <trkpt lat="47.14312" lon="5.49378">
        <ele>243</ele>
        <time>2012-10-16T14:13:13Z</time>
      </trkpt>
      <trkpt lat="47.14315" lon="5.49394">
        <ele>243</ele>
        <time>2012-10-16T14:13:14Z</time>
      </trkpt>
      <trkpt lat="47.14318" lon="5.49409">
        <ele>243</ele>
        <time>2012-10-16T14:13:15Z</time>
      </trkpt>
      <trkpt lat="47.1432" lon="5.49424">
        <ele>243</ele>
        <time>2012-10-16T14:13:16Z</time>
      </trkpt>
      <trkpt lat="47.14323" lon="5.49439">
        <ele>243</ele>
        <time>2012-10-16T14:13:17Z</time>
      </trkpt>
      <trkpt lat="47.14326" lon="5.49455">
        <ele>243</ele>
        <time>2012-10-16T14:13:18Z</time>
      </trkpt>
      <trkpt lat="47.14329" lon="5.4947">
        <ele>243</ele>
        <time>2012-10-16T14:13:19Z</time>
      </trkpt>
      <trkpt lat="47.14331" lon="5.49485">
        <ele>243</ele>
        <time>2012-10-16T14:13:20Z</time>
      </trkpt>
      <trkpt lat="47.14332" lon="5.49501">
        <ele>243</ele>
        <time>2012-10-16T14:13:21Z</time>
      </trkpt>
      <trkpt lat="47.14329" lon="5.49516">
        <ele>237</ele>
        <time>2012-10-16T14:13:22Z</time>
      </trkpt>
      <trkpt lat="47.14324" lon="5.4953">
        <ele>237</ele>
        <time>2012-10-16T14:13:23Z</time>
      </trkpt>
      <trkpt lat="47.14318" lon="5.49543">
        <ele>237</ele>
        <time>2012-10-16T14:13:24Z</time>
      </trkpt>
      <trkpt lat="47.14309" lon="5.49553">
        <ele>237</ele>
        <time>2012-10-16T14:13:25Z</time>
      </trkpt>
      <trkpt lat="47.14299" lon="5.49561">
        <ele>237</ele>
        <time>2012-10-16T14:13:26Z</time>
      </trkpt>
      <trkpt lat="47.14288" lon="5.49569">
        <ele>237</ele>
        <time>2012-10-16T14:13:27Z</time>
      </trkpt>
      <trkpt lat="47.14277" lon="5.49576">
        <ele>237</ele>
        <time>2012-10-16T14:13:28Z</time>
      </trkpt>
      <trkpt lat="47.14266" lon="5.49584">
        <ele>237</ele>
        <time>2012-10-16T14:13:29Z</time>
      </trkpt>
      <trkpt lat="47.14255" lon="5.49591">
        <ele>237</ele>
        <time>2012-10-16T14:13:30Z</time>
      </trkpt>
      <trkpt lat="47.14244" lon="5.49599">
        <ele>232</ele>
        <time>2012-10-16T14:13:31Z</time>
      </trkpt>
      <trkpt lat="47.14234" lon="5.49606">
        <ele>232</ele>
        <time>2012-10-16T14:13:32Z</time>
      </trkpt>
      <trkpt lat="47.14224" lon="5.49614">
        <ele>232</ele>
        <time>2012-10-16T14:13:33Z</time>
      </trkpt>
      <trkpt lat="47.14214" lon="5.49621">
        <ele>232</ele>
        <time>2012-10-16T14:13:34Z</time>
      </trkpt>
      <trkpt lat="47.14205" lon="5.49628">
        <ele>232</ele>
        <time>2012-10-16T14:13:35Z</time>
      </trkpt>
      <trkpt lat="47.14197" lon="5.49636">
        <ele>232</ele>
        <time>2012-10-16T14:13:36Z</time>
      </trkpt>
      <trkpt lat="47.14189" lon="5.49644">
        <ele>232</ele>
        <time>2012-10-16T14:13:37Z</time>
      </trkpt>
      <trkpt lat="47.14182" lon="5.49654">
        <ele>232</ele>
        <time>2012-10-16T14:13:38Z</time>
      </trkpt>
      <trkpt lat="47.14172" lon="5.49674">
        <ele>232</ele>
        <time>2012-10-16T14:13:40Z</time>
      </trkpt>
      <trkpt lat="47.14164" lon="5.49695">
        <ele>232</ele>
        <time>2012-10-16T14:13:42Z</time>
      </trkpt>
      <trkpt lat="47.14158" lon="5.49716">
        <ele>232</ele>
        <time>2012-10-16T14:13:44Z</time>
      </trkpt>
      <trkpt lat="47.14152" lon="5.49737">
        <ele>232</ele>
        <time>2012-10-16T14:13:46Z</time>
      </trkpt>
      <trkpt lat="47.14147" lon="5.49757">
        <ele>232</ele>
        <time>2012-10-16T14:13:48Z</time>
      </trkpt>
      <trkpt lat="47.14142" lon="5.49777">
        <ele>232</ele>
        <time>2012-10-16T14:13:50Z</time>
      </trkpt>
      <trkpt lat="47.14138" lon="5.49796">
        <ele>232</ele>
        <time>2012-10-16T14:13:52Z</time>
      </trkpt>
      <trkpt lat="47.14134" lon="5.49813">
        <ele>232</ele>
        <time>2012-10-16T14:13:54Z</time>
      </trkpt>
      <trkpt lat="47.14129" lon="5.49827">
        <ele>232</ele>
        <time>2012-10-16T14:13:56Z</time>
      </trkpt>
      <trkpt lat="47.14121" lon="5.4984">
        <ele>232</ele>
        <time>2012-10-16T14:13:59Z</time>
      </trkpt>
      <trkpt lat="47.14114" lon="5.4985">
        <ele>232</ele>
        <time>2012-10-16T14:14:03Z</time>
      </trkpt>
      <trkpt lat="47.14115" lon="5.49866">
        <ele>232</ele>
        <time>2012-10-16T14:14:07Z</time>
      </trkpt>
      <trkpt lat="47.14117" lon="5.49879">
        <ele>232</ele>
        <time>2012-10-16T14:14:10Z</time>
      </trkpt>
      <trkpt lat="47.14118" lon="5.49894">
        <ele>232</ele>
        <time>2012-10-16T14:14:13Z</time>
      </trkpt>
      <trkpt lat="47.1412" lon="5.49908">
        <ele>232</ele>
        <time>2012-10-16T14:14:16Z</time>
      </trkpt>
      <trkpt lat="47.1412" lon="5.49925">
        <ele>238</ele>
        <time>2012-10-16T14:14:20Z</time>
      </trkpt>
      <trkpt lat="47.14117" lon="5.49939">
        <ele>238</ele>
        <time>2012-10-16T14:14:23Z</time>
      </trkpt>
      <trkpt lat="47.14109" lon="5.49948">
        <ele>238</ele>
        <time>2012-10-16T14:14:26Z</time>
      </trkpt>
      <trkpt lat="47.14101" lon="5.49951">
        <ele>238</ele>
        <time>2012-10-16T14:14:28Z</time>
      </trkpt>
      <trkpt lat="47.14091" lon="5.49955">
        <ele>238</ele>
        <time>2012-10-16T14:14:30Z</time>
      </trkpt>
      <trkpt lat="47.14082" lon="5.49959">
        <ele>238</ele>
        <time>2012-10-16T14:14:32Z</time>
      </trkpt>
      <trkpt lat="47.14072" lon="5.49963">
        <ele>238</ele>
        <time>2012-10-16T14:14:34Z</time>
      </trkpt>
      <trkpt lat="47.14062" lon="5.49967">
        <ele>238</ele>
        <time>2012-10-16T14:14:36Z</time>
      </trkpt>
      <trkpt lat="47.14052" lon="5.49971">
        <ele>238</ele>
        <time>2012-10-16T14:14:38Z</time>
      </trkpt>
      <trkpt lat="47.14042" lon="5.49975">
        <ele>238</ele>
        <time>2012-10-16T14:14:40Z</time>
      </trkpt>
      <trkpt lat="47.14031" lon="5.49978">
        <ele>238</ele>
        <time>2012-10-16T14:14:42Z</time>
      </trkpt>
      <trkpt lat="47.14021" lon="5.49982">
        <ele>238</ele>
        <time>2012-10-16T14:14:44Z</time>
      </trkpt>
      <trkpt lat="47.14011" lon="5.49985">
        <ele>238</ele>
        <time>2012-10-16T14:14:46Z</time>
      </trkpt>
      <trkpt lat="47.14001" lon="5.49987">
        <ele>238</ele>
        <time>2012-10-16T14:14:48Z</time>
      </trkpt>
      <trkpt lat="47.13992" lon="5.49989">
        <ele>238</ele>
        <time>2012-10-16T14:14:50Z</time>
      </trkpt>
      <trkpt lat="47.13983" lon="5.49992">
        <ele>238</ele>
        <time>2012-10-16T14:14:52Z</time>
      </trkpt>
      <trkpt lat="47.13974" lon="5.49994">
        <ele>238</ele>
        <time>2012-10-16T14:14:54Z</time>
      </trkpt>
      <trkpt lat="47.13964" lon="5.49996">
        <ele>238</ele>
        <time>2012-10-16T14:14:56Z</time>
      </trkpt>
      <trkpt lat="47.13955" lon="5.49999">
        <ele>238</ele>
        <time>2012-10-16T14:14:58Z</time>
      </trkpt>
      <trkpt lat="47.13945" lon="5.50002">
        <ele>238</ele>
        <time>2012-10-16T14:15:00Z</time>
      </trkpt>
      <trkpt lat="47.13935" lon="5.50003">
        <ele>243</ele>
        <time>2012-10-16T14:15:02Z</time>
      </trkpt>
      <trkpt lat="47.13926" lon="5.50004">
        <ele>243</ele>
        <time>2012-10-16T14:15:04Z</time>
      </trkpt>
      <trkpt lat="47.13917" lon="5.50006">
        <ele>243</ele>
        <time>2012-10-16T14:15:06Z</time>
      </trkpt>
      <trkpt lat="47.13903" lon="5.5001">
        <ele>243</ele>
        <time>2012-10-16T14:15:09Z</time>
      </trkpt>
      <trkpt lat="47.13893" lon="5.50012">
        <ele>243</ele>
        <time>2012-10-16T14:15:11Z</time>
      </trkpt>
      <trkpt lat="47.13884" lon="5.50013">
        <ele>243</ele>
        <time>2012-10-16T14:15:13Z</time>
      </trkpt>
      <trkpt lat="47.13874" lon="5.50015">
        <ele>243</ele>
        <time>2012-10-16T14:15:15Z</time>
      </trkpt>
      <trkpt lat="47.13864" lon="5.50017">
        <ele>243</ele>
        <time>2012-10-16T14:15:17Z</time>
      </trkpt>
      <trkpt lat="47.13855" lon="5.5002">
        <ele>243</ele>
        <time>2012-10-16T14:15:19Z</time>
      </trkpt>
      <trkpt lat="47.13845" lon="5.50021">
        <ele>243</ele>
        <time>2012-10-16T14:15:21Z</time>
      </trkpt>
      <trkpt lat="47.13835" lon="5.50024">
        <ele>243</ele>
        <time>2012-10-16T14:15:23Z</time>
      </trkpt>
      <trkpt lat="47.13825" lon="5.50026">
        <ele>243</ele>
        <time>2012-10-16T14:15:25Z</time>
      </trkpt>
      <trkpt lat="47.13816" lon="5.50029">
        <ele>243</ele>
        <time>2012-10-16T14:15:27Z</time>
      </trkpt>
      <trkpt lat="47.13805" lon="5.5003">
        <ele>249</ele>
        <time>2012-10-16T14:15:29Z</time>
      </trkpt>
      <trkpt lat="47.13795" lon="5.50042">
        <ele>249</ele>
        <time>2012-10-16T14:15:32Z</time>
      </trkpt>
      <trkpt lat="47.13782" lon="5.50045">
        <ele>249</ele>
        <time>2012-10-16T14:15:35Z</time>
      </trkpt>
      <trkpt lat="47.13772" lon="5.50045">
        <ele>254</ele>
        <time>2012-10-16T14:15:37Z</time>
      </trkpt>
      <trkpt lat="47.13762" lon="5.50046">
        <ele>254</ele>
        <time>2012-10-16T14:15:39Z</time>
      </trkpt>
      <trkpt lat="47.13749" lon="5.50047">
        <ele>254</ele>
        <time>2012-10-16T14:15:42Z</time>
      </trkpt>
      <trkpt lat="47.13737" lon="5.50049">
        <ele>254</ele>
        <time>2012-10-16T14:15:45Z</time>
      </trkpt>
      <trkpt lat="47.13725" lon="5.5005">
        <ele>254</ele>
        <time>2012-10-16T14:15:48Z</time>
      </trkpt>
      <trkpt lat="47.13713" lon="5.50054">
        <ele>254</ele>
        <time>2012-10-16T14:15:51Z</time>
      </trkpt>
      <trkpt lat="47.13703" lon="5.50058">
        <ele>260</ele>
        <time>2012-10-16T14:15:54Z</time>
      </trkpt>
      <trkpt lat="47.13693" lon="5.50061">
        <ele>260</ele>
        <time>2012-10-16T14:15:57Z</time>
      </trkpt>
      <trkpt lat="47.13682" lon="5.50063">
        <ele>260</ele>
        <time>2012-10-16T14:16:00Z</time>
      </trkpt>
      <trkpt lat="47.13671" lon="5.50064">
        <ele>260</ele>
        <time>2012-10-16T14:16:03Z</time>
      </trkpt>
      <trkpt lat="47.13661" lon="5.50066">
        <ele>260</ele>
        <time>2012-10-16T14:16:06Z</time>
      </trkpt>
      <trkpt lat="47.1365" lon="5.50068">
        <ele>260</ele>
        <time>2012-10-16T14:16:09Z</time>
      </trkpt>
      <trkpt lat="47.13638" lon="5.5007">
        <ele>260</ele>
        <time>2012-10-16T14:16:12Z</time>
      </trkpt>
      <trkpt lat="47.13627" lon="5.5007">
        <ele>260</ele>
        <time>2012-10-16T14:16:15Z</time>
      </trkpt>
      <trkpt lat="47.13617" lon="5.50072">
        <ele>260</ele>
        <time>2012-10-16T14:16:18Z</time>
      </trkpt>
      <trkpt lat="47.13606" lon="5.50075">
        <ele>265</ele>
        <time>2012-10-16T14:16:21Z</time>
      </trkpt>
      <trkpt lat="47.13596" lon="5.50077">
        <ele>265</ele>
        <time>2012-10-16T14:16:24Z</time>
      </trkpt>
      <trkpt lat="47.13585" lon="5.50078">
        <ele>265</ele>
        <time>2012-10-16T14:16:27Z</time>
      </trkpt>
      <trkpt lat="47.13575" lon="5.50077">
        <ele>265</ele>
        <time>2012-10-16T14:16:30Z</time>
      </trkpt>
      <trkpt lat="47.13565" lon="5.50077">
        <ele>265</ele>
        <time>2012-10-16T14:16:33Z</time>
      </trkpt>
      <trkpt lat="47.13554" lon="5.50077">
        <ele>265</ele>
        <time>2012-10-16T14:16:36Z</time>
      </trkpt>
      <trkpt lat="47.13544" lon="5.50078">
        <ele>265</ele>
        <time>2012-10-16T14:16:39Z</time>
      </trkpt>
      <trkpt lat="47.13534" lon="5.50078">
        <ele>265</ele>
        <time>2012-10-16T14:16:42Z</time>
      </trkpt>
      <trkpt lat="47.13523" lon="5.50078">
        <ele>265</ele>
        <time>2012-10-16T14:16:45Z</time>
      </trkpt>
      <trkpt lat="47.13512" lon="5.50077">
        <ele>265</ele>
        <time>2012-10-16T14:16:48Z</time>
      </trkpt>
      <trkpt lat="47.135" lon="5.50075">
        <ele>265</ele>
        <time>2012-10-16T14:16:51Z</time>
      </trkpt>
      <trkpt lat="47.13489" lon="5.50072">
        <ele>265</ele>
        <time>2012-10-16T14:16:54Z</time>
      </trkpt>
      <trkpt lat="47.13478" lon="5.5007">
        <ele>270</ele>
        <time>2012-10-16T14:16:57Z</time>
      </trkpt>
      <trkpt lat="47.13467" lon="5.50066">
        <ele>270</ele>
        <time>2012-10-16T14:17:00Z</time>
      </trkpt>
      <trkpt lat="47.13456" lon="5.50066">
        <ele>270</ele>
        <time>2012-10-16T14:17:03Z</time>
      </trkpt>
      <trkpt lat="47.13449" lon="5.50077">
        <ele>270</ele>
        <time>2012-10-16T14:17:06Z</time>
      </trkpt>
      <trkpt lat="47.13447" lon="5.50092">
        <ele>270</ele>
        <time>2012-10-16T14:17:09Z</time>
      </trkpt>
      <trkpt lat="47.13452" lon="5.50109">
        <ele>270</ele>
        <time>2012-10-16T14:17:12Z</time>
      </trkpt>
      <trkpt lat="47.13455" lon="5.50127">
        <ele>270</ele>
        <time>2012-10-16T14:17:15Z</time>
      </trkpt>
      <trkpt lat="47.13445" lon="5.5014">
        <ele>270</ele>
        <time>2012-10-16T14:17:18Z</time>
      </trkpt>
      <trkpt lat="47.13436" lon="5.50142">
        <ele>270</ele>
        <time>2012-10-16T14:17:20Z</time>
      </trkpt>
      <trkpt lat="47.13424" lon="5.50144">
        <ele>270</ele>
        <time>2012-10-16T14:17:23Z</time>
      </trkpt>
      <trkpt lat="47.13413" lon="5.50146">
        <ele>270</ele>
        <time>2012-10-16T14:17:26Z</time>
      </trkpt>
      <trkpt lat="47.13403" lon="5.50149">
        <ele>270</ele>
        <time>2012-10-16T14:17:29Z</time>
      </trkpt>
      <trkpt lat="47.13393" lon="5.50154">
        <ele>270</ele>
        <time>2012-10-16T14:17:32Z</time>
      </trkpt>
      <trkpt lat="47.13384" lon="5.5016">
        <ele>270</ele>
        <time>2012-10-16T14:17:35Z</time>
      </trkpt>
      <trkpt lat="47.13374" lon="5.50167">
        <ele>270</ele>
        <time>2012-10-16T14:17:38Z</time>
      </trkpt>
      <trkpt lat="47.13364" lon="5.50173">
        <ele>270</ele>
        <time>2012-10-16T14:17:41Z</time>
      </trkpt>
      <trkpt lat="47.13355" lon="5.5018">
        <ele>270</ele>
        <time>2012-10-16T14:17:44Z</time>
      </trkpt>
      <trkpt lat="47.13345" lon="5.50187">
        <ele>270</ele>
        <time>2012-10-16T14:17:47Z</time>
      </trkpt>
      <trkpt lat="47.13336" lon="5.50194">
        <ele>270</ele>
        <time>2012-10-16T14:17:50Z</time>
      </trkpt>
      <trkpt lat="47.13326" lon="5.50201">
        <ele>270</ele>
        <time>2012-10-16T14:17:53Z</time>
      </trkpt>
      <trkpt lat="47.13315" lon="5.50207">
        <ele>270</ele>
        <time>2012-10-16T14:17:56Z</time>
      </trkpt>
      <trkpt lat="47.13306" lon="5.50214">
        <ele>270</ele>
        <time>2012-10-16T14:17:59Z</time>
      </trkpt>
      <trkpt lat="47.13297" lon="5.5022">
        <ele>270</ele>
        <time>2012-10-16T14:18:02Z</time>
      </trkpt>
      <trkpt lat="47.13288" lon="5.50226">
        <ele>270</ele>
        <time>2012-10-16T14:18:05Z</time>
      </trkpt>
      <trkpt lat="47.13279" lon="5.50233">
        <ele>270</ele>
        <time>2012-10-16T14:18:08Z</time>
      </trkpt>
      <trkpt lat="47.13269" lon="5.50239">
        <ele>270</ele>
        <time>2012-10-16T14:18:11Z</time>
      </trkpt>
      <trkpt lat="47.13259" lon="5.50246">
        <ele>270</ele>
        <time>2012-10-16T14:18:14Z</time>
      </trkpt>
      <trkpt lat="47.13251" lon="5.50252">
        <ele>270</ele>
        <time>2012-10-16T14:18:16Z</time>
      </trkpt>
      <trkpt lat="47.13242" lon="5.50259">
        <ele>270</ele>
        <time>2012-10-16T14:18:18Z</time>
      </trkpt>
      <trkpt lat="47.13232" lon="5.50265">
        <ele>270</ele>
        <time>2012-10-16T14:18:20Z</time>
      </trkpt>
      <trkpt lat="47.13222" lon="5.50271">
        <ele>270</ele>
        <time>2012-10-16T14:18:22Z</time>
      </trkpt>
      <trkpt lat="47.13211" lon="5.50278">
        <ele>270</ele>
        <time>2012-10-16T14:18:24Z</time>
      </trkpt>
      <trkpt lat="47.13201" lon="5.50286">
        <ele>270</ele>
        <time>2012-10-16T14:18:26Z</time>
      </trkpt>
      <trkpt lat="47.1319" lon="5.50293">
        <ele>270</ele>
        <time>2012-10-16T14:18:28Z</time>
      </trkpt>
      <trkpt lat="47.1318" lon="5.503">
        <ele>270</ele>
        <time>2012-10-16T14:18:30Z</time>
      </trkpt>
      <trkpt lat="47.1317" lon="5.50308">
        <ele>270</ele>
        <time>2012-10-16T14:18:32Z</time>
      </trkpt>
      <trkpt lat="47.13161" lon="5.50314">
        <ele>270</ele>
        <time>2012-10-16T14:18:34Z</time>
      </trkpt>
      <trkpt lat="47.13152" lon="5.50321">
        <ele>270</ele>
        <time>2012-10-16T14:18:36Z</time>
      </trkpt>
      <trkpt lat="47.13143" lon="5.50328">
        <ele>270</ele>
        <time>2012-10-16T14:18:38Z</time>
      </trkpt>
      <trkpt lat="47.13134" lon="5.50333">
        <ele>270</ele>
        <time>2012-10-16T14:18:40Z</time>
      </trkpt>
      <trkpt lat="47.13124" lon="5.50342">
        <ele>270</ele>
        <time>2012-10-16T14:18:42Z</time>
      </trkpt>
      <trkpt lat="47.13113" lon="5.5035">
        <ele>270</ele>
        <time>2012-10-16T14:18:44Z</time>
      </trkpt>
      <trkpt lat="47.13101" lon="5.50357">
        <ele>270</ele>
        <time>2012-10-16T14:18:46Z</time>
      </trkpt>
      <trkpt lat="47.13089" lon="5.50366">
        <ele>270</ele>
        <time>2012-10-16T14:18:48Z</time>
      </trkpt>
      <trkpt lat="47.13077" lon="5.50375">
        <ele>270</ele>
        <time>2012-10-16T14:18:50Z</time>
      </trkpt>
      <trkpt lat="47.13064" lon="5.50386">
        <ele>270</ele>
        <time>2012-10-16T14:18:52Z</time>
      </trkpt>
      <trkpt lat="47.13051" lon="5.50396">
        <ele>270</ele>
        <time>2012-10-16T14:18:54Z</time>
      </trkpt>
      <trkpt lat="47.13036" lon="5.50408">
        <ele>270</ele>
        <time>2012-10-16T14:18:56Z</time>
      </trkpt>
      <trkpt lat="47.13022" lon="5.50418">
        <ele>270</ele>
        <time>2012-10-16T14:18:58Z</time>
      </trkpt>
      <trkpt lat="47.13008" lon="5.50428">
        <ele>270</ele>
        <time>2012-10-16T14:19:00Z</time>
      </trkpt>
      <trkpt lat="47.12994" lon="5.50435">
        <ele>270</ele>
        <time>2012-10-16T14:19:02Z</time>
      </trkpt>
      <trkpt lat="47.12978" lon="5.50438">
        <ele>270</ele>
        <time>2012-10-16T14:19:04Z</time>
      </trkpt>
      <trkpt lat="47.12962" lon="5.50437">
        <ele>264</ele>
        <time>2012-10-16T14:19:06Z</time>
      </trkpt>
      <trkpt lat="47.12944" lon="5.50436">
        <ele>264</ele>
        <time>2012-10-16T14:19:08Z</time>
      </trkpt>
      <trkpt lat="47.12927" lon="5.50432">
        <ele>264</ele>
        <time>2012-10-16T14:19:10Z</time>
      </trkpt>
      <trkpt lat="47.12918" lon="5.5043">
        <ele>264</ele>
        <time>2012-10-16T14:19:11Z</time>
      </trkpt>
      <trkpt lat="47.12909" lon="5.50427">
        <ele>264</ele>
        <time>2012-10-16T14:19:12Z</time>
      </trkpt>
      <trkpt lat="47.129" lon="5.50422">
        <ele>258</ele>
        <time>2012-10-16T14:19:13Z</time>
      </trkpt>
      <trkpt lat="47.12884" lon="5.50416">
        <ele>258</ele>
        <time>2012-10-16T14:19:15Z</time>
      </trkpt>
      <trkpt lat="47.12875" lon="5.50411">
        <ele>258</ele>
        <time>2012-10-16T14:19:16Z</time>
      </trkpt>
      <trkpt lat="47.1286" lon="5.50401">
        <ele>258</ele>
        <time>2012-10-16T14:19:18Z</time>
      </trkpt>
      <trkpt lat="47.12845" lon="5.50389">
        <ele>258</ele>
        <time>2012-10-16T14:19:20Z</time>
      </trkpt>
      <trkpt lat="47.1283" lon="5.50376">
        <ele>258</ele>
        <time>2012-10-16T14:19:22Z</time>
      </trkpt>
      <trkpt lat="47.12823" lon="5.5037">
        <ele>258</ele>
        <time>2012-10-16T14:19:23Z</time>
      </trkpt>
      <trkpt lat="47.12808" lon="5.50358">
        <ele>258</ele>
        <time>2012-10-16T14:19:25Z</time>
      </trkpt>
      <trkpt lat="47.128" lon="5.50352">
        <ele>258</ele>
        <time>2012-10-16T14:19:26Z</time>
      </trkpt>
      <trkpt lat="47.12785" lon="5.5034">
        <ele>258</ele>
        <time>2012-10-16T14:19:28Z</time>
      </trkpt>
      <trkpt lat="47.12771" lon="5.50329">
        <ele>258</ele>
        <time>2012-10-16T14:19:30Z</time>
      </trkpt>
      <trkpt lat="47.12756" lon="5.50321">
        <ele>258</ele>
        <time>2012-10-16T14:19:32Z</time>
      </trkpt>
      <trkpt lat="47.1274" lon="5.50318">
        <ele>258</ele>
        <time>2012-10-16T14:19:34Z</time>
      </trkpt>
      <trkpt lat="47.12726" lon="5.50317">
        <ele>258</ele>
        <time>2012-10-16T14:19:36Z</time>
      </trkpt>
      <trkpt lat="47.12711" lon="5.50316">
        <ele>258</ele>
        <time>2012-10-16T14:19:38Z</time>
      </trkpt>
      <trkpt lat="47.12697" lon="5.50316">
        <ele>253</ele>
        <time>2012-10-16T14:19:40Z</time>
      </trkpt>
      <trkpt lat="47.12683" lon="5.50316">
        <ele>253</ele>
        <time>2012-10-16T14:19:42Z</time>
      </trkpt>
      <trkpt lat="47.12669" lon="5.50314">
        <ele>253</ele>
        <time>2012-10-16T14:19:44Z</time>
      </trkpt>
      <trkpt lat="47.12656" lon="5.50311">
        <ele>253</ele>
        <time>2012-10-16T14:19:46Z</time>
      </trkpt>
      <trkpt lat="47.12644" lon="5.50303">
        <ele>253</ele>
        <time>2012-10-16T14:19:48Z</time>
      </trkpt>
      <trkpt lat="47.12632" lon="5.50293">
        <ele>253</ele>
        <time>2012-10-16T14:19:50Z</time>
      </trkpt>
      <trkpt lat="47.12623" lon="5.5028">
        <ele>253</ele>
        <time>2012-10-16T14:19:52Z</time>
      </trkpt>
      <trkpt lat="47.1261" lon="5.50268">
        <ele>253</ele>
        <time>2012-10-16T14:19:54Z</time>
      </trkpt>
      <trkpt lat="47.12597" lon="5.50258">
        <ele>253</ele>
        <time>2012-10-16T14:19:56Z</time>
      </trkpt>
      <trkpt lat="47.12582" lon="5.50251">
        <ele>253</ele>
        <time>2012-10-16T14:19:58Z</time>
      </trkpt>
      <trkpt lat="47.12565" lon="5.50244">
        <ele>248</ele>
        <time>2012-10-16T14:20:00Z</time>
      </trkpt>
      <trkpt lat="47.12548" lon="5.50236">
        <ele>248</ele>
        <time>2012-10-16T14:20:02Z</time>
      </trkpt>
      <trkpt lat="47.1254" lon="5.50233">
        <ele>248</ele>
        <time>2012-10-16T14:20:03Z</time>
      </trkpt>
      <trkpt lat="47.12531" lon="5.50228">
        <ele>248</ele>
        <time>2012-10-16T14:20:04Z</time>
      </trkpt>
      <trkpt lat="47.12522" lon="5.50224">
        <ele>248</ele>
        <time>2012-10-16T14:20:05Z</time>
      </trkpt>
      <trkpt lat="47.12504" lon="5.50222">
        <ele>248</ele>
        <time>2012-10-16T14:20:07Z</time>
      </trkpt>
      <trkpt lat="47.12488" lon="5.50224">
        <ele>243</ele>
        <time>2012-10-16T14:20:09Z</time>
      </trkpt>
      <trkpt lat="47.12472" lon="5.50232">
        <ele>243</ele>
        <time>2012-10-16T14:20:11Z</time>
      </trkpt>
      <trkpt lat="47.12456" lon="5.5024">
        <ele>243</ele>
        <time>2012-10-16T14:20:13Z</time>
      </trkpt>
      <trkpt lat="47.12442" lon="5.50248">
        <ele>243</ele>
        <time>2012-10-16T14:20:15Z</time>
      </trkpt>
      <trkpt lat="47.12428" lon="5.50256">
        <ele>243</ele>
        <time>2012-10-16T14:20:17Z</time>
      </trkpt>
      <trkpt lat="47.12414" lon="5.50266">
        <ele>243</ele>
        <time>2012-10-16T14:20:19Z</time>
      </trkpt>
      <trkpt lat="47.12401" lon="5.50277">
        <ele>243</ele>
        <time>2012-10-16T14:20:21Z</time>
      </trkpt>
      <trkpt lat="47.12388" lon="5.50286">
        <ele>243</ele>
        <time>2012-10-16T14:20:23Z</time>
      </trkpt>
      <trkpt lat="47.12374" lon="5.50289">
        <ele>243</ele>
        <time>2012-10-16T14:20:25Z</time>
      </trkpt>
      <trkpt lat="47.12362" lon="5.50286">
        <ele>243</ele>
        <time>2012-10-16T14:20:27Z</time>
      </trkpt>
      <trkpt lat="47.1235" lon="5.50282">
        <ele>243</ele>
        <time>2012-10-16T14:20:29Z</time>
      </trkpt>
      <trkpt lat="47.12338" lon="5.50279">
        <ele>243</ele>
        <time>2012-10-16T14:20:31Z</time>
      </trkpt>
      <trkpt lat="47.12327" lon="5.50276">
        <ele>243</ele>
        <time>2012-10-16T14:20:33Z</time>
      </trkpt>
      <trkpt lat="47.12316" lon="5.50271">
        <ele>243</ele>
        <time>2012-10-16T14:20:35Z</time>
      </trkpt>
      <trkpt lat="47.12306" lon="5.50268">
        <ele>243</ele>
        <time>2012-10-16T14:20:37Z</time>
      </trkpt>
      <trkpt lat="47.12295" lon="5.50264">
        <ele>243</ele>
        <time>2012-10-16T14:20:39Z</time>
      </trkpt>
      <trkpt lat="47.12283" lon="5.50259">
        <ele>243</ele>
        <time>2012-10-16T14:20:41Z</time>
      </trkpt>
      <trkpt lat="47.12271" lon="5.50256">
        <ele>243</ele>
        <time>2012-10-16T14:20:43Z</time>
      </trkpt>
      <trkpt lat="47.1226" lon="5.50252">
        <ele>243</ele>
        <time>2012-10-16T14:20:45Z</time>
      </trkpt>
      <trkpt lat="47.12249" lon="5.50249">
        <ele>243</ele>
        <time>2012-10-16T14:20:47Z</time>
      </trkpt>
      <trkpt lat="47.12238" lon="5.50248">
        <ele>243</ele>
        <time>2012-10-16T14:20:49Z</time>
      </trkpt>
      <trkpt lat="47.12229" lon="5.50247">
        <ele>243</ele>
        <time>2012-10-16T14:20:51Z</time>
      </trkpt>
      <trkpt lat="47.12218" lon="5.50259">
        <ele>243</ele>
        <time>2012-10-16T14:20:54Z</time>
      </trkpt>
      <trkpt lat="47.12214" lon="5.50275">
        <ele>243</ele>
        <time>2012-10-16T14:20:56Z</time>
      </trkpt>
      <trkpt lat="47.12206" lon="5.50288">
        <ele>243</ele>
        <time>2012-10-16T14:20:58Z</time>
      </trkpt>
      <trkpt lat="47.12197" lon="5.50303">
        <ele>243</ele>
        <time>2012-10-16T14:21:00Z</time>
      </trkpt>
      <trkpt lat="47.12187" lon="5.50317">
        <ele>243</ele>
        <time>2012-10-16T14:21:02Z</time>
      </trkpt>
      <trkpt lat="47.12177" lon="5.50331">
        <ele>243</ele>
        <time>2012-10-16T14:21:04Z</time>
      </trkpt>
      <trkpt lat="47.12166" lon="5.50346">
        <ele>243</ele>
        <time>2012-10-16T14:21:06Z</time>
      </trkpt>
      <trkpt lat="47.12155" lon="5.50361">
        <ele>243</ele>
        <time>2012-10-16T14:21:08Z</time>
      </trkpt>
      <trkpt lat="47.12144" lon="5.50377">
        <ele>243</ele>
        <time>2012-10-16T14:21:10Z</time>
      </trkpt>
      <trkpt lat="47.12132" lon="5.50393">
        <ele>243</ele>
        <time>2012-10-16T14:21:12Z</time>
      </trkpt>
      <trkpt lat="47.1212" lon="5.5041">
        <ele>237</ele>
        <time>2012-10-16T14:21:14Z</time>
      </trkpt>
      <trkpt lat="47.12108" lon="5.50427">
        <ele>237</ele>
        <time>2012-10-16T14:21:16Z</time>
      </trkpt>
      <trkpt lat="47.12096" lon="5.50445">
        <ele>237</ele>
        <time>2012-10-16T14:21:18Z</time>
      </trkpt>
      <trkpt lat="47.12089" lon="5.50454">
        <ele>237</ele>
        <time>2012-10-16T14:21:19Z</time>
      </trkpt>
      <trkpt lat="47.12076" lon="5.50471">
        <ele>237</ele>
        <time>2012-10-16T14:21:21Z</time>
      </trkpt>
      <trkpt lat="47.12063" lon="5.50487">
        <ele>237</ele>
        <time>2012-10-16T14:21:23Z</time>
      </trkpt>
      <trkpt lat="47.12048" lon="5.505">
        <ele>237</ele>
        <time>2012-10-16T14:21:25Z</time>
      </trkpt>
      <trkpt lat="47.12033" lon="5.50512">
        <ele>237</ele>
        <time>2012-10-16T14:21:27Z</time>
      </trkpt>
      <trkpt lat="47.12019" lon="5.50522">
        <ele>237</ele>
        <time>2012-10-16T14:21:29Z</time>
      </trkpt>
      <trkpt lat="47.12004" lon="5.50531">
        <ele>237</ele>
        <time>2012-10-16T14:21:31Z</time>
      </trkpt>
      <trkpt lat="47.11989" lon="5.50539">
        <ele>237</ele>
        <time>2012-10-16T14:21:33Z</time>
      </trkpt>
      <trkpt lat="47.11975" lon="5.50547">
        <ele>237</ele>
        <time>2012-10-16T14:21:35Z</time>
      </trkpt>
      <trkpt lat="47.1196" lon="5.50555">
        <ele>237</ele>
        <time>2012-10-16T14:21:37Z</time>
      </trkpt>
      <trkpt lat="47.11946" lon="5.50563">
        <ele>237</ele>
        <time>2012-10-16T14:21:39Z</time>
      </trkpt>
      <trkpt lat="47.11931" lon="5.50572">
        <ele>237</ele>
        <time>2012-10-16T14:21:41Z</time>
      </trkpt>
      <trkpt lat="47.11916" lon="5.5058">
        <ele>237</ele>
        <time>2012-10-16T14:21:43Z</time>
      </trkpt>
      <trkpt lat="47.11902" lon="5.50589">
        <ele>237</ele>
        <time>2012-10-16T14:21:45Z</time>
      </trkpt>
      <trkpt lat="47.11887" lon="5.50597">
        <ele>237</ele>
        <time>2012-10-16T14:21:47Z</time>
      </trkpt>
      <trkpt lat="47.11872" lon="5.50605">
        <ele>237</ele>
        <time>2012-10-16T14:21:49Z</time>
      </trkpt>
      <trkpt lat="47.11857" lon="5.50613">
        <ele>237</ele>
        <time>2012-10-16T14:21:51Z</time>
      </trkpt>
      <trkpt lat="47.11843" lon="5.50622">
        <ele>237</ele>
        <time>2012-10-16T14:21:53Z</time>
      </trkpt>
      <trkpt lat="47.11829" lon="5.5063">
        <ele>237</ele>
        <time>2012-10-16T14:21:55Z</time>
      </trkpt>
      <trkpt lat="47.11815" lon="5.50638">
        <ele>237</ele>
        <time>2012-10-16T14:21:57Z</time>
      </trkpt>
      <trkpt lat="47.118" lon="5.50645">
        <ele>237</ele>
        <time>2012-10-16T14:21:59Z</time>
      </trkpt>
      <trkpt lat="47.11787" lon="5.50653">
        <ele>237</ele>
        <time>2012-10-16T14:22:01Z</time>
      </trkpt>
      <trkpt lat="47.11773" lon="5.5066">
        <ele>237</ele>
        <time>2012-10-16T14:22:03Z</time>
      </trkpt>
      <trkpt lat="47.11761" lon="5.50667">
        <ele>232</ele>
        <time>2012-10-16T14:22:05Z</time>
      </trkpt>
      <trkpt lat="47.11748" lon="5.50675">
        <ele>232</ele>
        <time>2012-10-16T14:22:07Z</time>
      </trkpt>
      <trkpt lat="47.11735" lon="5.50681">
        <ele>232</ele>
        <time>2012-10-16T14:22:09Z</time>
      </trkpt>
      <trkpt lat="47.11722" lon="5.50688">
        <ele>232</ele>
        <time>2012-10-16T14:22:11Z</time>
      </trkpt>
      <trkpt lat="47.1171" lon="5.50695">
        <ele>232</ele>
        <time>2012-10-16T14:22:13Z</time>
      </trkpt>
      <trkpt lat="47.11697" lon="5.50702">
        <ele>232</ele>
        <time>2012-10-16T14:22:15Z</time>
      </trkpt>
      <trkpt lat="47.11684" lon="5.5071">
        <ele>232</ele>
        <time>2012-10-16T14:22:17Z</time>
      </trkpt>
      <trkpt lat="47.11671" lon="5.50717">
        <ele>232</ele>
        <time>2012-10-16T14:22:19Z</time>
      </trkpt>
      <trkpt lat="47.11658" lon="5.50724">
        <ele>232</ele>
        <time>2012-10-16T14:22:21Z</time>
      </trkpt>
      <trkpt lat="47.11645" lon="5.50732">
        <ele>232</ele>
        <time>2012-10-16T14:22:23Z</time>
      </trkpt>
      <trkpt lat="47.11632" lon="5.5074">
        <ele>232</ele>
        <time>2012-10-16T14:22:25Z</time>
      </trkpt>
      <trkpt lat="47.1162" lon="5.50747">
        <ele>232</ele>
        <time>2012-10-16T14:22:27Z</time>
      </trkpt>
      <trkpt lat="47.11608" lon="5.50756">
        <ele>232</ele>
        <time>2012-10-16T14:22:29Z</time>
      </trkpt>
      <trkpt lat="47.11597" lon="5.50766">
        <ele>232</ele>
        <time>2012-10-16T14:22:31Z</time>
      </trkpt>
      <trkpt lat="47.11587" lon="5.50776">
        <ele>232</ele>
        <time>2012-10-16T14:22:33Z</time>
      </trkpt>
      <trkpt lat="47.11577" lon="5.50787">
        <ele>232</ele>
        <time>2012-10-16T14:22:35Z</time>
      </trkpt>
      <trkpt lat="47.11567" lon="5.50797">
        <ele>232</ele>
        <time>2012-10-16T14:22:37Z</time>
      </trkpt>
      <trkpt lat="47.11557" lon="5.50807">
        <ele>232</ele>
        <time>2012-10-16T14:22:39Z</time>
      </trkpt>
      <trkpt lat="47.11547" lon="5.50817">
        <ele>232</ele>
        <time>2012-10-16T14:22:41Z</time>
      </trkpt>
      <trkpt lat="47.11537" lon="5.50828">
        <ele>232</ele>
        <time>2012-10-16T14:22:43Z</time>
      </trkpt>
      <trkpt lat="47.11526" lon="5.5084">
        <ele>232</ele>
        <time>2012-10-16T14:22:45Z</time>
      </trkpt>
      <trkpt lat="47.11514" lon="5.50852">
        <ele>232</ele>
        <time>2012-10-16T14:22:47Z</time>
      </trkpt>
      <trkpt lat="47.11503" lon="5.50865">
        <ele>232</ele>
        <time>2012-10-16T14:22:49Z</time>
      </trkpt>
      <trkpt lat="47.11491" lon="5.50878">
        <ele>232</ele>
        <time>2012-10-16T14:22:51Z</time>
      </trkpt>
      <trkpt lat="47.1148" lon="5.5089">
        <ele>232</ele>
        <time>2012-10-16T14:22:53Z</time>
      </trkpt>
      <trkpt lat="47.11468" lon="5.50903">
        <ele>232</ele>
        <time>2012-10-16T14:22:55Z</time>
      </trkpt>
      <trkpt lat="47.11456" lon="5.50916">
        <ele>232</ele>
        <time>2012-10-16T14:22:57Z</time>
      </trkpt>
      <trkpt lat="47.11445" lon="5.50929">
        <ele>232</ele>
        <time>2012-10-16T14:22:59Z</time>
      </trkpt>
      <trkpt lat="47.11433" lon="5.50944">
        <ele>227</ele>
        <time>2012-10-16T14:23:01Z</time>
      </trkpt>
      <trkpt lat="47.11423" lon="5.50961">
        <ele>227</ele>
        <time>2012-10-16T14:23:03Z</time>
      </trkpt>
      <trkpt lat="47.11412" lon="5.50979">
        <ele>227</ele>
        <time>2012-10-16T14:23:05Z</time>
      </trkpt>
      <trkpt lat="47.11402" lon="5.50999">
        <ele>227</ele>
        <time>2012-10-16T14:23:07Z</time>
      </trkpt>
      <trkpt lat="47.11392" lon="5.51018">
        <ele>227</ele>
        <time>2012-10-16T14:23:09Z</time>
      </trkpt>
      <trkpt lat="47.11382" lon="5.51037">
        <ele>227</ele>
        <time>2012-10-16T14:23:11Z</time>
      </trkpt>
      <trkpt lat="47.11371" lon="5.51054">
        <ele>227</ele>
        <time>2012-10-16T14:23:13Z</time>
      </trkpt>
      <trkpt lat="47.11359" lon="5.5107">
        <ele>227</ele>
        <time>2012-10-16T14:23:15Z</time>
      </trkpt>
      <trkpt lat="47.11346" lon="5.51083">
        <ele>227</ele>
        <time>2012-10-16T14:23:17Z</time>
      </trkpt>
      <trkpt lat="47.11332" lon="5.51095">
        <ele>227</ele>
        <time>2012-10-16T14:23:19Z</time>
      </trkpt>
      <trkpt lat="47.11318" lon="5.51105">
        <ele>227</ele>
        <time>2012-10-16T14:23:21Z</time>
      </trkpt>
      <trkpt lat="47.11302" lon="5.51115">
        <ele>227</ele>
        <time>2012-10-16T14:23:23Z</time>
      </trkpt>
      <trkpt lat="47.11288" lon="5.51125">
        <ele>227</ele>
        <time>2012-10-16T14:23:25Z</time>
      </trkpt>
      <trkpt lat="47.11273" lon="5.51134">
        <ele>227</ele>
        <time>2012-10-16T14:23:27Z</time>
      </trkpt>
      <trkpt lat="47.11258" lon="5.51144">
        <ele>227</ele>
        <time>2012-10-16T14:23:29Z</time>
      </trkpt>
      <trkpt lat="47.11244" lon="5.51153">
        <ele>227</ele>
        <time>2012-10-16T14:23:31Z</time>
      </trkpt>
      <trkpt lat="47.11229" lon="5.51164">
        <ele>227</ele>
        <time>2012-10-16T14:23:33Z</time>
      </trkpt>
      <trkpt lat="47.11216" lon="5.51174">
        <ele>227</ele>
        <time>2012-10-16T14:23:35Z</time>
      </trkpt>
      <trkpt lat="47.11201" lon="5.51183">
        <ele>227</ele>
        <time>2012-10-16T14:23:37Z</time>
      </trkpt>
      <trkpt lat="47.11187" lon="5.51192">
        <ele>227</ele>
        <time>2012-10-16T14:23:39Z</time>
      </trkpt>
      <trkpt lat="47.11172" lon="5.512">
        <ele>227</ele>
        <time>2012-10-16T14:23:41Z</time>
      </trkpt>
      <trkpt lat="47.11158" lon="5.51208">
        <ele>227</ele>
        <time>2012-10-16T14:23:43Z</time>
      </trkpt>
      <trkpt lat="47.11144" lon="5.51215">
        <ele>227</ele>
        <time>2012-10-16T14:23:45Z</time>
      </trkpt>
      <trkpt lat="47.1113" lon="5.51222">
        <ele>227</ele>
        <time>2012-10-16T14:23:47Z</time>
      </trkpt>
      <trkpt lat="47.11117" lon="5.51228">
        <ele>227</ele>
        <time>2012-10-16T14:23:49Z</time>
      </trkpt>
      <trkpt lat="47.11104" lon="5.51234">
        <ele>227</ele>
        <time>2012-10-16T14:23:51Z</time>
      </trkpt>
      <trkpt lat="47.11091" lon="5.5124">
        <ele>227</ele>
        <time>2012-10-16T14:23:53Z</time>
      </trkpt>
      <trkpt lat="47.1108" lon="5.51245">
        <ele>227</ele>
        <time>2012-10-16T14:23:55Z</time>
      </trkpt>
      <trkpt lat="47.11068" lon="5.51251">
        <ele>227</ele>
        <time>2012-10-16T14:23:57Z</time>
      </trkpt>
      <trkpt lat="47.11056" lon="5.51258">
        <ele>227</ele>
        <time>2012-10-16T14:23:59Z</time>
      </trkpt>
      <trkpt lat="47.11044" lon="5.51266">
        <ele>227</ele>
        <time>2012-10-16T14:24:01Z</time>
      </trkpt>
      <trkpt lat="47.11034" lon="5.51277">
        <ele>227</ele>
        <time>2012-10-16T14:24:03Z</time>
      </trkpt>
      <trkpt lat="47.11027" lon="5.51292">
        <ele>227</ele>
        <time>2012-10-16T14:24:05Z</time>
      </trkpt>
      <trkpt lat="47.11021" lon="5.51305">
        <ele>227</ele>
        <time>2012-10-16T14:24:07Z</time>
      </trkpt>
      <trkpt lat="47.11015" lon="5.51319">
        <ele>227</ele>
        <time>2012-10-16T14:24:09Z</time>
      </trkpt>
      <trkpt lat="47.1101" lon="5.51331">
        <ele>227</ele>
        <time>2012-10-16T14:24:11Z</time>
      </trkpt>
      <trkpt lat="47.11004" lon="5.51343">
        <ele>227</ele>
        <time>2012-10-16T14:24:13Z</time>
      </trkpt>
      <trkpt lat="47.11" lon="5.51355">
        <ele>227</ele>
        <time>2012-10-16T14:24:15Z</time>
      </trkpt>
      <trkpt lat="47.10993" lon="5.5137">
        <ele>227</ele>
        <time>2012-10-16T14:24:18Z</time>
      </trkpt>
      <trkpt lat="47.10987" lon="5.51385">
        <ele>232</ele>
        <time>2012-10-16T14:24:21Z</time>
      </trkpt>
      <trkpt lat="47.1098" lon="5.51399">
        <ele>232</ele>
        <time>2012-10-16T14:24:24Z</time>
      </trkpt>
      <trkpt lat="47.10973" lon="5.51414">
        <ele>232</ele>
        <time>2012-10-16T14:24:27Z</time>
      </trkpt>
      <trkpt lat="47.10965" lon="5.51428">
        <ele>232</ele>
        <time>2012-10-16T14:24:30Z</time>
      </trkpt>
      <trkpt lat="47.10958" lon="5.51443">
        <ele>232</ele>
        <time>2012-10-16T14:24:33Z</time>
      </trkpt>
      <trkpt lat="47.10952" lon="5.51454">
        <ele>232</ele>
        <time>2012-10-16T14:24:35Z</time>
      </trkpt>
      <trkpt lat="47.10946" lon="5.51464">
        <ele>232</ele>
        <time>2012-10-16T14:24:37Z</time>
      </trkpt>
      <trkpt lat="47.10939" lon="5.51475">
        <ele>232</ele>
        <time>2012-10-16T14:24:39Z</time>
      </trkpt>
      <trkpt lat="47.10931" lon="5.51485">
        <ele>232</ele>
        <time>2012-10-16T14:24:41Z</time>
      </trkpt>
      <trkpt lat="47.10922" lon="5.51495">
        <ele>232</ele>
        <time>2012-10-16T14:24:43Z</time>
      </trkpt>
      <trkpt lat="47.10911" lon="5.51503">
        <ele>232</ele>
        <time>2012-10-16T14:24:45Z</time>
      </trkpt>
      <trkpt lat="47.10897" lon="5.51508">
        <ele>232</ele>
        <time>2012-10-16T14:24:47Z</time>
      </trkpt>
      <trkpt lat="47.10882" lon="5.51513">
        <ele>232</ele>
        <time>2012-10-16T14:24:49Z</time>
      </trkpt>
      <trkpt lat="47.10866" lon="5.51515">
        <ele>232</ele>
        <time>2012-10-16T14:24:51Z</time>
      </trkpt>
      <trkpt lat="47.10849" lon="5.51518">
        <ele>232</ele>
        <time>2012-10-16T14:24:53Z</time>
      </trkpt>
      <trkpt lat="47.10831" lon="5.51522">
        <ele>232</ele>
        <time>2012-10-16T14:24:55Z</time>
      </trkpt>
      <trkpt lat="47.10814" lon="5.51527">
        <ele>232</ele>
        <time>2012-10-16T14:24:57Z</time>
      </trkpt>
      <trkpt lat="47.10805" lon="5.51531">
        <ele>232</ele>
        <time>2012-10-16T14:24:58Z</time>
      </trkpt>
      <trkpt lat="47.10789" lon="5.5154">
        <ele>232</ele>
        <time>2012-10-16T14:25:00Z</time>
      </trkpt>
      <trkpt lat="47.10775" lon="5.51556">
        <ele>232</ele>
        <time>2012-10-16T14:25:02Z</time>
      </trkpt>
      <trkpt lat="47.10762" lon="5.51572">
        <ele>232</ele>
        <time>2012-10-16T14:25:04Z</time>
      </trkpt>
      <trkpt lat="47.10749" lon="5.51589">
        <ele>232</ele>
        <time>2012-10-16T14:25:06Z</time>
      </trkpt>
      <trkpt lat="47.10742" lon="5.51598">
        <ele>232</ele>
        <time>2012-10-16T14:25:07Z</time>
      </trkpt>
      <trkpt lat="47.10735" lon="5.51607">
        <ele>227</ele>
        <time>2012-10-16T14:25:08Z</time>
      </trkpt>
      <trkpt lat="47.10722" lon="5.51624">
        <ele>227</ele>
        <time>2012-10-16T14:25:10Z</time>
      </trkpt>
      <trkpt lat="47.10715" lon="5.51633">
        <ele>227</ele>
        <time>2012-10-16T14:25:11Z</time>
      </trkpt>
      <trkpt lat="47.10708" lon="5.51642">
        <ele>227</ele>
        <time>2012-10-16T14:25:12Z</time>
      </trkpt>
      <trkpt lat="47.10701" lon="5.51651">
        <ele>227</ele>
        <time>2012-10-16T14:25:13Z</time>
      </trkpt>
      <trkpt lat="47.10694" lon="5.5166">
        <ele>227</ele>
        <time>2012-10-16T14:25:14Z</time>
      </trkpt>
      <trkpt lat="47.10687" lon="5.51669">
        <ele>227</ele>
        <time>2012-10-16T14:25:15Z</time>
      </trkpt>
      <trkpt lat="47.10681" lon="5.51678">
        <ele>227</ele>
        <time>2012-10-16T14:25:16Z</time>
      </trkpt>
      <trkpt lat="47.10668" lon="5.51695">
        <ele>227</ele>
        <time>2012-10-16T14:25:18Z</time>
      </trkpt>
      <trkpt lat="47.10655" lon="5.51711">
        <ele>227</ele>
        <time>2012-10-16T14:25:20Z</time>
      </trkpt>
      <trkpt lat="47.10643" lon="5.51727">
        <ele>227</ele>
        <time>2012-10-16T14:25:22Z</time>
      </trkpt>
      <trkpt lat="47.10632" lon="5.51743">
        <ele>227</ele>
        <time>2012-10-16T14:25:24Z</time>
      </trkpt>
      <trkpt lat="47.1062" lon="5.51758">
        <ele>227</ele>
        <time>2012-10-16T14:25:26Z</time>
      </trkpt>
      <trkpt lat="47.10609" lon="5.51771">
        <ele>221</ele>
        <time>2012-10-16T14:25:28Z</time>
      </trkpt>
      <trkpt lat="47.10599" lon="5.51784">
        <ele>221</ele>
        <time>2012-10-16T14:25:30Z</time>
      </trkpt>
      <trkpt lat="47.1059" lon="5.51794">
        <ele>221</ele>
        <time>2012-10-16T14:25:32Z</time>
      </trkpt>
      <trkpt lat="47.10581" lon="5.51802">
        <ele>221</ele>
        <time>2012-10-16T14:25:34Z</time>
      </trkpt>
      <trkpt lat="47.10573" lon="5.51809">
        <ele>221</ele>
        <time>2012-10-16T14:25:37Z</time>
      </trkpt>
      <trkpt lat="47.10562" lon="5.51814">
        <ele>221</ele>
        <time>2012-10-16T14:25:50Z</time>
      </trkpt>
      <trkpt lat="47.10555" lon="5.51829">
        <ele>221</ele>
        <time>2012-10-16T14:25:54Z</time>
      </trkpt>
      <trkpt lat="47.10547" lon="5.51847">
        <ele>221</ele>
        <time>2012-10-16T14:25:57Z</time>
      </trkpt>
      <trkpt lat="47.1054" lon="5.51859">
        <ele>221</ele>
        <time>2012-10-16T14:25:59Z</time>
      </trkpt>
      <trkpt lat="47.10531" lon="5.51874">
        <ele>221</ele>
        <time>2012-10-16T14:26:01Z</time>
      </trkpt>
      <trkpt lat="47.1052" lon="5.51888">
        <ele>221</ele>
        <time>2012-10-16T14:26:03Z</time>
      </trkpt>
      <trkpt lat="47.10508" lon="5.51903">
        <ele>216</ele>
        <time>2012-10-16T14:26:05Z</time>
      </trkpt>
      <trkpt lat="47.10496" lon="5.51918">
        <ele>216</ele>
        <time>2012-10-16T14:26:07Z</time>
      </trkpt>
      <trkpt lat="47.10484" lon="5.51932">
        <ele>216</ele>
        <time>2012-10-16T14:26:09Z</time>
      </trkpt>
      <trkpt lat="47.10471" lon="5.51946">
        <ele>216</ele>
        <time>2012-10-16T14:26:11Z</time>
      </trkpt>
      <trkpt lat="47.1046" lon="5.5196">
        <ele>216</ele>
        <time>2012-10-16T14:26:13Z</time>
      </trkpt>
      <trkpt lat="47.10448" lon="5.51973">
        <ele>216</ele>
        <time>2012-10-16T14:26:15Z</time>
      </trkpt>
      <trkpt lat="47.10436" lon="5.51985">
        <ele>216</ele>
        <time>2012-10-16T14:26:17Z</time>
      </trkpt>
      <trkpt lat="47.10424" lon="5.51997">
        <ele>216</ele>
        <time>2012-10-16T14:26:19Z</time>
      </trkpt>
      <trkpt lat="47.10413" lon="5.52007">
        <ele>216</ele>
        <time>2012-10-16T14:26:21Z</time>
      </trkpt>
      <trkpt lat="47.10402" lon="5.52016">
        <ele>216</ele>
        <time>2012-10-16T14:26:23Z</time>
      </trkpt>
      <trkpt lat="47.10391" lon="5.52022">
        <ele>216</ele>
        <time>2012-10-16T14:26:25Z</time>
      </trkpt>
      <trkpt lat="47.1038" lon="5.52027">
        <ele>216</ele>
        <time>2012-10-16T14:26:27Z</time>
      </trkpt>
      <trkpt lat="47.1037" lon="5.52032">
        <ele>216</ele>
        <time>2012-10-16T14:26:29Z</time>
      </trkpt>
      <trkpt lat="47.1036" lon="5.52035">
        <ele>216</ele>
        <time>2012-10-16T14:26:31Z</time>
      </trkpt>
      <trkpt lat="47.1035" lon="5.5204">
        <ele>216</ele>
        <time>2012-10-16T14:26:33Z</time>
      </trkpt>
      <trkpt lat="47.1034" lon="5.52044">
        <ele>222</ele>
        <time>2012-10-16T14:26:35Z</time>
      </trkpt>
      <trkpt lat="47.1033" lon="5.52049">
        <ele>222</ele>
        <time>2012-10-16T14:26:37Z</time>
      </trkpt>
      <trkpt lat="47.1032" lon="5.52054">
        <ele>222</ele>
        <time>2012-10-16T14:26:39Z</time>
      </trkpt>
      <trkpt lat="47.1031" lon="5.5206">
        <ele>222</ele>
        <time>2012-10-16T14:26:41Z</time>
      </trkpt>
      <trkpt lat="47.10299" lon="5.52064">
        <ele>222</ele>
        <time>2012-10-16T14:26:43Z</time>
      </trkpt>
      <trkpt lat="47.10288" lon="5.5207">
        <ele>222</ele>
        <time>2012-10-16T14:26:45Z</time>
      </trkpt>
      <trkpt lat="47.10276" lon="5.52075">
        <ele>222</ele>
        <time>2012-10-16T14:26:47Z</time>
      </trkpt>
      <trkpt lat="47.10264" lon="5.5208">
        <ele>222</ele>
        <time>2012-10-16T14:26:49Z</time>
      </trkpt>
      <trkpt lat="47.10251" lon="5.52087">
        <ele>222</ele>
        <time>2012-10-16T14:26:51Z</time>
      </trkpt>
      <trkpt lat="47.10237" lon="5.52093">
        <ele>222</ele>
        <time>2012-10-16T14:26:53Z</time>
      </trkpt>
      <trkpt lat="47.10222" lon="5.521">
        <ele>222</ele>
        <time>2012-10-16T14:26:55Z</time>
      </trkpt>
      <trkpt lat="47.10208" lon="5.52106">
        <ele>222</ele>
        <time>2012-10-16T14:26:57Z</time>
      </trkpt>
      <trkpt lat="47.10194" lon="5.52112">
        <ele>222</ele>
        <time>2012-10-16T14:26:59Z</time>
      </trkpt>
      <trkpt lat="47.10179" lon="5.52118">
        <ele>222</ele>
        <time>2012-10-16T14:27:01Z</time>
      </trkpt>
      <trkpt lat="47.10166" lon="5.52126">
        <ele>222</ele>
        <time>2012-10-16T14:27:03Z</time>
      </trkpt>
      <trkpt lat="47.10154" lon="5.52137">
        <ele>216</ele>
        <time>2012-10-16T14:27:05Z</time>
      </trkpt>
      <trkpt lat="47.10143" lon="5.52148">
        <ele>216</ele>
        <time>2012-10-16T14:27:07Z</time>
      </trkpt>
      <trkpt lat="47.10129" lon="5.52157">
        <ele>216</ele>
        <time>2012-10-16T14:27:09Z</time>
      </trkpt>
      <trkpt lat="47.10114" lon="5.5216">
        <ele>216</ele>
        <time>2012-10-16T14:27:11Z</time>
      </trkpt>
      <trkpt lat="47.10098" lon="5.5216">
        <ele>216</ele>
        <time>2012-10-16T14:27:13Z</time>
      </trkpt>
      <trkpt lat="47.10081" lon="5.52157">
        <ele>216</ele>
        <time>2012-10-16T14:27:15Z</time>
      </trkpt>
      <trkpt lat="47.10065" lon="5.52159">
        <ele>216</ele>
        <time>2012-10-16T14:27:17Z</time>
      </trkpt>
      <trkpt lat="47.10049" lon="5.52168">
        <ele>216</ele>
        <time>2012-10-16T14:27:19Z</time>
      </trkpt>
      <trkpt lat="47.10035" lon="5.52181">
        <ele>216</ele>
        <time>2012-10-16T14:27:21Z</time>
      </trkpt>
      <trkpt lat="47.10027" lon="5.52187">
        <ele>216</ele>
        <time>2012-10-16T14:27:22Z</time>
      </trkpt>
      <trkpt lat="47.10019" lon="5.52194">
        <ele>216</ele>
        <time>2012-10-16T14:27:23Z</time>
      </trkpt>
      <trkpt lat="47.10003" lon="5.52204">
        <ele>216</ele>
        <time>2012-10-16T14:27:25Z</time>
      </trkpt>
      <trkpt lat="47.09989" lon="5.52216">
        <ele>216</ele>
        <time>2012-10-16T14:27:27Z</time>
      </trkpt>
      <trkpt lat="47.09975" lon="5.52228">
        <ele>216</ele>
        <time>2012-10-16T14:27:29Z</time>
      </trkpt>
      <trkpt lat="47.09962" lon="5.5224">
        <ele>216</ele>
        <time>2012-10-16T14:27:31Z</time>
      </trkpt>
      <trkpt lat="47.09952" lon="5.52253">
        <ele>216</ele>
        <time>2012-10-16T14:27:33Z</time>
      </trkpt>
      <trkpt lat="47.09944" lon="5.52266">
        <ele>216</ele>
        <time>2012-10-16T14:27:35Z</time>
      </trkpt>
      <trkpt lat="47.09937" lon="5.52281">
        <ele>216</ele>
        <time>2012-10-16T14:27:37Z</time>
      </trkpt>
      <trkpt lat="47.09931" lon="5.52294">
        <ele>216</ele>
        <time>2012-10-16T14:27:39Z</time>
      </trkpt>
      <trkpt lat="47.09926" lon="5.52309">
        <ele>216</ele>
        <time>2012-10-16T14:27:41Z</time>
      </trkpt>
      <trkpt lat="47.09921" lon="5.52324">
        <ele>216</ele>
        <time>2012-10-16T14:27:43Z</time>
      </trkpt>
      <trkpt lat="47.09916" lon="5.52337">
        <ele>216</ele>
        <time>2012-10-16T14:27:45Z</time>
      </trkpt>
      <trkpt lat="47.09912" lon="5.52351">
        <ele>216</ele>
        <time>2012-10-16T14:27:47Z</time>
      </trkpt>
      <trkpt lat="47.09906" lon="5.52362">
        <ele>216</ele>
        <time>2012-10-16T14:27:49Z</time>
      </trkpt>
      <trkpt lat="47.09899" lon="5.52371">
        <ele>216</ele>
        <time>2012-10-16T14:27:51Z</time>
      </trkpt>
      <trkpt lat="47.0989" lon="5.52377">
        <ele>216</ele>
        <time>2012-10-16T14:27:53Z</time>
      </trkpt>
      <trkpt lat="47.0988" lon="5.52382">
        <ele>216</ele>
        <time>2012-10-16T14:27:55Z</time>
      </trkpt>
      <trkpt lat="47.0987" lon="5.52386">
        <ele>216</ele>
        <time>2012-10-16T14:27:57Z</time>
      </trkpt>
      <trkpt lat="47.0986" lon="5.5239">
        <ele>216</ele>
        <time>2012-10-16T14:27:59Z</time>
      </trkpt>
      <trkpt lat="47.0985" lon="5.52396">
        <ele>216</ele>
        <time>2012-10-16T14:28:01Z</time>
      </trkpt>
      <trkpt lat="47.0984" lon="5.524">
        <ele>216</ele>
        <time>2012-10-16T14:28:03Z</time>
      </trkpt>
      <trkpt lat="47.0983" lon="5.52405">
        <ele>216</ele>
        <time>2012-10-16T14:28:05Z</time>
      </trkpt>
      <trkpt lat="47.0982" lon="5.52408">
        <ele>216</ele>
        <time>2012-10-16T14:28:07Z</time>
      </trkpt>
      <trkpt lat="47.09811" lon="5.52412">
        <ele>216</ele>
        <time>2012-10-16T14:28:09Z</time>
      </trkpt>
      <trkpt lat="47.09802" lon="5.52414">
        <ele>216</ele>
        <time>2012-10-16T14:28:11Z</time>
      </trkpt>
      <trkpt lat="47.09792" lon="5.52415">
        <ele>216</ele>
        <time>2012-10-16T14:28:13Z</time>
      </trkpt>
      <trkpt lat="47.09783" lon="5.52415">
        <ele>216</ele>
        <time>2012-10-16T14:28:15Z</time>
      </trkpt>
      <trkpt lat="47.09773" lon="5.52414">
        <ele>216</ele>
        <time>2012-10-16T14:28:17Z</time>
      </trkpt>
      <trkpt lat="47.09763" lon="5.52414">
        <ele>216</ele>
        <time>2012-10-16T14:28:19Z</time>
      </trkpt>
      <trkpt lat="47.09752" lon="5.52414">
        <ele>216</ele>
        <time>2012-10-16T14:28:21Z</time>
      </trkpt>
      <trkpt lat="47.0974" lon="5.52413">
        <ele>216</ele>
        <time>2012-10-16T14:28:23Z</time>
      </trkpt>
      <trkpt lat="47.09728" lon="5.5241">
        <ele>216</ele>
        <time>2012-10-16T14:28:25Z</time>
      </trkpt>
      <trkpt lat="47.09715" lon="5.52406">
        <ele>216</ele>
        <time>2012-10-16T14:28:27Z</time>
      </trkpt>
      <trkpt lat="47.09702" lon="5.52398">
        <ele>216</ele>
        <time>2012-10-16T14:28:29Z</time>
      </trkpt>
      <trkpt lat="47.0969" lon="5.52386">
        <ele>216</ele>
        <time>2012-10-16T14:28:31Z</time>
      </trkpt>
      <trkpt lat="47.0968" lon="5.52373">
        <ele>216</ele>
        <time>2012-10-16T14:28:33Z</time>
      </trkpt>
      <trkpt lat="47.09673" lon="5.52361">
        <ele>216</ele>
        <time>2012-10-16T14:28:35Z</time>
      </trkpt>
      <trkpt lat="47.09665" lon="5.52347">
        <ele>216</ele>
        <time>2012-10-16T14:28:37Z</time>
      </trkpt>
      <trkpt lat="47.09659" lon="5.52335">
        <ele>216</ele>
        <time>2012-10-16T14:28:39Z</time>
      </trkpt>
      <trkpt lat="47.09654" lon="5.5232">
        <ele>216</ele>
        <time>2012-10-16T14:28:41Z</time>
      </trkpt>
      <trkpt lat="47.0965" lon="5.52307">
        <ele>216</ele>
        <time>2012-10-16T14:28:43Z</time>
      </trkpt>
      <trkpt lat="47.09646" lon="5.52293">
        <ele>216</ele>
        <time>2012-10-16T14:28:45Z</time>
      </trkpt>
      <trkpt lat="47.09641" lon="5.5228">
        <ele>216</ele>
        <time>2012-10-16T14:28:47Z</time>
      </trkpt>
      <trkpt lat="47.09636" lon="5.52268">
        <ele>216</ele>
        <time>2012-10-16T14:28:49Z</time>
      </trkpt>
      <trkpt lat="47.09632" lon="5.52255">
        <ele>216</ele>
        <time>2012-10-16T14:28:51Z</time>
      </trkpt>
      <trkpt lat="47.09628" lon="5.52239">
        <ele>216</ele>
        <time>2012-10-16T14:28:53Z</time>
      </trkpt>
      <trkpt lat="47.09625" lon="5.52223">
        <ele>216</ele>
        <time>2012-10-16T14:28:55Z</time>
      </trkpt>
      <trkpt lat="47.09621" lon="5.5221">
        <ele>216</ele>
        <time>2012-10-16T14:28:57Z</time>
      </trkpt>
      <trkpt lat="47.09615" lon="5.52196">
        <ele>216</ele>
        <time>2012-10-16T14:28:59Z</time>
      </trkpt>
      <trkpt lat="47.09609" lon="5.52184">
        <ele>216</ele>
        <time>2012-10-16T14:29:01Z</time>
      </trkpt>
      <trkpt lat="47.09603" lon="5.52172">
        <ele>216</ele>
        <time>2012-10-16T14:29:03Z</time>
      </trkpt>
      <trkpt lat="47.09597" lon="5.52159">
        <ele>216</ele>
        <time>2012-10-16T14:29:05Z</time>
      </trkpt>
      <trkpt lat="47.09591" lon="5.52147">
        <ele>216</ele>
        <time>2012-10-16T14:29:07Z</time>
      </trkpt>
      <trkpt lat="47.09584" lon="5.52134">
        <ele>216</ele>
        <time>2012-10-16T14:29:09Z</time>
      </trkpt>
      <trkpt lat="47.09579" lon="5.52121">
        <ele>216</ele>
        <time>2012-10-16T14:29:11Z</time>
      </trkpt>
      <trkpt lat="47.09573" lon="5.52107">
        <ele>216</ele>
        <time>2012-10-16T14:29:13Z</time>
      </trkpt>
      <trkpt lat="47.09568" lon="5.52092">
        <ele>216</ele>
        <time>2012-10-16T14:29:15Z</time>
      </trkpt>
      <trkpt lat="47.09563" lon="5.52077">
        <ele>216</ele>
        <time>2012-10-16T14:29:17Z</time>
      </trkpt>
      <trkpt lat="47.09558" lon="5.52062">
        <ele>216</ele>
        <time>2012-10-16T14:29:19Z</time>
      </trkpt>
      <trkpt lat="47.09553" lon="5.52048">
        <ele>216</ele>
        <time>2012-10-16T14:29:21Z</time>
      </trkpt>
      <trkpt lat="47.09548" lon="5.52034">
        <ele>216</ele>
        <time>2012-10-16T14:29:23Z</time>
      </trkpt>
      <trkpt lat="47.09542" lon="5.5202">
        <ele>216</ele>
        <time>2012-10-16T14:29:25Z</time>
      </trkpt>
      <trkpt lat="47.09537" lon="5.52005">
        <ele>216</ele>
        <time>2012-10-16T14:29:27Z</time>
      </trkpt>
      <trkpt lat="47.09532" lon="5.5199">
        <ele>216</ele>
        <time>2012-10-16T14:29:29Z</time>
      </trkpt>
      <trkpt lat="47.09527" lon="5.51976">
        <ele>216</ele>
        <time>2012-10-16T14:29:31Z</time>
      </trkpt>
      <trkpt lat="47.09526" lon="5.5196">
        <ele>216</ele>
        <time>2012-10-16T14:29:33Z</time>
      </trkpt>
      <trkpt lat="47.09523" lon="5.51943">
        <ele>216</ele>
        <time>2012-10-16T14:29:35Z</time>
      </trkpt>
      <trkpt lat="47.0952" lon="5.51925">
        <ele>216</ele>
        <time>2012-10-16T14:29:37Z</time>
      </trkpt>
      <trkpt lat="47.09517" lon="5.51907">
        <ele>216</ele>
        <time>2012-10-16T14:29:39Z</time>
      </trkpt>
      <trkpt lat="47.09513" lon="5.51888">
        <ele>216</ele>
        <time>2012-10-16T14:29:41Z</time>
      </trkpt>
      <trkpt lat="47.09508" lon="5.51868">
        <ele>216</ele>
        <time>2012-10-16T14:29:43Z</time>
      </trkpt>
      <trkpt lat="47.09502" lon="5.51847">
        <ele>216</ele>
        <time>2012-10-16T14:29:45Z</time>
      </trkpt>
      <trkpt lat="47.09494" lon="5.51826">
        <ele>216</ele>
        <time>2012-10-16T14:29:47Z</time>
      </trkpt>
      <trkpt lat="47.09486" lon="5.51805">
        <ele>216</ele>
        <time>2012-10-16T14:29:49Z</time>
      </trkpt>
      <trkpt lat="47.09479" lon="5.51782">
        <ele>216</ele>
        <time>2012-10-16T14:29:51Z</time>
      </trkpt>
      <trkpt lat="47.09475" lon="5.5177">
        <ele>216</ele>
        <time>2012-10-16T14:29:52Z</time>
      </trkpt>
      <trkpt lat="47.09467" lon="5.51748">
        <ele>211</ele>
        <time>2012-10-16T14:29:54Z</time>
      </trkpt>
      <trkpt lat="47.09463" lon="5.51724">
        <ele>211</ele>
        <time>2012-10-16T14:29:56Z</time>
      </trkpt>
      <trkpt lat="47.09465" lon="5.51698">
        <ele>211</ele>
        <time>2012-10-16T14:29:58Z</time>
      </trkpt>
      <trkpt lat="47.09468" lon="5.51675">
        <ele>211</ele>
        <time>2012-10-16T14:30:00Z</time>
      </trkpt>
      <trkpt lat="47.0947" lon="5.51653">
        <ele>205</ele>
        <time>2012-10-16T14:30:02Z</time>
      </trkpt>
      <trkpt lat="47.09473" lon="5.51635">
        <ele>205</ele>
        <time>2012-10-16T14:30:04Z</time>
      </trkpt>
      <trkpt lat="47.09474" lon="5.51617">
        <ele>205</ele>
        <time>2012-10-16T14:30:06Z</time>
      </trkpt>
      <trkpt lat="47.09475" lon="5.51601">
        <ele>205</ele>
        <time>2012-10-16T14:30:08Z</time>
      </trkpt>
      <trkpt lat="47.09474" lon="5.51585">
        <ele>205</ele>
        <time>2012-10-16T14:30:10Z</time>
      </trkpt>
      <trkpt lat="47.09473" lon="5.51571">
        <ele>205</ele>
        <time>2012-10-16T14:30:12Z</time>
      </trkpt>
      <trkpt lat="47.09472" lon="5.51558">
        <ele>205</ele>
        <time>2012-10-16T14:30:14Z</time>
      </trkpt>
      <trkpt lat="47.0947" lon="5.51545">
        <ele>205</ele>
        <time>2012-10-16T14:30:16Z</time>
      </trkpt>
      <trkpt lat="47.09467" lon="5.51532">
        <ele>205</ele>
        <time>2012-10-16T14:30:18Z</time>
      </trkpt>
      <trkpt lat="47.09465" lon="5.51519">
        <ele>205</ele>
        <time>2012-10-16T14:30:20Z</time>
      </trkpt>
      <trkpt lat="47.09462" lon="5.51505">
        <ele>205</ele>
        <time>2012-10-16T14:30:22Z</time>
      </trkpt>
      <trkpt lat="47.09457" lon="5.51491">
        <ele>210</ele>
        <time>2012-10-16T14:30:24Z</time>
      </trkpt>
      <trkpt lat="47.09455" lon="5.51478">
        <ele>210</ele>
        <time>2012-10-16T14:30:26Z</time>
      </trkpt>
      <trkpt lat="47.09453" lon="5.51463">
        <ele>210</ele>
        <time>2012-10-16T14:30:28Z</time>
      </trkpt>
      <trkpt lat="47.0945" lon="5.5145">
        <ele>210</ele>
        <time>2012-10-16T14:30:30Z</time>
      </trkpt>
      <trkpt lat="47.09448" lon="5.51437">
        <ele>210</ele>
        <time>2012-10-16T14:30:32Z</time>
      </trkpt>
      <trkpt lat="47.09445" lon="5.51418">
        <ele>210</ele>
        <time>2012-10-16T14:30:35Z</time>
      </trkpt>
      <trkpt lat="47.09442" lon="5.51406">
        <ele>216</ele>
        <time>2012-10-16T14:30:37Z</time>
      </trkpt>
      <trkpt lat="47.0944" lon="5.51393">
        <ele>216</ele>
        <time>2012-10-16T14:30:39Z</time>
      </trkpt>
      <trkpt lat="47.09435" lon="5.51374">
        <ele>216</ele>
        <time>2012-10-16T14:30:42Z</time>
      </trkpt>
      <trkpt lat="47.09432" lon="5.51361">
        <ele>216</ele>
        <time>2012-10-16T14:30:44Z</time>
      </trkpt>
      <trkpt lat="47.0943" lon="5.51346">
        <ele>216</ele>
        <time>2012-10-16T14:30:46Z</time>
      </trkpt>
      <trkpt lat="47.09427" lon="5.5133">
        <ele>216</ele>
        <time>2012-10-16T14:30:48Z</time>
      </trkpt>
      <trkpt lat="47.09424" lon="5.51316">
        <ele>216</ele>
        <time>2012-10-16T14:30:50Z</time>
      </trkpt>
      <trkpt lat="47.09421" lon="5.51302">
        <ele>216</ele>
        <time>2012-10-16T14:30:52Z</time>
      </trkpt>
      <trkpt lat="47.0942" lon="5.51284">
        <ele>216</ele>
        <time>2012-10-16T14:30:54Z</time>
      </trkpt>
      <trkpt lat="47.09419" lon="5.51268">
        <ele>216</ele>
        <time>2012-10-16T14:30:56Z</time>
      </trkpt>
      <trkpt lat="47.09418" lon="5.51253">
        <ele>216</ele>
        <time>2012-10-16T14:30:58Z</time>
      </trkpt>
      <trkpt lat="47.09418" lon="5.51237">
        <ele>216</ele>
        <time>2012-10-16T14:31:00Z</time>
      </trkpt>
      <trkpt lat="47.09419" lon="5.51222">
        <ele>221</ele>
        <time>2012-10-16T14:31:02Z</time>
      </trkpt>
      <trkpt lat="47.09421" lon="5.51206">
        <ele>221</ele>
        <time>2012-10-16T14:31:04Z</time>
      </trkpt>
      <trkpt lat="47.09422" lon="5.51189">
        <ele>221</ele>
        <time>2012-10-16T14:31:06Z</time>
      </trkpt>
      <trkpt lat="47.09425" lon="5.51172">
        <ele>221</ele>
        <time>2012-10-16T14:31:08Z</time>
      </trkpt>
      <trkpt lat="47.09426" lon="5.51157">
        <ele>221</ele>
        <time>2012-10-16T14:31:10Z</time>
      </trkpt>
      <trkpt lat="47.09427" lon="5.51141">
        <ele>221</ele>
        <time>2012-10-16T14:31:12Z</time>
      </trkpt>
      <trkpt lat="47.09428" lon="5.51125">
        <ele>221</ele>
        <time>2012-10-16T14:31:14Z</time>
      </trkpt>
      <trkpt lat="47.09429" lon="5.5111">
        <ele>221</ele>
        <time>2012-10-16T14:31:16Z</time>
      </trkpt>
      <trkpt lat="47.09429" lon="5.51094">
        <ele>221</ele>
        <time>2012-10-16T14:31:18Z</time>
      </trkpt>
      <trkpt lat="47.09432" lon="5.51079">
        <ele>221</ele>
        <time>2012-10-16T14:31:20Z</time>
      </trkpt>
      <trkpt lat="47.09434" lon="5.51064">
        <ele>221</ele>
        <time>2012-10-16T14:31:22Z</time>
      </trkpt>
      <trkpt lat="47.09435" lon="5.51051">
        <ele>221</ele>
        <time>2012-10-16T14:31:24Z</time>
      </trkpt>
      <trkpt lat="47.09435" lon="5.51037">
        <ele>221</ele>
        <time>2012-10-16T14:31:26Z</time>
      </trkpt>
      <trkpt lat="47.09435" lon="5.51021">
        <ele>221</ele>
        <time>2012-10-16T14:31:28Z</time>
      </trkpt>
      <trkpt lat="47.09436" lon="5.51005">
        <ele>221</ele>
        <time>2012-10-16T14:31:30Z</time>
      </trkpt>
      <trkpt lat="47.09437" lon="5.50988">
        <ele>221</ele>
        <time>2012-10-16T14:31:32Z</time>
      </trkpt>
      <trkpt lat="47.09438" lon="5.50971">
        <ele>221</ele>
        <time>2012-10-16T14:31:34Z</time>
      </trkpt>
      <trkpt lat="47.0944" lon="5.50954">
        <ele>221</ele>
        <time>2012-10-16T14:31:36Z</time>
      </trkpt>
      <trkpt lat="47.09441" lon="5.50938">
        <ele>221</ele>
        <time>2012-10-16T14:31:38Z</time>
      </trkpt>
      <trkpt lat="47.09442" lon="5.50922">
        <ele>221</ele>
        <time>2012-10-16T14:31:40Z</time>
      </trkpt>
      <trkpt lat="47.09442" lon="5.50909">
        <ele>221</ele>
        <time>2012-10-16T14:31:42Z</time>
      </trkpt>
      <trkpt lat="47.09442" lon="5.50895">
        <ele>221</ele>
        <time>2012-10-16T14:31:44Z</time>
      </trkpt>
      <trkpt lat="47.09443" lon="5.50878">
        <ele>221</ele>
        <time>2012-10-16T14:31:46Z</time>
      </trkpt>
      <trkpt lat="47.09446" lon="5.50856">
        <ele>221</ele>
        <time>2012-10-16T14:31:48Z</time>
      </trkpt>
      <trkpt lat="47.09448" lon="5.50835">
        <ele>221</ele>
        <time>2012-10-16T14:31:50Z</time>
      </trkpt>
      <trkpt lat="47.09451" lon="5.50815">
        <ele>221</ele>
        <time>2012-10-16T14:31:52Z</time>
      </trkpt>
      <trkpt lat="47.09454" lon="5.50794">
        <ele>221</ele>
        <time>2012-10-16T14:31:54Z</time>
      </trkpt>
      <trkpt lat="47.09456" lon="5.50773">
        <ele>221</ele>
        <time>2012-10-16T14:31:56Z</time>
      </trkpt>
      <trkpt lat="47.09456" lon="5.50752">
        <ele>221</ele>
        <time>2012-10-16T14:31:58Z</time>
      </trkpt>
      <trkpt lat="47.09459" lon="5.50731">
        <ele>216</ele>
        <time>2012-10-16T14:32:00Z</time>
      </trkpt>
      <trkpt lat="47.09463" lon="5.5071">
        <ele>216</ele>
        <time>2012-10-16T14:32:02Z</time>
      </trkpt>
      <trkpt lat="47.09468" lon="5.50691">
        <ele>216</ele>
        <time>2012-10-16T14:32:04Z</time>
      </trkpt>
      <trkpt lat="47.09475" lon="5.50673">
        <ele>216</ele>
        <time>2012-10-16T14:32:06Z</time>
      </trkpt>
      <trkpt lat="47.09481" lon="5.50656">
        <ele>216</ele>
        <time>2012-10-16T14:32:08Z</time>
      </trkpt>
      <trkpt lat="47.09486" lon="5.50639">
        <ele>216</ele>
        <time>2012-10-16T14:32:10Z</time>
      </trkpt>
      <trkpt lat="47.0949" lon="5.50621">
        <ele>216</ele>
        <time>2012-10-16T14:32:12Z</time>
      </trkpt>
      <trkpt lat="47.09494" lon="5.50604">
        <ele>216</ele>
        <time>2012-10-16T14:32:14Z</time>
      </trkpt>
      <trkpt lat="47.09498" lon="5.50587">
        <ele>216</ele>
        <time>2012-10-16T14:32:16Z</time>
      </trkpt>
      <trkpt lat="47.09501" lon="5.50572">
        <ele>216</ele>
        <time>2012-10-16T14:32:18Z</time>
      </trkpt>
      <trkpt lat="47.09505" lon="5.50555">
        <ele>216</ele>
        <time>2012-10-16T14:32:20Z</time>
      </trkpt>
      <trkpt lat="47.09508" lon="5.50538">
        <ele>216</ele>
        <time>2012-10-16T14:32:22Z</time>
      </trkpt>
      <trkpt lat="47.09509" lon="5.50522">
        <ele>216</ele>
        <time>2012-10-16T14:32:24Z</time>
      </trkpt>
      <trkpt lat="47.09507" lon="5.50507">
        <ele>216</ele>
        <time>2012-10-16T14:32:26Z</time>
      </trkpt>
      <trkpt lat="47.09504" lon="5.5049">
        <ele>216</ele>
        <time>2012-10-16T14:32:28Z</time>
      </trkpt>
      <trkpt lat="47.09501" lon="5.5047">
        <ele>216</ele>
        <time>2012-10-16T14:32:30Z</time>
      </trkpt>
      <trkpt lat="47.095" lon="5.50446">
        <ele>216</ele>
        <time>2012-10-16T14:32:32Z</time>
      </trkpt>
      <trkpt lat="47.09502" lon="5.50424">
        <ele>216</ele>
        <time>2012-10-16T14:32:34Z</time>
      </trkpt>
      <trkpt lat="47.09503" lon="5.50404">
        <ele>216</ele>
        <time>2012-10-16T14:32:36Z</time>
      </trkpt>
      <trkpt lat="47.09503" lon="5.50386">
        <ele>216</ele>
        <time>2012-10-16T14:32:38Z</time>
      </trkpt>
      <trkpt lat="47.09505" lon="5.50369">
        <ele>216</ele>
        <time>2012-10-16T14:32:40Z</time>
      </trkpt>
      <trkpt lat="47.09505" lon="5.50352">
        <ele>216</ele>
        <time>2012-10-16T14:32:42Z</time>
      </trkpt>
      <trkpt lat="47.09505" lon="5.50336">
        <ele>216</ele>
        <time>2012-10-16T14:32:44Z</time>
      </trkpt>
      <trkpt lat="47.09507" lon="5.5032">
        <ele>216</ele>
        <time>2012-10-16T14:32:46Z</time>
      </trkpt>
      <trkpt lat="47.0951" lon="5.50305">
        <ele>216</ele>
        <time>2012-10-16T14:32:48Z</time>
      </trkpt>
      <trkpt lat="47.09511" lon="5.50291">
        <ele>216</ele>
        <time>2012-10-16T14:32:50Z</time>
      </trkpt>
      <trkpt lat="47.09515" lon="5.50274">
        <ele>216</ele>
        <time>2012-10-16T14:32:53Z</time>
      </trkpt>
      <trkpt lat="47.09513" lon="5.50258">
        <ele>216</ele>
        <time>2012-10-16T14:32:56Z</time>
      </trkpt>
      <trkpt lat="47.09509" lon="5.50243">
        <ele>216</ele>
        <time>2012-10-16T14:32:58Z</time>
      </trkpt>
      <trkpt lat="47.09506" lon="5.50227">
        <ele>216</ele>
        <time>2012-10-16T14:33:00Z</time>
      </trkpt>
      <trkpt lat="47.09503" lon="5.50209">
        <ele>216</ele>
        <time>2012-10-16T14:33:02Z</time>
      </trkpt>
      <trkpt lat="47.09499" lon="5.50192">
        <ele>216</ele>
        <time>2012-10-16T14:33:04Z</time>
      </trkpt>
      <trkpt lat="47.09497" lon="5.50174">
        <ele>210</ele>
        <time>2012-10-16T14:33:06Z</time>
      </trkpt>
      <trkpt lat="47.09494" lon="5.50157">
        <ele>210</ele>
        <time>2012-10-16T14:33:08Z</time>
      </trkpt>
      <trkpt lat="47.09491" lon="5.50144">
        <ele>210</ele>
        <time>2012-10-16T14:33:10Z</time>
      </trkpt>
      <trkpt lat="47.0948" lon="5.5013">
        <ele>210</ele>
        <time>2012-10-16T14:33:13Z</time>
      </trkpt>
      <trkpt lat="47.0947" lon="5.50121">
        <ele>210</ele>
        <time>2012-10-16T14:33:15Z</time>
      </trkpt>
      <trkpt lat="47.09456" lon="5.50109">
        <ele>210</ele>
        <time>2012-10-16T14:33:17Z</time>
      </trkpt>
      <trkpt lat="47.09442" lon="5.50098">
        <ele>210</ele>
        <time>2012-10-16T14:33:19Z</time>
      </trkpt>
      <trkpt lat="47.09427" lon="5.50087">
        <ele>210</ele>
        <time>2012-10-16T14:33:21Z</time>
      </trkpt>
      <trkpt lat="47.09414" lon="5.50074">
        <ele>204</ele>
        <time>2012-10-16T14:33:23Z</time>
      </trkpt>
      <trkpt lat="47.09402" lon="5.50059">
        <ele>204</ele>
        <time>2012-10-16T14:33:25Z</time>
      </trkpt>
      <trkpt lat="47.09391" lon="5.50044">
        <ele>204</ele>
        <time>2012-10-16T14:33:27Z</time>
      </trkpt>
      <trkpt lat="47.09382" lon="5.5003">
        <ele>204</ele>
        <time>2012-10-16T14:33:29Z</time>
      </trkpt>
      <trkpt lat="47.09376" lon="5.50014">
        <ele>204</ele>
        <time>2012-10-16T14:33:31Z</time>
      </trkpt>
      <trkpt lat="47.09375" lon="5.49999">
        <ele>204</ele>
        <time>2012-10-16T14:33:33Z</time>
      </trkpt>
      <trkpt lat="47.09374" lon="5.49985">
        <ele>204</ele>
        <time>2012-10-16T14:33:35Z</time>
      </trkpt>
      <trkpt lat="47.09374" lon="5.4997">
        <ele>204</ele>
        <time>2012-10-16T14:33:38Z</time>
      </trkpt>
      <trkpt lat="47.09375" lon="5.49955">
        <ele>204</ele>
        <time>2012-10-16T14:35:03Z</time>
      </trkpt>
      <trkpt lat="47.09374" lon="5.49941">
        <ele>204</ele>
        <time>2012-10-16T14:35:07Z</time>
      </trkpt>
      <trkpt lat="47.09369" lon="5.49926">
        <ele>204</ele>
        <time>2012-10-16T14:35:11Z</time>
      </trkpt>
      <trkpt lat="47.09365" lon="5.49912">
        <ele>204</ele>
        <time>2012-10-16T14:35:15Z</time>
      </trkpt>
      <trkpt lat="47.09362" lon="5.49898">
        <ele>211</ele>
        <time>2012-10-16T14:35:35Z</time>
      </trkpt>
      <trkpt lat="47.09353" lon="5.49906">
        <ele>211</ele>
        <time>2012-10-16T14:35:39Z</time>
      </trkpt>
      <trkpt lat="47.09344" lon="5.49917">
        <ele>211</ele>
        <time>2012-10-16T14:35:42Z</time>
      </trkpt>
      <trkpt lat="47.09335" lon="5.49926">
        <ele>211</ele>
        <time>2012-10-16T14:35:45Z</time>
      </trkpt>
      <trkpt lat="47.09326" lon="5.49934">
        <ele>211</ele>
        <time>2012-10-16T14:35:48Z</time>
      </trkpt>
      <trkpt lat="47.09316" lon="5.49923">
        <ele>211</ele>
        <time>2012-10-16T14:35:52Z</time>
      </trkpt>
      <trkpt lat="47.0931" lon="5.49909">
        <ele>211</ele>
        <time>2012-10-16T14:35:54Z</time>
      </trkpt>
      <trkpt lat="47.09302" lon="5.49895">
        <ele>211</ele>
        <time>2012-10-16T14:35:56Z</time>
      </trkpt>
      <trkpt lat="47.09294" lon="5.49879">
        <ele>211</ele>
        <time>2012-10-16T14:35:58Z</time>
      </trkpt>
      <trkpt lat="47.09286" lon="5.49863">
        <ele>211</ele>
        <time>2012-10-16T14:36:00Z</time>
      </trkpt>
      <trkpt lat="47.09277" lon="5.49852">
        <ele>211</ele>
        <time>2012-10-16T14:36:02Z</time>
      </trkpt>
      <trkpt lat="47.09267" lon="5.49841">
        <ele>211</ele>
        <time>2012-10-16T14:36:04Z</time>
      </trkpt>
      <trkpt lat="47.09258" lon="5.49831">
        <ele>205</ele>
        <time>2012-10-16T14:36:06Z</time>
      </trkpt>
      <trkpt lat="47.09248" lon="5.49823">
        <ele>205</ele>
        <time>2012-10-16T14:36:08Z</time>
      </trkpt>
      <trkpt lat="47.09238" lon="5.49814">
        <ele>205</ele>
        <time>2012-10-16T14:36:10Z</time>
      </trkpt>
      <trkpt lat="47.09227" lon="5.49806">
        <ele>205</ele>
        <time>2012-10-16T14:36:12Z</time>
      </trkpt>
      <trkpt lat="47.09218" lon="5.49798">
        <ele>205</ele>
        <time>2012-10-16T14:36:14Z</time>
      </trkpt>
      <trkpt lat="47.09207" lon="5.4979">
        <ele>205</ele>
        <time>2012-10-16T14:36:16Z</time>
      </trkpt>
      <trkpt lat="47.09197" lon="5.49781">
        <ele>205</ele>
        <time>2012-10-16T14:36:18Z</time>
      </trkpt>
      <trkpt lat="47.09188" lon="5.49773">
        <ele>205</ele>
        <time>2012-10-16T14:36:20Z</time>
      </trkpt>
      <trkpt lat="47.09178" lon="5.49765">
        <ele>205</ele>
        <time>2012-10-16T14:36:22Z</time>
      </trkpt>
      <trkpt lat="47.09169" lon="5.49756">
        <ele>205</ele>
        <time>2012-10-16T14:36:24Z</time>
      </trkpt>
      <trkpt lat="47.09159" lon="5.49747">
        <ele>205</ele>
        <time>2012-10-16T14:36:26Z</time>
      </trkpt>
      <trkpt lat="47.0915" lon="5.4974">
        <ele>205</ele>
        <time>2012-10-16T14:36:28Z</time>
      </trkpt>
      <trkpt lat="47.09141" lon="5.49732">
        <ele>205</ele>
        <time>2012-10-16T14:36:30Z</time>
      </trkpt>
      <trkpt lat="47.09132" lon="5.49723">
        <ele>205</ele>
        <time>2012-10-16T14:36:32Z</time>
      </trkpt>
      <trkpt lat="47.09122" lon="5.49715">
        <ele>205</ele>
        <time>2012-10-16T14:36:34Z</time>
      </trkpt>
      <trkpt lat="47.09113" lon="5.49706">
        <ele>205</ele>
        <time>2012-10-16T14:36:36Z</time>
      </trkpt>
      <trkpt lat="47.09103" lon="5.49699">
        <ele>205</ele>
        <time>2012-10-16T14:36:38Z</time>
      </trkpt>
      <trkpt lat="47.09094" lon="5.49691">
        <ele>205</ele>
        <time>2012-10-16T14:36:40Z</time>
      </trkpt>
      <trkpt lat="47.09086" lon="5.49684">
        <ele>205</ele>
        <time>2012-10-16T14:36:42Z</time>
      </trkpt>
      <trkpt lat="47.09078" lon="5.49676">
        <ele>205</ele>
        <time>2012-10-16T14:36:44Z</time>
      </trkpt>
      <trkpt lat="47.09068" lon="5.49667">
        <ele>205</ele>
        <time>2012-10-16T14:36:46Z</time>
      </trkpt>
      <trkpt lat="47.09061" lon="5.49661">
        <ele>205</ele>
        <time>2012-10-16T14:36:48Z</time>
      </trkpt>
      <trkpt lat="47.09048" lon="5.49654">
        <ele>205</ele>
        <time>2012-10-16T14:36:51Z</time>
      </trkpt>
      <trkpt lat="47.09038" lon="5.49653">
        <ele>205</ele>
        <time>2012-10-16T14:36:53Z</time>
      </trkpt>
      <trkpt lat="47.09029" lon="5.49649">
        <ele>205</ele>
        <time>2012-10-16T14:36:55Z</time>
      </trkpt>
      <trkpt lat="47.09019" lon="5.49642">
        <ele>205</ele>
        <time>2012-10-16T14:36:57Z</time>
      </trkpt>
      <trkpt lat="47.09009" lon="5.49635">
        <ele>205</ele>
        <time>2012-10-16T14:36:59Z</time>
      </trkpt>
      <trkpt lat="47.09" lon="5.49628">
        <ele>205</ele>
        <time>2012-10-16T14:37:01Z</time>
      </trkpt>
      <trkpt lat="47.08991" lon="5.4962">
        <ele>205</ele>
        <time>2012-10-16T14:37:03Z</time>
      </trkpt>
      <trkpt lat="47.08981" lon="5.49612">
        <ele>205</ele>
        <time>2012-10-16T14:37:05Z</time>
      </trkpt>
      <trkpt lat="47.08972" lon="5.49605">
        <ele>205</ele>
        <time>2012-10-16T14:37:07Z</time>
      </trkpt>
      <trkpt lat="47.08964" lon="5.49598">
        <ele>205</ele>
        <time>2012-10-16T14:37:09Z</time>
      </trkpt>
      <trkpt lat="47.08955" lon="5.49593">
        <ele>205</ele>
        <time>2012-10-16T14:37:11Z</time>
      </trkpt>
      <trkpt lat="47.08947" lon="5.49584">
        <ele>205</ele>
        <time>2012-10-16T14:37:13Z</time>
      </trkpt>
      <trkpt lat="47.08939" lon="5.49572">
        <ele>205</ele>
        <time>2012-10-16T14:37:15Z</time>
      </trkpt>
      <trkpt lat="47.08931" lon="5.49559">
        <ele>205</ele>
        <time>2012-10-16T14:37:17Z</time>
      </trkpt>
      <trkpt lat="47.08924" lon="5.49545">
        <ele>205</ele>
        <time>2012-10-16T14:37:19Z</time>
      </trkpt>
      <trkpt lat="47.08916" lon="5.49532">
        <ele>205</ele>
        <time>2012-10-16T14:37:21Z</time>
      </trkpt>
      <trkpt lat="47.08911" lon="5.49517">
        <ele>205</ele>
        <time>2012-10-16T14:37:23Z</time>
      </trkpt>
      <trkpt lat="47.08908" lon="5.495">
        <ele>205</ele>
        <time>2012-10-16T14:37:25Z</time>
      </trkpt>
      <trkpt lat="47.08907" lon="5.49484">
        <ele>205</ele>
        <time>2012-10-16T14:37:27Z</time>
      </trkpt>
      <trkpt lat="47.08905" lon="5.49468">
        <ele>205</ele>
        <time>2012-10-16T14:37:29Z</time>
      </trkpt>
      <trkpt lat="47.08905" lon="5.49452">
        <ele>205</ele>
        <time>2012-10-16T14:37:31Z</time>
      </trkpt>
      <trkpt lat="47.08904" lon="5.49435">
        <ele>205</ele>
        <time>2012-10-16T14:37:33Z</time>
      </trkpt>
      <trkpt lat="47.08902" lon="5.49421">
        <ele>205</ele>
        <time>2012-10-16T14:37:35Z</time>
      </trkpt>
      <trkpt lat="47.08898" lon="5.49408">
        <ele>205</ele>
        <time>2012-10-16T14:37:37Z</time>
      </trkpt>
      <trkpt lat="47.08893" lon="5.49393">
        <ele>205</ele>
        <time>2012-10-16T14:37:39Z</time>
      </trkpt>
      <trkpt lat="47.08889" lon="5.49379">
        <ele>205</ele>
        <time>2012-10-16T14:37:41Z</time>
      </trkpt>
      <trkpt lat="47.08883" lon="5.49365">
        <ele>205</ele>
        <time>2012-10-16T14:37:43Z</time>
      </trkpt>
      <trkpt lat="47.08878" lon="5.49349">
        <ele>205</ele>
        <time>2012-10-16T14:37:45Z</time>
      </trkpt>
      <trkpt lat="47.08874" lon="5.49333">
        <ele>205</ele>
        <time>2012-10-16T14:37:47Z</time>
      </trkpt>
      <trkpt lat="47.08868" lon="5.49318">
        <ele>205</ele>
        <time>2012-10-16T14:37:49Z</time>
      </trkpt>
      <trkpt lat="47.08863" lon="5.49302">
        <ele>205</ele>
        <time>2012-10-16T14:37:51Z</time>
      </trkpt>
      <trkpt lat="47.08859" lon="5.49289">
        <ele>205</ele>
        <time>2012-10-16T14:37:53Z</time>
      </trkpt>
      <trkpt lat="47.08863" lon="5.49273">
        <ele>205</ele>
        <time>2012-10-16T14:37:56Z</time>
      </trkpt>
      <trkpt lat="47.08872" lon="5.49261">
        <ele>205</ele>
        <time>2012-10-16T14:37:59Z</time>
      </trkpt>
      <trkpt lat="47.08872" lon="5.49246">
        <ele>205</ele>
        <time>2012-10-16T14:38:01Z</time>
      </trkpt>
      <trkpt lat="47.08865" lon="5.49232">
        <ele>205</ele>
        <time>2012-10-16T14:38:03Z</time>
      </trkpt>
      <trkpt lat="47.08857" lon="5.49217">
        <ele>205</ele>
        <time>2012-10-16T14:38:05Z</time>
      </trkpt>
      <trkpt lat="47.08849" lon="5.49204">
        <ele>205</ele>
        <time>2012-10-16T14:38:07Z</time>
      </trkpt>
      <trkpt lat="47.08841" lon="5.4919">
        <ele>205</ele>
        <time>2012-10-16T14:38:09Z</time>
      </trkpt>
      <trkpt lat="47.08832" lon="5.49181">
        <ele>205</ele>
        <time>2012-10-16T14:38:11Z</time>
      </trkpt>
      <trkpt lat="47.0882" lon="5.49173">
        <ele>205</ele>
        <time>2012-10-16T14:38:13Z</time>
      </trkpt>
      <trkpt lat="47.08808" lon="5.49167">
        <ele>205</ele>
        <time>2012-10-16T14:38:15Z</time>
      </trkpt>
      <trkpt lat="47.08795" lon="5.49162">
        <ele>205</ele>
        <time>2012-10-16T14:38:17Z</time>
      </trkpt>
      <trkpt lat="47.08784" lon="5.49153">
        <ele>205</ele>
        <time>2012-10-16T14:38:19Z</time>
      </trkpt>
      <trkpt lat="47.08773" lon="5.49143">
        <ele>205</ele>
        <time>2012-10-16T14:38:21Z</time>
      </trkpt>
      <trkpt lat="47.08761" lon="5.49131">
        <ele>205</ele>
        <time>2012-10-16T14:38:23Z</time>
      </trkpt>
      <trkpt lat="47.08749" lon="5.49119">
        <ele>205</ele>
        <time>2012-10-16T14:38:25Z</time>
      </trkpt>
      <trkpt lat="47.08739" lon="5.49105">
        <ele>205</ele>
        <time>2012-10-16T14:38:27Z</time>
      </trkpt>
      <trkpt lat="47.08731" lon="5.49089">
        <ele>205</ele>
        <time>2012-10-16T14:38:29Z</time>
      </trkpt>
      <trkpt lat="47.08724" lon="5.49071">
        <ele>205</ele>
        <time>2012-10-16T14:38:31Z</time>
      </trkpt>
      <trkpt lat="47.08718" lon="5.49055">
        <ele>205</ele>
        <time>2012-10-16T14:38:33Z</time>
      </trkpt>
      <trkpt lat="47.08711" lon="5.49039">
        <ele>205</ele>
        <time>2012-10-16T14:38:35Z</time>
      </trkpt>
      <trkpt lat="47.08704" lon="5.49022">
        <ele>205</ele>
        <time>2012-10-16T14:38:37Z</time>
      </trkpt>
      <trkpt lat="47.08697" lon="5.49005">
        <ele>205</ele>
        <time>2012-10-16T14:38:39Z</time>
      </trkpt>
      <trkpt lat="47.0869" lon="5.48988">
        <ele>205</ele>
        <time>2012-10-16T14:38:41Z</time>
      </trkpt>
      <trkpt lat="47.08683" lon="5.48973">
        <ele>205</ele>
        <time>2012-10-16T14:38:43Z</time>
      </trkpt>
      <trkpt lat="47.08675" lon="5.48957">
        <ele>205</ele>
        <time>2012-10-16T14:38:45Z</time>
      </trkpt>
      <trkpt lat="47.08668" lon="5.4894">
        <ele>205</ele>
        <time>2012-10-16T14:38:47Z</time>
      </trkpt>
      <trkpt lat="47.08661" lon="5.48924">
        <ele>205</ele>
        <time>2012-10-16T14:38:49Z</time>
      </trkpt>
      <trkpt lat="47.08654" lon="5.48908">
        <ele>205</ele>
        <time>2012-10-16T14:38:51Z</time>
      </trkpt>
      <trkpt lat="47.08648" lon="5.48892">
        <ele>205</ele>
        <time>2012-10-16T14:38:53Z</time>
      </trkpt>
      <trkpt lat="47.0864" lon="5.48877">
        <ele>205</ele>
        <time>2012-10-16T14:38:55Z</time>
      </trkpt>
      <trkpt lat="47.08633" lon="5.48862">
        <ele>205</ele>
        <time>2012-10-16T14:38:57Z</time>
      </trkpt>
      <trkpt lat="47.08627" lon="5.48847">
        <ele>205</ele>
        <time>2012-10-16T14:38:59Z</time>
      </trkpt>
      <trkpt lat="47.08621" lon="5.48831">
        <ele>205</ele>
        <time>2012-10-16T14:39:01Z</time>
      </trkpt>
      <trkpt lat="47.08613" lon="5.48816">
        <ele>205</ele>
        <time>2012-10-16T14:39:03Z</time>
      </trkpt>
      <trkpt lat="47.08606" lon="5.48801">
        <ele>205</ele>
        <time>2012-10-16T14:39:05Z</time>
      </trkpt>
      <trkpt lat="47.086" lon="5.48784">
        <ele>205</ele>
        <time>2012-10-16T14:39:07Z</time>
      </trkpt>
      <trkpt lat="47.08592" lon="5.48769">
        <ele>205</ele>
        <time>2012-10-16T14:39:09Z</time>
      </trkpt>
      <trkpt lat="47.08584" lon="5.48754">
        <ele>205</ele>
        <time>2012-10-16T14:39:11Z</time>
      </trkpt>
      <trkpt lat="47.08577" lon="5.48739">
        <ele>205</ele>
        <time>2012-10-16T14:39:13Z</time>
      </trkpt>
      <trkpt lat="47.0857" lon="5.48722">
        <ele>205</ele>
        <time>2012-10-16T14:39:15Z</time>
      </trkpt>
      <trkpt lat="47.08563" lon="5.48706">
        <ele>205</ele>
        <time>2012-10-16T14:39:17Z</time>
      </trkpt>
      <trkpt lat="47.08555" lon="5.48691">
        <ele>205</ele>
        <time>2012-10-16T14:39:19Z</time>
      </trkpt>
      <trkpt lat="47.08547" lon="5.48677">
        <ele>205</ele>
        <time>2012-10-16T14:39:21Z</time>
      </trkpt>
      <trkpt lat="47.08538" lon="5.48663">
        <ele>205</ele>
        <time>2012-10-16T14:39:23Z</time>
      </trkpt>
      <trkpt lat="47.0853" lon="5.48651">
        <ele>205</ele>
        <time>2012-10-16T14:39:25Z</time>
      </trkpt>
      <trkpt lat="47.08522" lon="5.4864">
        <ele>205</ele>
        <time>2012-10-16T14:39:27Z</time>
      </trkpt>
      <trkpt lat="47.08519" lon="5.48626">
        <ele>205</ele>
        <time>2012-10-16T14:39:29Z</time>
      </trkpt>
      <trkpt lat="47.08524" lon="5.48615">
        <ele>205</ele>
        <time>2012-10-16T14:39:31Z</time>
      </trkpt>
      <trkpt lat="47.08534" lon="5.48607">
        <ele>205</ele>
        <time>2012-10-16T14:39:34Z</time>
      </trkpt>
      <trkpt lat="47.08543" lon="5.48598">
        <ele>205</ele>
        <time>2012-10-16T14:39:37Z</time>
      </trkpt>
      <trkpt lat="47.08551" lon="5.48589">
        <ele>210</ele>
        <time>2012-10-16T14:39:40Z</time>
      </trkpt>
      <trkpt lat="47.08559" lon="5.48582">
        <ele>210</ele>
        <time>2012-10-16T14:39:43Z</time>
      </trkpt>
      <trkpt lat="47.08567" lon="5.48578">
        <ele>210</ele>
        <time>2012-10-16T14:39:46Z</time>
      </trkpt>
      <trkpt lat="47.08576" lon="5.48573">
        <ele>210</ele>
        <time>2012-10-16T14:39:49Z</time>
      </trkpt>
      <trkpt lat="47.08588" lon="5.48569">
        <ele>216</ele>
        <time>2012-10-16T14:39:53Z</time>
      </trkpt>
      <trkpt lat="47.08597" lon="5.48566">
        <ele>216</ele>
        <time>2012-10-16T14:39:56Z</time>
      </trkpt>
      <trkpt lat="47.08606" lon="5.48563">
        <ele>216</ele>
        <time>2012-10-16T14:39:59Z</time>
      </trkpt>
      <trkpt lat="47.08615" lon="5.48558">
        <ele>216</ele>
        <time>2012-10-16T14:40:02Z</time>
      </trkpt>
      <trkpt lat="47.08624" lon="5.48553">
        <ele>216</ele>
        <time>2012-10-16T14:40:05Z</time>
      </trkpt>
      <trkpt lat="47.08632" lon="5.48545">
        <ele>216</ele>
        <time>2012-10-16T14:40:08Z</time>
      </trkpt>
      <trkpt lat="47.08639" lon="5.48535">
        <ele>216</ele>
        <time>2012-10-16T14:40:11Z</time>
      </trkpt>
      <trkpt lat="47.08644" lon="5.48523">
        <ele>216</ele>
        <time>2012-10-16T14:40:14Z</time>
      </trkpt>
      <trkpt lat="47.08649" lon="5.48507">
        <ele>216</ele>
        <time>2012-10-16T14:40:18Z</time>
      </trkpt>
      <trkpt lat="47.08653" lon="5.48494">
        <ele>216</ele>
        <time>2012-10-16T14:40:21Z</time>
      </trkpt>
      <trkpt lat="47.08656" lon="5.48482">
        <ele>216</ele>
        <time>2012-10-16T14:40:24Z</time>
      </trkpt>
      <trkpt lat="47.08661" lon="5.48466">
        <ele>216</ele>
        <time>2012-10-16T14:40:28Z</time>
      </trkpt>
      <trkpt lat="47.08664" lon="5.48453">
        <ele>216</ele>
        <time>2012-10-16T14:40:31Z</time>
      </trkpt>
      <trkpt lat="47.08667" lon="5.48439">
        <ele>216</ele>
        <time>2012-10-16T14:40:35Z</time>
      </trkpt>
      <trkpt lat="47.08674" lon="5.48431">
        <ele>224</ele>
        <time>2012-10-16T14:40:45Z</time>
      </trkpt>
      <trkpt lat="47.08683" lon="5.48443">
        <ele>230</ele>
        <time>2012-10-16T14:40:50Z</time>
      </trkpt>
      <trkpt lat="47.08691" lon="5.48457">
        <ele>230</ele>
        <time>2012-10-16T14:40:53Z</time>
      </trkpt>
      <trkpt lat="47.08699" lon="5.48469">
        <ele>230</ele>
        <time>2012-10-16T14:40:56Z</time>
      </trkpt>
      <trkpt lat="47.08705" lon="5.48479">
        <ele>235</ele>
        <time>2012-10-16T14:40:58Z</time>
      </trkpt>
      <trkpt lat="47.08713" lon="5.4849">
        <ele>235</ele>
        <time>2012-10-16T14:41:00Z</time>
      </trkpt>
      <trkpt lat="47.0872" lon="5.48501">
        <ele>235</ele>
        <time>2012-10-16T14:41:02Z</time>
      </trkpt>
      <trkpt lat="47.08726" lon="5.4851">
        <ele>235</ele>
        <time>2012-10-16T14:41:04Z</time>
      </trkpt>
      <trkpt lat="47.08734" lon="5.48522">
        <ele>235</ele>
        <time>2012-10-16T14:41:06Z</time>
      </trkpt>
      <trkpt lat="47.08741" lon="5.48533">
        <ele>235</ele>
        <time>2012-10-16T14:41:08Z</time>
      </trkpt>
      <trkpt lat="47.08748" lon="5.48545">
        <ele>235</ele>
        <time>2012-10-16T14:41:10Z</time>
      </trkpt>
      <trkpt lat="47.08755" lon="5.48555">
        <ele>235</ele>
        <time>2012-10-16T14:41:12Z</time>
      </trkpt>
      <trkpt lat="47.08761" lon="5.48565">
        <ele>235</ele>
        <time>2012-10-16T14:41:14Z</time>
      </trkpt>
      <trkpt lat="47.0877" lon="5.48579">
        <ele>235</ele>
        <time>2012-10-16T14:41:17Z</time>
      </trkpt>
      <trkpt lat="47.0878" lon="5.48592">
        <ele>235</ele>
        <time>2012-10-16T14:41:20Z</time>
      </trkpt>
      <trkpt lat="47.08786" lon="5.48602">
        <ele>235</ele>
        <time>2012-10-16T14:41:22Z</time>
      </trkpt>
      <trkpt lat="47.08793" lon="5.48614">
        <ele>235</ele>
        <time>2012-10-16T14:41:24Z</time>
      </trkpt>
      <trkpt lat="47.088" lon="5.48625">
        <ele>235</ele>
        <time>2012-10-16T14:41:26Z</time>
      </trkpt>
      <trkpt lat="47.08807" lon="5.48635">
        <ele>235</ele>
        <time>2012-10-16T14:41:28Z</time>
      </trkpt>
      <trkpt lat="47.08813" lon="5.48645">
        <ele>235</ele>
        <time>2012-10-16T14:41:30Z</time>
      </trkpt>
      <trkpt lat="47.0882" lon="5.48656">
        <ele>235</ele>
        <time>2012-10-16T14:41:33Z</time>
      </trkpt>
      <trkpt lat="47.08828" lon="5.48662">
        <ele>229</ele>
        <time>2012-10-16T14:41:50Z</time>
      </trkpt>
      <trkpt lat="47.08836" lon="5.48656">
        <ele>229</ele>
        <time>2012-10-16T14:41:54Z</time>
      </trkpt>
      <trkpt lat="47.08842" lon="5.48645">
        <ele>229</ele>
        <time>2012-10-16T14:41:56Z</time>
      </trkpt>
      <trkpt lat="47.0885" lon="5.48635">
        <ele>229</ele>
        <time>2012-10-16T14:41:58Z</time>
      </trkpt>
      <trkpt lat="47.08859" lon="5.48625">
        <ele>229</ele>
        <time>2012-10-16T14:42:00Z</time>
      </trkpt>
      <trkpt lat="47.08867" lon="5.48615">
        <ele>229</ele>
        <time>2012-10-16T14:42:02Z</time>
      </trkpt>
      <trkpt lat="47.08876" lon="5.48605">
        <ele>229</ele>
        <time>2012-10-16T14:42:04Z</time>
      </trkpt>
      <trkpt lat="47.08884" lon="5.48593">
        <ele>229</ele>
        <time>2012-10-16T14:42:06Z</time>
      </trkpt>
      <trkpt lat="47.08892" lon="5.48582">
        <ele>229</ele>
        <time>2012-10-16T14:42:08Z</time>
      </trkpt>
      <trkpt lat="47.08901" lon="5.48572">
        <ele>229</ele>
        <time>2012-10-16T14:42:10Z</time>
      </trkpt>
      <trkpt lat="47.08909" lon="5.48561">
        <ele>229</ele>
        <time>2012-10-16T14:42:12Z</time>
      </trkpt>
      <trkpt lat="47.08918" lon="5.4855">
        <ele>229</ele>
        <time>2012-10-16T14:42:14Z</time>
      </trkpt>
      <trkpt lat="47.08926" lon="5.4854">
        <ele>229</ele>
        <time>2012-10-16T14:42:16Z</time>
      </trkpt>
      <trkpt lat="47.08934" lon="5.48529">
        <ele>229</ele>
        <time>2012-10-16T14:42:18Z</time>
      </trkpt>
      <trkpt lat="47.08942" lon="5.4852">
        <ele>229</ele>
        <time>2012-10-16T14:42:20Z</time>
      </trkpt>
      <trkpt lat="47.08949" lon="5.48512">
        <ele>234</ele>
        <time>2012-10-16T14:42:22Z</time>
      </trkpt>
      <trkpt lat="47.08957" lon="5.48501">
        <ele>234</ele>
        <time>2012-10-16T14:42:26Z</time>
      </trkpt>
      <trkpt lat="47.08962" lon="5.48491">
        <ele>234</ele>
        <time>2012-10-16T14:42:29Z</time>
      </trkpt>
      <trkpt lat="47.0897" lon="5.48481">
        <ele>234</ele>
        <time>2012-10-16T14:42:32Z</time>
      </trkpt>
      <trkpt lat="47.08981" lon="5.48487">
        <ele>234</ele>
        <time>2012-10-16T14:42:36Z</time>
      </trkpt>
    </trkseg>
  </trk>
</gpx>